<?xml version="1.0" encoding="UTF-8" ?>
<gpx version="1.1" creator="TomTom" xmlns="http://www.topografix.com/GPX/1/1" xmlns:xsi="http://www.w3.org/2001/XMLSchema-instance" xsi:schemaLocation="http://www.topografix.com/GPX/1/1 http://www.topografix.com/GPX/1/1/gpx.xsd">
    <trk>
        <name>01 apr 11:07</name>
        <trkseg>
            <trkpt lat="44.376160" lon="7.677830">
                <time>2024-04-01T07:09:33Z</time>
            </trkpt>
            <trkpt lat="44.376160" lon="7.677830">
                <time>2024-04-01T07:09:34Z</time>
            </trkpt>
            <trkpt lat="44.376160" lon="7.677830">
                <time>2024-04-01T07:09:35Z</time>
            </trkpt>
            <trkpt lat="44.376160" lon="7.677830">
                <time>2024-04-01T07:09:36Z</time>
            </trkpt>
            <trkpt lat="44.376160" lon="7.677830">
                <time>2024-04-01T07:09:37Z</time>
            </trkpt>
            <trkpt lat="44.376160" lon="7.677830">
                <time>2024-04-01T07:09:38Z</time>
            </trkpt>
            <trkpt lat="44.376160" lon="7.677830">
                <time>2024-04-01T07:09:39Z</time>
            </trkpt>
            <trkpt lat="44.376160" lon="7.677830">
                <time>2024-04-01T07:09:40Z</time>
            </trkpt>
            <trkpt lat="44.376160" lon="7.677830">
                <time>2024-04-01T07:09:41Z</time>
            </trkpt>
            <trkpt lat="44.376160" lon="7.677830">
                <time>2024-04-01T07:09:42Z</time>
            </trkpt>
            <trkpt lat="44.376160" lon="7.677830">
                <time>2024-04-01T07:09:43Z</time>
            </trkpt>
            <trkpt lat="44.376160" lon="7.677830">
                <time>2024-04-01T07:09:44Z</time>
            </trkpt>
            <trkpt lat="44.376160" lon="7.677830">
                <time>2024-04-01T07:09:45Z</time>
            </trkpt>
            <trkpt lat="44.376160" lon="7.677830">
                <time>2024-04-01T07:09:46Z</time>
            </trkpt>
            <trkpt lat="44.376160" lon="7.677830">
                <time>2024-04-01T07:09:47Z</time>
            </trkpt>
            <trkpt lat="44.376160" lon="7.677830">
                <time>2024-04-01T07:09:48Z</time>
            </trkpt>
            <trkpt lat="44.376160" lon="7.677830">
                <time>2024-04-01T07:09:49Z</time>
            </trkpt>
            <trkpt lat="44.376160" lon="7.677830">
                <time>2024-04-01T07:09:50Z</time>
            </trkpt>
            <trkpt lat="44.376160" lon="7.677830">
                <time>2024-04-01T07:09:51Z</time>
            </trkpt>
            <trkpt lat="44.376160" lon="7.677830">
                <time>2024-04-01T07:09:52Z</time>
            </trkpt>
            <trkpt lat="44.376160" lon="7.677830">
                <time>2024-04-01T07:09:53Z</time>
            </trkpt>
            <trkpt lat="44.376160" lon="7.677830">
                <time>2024-04-01T07:09:54Z</time>
            </trkpt>
            <trkpt lat="44.376160" lon="7.677830">
                <time>2024-04-01T07:09:55Z</time>
            </trkpt>
            <trkpt lat="44.376160" lon="7.677830">
                <time>2024-04-01T07:09:56Z</time>
            </trkpt>
            <trkpt lat="44.376160" lon="7.677830">
                <time>2024-04-01T07:09:57Z</time>
            </trkpt>
            <trkpt lat="44.376160" lon="7.677830">
                <time>2024-04-01T07:09:58Z</time>
            </trkpt>
            <trkpt lat="44.376160" lon="7.677830">
                <time>2024-04-01T07:09:59Z</time>
            </trkpt>
            <trkpt lat="44.376160" lon="7.677830">
                <time>2024-04-01T07:10:00Z</time>
            </trkpt>
            <trkpt lat="44.376160" lon="7.677830">
                <time>2024-04-01T07:10:01Z</time>
            </trkpt>
            <trkpt lat="44.376160" lon="7.677830">
                <time>2024-04-01T07:10:02Z</time>
            </trkpt>
            <trkpt lat="44.376160" lon="7.677830">
                <time>2024-04-01T07:10:03Z</time>
            </trkpt>
            <trkpt lat="44.376160" lon="7.677830">
                <time>2024-04-01T07:10:04Z</time>
            </trkpt>
            <trkpt lat="44.376160" lon="7.677830">
                <time>2024-04-01T07:10:05Z</time>
            </trkpt>
            <trkpt lat="44.376160" lon="7.677830">
                <time>2024-04-01T07:10:06Z</time>
            </trkpt>
            <trkpt lat="44.376160" lon="7.677830">
                <time>2024-04-01T07:10:07Z</time>
            </trkpt>
            <trkpt lat="44.376160" lon="7.677830">
                <time>2024-04-01T07:10:08Z</time>
            </trkpt>
            <trkpt lat="44.376160" lon="7.677830">
                <time>2024-04-01T07:10:09Z</time>
            </trkpt>
            <trkpt lat="44.376160" lon="7.677830">
                <time>2024-04-01T07:10:10Z</time>
            </trkpt>
            <trkpt lat="44.376160" lon="7.677830">
                <time>2024-04-01T07:10:11Z</time>
            </trkpt>
            <trkpt lat="44.376160" lon="7.677830">
                <time>2024-04-01T07:10:12Z</time>
            </trkpt>
            <trkpt lat="44.376160" lon="7.677830">
                <time>2024-04-01T07:10:13Z</time>
            </trkpt>
            <trkpt lat="44.376160" lon="7.677830">
                <time>2024-04-01T07:10:14Z</time>
            </trkpt>
            <trkpt lat="44.376160" lon="7.677830">
                <time>2024-04-01T07:10:15Z</time>
            </trkpt>
            <trkpt lat="44.376160" lon="7.677830">
                <time>2024-04-01T07:10:16Z</time>
            </trkpt>
            <trkpt lat="44.376160" lon="7.677830">
                <time>2024-04-01T07:10:17Z</time>
            </trkpt>
            <trkpt lat="44.376160" lon="7.677830">
                <time>2024-04-01T07:10:18Z</time>
            </trkpt>
            <trkpt lat="44.376160" lon="7.677830">
                <time>2024-04-01T07:10:19Z</time>
            </trkpt>
            <trkpt lat="44.376160" lon="7.677830">
                <time>2024-04-01T07:10:20Z</time>
            </trkpt>
            <trkpt lat="44.376160" lon="7.677830">
                <time>2024-04-01T07:10:21Z</time>
            </trkpt>
            <trkpt lat="44.376160" lon="7.677830">
                <time>2024-04-01T07:10:22Z</time>
            </trkpt>
            <trkpt lat="44.376160" lon="7.677830">
                <time>2024-04-01T07:10:23Z</time>
            </trkpt>
            <trkpt lat="44.376160" lon="7.677830">
                <time>2024-04-01T07:10:24Z</time>
            </trkpt>
            <trkpt lat="44.376160" lon="7.677830">
                <time>2024-04-01T07:10:25Z</time>
            </trkpt>
            <trkpt lat="44.376160" lon="7.677830">
                <time>2024-04-01T07:10:26Z</time>
            </trkpt>
            <trkpt lat="44.376160" lon="7.677830">
                <time>2024-04-01T07:10:27Z</time>
            </trkpt>
            <trkpt lat="44.376160" lon="7.677830">
                <time>2024-04-01T07:10:28Z</time>
            </trkpt>
            <trkpt lat="44.376160" lon="7.677830">
                <time>2024-04-01T07:10:29Z</time>
            </trkpt>
            <trkpt lat="44.376160" lon="7.677830">
                <time>2024-04-01T07:10:30Z</time>
            </trkpt>
            <trkpt lat="44.376160" lon="7.677830">
                <time>2024-04-01T07:10:31Z</time>
            </trkpt>
            <trkpt lat="44.376160" lon="7.677830">
                <time>2024-04-01T07:10:32Z</time>
            </trkpt>
            <trkpt lat="44.376160" lon="7.677830">
                <time>2024-04-01T07:10:33Z</time>
            </trkpt>
            <trkpt lat="44.376160" lon="7.677830">
                <time>2024-04-01T07:10:34Z</time>
            </trkpt>
            <trkpt lat="44.376160" lon="7.677830">
                <time>2024-04-01T07:10:35Z</time>
            </trkpt>
            <trkpt lat="44.376160" lon="7.677830">
                <time>2024-04-01T07:10:36Z</time>
            </trkpt>
            <trkpt lat="44.376160" lon="7.677830">
                <time>2024-04-01T07:10:37Z</time>
            </trkpt>
            <trkpt lat="44.376160" lon="7.677830">
                <time>2024-04-01T07:10:38Z</time>
            </trkpt>
            <trkpt lat="44.376160" lon="7.677830">
                <time>2024-04-01T07:10:39Z</time>
            </trkpt>
            <trkpt lat="44.376160" lon="7.677830">
                <time>2024-04-01T07:10:40Z</time>
            </trkpt>
            <trkpt lat="44.376160" lon="7.677830">
                <time>2024-04-01T07:10:41Z</time>
            </trkpt>
            <trkpt lat="44.376160" lon="7.677830">
                <time>2024-04-01T07:10:42Z</time>
            </trkpt>
            <trkpt lat="44.376160" lon="7.677830">
                <time>2024-04-01T07:10:43Z</time>
            </trkpt>
            <trkpt lat="44.376160" lon="7.677830">
                <time>2024-04-01T07:10:44Z</time>
            </trkpt>
            <trkpt lat="44.376160" lon="7.677830">
                <time>2024-04-01T07:10:45Z</time>
            </trkpt>
            <trkpt lat="44.376160" lon="7.677830">
                <time>2024-04-01T07:10:46Z</time>
            </trkpt>
            <trkpt lat="44.376160" lon="7.677830">
                <time>2024-04-01T07:10:47Z</time>
            </trkpt>
            <trkpt lat="44.376160" lon="7.677830">
                <time>2024-04-01T07:10:48Z</time>
            </trkpt>
            <trkpt lat="44.376160" lon="7.677830">
                <time>2024-04-01T07:10:49Z</time>
            </trkpt>
            <trkpt lat="44.376160" lon="7.677830">
                <time>2024-04-01T07:10:50Z</time>
            </trkpt>
            <trkpt lat="44.376160" lon="7.677830">
                <time>2024-04-01T07:10:51Z</time>
            </trkpt>
            <trkpt lat="44.376160" lon="7.677830">
                <time>2024-04-01T07:10:52Z</time>
            </trkpt>
            <trkpt lat="44.376160" lon="7.677830">
                <time>2024-04-01T07:10:53Z</time>
            </trkpt>
            <trkpt lat="44.376160" lon="7.677830">
                <time>2024-04-01T07:10:54Z</time>
            </trkpt>
            <trkpt lat="44.376160" lon="7.677830">
                <time>2024-04-01T07:10:55Z</time>
            </trkpt>
            <trkpt lat="44.376160" lon="7.677830">
                <time>2024-04-01T07:10:56Z</time>
            </trkpt>
            <trkpt lat="44.376160" lon="7.677830">
                <time>2024-04-01T07:10:57Z</time>
            </trkpt>
            <trkpt lat="44.376160" lon="7.677830">
                <time>2024-04-01T07:10:58Z</time>
            </trkpt>
            <trkpt lat="44.376160" lon="7.677830">
                <time>2024-04-01T07:10:59Z</time>
            </trkpt>
            <trkpt lat="44.376160" lon="7.677830">
                <time>2024-04-01T07:11:00Z</time>
            </trkpt>
            <trkpt lat="44.376160" lon="7.677830">
                <time>2024-04-01T07:11:01Z</time>
            </trkpt>
            <trkpt lat="44.376160" lon="7.677830">
                <time>2024-04-01T07:11:02Z</time>
            </trkpt>
            <trkpt lat="44.376170" lon="7.677830">
                <time>2024-04-01T07:11:03Z</time>
            </trkpt>
            <trkpt lat="44.376170" lon="7.677830">
                <time>2024-04-01T07:11:04Z</time>
            </trkpt>
            <trkpt lat="44.376170" lon="7.677830">
                <time>2024-04-01T07:11:05Z</time>
            </trkpt>
            <trkpt lat="44.376170" lon="7.677830">
                <time>2024-04-01T07:11:06Z</time>
            </trkpt>
            <trkpt lat="44.376170" lon="7.677830">
                <time>2024-04-01T07:11:07Z</time>
            </trkpt>
            <trkpt lat="44.376180" lon="7.677830">
                <time>2024-04-01T07:11:08Z</time>
            </trkpt>
            <trkpt lat="44.376180" lon="7.677830">
                <time>2024-04-01T07:11:09Z</time>
            </trkpt>
            <trkpt lat="44.376180" lon="7.677820">
                <time>2024-04-01T07:11:10Z</time>
            </trkpt>
            <trkpt lat="44.376180" lon="7.677820">
                <time>2024-04-01T07:11:11Z</time>
            </trkpt>
            <trkpt lat="44.376180" lon="7.677820">
                <time>2024-04-01T07:11:12Z</time>
            </trkpt>
            <trkpt lat="44.376180" lon="7.677820">
                <time>2024-04-01T07:11:13Z</time>
            </trkpt>
            <trkpt lat="44.376180" lon="7.677820">
                <time>2024-04-01T07:11:14Z</time>
            </trkpt>
            <trkpt lat="44.376180" lon="7.677820">
                <time>2024-04-01T07:11:15Z</time>
            </trkpt>
            <trkpt lat="44.376180" lon="7.677820">
                <time>2024-04-01T07:11:16Z</time>
            </trkpt>
            <trkpt lat="44.376180" lon="7.677820">
                <time>2024-04-01T07:11:17Z</time>
            </trkpt>
            <trkpt lat="44.376180" lon="7.677820">
                <time>2024-04-01T07:11:18Z</time>
            </trkpt>
            <trkpt lat="44.376180" lon="7.677820">
                <time>2024-04-01T07:11:19Z</time>
            </trkpt>
            <trkpt lat="44.376180" lon="7.677820">
                <time>2024-04-01T07:11:20Z</time>
            </trkpt>
            <trkpt lat="44.376180" lon="7.677820">
                <time>2024-04-01T07:11:21Z</time>
            </trkpt>
            <trkpt lat="44.376180" lon="7.677820">
                <time>2024-04-01T07:11:22Z</time>
            </trkpt>
            <trkpt lat="44.376180" lon="7.677820">
                <time>2024-04-01T07:11:23Z</time>
            </trkpt>
            <trkpt lat="44.376180" lon="7.677820">
                <time>2024-04-01T07:11:24Z</time>
            </trkpt>
            <trkpt lat="44.376180" lon="7.677820">
                <time>2024-04-01T07:11:25Z</time>
            </trkpt>
            <trkpt lat="44.376180" lon="7.677820">
                <time>2024-04-01T07:11:26Z</time>
            </trkpt>
            <trkpt lat="44.376180" lon="7.677820">
                <time>2024-04-01T07:11:27Z</time>
            </trkpt>
            <trkpt lat="44.376180" lon="7.677820">
                <time>2024-04-01T07:11:28Z</time>
            </trkpt>
            <trkpt lat="44.376180" lon="7.677820">
                <time>2024-04-01T07:11:29Z</time>
            </trkpt>
            <trkpt lat="44.376180" lon="7.677820">
                <time>2024-04-01T07:11:30Z</time>
            </trkpt>
            <trkpt lat="44.376180" lon="7.677820">
                <time>2024-04-01T07:11:31Z</time>
            </trkpt>
            <trkpt lat="44.376180" lon="7.677820">
                <time>2024-04-01T07:11:32Z</time>
            </trkpt>
            <trkpt lat="44.376180" lon="7.677820">
                <time>2024-04-01T07:11:33Z</time>
            </trkpt>
            <trkpt lat="44.376180" lon="7.677820">
                <time>2024-04-01T07:11:34Z</time>
            </trkpt>
            <trkpt lat="44.376180" lon="7.677820">
                <time>2024-04-01T07:11:35Z</time>
            </trkpt>
            <trkpt lat="44.376180" lon="7.677820">
                <time>2024-04-01T07:11:36Z</time>
            </trkpt>
            <trkpt lat="44.376180" lon="7.677820">
                <time>2024-04-01T07:11:37Z</time>
            </trkpt>
            <trkpt lat="44.376180" lon="7.677820">
                <time>2024-04-01T07:11:38Z</time>
            </trkpt>
            <trkpt lat="44.376180" lon="7.677820">
                <time>2024-04-01T07:11:39Z</time>
            </trkpt>
            <trkpt lat="44.376180" lon="7.677820">
                <time>2024-04-01T07:11:40Z</time>
            </trkpt>
            <trkpt lat="44.376180" lon="7.677820">
                <time>2024-04-01T07:11:41Z</time>
            </trkpt>
            <trkpt lat="44.376180" lon="7.677820">
                <time>2024-04-01T07:11:42Z</time>
            </trkpt>
            <trkpt lat="44.376180" lon="7.677820">
                <time>2024-04-01T07:11:43Z</time>
            </trkpt>
            <trkpt lat="44.376180" lon="7.677820">
                <time>2024-04-01T07:11:44Z</time>
            </trkpt>
            <trkpt lat="44.376180" lon="7.677820">
                <time>2024-04-01T07:11:45Z</time>
            </trkpt>
            <trkpt lat="44.376180" lon="7.677820">
                <time>2024-04-01T07:11:46Z</time>
            </trkpt>
            <trkpt lat="44.376180" lon="7.677820">
                <time>2024-04-01T07:11:47Z</time>
            </trkpt>
            <trkpt lat="44.376180" lon="7.677820">
                <time>2024-04-01T07:11:48Z</time>
            </trkpt>
            <trkpt lat="44.376180" lon="7.677820">
                <time>2024-04-01T07:11:49Z</time>
            </trkpt>
            <trkpt lat="44.376180" lon="7.677820">
                <time>2024-04-01T07:11:50Z</time>
            </trkpt>
            <trkpt lat="44.376180" lon="7.677820">
                <time>2024-04-01T07:11:51Z</time>
            </trkpt>
            <trkpt lat="44.376180" lon="7.677820">
                <time>2024-04-01T07:11:52Z</time>
            </trkpt>
            <trkpt lat="44.376180" lon="7.677820">
                <time>2024-04-01T07:11:53Z</time>
            </trkpt>
            <trkpt lat="44.376180" lon="7.677820">
                <time>2024-04-01T07:11:54Z</time>
            </trkpt>
            <trkpt lat="44.376180" lon="7.677820">
                <time>2024-04-01T07:11:55Z</time>
            </trkpt>
            <trkpt lat="44.376180" lon="7.677820">
                <time>2024-04-01T07:11:56Z</time>
            </trkpt>
            <trkpt lat="44.376180" lon="7.677820">
                <time>2024-04-01T07:11:57Z</time>
            </trkpt>
            <trkpt lat="44.376180" lon="7.677820">
                <time>2024-04-01T07:11:58Z</time>
            </trkpt>
            <trkpt lat="44.376180" lon="7.677820">
                <time>2024-04-01T07:11:59Z</time>
            </trkpt>
            <trkpt lat="44.376180" lon="7.677820">
                <time>2024-04-01T07:12:00Z</time>
            </trkpt>
            <trkpt lat="44.376180" lon="7.677820">
                <time>2024-04-01T07:12:01Z</time>
            </trkpt>
            <trkpt lat="44.376180" lon="7.677820">
                <time>2024-04-01T07:12:02Z</time>
            </trkpt>
            <trkpt lat="44.376180" lon="7.677820">
                <time>2024-04-01T07:12:03Z</time>
            </trkpt>
            <trkpt lat="44.376180" lon="7.677820">
                <time>2024-04-01T07:12:04Z</time>
            </trkpt>
            <trkpt lat="44.376180" lon="7.677820">
                <time>2024-04-01T07:12:05Z</time>
            </trkpt>
            <trkpt lat="44.376180" lon="7.677820">
                <time>2024-04-01T07:12:06Z</time>
            </trkpt>
            <trkpt lat="44.376180" lon="7.677820">
                <time>2024-04-01T07:12:07Z</time>
            </trkpt>
            <trkpt lat="44.376180" lon="7.677820">
                <time>2024-04-01T07:12:08Z</time>
            </trkpt>
            <trkpt lat="44.376180" lon="7.677820">
                <time>2024-04-01T07:12:09Z</time>
            </trkpt>
            <trkpt lat="44.376180" lon="7.677820">
                <time>2024-04-01T07:12:10Z</time>
            </trkpt>
            <trkpt lat="44.376180" lon="7.677820">
                <time>2024-04-01T07:12:11Z</time>
            </trkpt>
            <trkpt lat="44.376180" lon="7.677820">
                <time>2024-04-01T07:12:12Z</time>
            </trkpt>
            <trkpt lat="44.376180" lon="7.677820">
                <time>2024-04-01T07:12:13Z</time>
            </trkpt>
            <trkpt lat="44.376180" lon="7.677820">
                <time>2024-04-01T07:12:14Z</time>
            </trkpt>
            <trkpt lat="44.376180" lon="7.677820">
                <time>2024-04-01T07:12:15Z</time>
            </trkpt>
            <trkpt lat="44.376180" lon="7.677820">
                <time>2024-04-01T07:12:16Z</time>
            </trkpt>
            <trkpt lat="44.376180" lon="7.677820">
                <time>2024-04-01T07:12:17Z</time>
            </trkpt>
            <trkpt lat="44.376180" lon="7.677820">
                <time>2024-04-01T07:12:18Z</time>
            </trkpt>
            <trkpt lat="44.376180" lon="7.677820">
                <time>2024-04-01T07:12:19Z</time>
            </trkpt>
            <trkpt lat="44.376180" lon="7.677820">
                <time>2024-04-01T07:12:20Z</time>
            </trkpt>
            <trkpt lat="44.376180" lon="7.677820">
                <time>2024-04-01T07:12:21Z</time>
            </trkpt>
            <trkpt lat="44.376180" lon="7.677820">
                <time>2024-04-01T07:12:22Z</time>
            </trkpt>
            <trkpt lat="44.376180" lon="7.677820">
                <time>2024-04-01T07:12:23Z</time>
            </trkpt>
            <trkpt lat="44.376180" lon="7.677820">
                <time>2024-04-01T07:12:24Z</time>
            </trkpt>
            <trkpt lat="44.376180" lon="7.677820">
                <time>2024-04-01T07:12:25Z</time>
            </trkpt>
            <trkpt lat="44.376180" lon="7.677820">
                <time>2024-04-01T07:12:26Z</time>
            </trkpt>
            <trkpt lat="44.376180" lon="7.677820">
                <time>2024-04-01T07:12:27Z</time>
            </trkpt>
            <trkpt lat="44.376180" lon="7.677820">
                <time>2024-04-01T07:12:28Z</time>
            </trkpt>
            <trkpt lat="44.376180" lon="7.677820">
                <time>2024-04-01T07:12:29Z</time>
            </trkpt>
            <trkpt lat="44.376180" lon="7.677820">
                <time>2024-04-01T07:12:30Z</time>
            </trkpt>
            <trkpt lat="44.376180" lon="7.677820">
                <time>2024-04-01T07:12:31Z</time>
            </trkpt>
            <trkpt lat="44.376180" lon="7.677820">
                <time>2024-04-01T07:12:32Z</time>
            </trkpt>
            <trkpt lat="44.376180" lon="7.677820">
                <time>2024-04-01T07:12:33Z</time>
            </trkpt>
            <trkpt lat="44.376180" lon="7.677820">
                <time>2024-04-01T07:12:34Z</time>
            </trkpt>
            <trkpt lat="44.376180" lon="7.677820">
                <time>2024-04-01T07:12:35Z</time>
            </trkpt>
            <trkpt lat="44.376180" lon="7.677820">
                <time>2024-04-01T07:12:36Z</time>
            </trkpt>
            <trkpt lat="44.376180" lon="7.677820">
                <time>2024-04-01T07:12:37Z</time>
            </trkpt>
            <trkpt lat="44.376180" lon="7.677820">
                <time>2024-04-01T07:12:38Z</time>
            </trkpt>
            <trkpt lat="44.376180" lon="7.677820">
                <time>2024-04-01T07:12:39Z</time>
            </trkpt>
            <trkpt lat="44.376180" lon="7.677820">
                <time>2024-04-01T07:12:40Z</time>
            </trkpt>
            <trkpt lat="44.376180" lon="7.677820">
                <time>2024-04-01T07:12:41Z</time>
            </trkpt>
            <trkpt lat="44.376180" lon="7.677820">
                <time>2024-04-01T07:12:42Z</time>
            </trkpt>
            <trkpt lat="44.376180" lon="7.677820">
                <time>2024-04-01T07:12:43Z</time>
            </trkpt>
            <trkpt lat="44.376180" lon="7.677820">
                <time>2024-04-01T07:12:44Z</time>
            </trkpt>
            <trkpt lat="44.376180" lon="7.677820">
                <time>2024-04-01T07:12:45Z</time>
            </trkpt>
            <trkpt lat="44.376180" lon="7.677820">
                <time>2024-04-01T07:12:46Z</time>
            </trkpt>
            <trkpt lat="44.376180" lon="7.677820">
                <time>2024-04-01T07:12:47Z</time>
            </trkpt>
            <trkpt lat="44.376180" lon="7.677820">
                <time>2024-04-01T07:12:48Z</time>
            </trkpt>
            <trkpt lat="44.376180" lon="7.677820">
                <time>2024-04-01T07:12:49Z</time>
            </trkpt>
            <trkpt lat="44.376180" lon="7.677820">
                <time>2024-04-01T07:12:50Z</time>
            </trkpt>
            <trkpt lat="44.376180" lon="7.677820">
                <time>2024-04-01T07:12:51Z</time>
            </trkpt>
            <trkpt lat="44.376180" lon="7.677820">
                <time>2024-04-01T07:12:52Z</time>
            </trkpt>
            <trkpt lat="44.376180" lon="7.677820">
                <time>2024-04-01T07:12:53Z</time>
            </trkpt>
            <trkpt lat="44.376180" lon="7.677820">
                <time>2024-04-01T07:12:54Z</time>
            </trkpt>
            <trkpt lat="44.376180" lon="7.677820">
                <time>2024-04-01T07:12:55Z</time>
            </trkpt>
            <trkpt lat="44.376180" lon="7.677820">
                <time>2024-04-01T07:12:56Z</time>
            </trkpt>
            <trkpt lat="44.376180" lon="7.677820">
                <time>2024-04-01T07:12:57Z</time>
            </trkpt>
            <trkpt lat="44.376180" lon="7.677820">
                <time>2024-04-01T07:12:58Z</time>
            </trkpt>
            <trkpt lat="44.376180" lon="7.677820">
                <time>2024-04-01T07:12:59Z</time>
            </trkpt>
            <trkpt lat="44.376180" lon="7.677820">
                <time>2024-04-01T07:13:00Z</time>
            </trkpt>
            <trkpt lat="44.376180" lon="7.677820">
                <time>2024-04-01T07:13:01Z</time>
            </trkpt>
            <trkpt lat="44.376180" lon="7.677820">
                <time>2024-04-01T07:13:02Z</time>
            </trkpt>
            <trkpt lat="44.376180" lon="7.677820">
                <time>2024-04-01T07:13:03Z</time>
            </trkpt>
            <trkpt lat="44.376180" lon="7.677820">
                <time>2024-04-01T07:13:04Z</time>
            </trkpt>
            <trkpt lat="44.376180" lon="7.677820">
                <time>2024-04-01T07:13:05Z</time>
            </trkpt>
            <trkpt lat="44.376180" lon="7.677820">
                <time>2024-04-01T07:13:06Z</time>
            </trkpt>
            <trkpt lat="44.376180" lon="7.677820">
                <time>2024-04-01T07:13:07Z</time>
            </trkpt>
            <trkpt lat="44.376180" lon="7.677820">
                <time>2024-04-01T07:13:08Z</time>
            </trkpt>
            <trkpt lat="44.376180" lon="7.677820">
                <time>2024-04-01T07:13:09Z</time>
            </trkpt>
            <trkpt lat="44.376180" lon="7.677820">
                <time>2024-04-01T07:13:10Z</time>
            </trkpt>
            <trkpt lat="44.376180" lon="7.677820">
                <time>2024-04-01T07:13:11Z</time>
            </trkpt>
            <trkpt lat="44.376180" lon="7.677820">
                <time>2024-04-01T07:13:12Z</time>
            </trkpt>
            <trkpt lat="44.376180" lon="7.677820">
                <time>2024-04-01T07:13:13Z</time>
            </trkpt>
            <trkpt lat="44.376180" lon="7.677820">
                <time>2024-04-01T07:13:14Z</time>
            </trkpt>
            <trkpt lat="44.376180" lon="7.677820">
                <time>2024-04-01T07:13:15Z</time>
            </trkpt>
            <trkpt lat="44.376180" lon="7.677820">
                <time>2024-04-01T07:13:16Z</time>
            </trkpt>
            <trkpt lat="44.376180" lon="7.677820">
                <time>2024-04-01T07:13:17Z</time>
            </trkpt>
            <trkpt lat="44.376180" lon="7.677820">
                <time>2024-04-01T07:13:18Z</time>
            </trkpt>
            <trkpt lat="44.376180" lon="7.677820">
                <time>2024-04-01T07:13:19Z</time>
            </trkpt>
            <trkpt lat="44.376180" lon="7.677820">
                <time>2024-04-01T07:13:20Z</time>
            </trkpt>
            <trkpt lat="44.376180" lon="7.677820">
                <time>2024-04-01T07:13:21Z</time>
            </trkpt>
            <trkpt lat="44.376180" lon="7.677820">
                <time>2024-04-01T07:13:22Z</time>
            </trkpt>
            <trkpt lat="44.376180" lon="7.677820">
                <time>2024-04-01T07:13:23Z</time>
            </trkpt>
            <trkpt lat="44.376180" lon="7.677820">
                <time>2024-04-01T07:13:24Z</time>
            </trkpt>
            <trkpt lat="44.376180" lon="7.677820">
                <time>2024-04-01T07:13:25Z</time>
            </trkpt>
            <trkpt lat="44.376180" lon="7.677820">
                <time>2024-04-01T07:13:26Z</time>
            </trkpt>
            <trkpt lat="44.376180" lon="7.677820">
                <time>2024-04-01T07:13:27Z</time>
            </trkpt>
            <trkpt lat="44.376180" lon="7.677820">
                <time>2024-04-01T07:13:28Z</time>
            </trkpt>
            <trkpt lat="44.376180" lon="7.677820">
                <time>2024-04-01T07:13:29Z</time>
            </trkpt>
            <trkpt lat="44.376180" lon="7.677820">
                <time>2024-04-01T07:13:30Z</time>
            </trkpt>
            <trkpt lat="44.376180" lon="7.677820">
                <time>2024-04-01T07:13:31Z</time>
            </trkpt>
            <trkpt lat="44.376180" lon="7.677820">
                <time>2024-04-01T07:13:32Z</time>
            </trkpt>
            <trkpt lat="44.376180" lon="7.677820">
                <time>2024-04-01T07:13:33Z</time>
            </trkpt>
            <trkpt lat="44.376180" lon="7.677820">
                <time>2024-04-01T07:13:34Z</time>
            </trkpt>
            <trkpt lat="44.376180" lon="7.677820">
                <time>2024-04-01T07:13:35Z</time>
            </trkpt>
            <trkpt lat="44.376180" lon="7.677820">
                <time>2024-04-01T07:13:36Z</time>
            </trkpt>
            <trkpt lat="44.376180" lon="7.677820">
                <time>2024-04-01T07:13:37Z</time>
            </trkpt>
            <trkpt lat="44.376180" lon="7.677820">
                <time>2024-04-01T07:13:38Z</time>
            </trkpt>
            <trkpt lat="44.376180" lon="7.677820">
                <time>2024-04-01T07:13:39Z</time>
            </trkpt>
            <trkpt lat="44.376180" lon="7.677820">
                <time>2024-04-01T07:13:40Z</time>
            </trkpt>
            <trkpt lat="44.376180" lon="7.677820">
                <time>2024-04-01T07:13:41Z</time>
            </trkpt>
            <trkpt lat="44.376180" lon="7.677820">
                <time>2024-04-01T07:13:42Z</time>
            </trkpt>
            <trkpt lat="44.376180" lon="7.677820">
                <time>2024-04-01T07:13:43Z</time>
            </trkpt>
            <trkpt lat="44.376180" lon="7.677820">
                <time>2024-04-01T07:13:44Z</time>
            </trkpt>
            <trkpt lat="44.376180" lon="7.677820">
                <time>2024-04-01T07:13:45Z</time>
            </trkpt>
            <trkpt lat="44.376180" lon="7.677820">
                <time>2024-04-01T07:13:46Z</time>
            </trkpt>
            <trkpt lat="44.376180" lon="7.677820">
                <time>2024-04-01T07:13:47Z</time>
            </trkpt>
            <trkpt lat="44.376180" lon="7.677820">
                <time>2024-04-01T07:13:48Z</time>
            </trkpt>
            <trkpt lat="44.376180" lon="7.677820">
                <time>2024-04-01T07:13:49Z</time>
            </trkpt>
            <trkpt lat="44.376180" lon="7.677820">
                <time>2024-04-01T07:13:50Z</time>
            </trkpt>
            <trkpt lat="44.376180" lon="7.677820">
                <time>2024-04-01T07:13:51Z</time>
            </trkpt>
            <trkpt lat="44.376180" lon="7.677820">
                <time>2024-04-01T07:13:52Z</time>
            </trkpt>
            <trkpt lat="44.376180" lon="7.677820">
                <time>2024-04-01T07:13:53Z</time>
            </trkpt>
            <trkpt lat="44.376180" lon="7.677820">
                <time>2024-04-01T07:13:54Z</time>
            </trkpt>
            <trkpt lat="44.376180" lon="7.677820">
                <time>2024-04-01T07:13:55Z</time>
            </trkpt>
            <trkpt lat="44.376180" lon="7.677820">
                <time>2024-04-01T07:13:56Z</time>
            </trkpt>
            <trkpt lat="44.376180" lon="7.677820">
                <time>2024-04-01T07:13:57Z</time>
            </trkpt>
            <trkpt lat="44.376180" lon="7.677820">
                <time>2024-04-01T07:13:58Z</time>
            </trkpt>
            <trkpt lat="44.376180" lon="7.677820">
                <time>2024-04-01T07:13:59Z</time>
            </trkpt>
            <trkpt lat="44.376180" lon="7.677820">
                <time>2024-04-01T07:14:00Z</time>
            </trkpt>
            <trkpt lat="44.376180" lon="7.677820">
                <time>2024-04-01T07:14:01Z</time>
            </trkpt>
            <trkpt lat="44.376180" lon="7.677820">
                <time>2024-04-01T07:14:02Z</time>
            </trkpt>
            <trkpt lat="44.376180" lon="7.677820">
                <time>2024-04-01T07:14:03Z</time>
            </trkpt>
            <trkpt lat="44.376180" lon="7.677820">
                <time>2024-04-01T07:14:04Z</time>
            </trkpt>
            <trkpt lat="44.376180" lon="7.677820">
                <time>2024-04-01T07:14:05Z</time>
            </trkpt>
            <trkpt lat="44.376180" lon="7.677820">
                <time>2024-04-01T07:14:06Z</time>
            </trkpt>
            <trkpt lat="44.376180" lon="7.677820">
                <time>2024-04-01T07:14:07Z</time>
            </trkpt>
            <trkpt lat="44.376180" lon="7.677820">
                <time>2024-04-01T07:14:08Z</time>
            </trkpt>
            <trkpt lat="44.376180" lon="7.677810">
                <time>2024-04-01T07:14:09Z</time>
            </trkpt>
            <trkpt lat="44.376200" lon="7.677800">
                <time>2024-04-01T07:14:10Z</time>
            </trkpt>
            <trkpt lat="44.376220" lon="7.677800">
                <time>2024-04-01T07:14:11Z</time>
            </trkpt>
            <trkpt lat="44.376240" lon="7.677810">
                <time>2024-04-01T07:14:12Z</time>
            </trkpt>
            <trkpt lat="44.376270" lon="7.677890">
                <time>2024-04-01T07:14:13Z</time>
            </trkpt>
            <trkpt lat="44.376290" lon="7.677980">
                <time>2024-04-01T07:14:14Z</time>
            </trkpt>
            <trkpt lat="44.376320" lon="7.678070">
                <time>2024-04-01T07:14:15Z</time>
            </trkpt>
            <trkpt lat="44.376350" lon="7.678170">
                <time>2024-04-01T07:14:16Z</time>
            </trkpt>
            <trkpt lat="44.376390" lon="7.678290">
                <time>2024-04-01T07:14:17Z</time>
            </trkpt>
            <trkpt lat="44.376430" lon="7.678420">
                <time>2024-04-01T07:14:18Z</time>
            </trkpt>
            <trkpt lat="44.376480" lon="7.678550">
                <time>2024-04-01T07:14:19Z</time>
            </trkpt>
            <trkpt lat="44.376520" lon="7.678690">
                <time>2024-04-01T07:14:20Z</time>
            </trkpt>
            <trkpt lat="44.376570" lon="7.678840">
                <time>2024-04-01T07:14:21Z</time>
            </trkpt>
            <trkpt lat="44.376620" lon="7.679000">
                <time>2024-04-01T07:14:22Z</time>
            </trkpt>
            <trkpt lat="44.376660" lon="7.679170">
                <time>2024-04-01T07:14:23Z</time>
            </trkpt>
            <trkpt lat="44.376720" lon="7.679340">
                <time>2024-04-01T07:14:24Z</time>
            </trkpt>
            <trkpt lat="44.376770" lon="7.679510">
                <time>2024-04-01T07:14:25Z</time>
            </trkpt>
            <trkpt lat="44.376830" lon="7.679700">
                <time>2024-04-01T07:14:26Z</time>
            </trkpt>
            <trkpt lat="44.376880" lon="7.679890">
                <time>2024-04-01T07:14:27Z</time>
            </trkpt>
            <trkpt lat="44.376940" lon="7.680080">
                <time>2024-04-01T07:14:28Z</time>
            </trkpt>
            <trkpt lat="44.377000" lon="7.680280">
                <time>2024-04-01T07:14:29Z</time>
            </trkpt>
            <trkpt lat="44.377060" lon="7.680480">
                <time>2024-04-01T07:14:30Z</time>
            </trkpt>
            <trkpt lat="44.377120" lon="7.680670">
                <time>2024-04-01T07:14:31Z</time>
            </trkpt>
            <trkpt lat="44.377170" lon="7.680880">
                <time>2024-04-01T07:14:32Z</time>
            </trkpt>
            <trkpt lat="44.377230" lon="7.681080">
                <time>2024-04-01T07:14:33Z</time>
            </trkpt>
            <trkpt lat="44.377270" lon="7.681280">
                <time>2024-04-01T07:14:34Z</time>
            </trkpt>
            <trkpt lat="44.377320" lon="7.681480">
                <time>2024-04-01T07:14:35Z</time>
            </trkpt>
            <trkpt lat="44.377350" lon="7.681690">
                <time>2024-04-01T07:14:36Z</time>
            </trkpt>
            <trkpt lat="44.377380" lon="7.681910">
                <time>2024-04-01T07:14:37Z</time>
            </trkpt>
            <trkpt lat="44.377400" lon="7.682110">
                <time>2024-04-01T07:14:38Z</time>
            </trkpt>
            <trkpt lat="44.377420" lon="7.682330">
                <time>2024-04-01T07:14:39Z</time>
            </trkpt>
            <trkpt lat="44.377430" lon="7.682540">
                <time>2024-04-01T07:14:40Z</time>
            </trkpt>
            <trkpt lat="44.377440" lon="7.682750">
                <time>2024-04-01T07:14:41Z</time>
            </trkpt>
            <trkpt lat="44.377440" lon="7.682970">
                <time>2024-04-01T07:14:42Z</time>
            </trkpt>
            <trkpt lat="44.377440" lon="7.683180">
                <time>2024-04-01T07:14:43Z</time>
            </trkpt>
            <trkpt lat="44.377430" lon="7.683400">
                <time>2024-04-01T07:14:44Z</time>
            </trkpt>
            <trkpt lat="44.377420" lon="7.683620">
                <time>2024-04-01T07:14:45Z</time>
            </trkpt>
            <trkpt lat="44.377400" lon="7.683830">
                <time>2024-04-01T07:14:46Z</time>
            </trkpt>
            <trkpt lat="44.377380" lon="7.684050">
                <time>2024-04-01T07:14:47Z</time>
            </trkpt>
            <trkpt lat="44.377370" lon="7.684250">
                <time>2024-04-01T07:14:48Z</time>
            </trkpt>
            <trkpt lat="44.377360" lon="7.684440">
                <time>2024-04-01T07:14:49Z</time>
            </trkpt>
            <trkpt lat="44.377340" lon="7.684620">
                <time>2024-04-01T07:14:50Z</time>
            </trkpt>
            <trkpt lat="44.377330" lon="7.684790">
                <time>2024-04-01T07:14:51Z</time>
            </trkpt>
            <trkpt lat="44.377310" lon="7.684930">
                <time>2024-04-01T07:14:52Z</time>
            </trkpt>
            <trkpt lat="44.377280" lon="7.685060">
                <time>2024-04-01T07:14:53Z</time>
            </trkpt>
            <trkpt lat="44.377240" lon="7.685180">
                <time>2024-04-01T07:14:54Z</time>
            </trkpt>
            <trkpt lat="44.377220" lon="7.685300">
                <time>2024-04-01T07:14:55Z</time>
            </trkpt>
            <trkpt lat="44.377210" lon="7.685410">
                <time>2024-04-01T07:14:56Z</time>
            </trkpt>
            <trkpt lat="44.377220" lon="7.685530">
                <time>2024-04-01T07:14:57Z</time>
            </trkpt>
            <trkpt lat="44.377230" lon="7.685650">
                <time>2024-04-01T07:14:58Z</time>
            </trkpt>
            <trkpt lat="44.377230" lon="7.685790">
                <time>2024-04-01T07:14:59Z</time>
            </trkpt>
            <trkpt lat="44.377230" lon="7.685940">
                <time>2024-04-01T07:15:00Z</time>
            </trkpt>
            <trkpt lat="44.377220" lon="7.686100">
                <time>2024-04-01T07:15:01Z</time>
            </trkpt>
            <trkpt lat="44.377210" lon="7.686260">
                <time>2024-04-01T07:15:02Z</time>
            </trkpt>
            <trkpt lat="44.377190" lon="7.686430">
                <time>2024-04-01T07:15:03Z</time>
            </trkpt>
            <trkpt lat="44.377180" lon="7.686610">
                <time>2024-04-01T07:15:04Z</time>
            </trkpt>
            <trkpt lat="44.377160" lon="7.686790">
                <time>2024-04-01T07:15:05Z</time>
            </trkpt>
            <trkpt lat="44.377150" lon="7.686980">
                <time>2024-04-01T07:15:06Z</time>
            </trkpt>
            <trkpt lat="44.377140" lon="7.687180">
                <time>2024-04-01T07:15:07Z</time>
            </trkpt>
            <trkpt lat="44.377120" lon="7.687370">
                <time>2024-04-01T07:15:08Z</time>
            </trkpt>
            <trkpt lat="44.377110" lon="7.687580">
                <time>2024-04-01T07:15:09Z</time>
            </trkpt>
            <trkpt lat="44.377090" lon="7.687780">
                <time>2024-04-01T07:15:10Z</time>
            </trkpt>
            <trkpt lat="44.377070" lon="7.688000">
                <time>2024-04-01T07:15:11Z</time>
            </trkpt>
            <trkpt lat="44.377050" lon="7.688210">
                <time>2024-04-01T07:15:12Z</time>
            </trkpt>
            <trkpt lat="44.377030" lon="7.688420">
                <time>2024-04-01T07:15:13Z</time>
            </trkpt>
            <trkpt lat="44.377020" lon="7.688640">
                <time>2024-04-01T07:15:14Z</time>
            </trkpt>
            <trkpt lat="44.377010" lon="7.688860">
                <time>2024-04-01T07:15:15Z</time>
            </trkpt>
            <trkpt lat="44.376990" lon="7.689070">
                <time>2024-04-01T07:15:16Z</time>
            </trkpt>
            <trkpt lat="44.376970" lon="7.689290">
                <time>2024-04-01T07:15:17Z</time>
            </trkpt>
            <trkpt lat="44.376960" lon="7.689510">
                <time>2024-04-01T07:15:18Z</time>
            </trkpt>
            <trkpt lat="44.376940" lon="7.689730">
                <time>2024-04-01T07:15:19Z</time>
            </trkpt>
            <trkpt lat="44.376920" lon="7.689950">
                <time>2024-04-01T07:15:20Z</time>
            </trkpt>
            <trkpt lat="44.376900" lon="7.690170">
                <time>2024-04-01T07:15:21Z</time>
            </trkpt>
            <trkpt lat="44.376890" lon="7.690390">
                <time>2024-04-01T07:15:22Z</time>
            </trkpt>
            <trkpt lat="44.376870" lon="7.690610">
                <time>2024-04-01T07:15:23Z</time>
            </trkpt>
            <trkpt lat="44.376850" lon="7.690840">
                <time>2024-04-01T07:15:24Z</time>
            </trkpt>
            <trkpt lat="44.376830" lon="7.691070">
                <time>2024-04-01T07:15:25Z</time>
            </trkpt>
            <trkpt lat="44.376820" lon="7.691320">
                <time>2024-04-01T07:15:26Z</time>
            </trkpt>
            <trkpt lat="44.376800" lon="7.691560">
                <time>2024-04-01T07:15:27Z</time>
            </trkpt>
            <trkpt lat="44.376780" lon="7.691810">
                <time>2024-04-01T07:15:28Z</time>
            </trkpt>
            <trkpt lat="44.376750" lon="7.692070">
                <time>2024-04-01T07:15:29Z</time>
            </trkpt>
            <trkpt lat="44.376740" lon="7.692320">
                <time>2024-04-01T07:15:30Z</time>
            </trkpt>
            <trkpt lat="44.376720" lon="7.692570">
                <time>2024-04-01T07:15:31Z</time>
            </trkpt>
            <trkpt lat="44.376700" lon="7.692820">
                <time>2024-04-01T07:15:32Z</time>
            </trkpt>
            <trkpt lat="44.376680" lon="7.693080">
                <time>2024-04-01T07:15:33Z</time>
            </trkpt>
            <trkpt lat="44.376660" lon="7.693330">
                <time>2024-04-01T07:15:34Z</time>
            </trkpt>
            <trkpt lat="44.376640" lon="7.693580">
                <time>2024-04-01T07:15:35Z</time>
            </trkpt>
            <trkpt lat="44.376620" lon="7.693830">
                <time>2024-04-01T07:15:36Z</time>
            </trkpt>
            <trkpt lat="44.376600" lon="7.694070">
                <time>2024-04-01T07:15:37Z</time>
            </trkpt>
            <trkpt lat="44.376590" lon="7.694300">
                <time>2024-04-01T07:15:38Z</time>
            </trkpt>
            <trkpt lat="44.376570" lon="7.694530">
                <time>2024-04-01T07:15:39Z</time>
            </trkpt>
            <trkpt lat="44.376550" lon="7.694760">
                <time>2024-04-01T07:15:40Z</time>
            </trkpt>
            <trkpt lat="44.376530" lon="7.694990">
                <time>2024-04-01T07:15:41Z</time>
            </trkpt>
            <trkpt lat="44.376510" lon="7.695220">
                <time>2024-04-01T07:15:42Z</time>
            </trkpt>
            <trkpt lat="44.376490" lon="7.695450">
                <time>2024-04-01T07:15:43Z</time>
            </trkpt>
            <trkpt lat="44.376480" lon="7.695680">
                <time>2024-04-01T07:15:44Z</time>
            </trkpt>
            <trkpt lat="44.376460" lon="7.695900">
                <time>2024-04-01T07:15:45Z</time>
            </trkpt>
            <trkpt lat="44.376450" lon="7.696100">
                <time>2024-04-01T07:15:46Z</time>
            </trkpt>
            <trkpt lat="44.376440" lon="7.696300">
                <time>2024-04-01T07:15:47Z</time>
            </trkpt>
            <trkpt lat="44.376440" lon="7.696510">
                <time>2024-04-01T07:15:48Z</time>
            </trkpt>
            <trkpt lat="44.376430" lon="7.696710">
                <time>2024-04-01T07:15:49Z</time>
            </trkpt>
            <trkpt lat="44.376440" lon="7.696920">
                <time>2024-04-01T07:15:50Z</time>
            </trkpt>
            <trkpt lat="44.376460" lon="7.697110">
                <time>2024-04-01T07:15:51Z</time>
            </trkpt>
            <trkpt lat="44.376480" lon="7.697290">
                <time>2024-04-01T07:15:52Z</time>
            </trkpt>
            <trkpt lat="44.376510" lon="7.697450">
                <time>2024-04-01T07:15:53Z</time>
            </trkpt>
            <trkpt lat="44.376540" lon="7.697590">
                <time>2024-04-01T07:15:54Z</time>
            </trkpt>
            <trkpt lat="44.376560" lon="7.697730">
                <time>2024-04-01T07:15:55Z</time>
            </trkpt>
            <trkpt lat="44.376580" lon="7.697860">
                <time>2024-04-01T07:15:56Z</time>
            </trkpt>
            <trkpt lat="44.376570" lon="7.697990">
                <time>2024-04-01T07:15:57Z</time>
            </trkpt>
            <trkpt lat="44.376560" lon="7.698120">
                <time>2024-04-01T07:15:58Z</time>
            </trkpt>
            <trkpt lat="44.376530" lon="7.698260">
                <time>2024-04-01T07:15:59Z</time>
            </trkpt>
            <trkpt lat="44.376510" lon="7.698420">
                <time>2024-04-01T07:16:00Z</time>
            </trkpt>
            <trkpt lat="44.376480" lon="7.698560">
                <time>2024-04-01T07:16:01Z</time>
            </trkpt>
            <trkpt lat="44.376440" lon="7.698690">
                <time>2024-04-01T07:16:02Z</time>
            </trkpt>
            <trkpt lat="44.376390" lon="7.698810">
                <time>2024-04-01T07:16:03Z</time>
            </trkpt>
            <trkpt lat="44.376330" lon="7.698930">
                <time>2024-04-01T07:16:04Z</time>
            </trkpt>
            <trkpt lat="44.376270" lon="7.699060">
                <time>2024-04-01T07:16:05Z</time>
            </trkpt>
            <trkpt lat="44.376230" lon="7.699200">
                <time>2024-04-01T07:16:06Z</time>
            </trkpt>
            <trkpt lat="44.376200" lon="7.699340">
                <time>2024-04-01T07:16:07Z</time>
            </trkpt>
            <trkpt lat="44.376180" lon="7.699490">
                <time>2024-04-01T07:16:08Z</time>
            </trkpt>
            <trkpt lat="44.376170" lon="7.699640">
                <time>2024-04-01T07:16:09Z</time>
            </trkpt>
            <trkpt lat="44.376170" lon="7.699800">
                <time>2024-04-01T07:16:10Z</time>
            </trkpt>
            <trkpt lat="44.376150" lon="7.699960">
                <time>2024-04-01T07:16:11Z</time>
            </trkpt>
            <trkpt lat="44.376140" lon="7.700130">
                <time>2024-04-01T07:16:12Z</time>
            </trkpt>
            <trkpt lat="44.376130" lon="7.700300">
                <time>2024-04-01T07:16:13Z</time>
            </trkpt>
            <trkpt lat="44.376110" lon="7.700470">
                <time>2024-04-01T07:16:14Z</time>
            </trkpt>
            <trkpt lat="44.376100" lon="7.700650">
                <time>2024-04-01T07:16:15Z</time>
            </trkpt>
            <trkpt lat="44.376080" lon="7.700820">
                <time>2024-04-01T07:16:16Z</time>
            </trkpt>
            <trkpt lat="44.376070" lon="7.701000">
                <time>2024-04-01T07:16:17Z</time>
            </trkpt>
            <trkpt lat="44.376050" lon="7.701180">
                <time>2024-04-01T07:16:18Z</time>
            </trkpt>
            <trkpt lat="44.376040" lon="7.701380">
                <time>2024-04-01T07:16:19Z</time>
            </trkpt>
            <trkpt lat="44.376030" lon="7.701570">
                <time>2024-04-01T07:16:20Z</time>
            </trkpt>
            <trkpt lat="44.376010" lon="7.701770">
                <time>2024-04-01T07:16:21Z</time>
            </trkpt>
            <trkpt lat="44.376000" lon="7.701980">
                <time>2024-04-01T07:16:22Z</time>
            </trkpt>
            <trkpt lat="44.375980" lon="7.702190">
                <time>2024-04-01T07:16:23Z</time>
            </trkpt>
            <trkpt lat="44.375970" lon="7.702400">
                <time>2024-04-01T07:16:24Z</time>
            </trkpt>
            <trkpt lat="44.375950" lon="7.702610">
                <time>2024-04-01T07:16:25Z</time>
            </trkpt>
            <trkpt lat="44.375930" lon="7.702820">
                <time>2024-04-01T07:16:26Z</time>
            </trkpt>
            <trkpt lat="44.375920" lon="7.703030">
                <time>2024-04-01T07:16:27Z</time>
            </trkpt>
            <trkpt lat="44.375900" lon="7.703240">
                <time>2024-04-01T07:16:28Z</time>
            </trkpt>
            <trkpt lat="44.375880" lon="7.703440">
                <time>2024-04-01T07:16:29Z</time>
            </trkpt>
            <trkpt lat="44.375870" lon="7.703620">
                <time>2024-04-01T07:16:30Z</time>
            </trkpt>
            <trkpt lat="44.375860" lon="7.703810">
                <time>2024-04-01T07:16:31Z</time>
            </trkpt>
            <trkpt lat="44.375840" lon="7.704000">
                <time>2024-04-01T07:16:32Z</time>
            </trkpt>
            <trkpt lat="44.375820" lon="7.704180">
                <time>2024-04-01T07:16:33Z</time>
            </trkpt>
            <trkpt lat="44.375800" lon="7.704370">
                <time>2024-04-01T07:16:34Z</time>
            </trkpt>
            <trkpt lat="44.375780" lon="7.704540">
                <time>2024-04-01T07:16:35Z</time>
            </trkpt>
            <trkpt lat="44.375740" lon="7.704720">
                <time>2024-04-01T07:16:36Z</time>
            </trkpt>
            <trkpt lat="44.375690" lon="7.704890">
                <time>2024-04-01T07:16:37Z</time>
            </trkpt>
            <trkpt lat="44.375620" lon="7.705060">
                <time>2024-04-01T07:16:38Z</time>
            </trkpt>
            <trkpt lat="44.375540" lon="7.705220">
                <time>2024-04-01T07:16:39Z</time>
            </trkpt>
            <trkpt lat="44.375460" lon="7.705380">
                <time>2024-04-01T07:16:40Z</time>
            </trkpt>
            <trkpt lat="44.375370" lon="7.705540">
                <time>2024-04-01T07:16:41Z</time>
            </trkpt>
            <trkpt lat="44.375270" lon="7.705690">
                <time>2024-04-01T07:16:42Z</time>
            </trkpt>
            <trkpt lat="44.375190" lon="7.705830">
                <time>2024-04-01T07:16:43Z</time>
            </trkpt>
            <trkpt lat="44.375110" lon="7.705970">
                <time>2024-04-01T07:16:44Z</time>
            </trkpt>
            <trkpt lat="44.375030" lon="7.706090">
                <time>2024-04-01T07:16:45Z</time>
            </trkpt>
            <trkpt lat="44.374950" lon="7.706210">
                <time>2024-04-01T07:16:46Z</time>
            </trkpt>
            <trkpt lat="44.374880" lon="7.706330">
                <time>2024-04-01T07:16:47Z</time>
            </trkpt>
            <trkpt lat="44.374810" lon="7.706430">
                <time>2024-04-01T07:16:48Z</time>
            </trkpt>
            <trkpt lat="44.374740" lon="7.706510">
                <time>2024-04-01T07:16:49Z</time>
            </trkpt>
            <trkpt lat="44.374660" lon="7.706590">
                <time>2024-04-01T07:16:50Z</time>
            </trkpt>
            <trkpt lat="44.374590" lon="7.706660">
                <time>2024-04-01T07:16:51Z</time>
            </trkpt>
            <trkpt lat="44.374530" lon="7.706730">
                <time>2024-04-01T07:16:52Z</time>
            </trkpt>
            <trkpt lat="44.374470" lon="7.706800">
                <time>2024-04-01T07:16:53Z</time>
            </trkpt>
            <trkpt lat="44.374440" lon="7.706900">
                <time>2024-04-01T07:16:54Z</time>
            </trkpt>
            <trkpt lat="44.374400" lon="7.707010">
                <time>2024-04-01T07:16:55Z</time>
            </trkpt>
            <trkpt lat="44.374350" lon="7.707130">
                <time>2024-04-01T07:16:56Z</time>
            </trkpt>
            <trkpt lat="44.374300" lon="7.707260">
                <time>2024-04-01T07:16:57Z</time>
            </trkpt>
            <trkpt lat="44.374240" lon="7.707400">
                <time>2024-04-01T07:16:58Z</time>
            </trkpt>
            <trkpt lat="44.374170" lon="7.707530">
                <time>2024-04-01T07:16:59Z</time>
            </trkpt>
            <trkpt lat="44.374100" lon="7.707660">
                <time>2024-04-01T07:17:00Z</time>
            </trkpt>
            <trkpt lat="44.374020" lon="7.707790">
                <time>2024-04-01T07:17:01Z</time>
            </trkpt>
            <trkpt lat="44.373940" lon="7.707920">
                <time>2024-04-01T07:17:02Z</time>
            </trkpt>
            <trkpt lat="44.373860" lon="7.708020">
                <time>2024-04-01T07:17:03Z</time>
            </trkpt>
            <trkpt lat="44.373780" lon="7.708120">
                <time>2024-04-01T07:17:04Z</time>
            </trkpt>
            <trkpt lat="44.373690" lon="7.708190">
                <time>2024-04-01T07:17:05Z</time>
            </trkpt>
            <trkpt lat="44.373590" lon="7.708240">
                <time>2024-04-01T07:17:06Z</time>
            </trkpt>
            <trkpt lat="44.373490" lon="7.708270">
                <time>2024-04-01T07:17:07Z</time>
            </trkpt>
            <trkpt lat="44.373380" lon="7.708280">
                <time>2024-04-01T07:17:08Z</time>
            </trkpt>
            <trkpt lat="44.373260" lon="7.708280">
                <time>2024-04-01T07:17:09Z</time>
            </trkpt>
            <trkpt lat="44.373140" lon="7.708260">
                <time>2024-04-01T07:17:10Z</time>
            </trkpt>
            <trkpt lat="44.373010" lon="7.708240">
                <time>2024-04-01T07:17:11Z</time>
            </trkpt>
            <trkpt lat="44.372880" lon="7.708230">
                <time>2024-04-01T07:17:12Z</time>
            </trkpt>
            <trkpt lat="44.372760" lon="7.708230">
                <time>2024-04-01T07:17:13Z</time>
            </trkpt>
            <trkpt lat="44.372640" lon="7.708220">
                <time>2024-04-01T07:17:14Z</time>
            </trkpt>
            <trkpt lat="44.372540" lon="7.708210">
                <time>2024-04-01T07:17:15Z</time>
            </trkpt>
            <trkpt lat="44.372460" lon="7.708200">
                <time>2024-04-01T07:17:16Z</time>
            </trkpt>
            <trkpt lat="44.372390" lon="7.708190">
                <time>2024-04-01T07:17:17Z</time>
            </trkpt>
            <trkpt lat="44.372340" lon="7.708210">
                <time>2024-04-01T07:17:18Z</time>
            </trkpt>
            <trkpt lat="44.372300" lon="7.708230">
                <time>2024-04-01T07:17:19Z</time>
            </trkpt>
            <trkpt lat="44.372280" lon="7.708280">
                <time>2024-04-01T07:17:20Z</time>
            </trkpt>
            <trkpt lat="44.372280" lon="7.708330">
                <time>2024-04-01T07:17:21Z</time>
            </trkpt>
            <trkpt lat="44.372300" lon="7.708370">
                <time>2024-04-01T07:17:22Z</time>
            </trkpt>
            <trkpt lat="44.372340" lon="7.708420">
                <time>2024-04-01T07:17:23Z</time>
            </trkpt>
            <trkpt lat="44.372390" lon="7.708440">
                <time>2024-04-01T07:17:24Z</time>
            </trkpt>
            <trkpt lat="44.372460" lon="7.708460">
                <time>2024-04-01T07:17:25Z</time>
            </trkpt>
            <trkpt lat="44.372540" lon="7.708470">
                <time>2024-04-01T07:17:26Z</time>
            </trkpt>
            <trkpt lat="44.372630" lon="7.708490">
                <time>2024-04-01T07:17:27Z</time>
            </trkpt>
            <trkpt lat="44.372730" lon="7.708500">
                <time>2024-04-01T07:17:28Z</time>
            </trkpt>
            <trkpt lat="44.372830" lon="7.708520">
                <time>2024-04-01T07:17:29Z</time>
            </trkpt>
            <trkpt lat="44.372940" lon="7.708520">
                <time>2024-04-01T07:17:30Z</time>
            </trkpt>
            <trkpt lat="44.373040" lon="7.708530">
                <time>2024-04-01T07:17:31Z</time>
            </trkpt>
            <trkpt lat="44.373130" lon="7.708540">
                <time>2024-04-01T07:17:32Z</time>
            </trkpt>
            <trkpt lat="44.373210" lon="7.708550">
                <time>2024-04-01T07:17:33Z</time>
            </trkpt>
            <trkpt lat="44.373270" lon="7.708570">
                <time>2024-04-01T07:17:34Z</time>
            </trkpt>
            <trkpt lat="44.373310" lon="7.708610">
                <time>2024-04-01T07:17:35Z</time>
            </trkpt>
            <trkpt lat="44.373340" lon="7.708660">
                <time>2024-04-01T07:17:36Z</time>
            </trkpt>
            <trkpt lat="44.373350" lon="7.708720">
                <time>2024-04-01T07:17:37Z</time>
            </trkpt>
            <trkpt lat="44.373340" lon="7.708770">
                <time>2024-04-01T07:17:38Z</time>
            </trkpt>
            <trkpt lat="44.373310" lon="7.708810">
                <time>2024-04-01T07:17:39Z</time>
            </trkpt>
            <trkpt lat="44.373270" lon="7.708830">
                <time>2024-04-01T07:17:40Z</time>
            </trkpt>
            <trkpt lat="44.373220" lon="7.708820">
                <time>2024-04-01T07:17:41Z</time>
            </trkpt>
            <trkpt lat="44.373160" lon="7.708800">
                <time>2024-04-01T07:17:42Z</time>
            </trkpt>
            <trkpt lat="44.373090" lon="7.708780">
                <time>2024-04-01T07:17:43Z</time>
            </trkpt>
            <trkpt lat="44.373010" lon="7.708760">
                <time>2024-04-01T07:17:44Z</time>
            </trkpt>
            <trkpt lat="44.372920" lon="7.708740">
                <time>2024-04-01T07:17:45Z</time>
            </trkpt>
            <trkpt lat="44.372830" lon="7.708730">
                <time>2024-04-01T07:17:46Z</time>
            </trkpt>
            <trkpt lat="44.372730" lon="7.708730">
                <time>2024-04-01T07:17:47Z</time>
            </trkpt>
            <trkpt lat="44.372620" lon="7.708740">
                <time>2024-04-01T07:17:48Z</time>
            </trkpt>
            <trkpt lat="44.372520" lon="7.708740">
                <time>2024-04-01T07:17:49Z</time>
            </trkpt>
            <trkpt lat="44.372410" lon="7.708740">
                <time>2024-04-01T07:17:50Z</time>
            </trkpt>
            <trkpt lat="44.372300" lon="7.708720">
                <time>2024-04-01T07:17:51Z</time>
            </trkpt>
            <trkpt lat="44.372190" lon="7.708700">
                <time>2024-04-01T07:17:52Z</time>
            </trkpt>
            <trkpt lat="44.372080" lon="7.708650">
                <time>2024-04-01T07:17:53Z</time>
            </trkpt>
            <trkpt lat="44.371970" lon="7.708590">
                <time>2024-04-01T07:17:54Z</time>
            </trkpt>
            <trkpt lat="44.371870" lon="7.708520">
                <time>2024-04-01T07:17:55Z</time>
            </trkpt>
            <trkpt lat="44.371770" lon="7.708440">
                <time>2024-04-01T07:17:56Z</time>
            </trkpt>
            <trkpt lat="44.371670" lon="7.708360">
                <time>2024-04-01T07:17:57Z</time>
            </trkpt>
            <trkpt lat="44.371570" lon="7.708290">
                <time>2024-04-01T07:17:58Z</time>
            </trkpt>
            <trkpt lat="44.371470" lon="7.708220">
                <time>2024-04-01T07:17:59Z</time>
            </trkpt>
            <trkpt lat="44.371370" lon="7.708170">
                <time>2024-04-01T07:18:00Z</time>
            </trkpt>
            <trkpt lat="44.371260" lon="7.708150">
                <time>2024-04-01T07:18:01Z</time>
            </trkpt>
            <trkpt lat="44.371160" lon="7.708130">
                <time>2024-04-01T07:18:02Z</time>
            </trkpt>
            <trkpt lat="44.371050" lon="7.708100">
                <time>2024-04-01T07:18:03Z</time>
            </trkpt>
            <trkpt lat="44.370950" lon="7.708080">
                <time>2024-04-01T07:18:04Z</time>
            </trkpt>
            <trkpt lat="44.370850" lon="7.708060">
                <time>2024-04-01T07:18:05Z</time>
            </trkpt>
            <trkpt lat="44.370760" lon="7.708050">
                <time>2024-04-01T07:18:06Z</time>
            </trkpt>
            <trkpt lat="44.370690" lon="7.708060">
                <time>2024-04-01T07:18:07Z</time>
            </trkpt>
            <trkpt lat="44.370620" lon="7.708070">
                <time>2024-04-01T07:18:08Z</time>
            </trkpt>
            <trkpt lat="44.370570" lon="7.708120">
                <time>2024-04-01T07:18:09Z</time>
            </trkpt>
            <trkpt lat="44.370530" lon="7.708190">
                <time>2024-04-01T07:18:10Z</time>
            </trkpt>
            <trkpt lat="44.370490" lon="7.708280">
                <time>2024-04-01T07:18:11Z</time>
            </trkpt>
            <trkpt lat="44.370460" lon="7.708390">
                <time>2024-04-01T07:18:12Z</time>
            </trkpt>
            <trkpt lat="44.370440" lon="7.708500">
                <time>2024-04-01T07:18:13Z</time>
            </trkpt>
            <trkpt lat="44.370410" lon="7.708610">
                <time>2024-04-01T07:18:14Z</time>
            </trkpt>
            <trkpt lat="44.370380" lon="7.708720">
                <time>2024-04-01T07:18:15Z</time>
            </trkpt>
            <trkpt lat="44.370340" lon="7.708830">
                <time>2024-04-01T07:18:16Z</time>
            </trkpt>
            <trkpt lat="44.370300" lon="7.708940">
                <time>2024-04-01T07:18:17Z</time>
            </trkpt>
            <trkpt lat="44.370270" lon="7.709060">
                <time>2024-04-01T07:18:18Z</time>
            </trkpt>
            <trkpt lat="44.370230" lon="7.709170">
                <time>2024-04-01T07:18:19Z</time>
            </trkpt>
            <trkpt lat="44.370190" lon="7.709290">
                <time>2024-04-01T07:18:20Z</time>
            </trkpt>
            <trkpt lat="44.370150" lon="7.709390">
                <time>2024-04-01T07:18:21Z</time>
            </trkpt>
            <trkpt lat="44.370100" lon="7.709490">
                <time>2024-04-01T07:18:22Z</time>
            </trkpt>
            <trkpt lat="44.370050" lon="7.709590">
                <time>2024-04-01T07:18:23Z</time>
            </trkpt>
            <trkpt lat="44.370000" lon="7.709690">
                <time>2024-04-01T07:18:24Z</time>
            </trkpt>
            <trkpt lat="44.369950" lon="7.709790">
                <time>2024-04-01T07:18:25Z</time>
            </trkpt>
            <trkpt lat="44.369890" lon="7.709900">
                <time>2024-04-01T07:18:26Z</time>
            </trkpt>
            <trkpt lat="44.369820" lon="7.709990">
                <time>2024-04-01T07:18:27Z</time>
            </trkpt>
            <trkpt lat="44.369770" lon="7.710050">
                <time>2024-04-01T07:18:28Z</time>
            </trkpt>
            <trkpt lat="44.369730" lon="7.710100">
                <time>2024-04-01T07:18:29Z</time>
            </trkpt>
            <trkpt lat="44.369710" lon="7.710140">
                <time>2024-04-01T07:18:30Z</time>
            </trkpt>
            <trkpt lat="44.369690" lon="7.710160">
                <time>2024-04-01T07:18:31Z</time>
            </trkpt>
            <trkpt lat="44.369690" lon="7.710170">
                <time>2024-04-01T07:18:32Z</time>
            </trkpt>
            <trkpt lat="44.369680" lon="7.710170">
                <time>2024-04-01T07:18:33Z</time>
            </trkpt>
            <trkpt lat="44.369690" lon="7.710160">
                <time>2024-04-01T07:18:34Z</time>
            </trkpt>
            <trkpt lat="44.369690" lon="7.710160">
                <time>2024-04-01T07:18:35Z</time>
            </trkpt>
            <trkpt lat="44.369690" lon="7.710160">
                <time>2024-04-01T07:18:36Z</time>
            </trkpt>
            <trkpt lat="44.369690" lon="7.710160">
                <time>2024-04-01T07:18:37Z</time>
            </trkpt>
            <trkpt lat="44.369690" lon="7.710150">
                <time>2024-04-01T07:18:38Z</time>
            </trkpt>
            <trkpt lat="44.369690" lon="7.710150">
                <time>2024-04-01T07:18:39Z</time>
            </trkpt>
            <trkpt lat="44.369690" lon="7.710150">
                <time>2024-04-01T07:18:40Z</time>
            </trkpt>
            <trkpt lat="44.369690" lon="7.710150">
                <time>2024-04-01T07:18:41Z</time>
            </trkpt>
            <trkpt lat="44.369690" lon="7.710150">
                <time>2024-04-01T07:18:42Z</time>
            </trkpt>
            <trkpt lat="44.369690" lon="7.710150">
                <time>2024-04-01T07:18:43Z</time>
            </trkpt>
            <trkpt lat="44.369690" lon="7.710150">
                <time>2024-04-01T07:18:44Z</time>
            </trkpt>
            <trkpt lat="44.369690" lon="7.710150">
                <time>2024-04-01T07:18:45Z</time>
            </trkpt>
            <trkpt lat="44.369690" lon="7.710140">
                <time>2024-04-01T07:18:46Z</time>
            </trkpt>
            <trkpt lat="44.369690" lon="7.710150">
                <time>2024-04-01T07:18:47Z</time>
            </trkpt>
            <trkpt lat="44.369690" lon="7.710150">
                <time>2024-04-01T07:18:48Z</time>
            </trkpt>
            <trkpt lat="44.369690" lon="7.710150">
                <time>2024-04-01T07:18:49Z</time>
            </trkpt>
            <trkpt lat="44.369690" lon="7.710150">
                <time>2024-04-01T07:18:50Z</time>
            </trkpt>
            <trkpt lat="44.369690" lon="7.710150">
                <time>2024-04-01T07:18:51Z</time>
            </trkpt>
            <trkpt lat="44.369690" lon="7.710150">
                <time>2024-04-01T07:18:52Z</time>
            </trkpt>
            <trkpt lat="44.369690" lon="7.710150">
                <time>2024-04-01T07:18:53Z</time>
            </trkpt>
            <trkpt lat="44.369700" lon="7.710140">
                <time>2024-04-01T07:18:54Z</time>
            </trkpt>
            <trkpt lat="44.369690" lon="7.710140">
                <time>2024-04-01T07:18:55Z</time>
            </trkpt>
            <trkpt lat="44.369690" lon="7.710150">
                <time>2024-04-01T07:18:56Z</time>
            </trkpt>
            <trkpt lat="44.369690" lon="7.710150">
                <time>2024-04-01T07:18:57Z</time>
            </trkpt>
            <trkpt lat="44.369680" lon="7.710190">
                <time>2024-04-01T07:18:58Z</time>
            </trkpt>
            <trkpt lat="44.369650" lon="7.710250">
                <time>2024-04-01T07:18:59Z</time>
            </trkpt>
            <trkpt lat="44.369610" lon="7.710320">
                <time>2024-04-01T07:19:00Z</time>
            </trkpt>
            <trkpt lat="44.369550" lon="7.710400">
                <time>2024-04-01T07:19:01Z</time>
            </trkpt>
            <trkpt lat="44.369490" lon="7.710500">
                <time>2024-04-01T07:19:02Z</time>
            </trkpt>
            <trkpt lat="44.369430" lon="7.710600">
                <time>2024-04-01T07:19:03Z</time>
            </trkpt>
            <trkpt lat="44.369360" lon="7.710700">
                <time>2024-04-01T07:19:04Z</time>
            </trkpt>
            <trkpt lat="44.369290" lon="7.710810">
                <time>2024-04-01T07:19:05Z</time>
            </trkpt>
            <trkpt lat="44.369230" lon="7.710920">
                <time>2024-04-01T07:19:06Z</time>
            </trkpt>
            <trkpt lat="44.369160" lon="7.711040">
                <time>2024-04-01T07:19:07Z</time>
            </trkpt>
            <trkpt lat="44.369110" lon="7.711150">
                <time>2024-04-01T07:19:08Z</time>
            </trkpt>
            <trkpt lat="44.369060" lon="7.711270">
                <time>2024-04-01T07:19:09Z</time>
            </trkpt>
            <trkpt lat="44.369010" lon="7.711380">
                <time>2024-04-01T07:19:10Z</time>
            </trkpt>
            <trkpt lat="44.368980" lon="7.711480">
                <time>2024-04-01T07:19:11Z</time>
            </trkpt>
            <trkpt lat="44.368940" lon="7.711570">
                <time>2024-04-01T07:19:12Z</time>
            </trkpt>
            <trkpt lat="44.368890" lon="7.711640">
                <time>2024-04-01T07:19:13Z</time>
            </trkpt>
            <trkpt lat="44.368850" lon="7.711720">
                <time>2024-04-01T07:19:14Z</time>
            </trkpt>
            <trkpt lat="44.368810" lon="7.711810">
                <time>2024-04-01T07:19:15Z</time>
            </trkpt>
            <trkpt lat="44.368790" lon="7.711910">
                <time>2024-04-01T07:19:16Z</time>
            </trkpt>
            <trkpt lat="44.368780" lon="7.712030">
                <time>2024-04-01T07:19:17Z</time>
            </trkpt>
            <trkpt lat="44.368770" lon="7.712160">
                <time>2024-04-01T07:19:18Z</time>
            </trkpt>
            <trkpt lat="44.368750" lon="7.712310">
                <time>2024-04-01T07:19:19Z</time>
            </trkpt>
            <trkpt lat="44.368730" lon="7.712470">
                <time>2024-04-01T07:19:20Z</time>
            </trkpt>
            <trkpt lat="44.368700" lon="7.712640">
                <time>2024-04-01T07:19:21Z</time>
            </trkpt>
            <trkpt lat="44.368660" lon="7.712830">
                <time>2024-04-01T07:19:22Z</time>
            </trkpt>
            <trkpt lat="44.368610" lon="7.713020">
                <time>2024-04-01T07:19:23Z</time>
            </trkpt>
            <trkpt lat="44.368570" lon="7.713220">
                <time>2024-04-01T07:19:24Z</time>
            </trkpt>
            <trkpt lat="44.368520" lon="7.713430">
                <time>2024-04-01T07:19:25Z</time>
            </trkpt>
            <trkpt lat="44.368480" lon="7.713640">
                <time>2024-04-01T07:19:26Z</time>
            </trkpt>
            <trkpt lat="44.368420" lon="7.713870">
                <time>2024-04-01T07:19:27Z</time>
            </trkpt>
            <trkpt lat="44.368370" lon="7.714090">
                <time>2024-04-01T07:19:28Z</time>
            </trkpt>
            <trkpt lat="44.368320" lon="7.714320">
                <time>2024-04-01T07:19:29Z</time>
            </trkpt>
            <trkpt lat="44.368270" lon="7.714540">
                <time>2024-04-01T07:19:30Z</time>
            </trkpt>
            <trkpt lat="44.368220" lon="7.714770">
                <time>2024-04-01T07:19:31Z</time>
            </trkpt>
            <trkpt lat="44.368170" lon="7.715000">
                <time>2024-04-01T07:19:32Z</time>
            </trkpt>
            <trkpt lat="44.368120" lon="7.715240">
                <time>2024-04-01T07:19:33Z</time>
            </trkpt>
            <trkpt lat="44.368060" lon="7.715480">
                <time>2024-04-01T07:19:34Z</time>
            </trkpt>
            <trkpt lat="44.368010" lon="7.715730">
                <time>2024-04-01T07:19:35Z</time>
            </trkpt>
            <trkpt lat="44.367950" lon="7.715980">
                <time>2024-04-01T07:19:36Z</time>
            </trkpt>
            <trkpt lat="44.367890" lon="7.716230">
                <time>2024-04-01T07:19:37Z</time>
            </trkpt>
            <trkpt lat="44.367840" lon="7.716480">
                <time>2024-04-01T07:19:38Z</time>
            </trkpt>
            <trkpt lat="44.367780" lon="7.716720">
                <time>2024-04-01T07:19:39Z</time>
            </trkpt>
            <trkpt lat="44.367730" lon="7.716970">
                <time>2024-04-01T07:19:40Z</time>
            </trkpt>
            <trkpt lat="44.367670" lon="7.717220">
                <time>2024-04-01T07:19:41Z</time>
            </trkpt>
            <trkpt lat="44.367610" lon="7.717470">
                <time>2024-04-01T07:19:42Z</time>
            </trkpt>
            <trkpt lat="44.367560" lon="7.717710">
                <time>2024-04-01T07:19:43Z</time>
            </trkpt>
            <trkpt lat="44.367510" lon="7.717930">
                <time>2024-04-01T07:19:44Z</time>
            </trkpt>
            <trkpt lat="44.367460" lon="7.718150">
                <time>2024-04-01T07:19:45Z</time>
            </trkpt>
            <trkpt lat="44.367410" lon="7.718360">
                <time>2024-04-01T07:19:46Z</time>
            </trkpt>
            <trkpt lat="44.367360" lon="7.718560">
                <time>2024-04-01T07:19:47Z</time>
            </trkpt>
            <trkpt lat="44.367320" lon="7.718760">
                <time>2024-04-01T07:19:48Z</time>
            </trkpt>
            <trkpt lat="44.367280" lon="7.718970">
                <time>2024-04-01T07:19:49Z</time>
            </trkpt>
            <trkpt lat="44.367250" lon="7.719170">
                <time>2024-04-01T07:19:50Z</time>
            </trkpt>
            <trkpt lat="44.367220" lon="7.719370">
                <time>2024-04-01T07:19:51Z</time>
            </trkpt>
            <trkpt lat="44.367210" lon="7.719560">
                <time>2024-04-01T07:19:52Z</time>
            </trkpt>
            <trkpt lat="44.367210" lon="7.719750">
                <time>2024-04-01T07:19:53Z</time>
            </trkpt>
            <trkpt lat="44.367230" lon="7.719940">
                <time>2024-04-01T07:19:54Z</time>
            </trkpt>
            <trkpt lat="44.367280" lon="7.720120">
                <time>2024-04-01T07:19:55Z</time>
            </trkpt>
            <trkpt lat="44.367330" lon="7.720300">
                <time>2024-04-01T07:19:56Z</time>
            </trkpt>
            <trkpt lat="44.367400" lon="7.720490">
                <time>2024-04-01T07:19:57Z</time>
            </trkpt>
            <trkpt lat="44.367470" lon="7.720680">
                <time>2024-04-01T07:19:58Z</time>
            </trkpt>
            <trkpt lat="44.367560" lon="7.720880">
                <time>2024-04-01T07:19:59Z</time>
            </trkpt>
            <trkpt lat="44.367640" lon="7.721080">
                <time>2024-04-01T07:20:00Z</time>
            </trkpt>
            <trkpt lat="44.367720" lon="7.721300">
                <time>2024-04-01T07:20:01Z</time>
            </trkpt>
            <trkpt lat="44.367800" lon="7.721510">
                <time>2024-04-01T07:20:02Z</time>
            </trkpt>
            <trkpt lat="44.367880" lon="7.721710">
                <time>2024-04-01T07:20:03Z</time>
            </trkpt>
            <trkpt lat="44.367960" lon="7.721910">
                <time>2024-04-01T07:20:04Z</time>
            </trkpt>
            <trkpt lat="44.368030" lon="7.722100">
                <time>2024-04-01T07:20:05Z</time>
            </trkpt>
            <trkpt lat="44.368090" lon="7.722290">
                <time>2024-04-01T07:20:06Z</time>
            </trkpt>
            <trkpt lat="44.368130" lon="7.722470">
                <time>2024-04-01T07:20:07Z</time>
            </trkpt>
            <trkpt lat="44.368160" lon="7.722670">
                <time>2024-04-01T07:20:08Z</time>
            </trkpt>
            <trkpt lat="44.368180" lon="7.722860">
                <time>2024-04-01T07:20:09Z</time>
            </trkpt>
            <trkpt lat="44.368180" lon="7.723070">
                <time>2024-04-01T07:20:10Z</time>
            </trkpt>
            <trkpt lat="44.368190" lon="7.723280">
                <time>2024-04-01T07:20:11Z</time>
            </trkpt>
            <trkpt lat="44.368200" lon="7.723500">
                <time>2024-04-01T07:20:12Z</time>
            </trkpt>
            <trkpt lat="44.368200" lon="7.723720">
                <time>2024-04-01T07:20:13Z</time>
            </trkpt>
            <trkpt lat="44.368200" lon="7.723950">
                <time>2024-04-01T07:20:14Z</time>
            </trkpt>
            <trkpt lat="44.368200" lon="7.724160">
                <time>2024-04-01T07:20:15Z</time>
            </trkpt>
            <trkpt lat="44.368200" lon="7.724370">
                <time>2024-04-01T07:20:16Z</time>
            </trkpt>
            <trkpt lat="44.368190" lon="7.724570">
                <time>2024-04-01T07:20:17Z</time>
            </trkpt>
            <trkpt lat="44.368170" lon="7.724770">
                <time>2024-04-01T07:20:18Z</time>
            </trkpt>
            <trkpt lat="44.368150" lon="7.724970">
                <time>2024-04-01T07:20:19Z</time>
            </trkpt>
            <trkpt lat="44.368110" lon="7.725150">
                <time>2024-04-01T07:20:20Z</time>
            </trkpt>
            <trkpt lat="44.368040" lon="7.725320">
                <time>2024-04-01T07:20:21Z</time>
            </trkpt>
            <trkpt lat="44.367960" lon="7.725470">
                <time>2024-04-01T07:20:22Z</time>
            </trkpt>
            <trkpt lat="44.367870" lon="7.725610">
                <time>2024-04-01T07:20:23Z</time>
            </trkpt>
            <trkpt lat="44.367760" lon="7.725740">
                <time>2024-04-01T07:20:24Z</time>
            </trkpt>
            <trkpt lat="44.367640" lon="7.725870">
                <time>2024-04-01T07:20:25Z</time>
            </trkpt>
            <trkpt lat="44.367510" lon="7.726010">
                <time>2024-04-01T07:20:26Z</time>
            </trkpt>
            <trkpt lat="44.367380" lon="7.726140">
                <time>2024-04-01T07:20:27Z</time>
            </trkpt>
            <trkpt lat="44.367250" lon="7.726280">
                <time>2024-04-01T07:20:28Z</time>
            </trkpt>
            <trkpt lat="44.367120" lon="7.726430">
                <time>2024-04-01T07:20:29Z</time>
            </trkpt>
            <trkpt lat="44.366980" lon="7.726580">
                <time>2024-04-01T07:20:30Z</time>
            </trkpt>
            <trkpt lat="44.366840" lon="7.726730">
                <time>2024-04-01T07:20:31Z</time>
            </trkpt>
            <trkpt lat="44.366710" lon="7.726870">
                <time>2024-04-01T07:20:32Z</time>
            </trkpt>
            <trkpt lat="44.366580" lon="7.727010">
                <time>2024-04-01T07:20:33Z</time>
            </trkpt>
            <trkpt lat="44.366460" lon="7.727150">
                <time>2024-04-01T07:20:34Z</time>
            </trkpt>
            <trkpt lat="44.366350" lon="7.727300">
                <time>2024-04-01T07:20:35Z</time>
            </trkpt>
            <trkpt lat="44.366240" lon="7.727460">
                <time>2024-04-01T07:20:36Z</time>
            </trkpt>
            <trkpt lat="44.366150" lon="7.727630">
                <time>2024-04-01T07:20:37Z</time>
            </trkpt>
            <trkpt lat="44.366070" lon="7.727800">
                <time>2024-04-01T07:20:38Z</time>
            </trkpt>
            <trkpt lat="44.366010" lon="7.727970">
                <time>2024-04-01T07:20:39Z</time>
            </trkpt>
            <trkpt lat="44.365950" lon="7.728140">
                <time>2024-04-01T07:20:40Z</time>
            </trkpt>
            <trkpt lat="44.365900" lon="7.728300">
                <time>2024-04-01T07:20:41Z</time>
            </trkpt>
            <trkpt lat="44.365840" lon="7.728470">
                <time>2024-04-01T07:20:42Z</time>
            </trkpt>
            <trkpt lat="44.365790" lon="7.728640">
                <time>2024-04-01T07:20:43Z</time>
            </trkpt>
            <trkpt lat="44.365740" lon="7.728820">
                <time>2024-04-01T07:20:44Z</time>
            </trkpt>
            <trkpt lat="44.365680" lon="7.729020">
                <time>2024-04-01T07:20:45Z</time>
            </trkpt>
            <trkpt lat="44.365620" lon="7.729210">
                <time>2024-04-01T07:20:46Z</time>
            </trkpt>
            <trkpt lat="44.365560" lon="7.729430">
                <time>2024-04-01T07:20:47Z</time>
            </trkpt>
            <trkpt lat="44.365490" lon="7.729640">
                <time>2024-04-01T07:20:48Z</time>
            </trkpt>
            <trkpt lat="44.365410" lon="7.729850">
                <time>2024-04-01T07:20:49Z</time>
            </trkpt>
            <trkpt lat="44.365340" lon="7.730060">
                <time>2024-04-01T07:20:50Z</time>
            </trkpt>
            <trkpt lat="44.365260" lon="7.730270">
                <time>2024-04-01T07:20:51Z</time>
            </trkpt>
            <trkpt lat="44.365170" lon="7.730470">
                <time>2024-04-01T07:20:52Z</time>
            </trkpt>
            <trkpt lat="44.365070" lon="7.730670">
                <time>2024-04-01T07:20:53Z</time>
            </trkpt>
            <trkpt lat="44.364970" lon="7.730870">
                <time>2024-04-01T07:20:54Z</time>
            </trkpt>
            <trkpt lat="44.364860" lon="7.731070">
                <time>2024-04-01T07:20:55Z</time>
            </trkpt>
            <trkpt lat="44.364760" lon="7.731280">
                <time>2024-04-01T07:20:56Z</time>
            </trkpt>
            <trkpt lat="44.364650" lon="7.731470">
                <time>2024-04-01T07:20:57Z</time>
            </trkpt>
            <trkpt lat="44.364540" lon="7.731680">
                <time>2024-04-01T07:20:58Z</time>
            </trkpt>
            <trkpt lat="44.364430" lon="7.731880">
                <time>2024-04-01T07:20:59Z</time>
            </trkpt>
            <trkpt lat="44.364320" lon="7.732080">
                <time>2024-04-01T07:21:00Z</time>
            </trkpt>
            <trkpt lat="44.364220" lon="7.732290">
                <time>2024-04-01T07:21:01Z</time>
            </trkpt>
            <trkpt lat="44.364100" lon="7.732490">
                <time>2024-04-01T07:21:02Z</time>
            </trkpt>
            <trkpt lat="44.364000" lon="7.732690">
                <time>2024-04-01T07:21:03Z</time>
            </trkpt>
            <trkpt lat="44.363890" lon="7.732870">
                <time>2024-04-01T07:21:04Z</time>
            </trkpt>
            <trkpt lat="44.363770" lon="7.733040">
                <time>2024-04-01T07:21:05Z</time>
            </trkpt>
            <trkpt lat="44.363650" lon="7.733210">
                <time>2024-04-01T07:21:06Z</time>
            </trkpt>
            <trkpt lat="44.363520" lon="7.733360">
                <time>2024-04-01T07:21:07Z</time>
            </trkpt>
            <trkpt lat="44.363390" lon="7.733510">
                <time>2024-04-01T07:21:08Z</time>
            </trkpt>
            <trkpt lat="44.363240" lon="7.733660">
                <time>2024-04-01T07:21:09Z</time>
            </trkpt>
            <trkpt lat="44.363100" lon="7.733800">
                <time>2024-04-01T07:21:10Z</time>
            </trkpt>
            <trkpt lat="44.362950" lon="7.733940">
                <time>2024-04-01T07:21:11Z</time>
            </trkpt>
            <trkpt lat="44.362800" lon="7.734090">
                <time>2024-04-01T07:21:12Z</time>
            </trkpt>
            <trkpt lat="44.362650" lon="7.734240">
                <time>2024-04-01T07:21:13Z</time>
            </trkpt>
            <trkpt lat="44.362510" lon="7.734400">
                <time>2024-04-01T07:21:14Z</time>
            </trkpt>
            <trkpt lat="44.362380" lon="7.734580">
                <time>2024-04-01T07:21:15Z</time>
            </trkpt>
            <trkpt lat="44.362240" lon="7.734760">
                <time>2024-04-01T07:21:16Z</time>
            </trkpt>
            <trkpt lat="44.362110" lon="7.734950">
                <time>2024-04-01T07:21:17Z</time>
            </trkpt>
            <trkpt lat="44.361980" lon="7.735130">
                <time>2024-04-01T07:21:18Z</time>
            </trkpt>
            <trkpt lat="44.361840" lon="7.735310">
                <time>2024-04-01T07:21:19Z</time>
            </trkpt>
            <trkpt lat="44.361700" lon="7.735490">
                <time>2024-04-01T07:21:20Z</time>
            </trkpt>
            <trkpt lat="44.361560" lon="7.735660">
                <time>2024-04-01T07:21:21Z</time>
            </trkpt>
            <trkpt lat="44.361410" lon="7.735830">
                <time>2024-04-01T07:21:22Z</time>
            </trkpt>
            <trkpt lat="44.361260" lon="7.735990">
                <time>2024-04-01T07:21:23Z</time>
            </trkpt>
            <trkpt lat="44.361110" lon="7.736160">
                <time>2024-04-01T07:21:24Z</time>
            </trkpt>
            <trkpt lat="44.360960" lon="7.736320">
                <time>2024-04-01T07:21:25Z</time>
            </trkpt>
            <trkpt lat="44.360810" lon="7.736480">
                <time>2024-04-01T07:21:26Z</time>
            </trkpt>
            <trkpt lat="44.360660" lon="7.736640">
                <time>2024-04-01T07:21:27Z</time>
            </trkpt>
            <trkpt lat="44.360500" lon="7.736800">
                <time>2024-04-01T07:21:28Z</time>
            </trkpt>
            <trkpt lat="44.360350" lon="7.736950">
                <time>2024-04-01T07:21:29Z</time>
            </trkpt>
            <trkpt lat="44.360200" lon="7.737100">
                <time>2024-04-01T07:21:30Z</time>
            </trkpt>
            <trkpt lat="44.360050" lon="7.737240">
                <time>2024-04-01T07:21:31Z</time>
            </trkpt>
            <trkpt lat="44.359910" lon="7.737370">
                <time>2024-04-01T07:21:32Z</time>
            </trkpt>
            <trkpt lat="44.359770" lon="7.737490">
                <time>2024-04-01T07:21:33Z</time>
            </trkpt>
            <trkpt lat="44.359630" lon="7.737600">
                <time>2024-04-01T07:21:34Z</time>
            </trkpt>
            <trkpt lat="44.359510" lon="7.737700">
                <time>2024-04-01T07:21:35Z</time>
            </trkpt>
            <trkpt lat="44.359400" lon="7.737800">
                <time>2024-04-01T07:21:36Z</time>
            </trkpt>
            <trkpt lat="44.359300" lon="7.737910">
                <time>2024-04-01T07:21:37Z</time>
            </trkpt>
            <trkpt lat="44.359220" lon="7.738030">
                <time>2024-04-01T07:21:38Z</time>
            </trkpt>
            <trkpt lat="44.359150" lon="7.738160">
                <time>2024-04-01T07:21:39Z</time>
            </trkpt>
            <trkpt lat="44.359100" lon="7.738310">
                <time>2024-04-01T07:21:40Z</time>
            </trkpt>
            <trkpt lat="44.359070" lon="7.738470">
                <time>2024-04-01T07:21:41Z</time>
            </trkpt>
            <trkpt lat="44.359060" lon="7.738630">
                <time>2024-04-01T07:21:42Z</time>
            </trkpt>
            <trkpt lat="44.359070" lon="7.738790">
                <time>2024-04-01T07:21:43Z</time>
            </trkpt>
            <trkpt lat="44.359110" lon="7.738950">
                <time>2024-04-01T07:21:44Z</time>
            </trkpt>
            <trkpt lat="44.359160" lon="7.739120">
                <time>2024-04-01T07:21:45Z</time>
            </trkpt>
            <trkpt lat="44.359210" lon="7.739290">
                <time>2024-04-01T07:21:46Z</time>
            </trkpt>
            <trkpt lat="44.359270" lon="7.739470">
                <time>2024-04-01T07:21:47Z</time>
            </trkpt>
            <trkpt lat="44.359320" lon="7.739640">
                <time>2024-04-01T07:21:48Z</time>
            </trkpt>
            <trkpt lat="44.359370" lon="7.739820">
                <time>2024-04-01T07:21:49Z</time>
            </trkpt>
            <trkpt lat="44.359410" lon="7.739990">
                <time>2024-04-01T07:21:50Z</time>
            </trkpt>
            <trkpt lat="44.359430" lon="7.740170">
                <time>2024-04-01T07:21:51Z</time>
            </trkpt>
            <trkpt lat="44.359440" lon="7.740350">
                <time>2024-04-01T07:21:52Z</time>
            </trkpt>
            <trkpt lat="44.359430" lon="7.740540">
                <time>2024-04-01T07:21:53Z</time>
            </trkpt>
            <trkpt lat="44.359410" lon="7.740720">
                <time>2024-04-01T07:21:54Z</time>
            </trkpt>
            <trkpt lat="44.359370" lon="7.740900">
                <time>2024-04-01T07:21:55Z</time>
            </trkpt>
            <trkpt lat="44.359310" lon="7.741080">
                <time>2024-04-01T07:21:56Z</time>
            </trkpt>
            <trkpt lat="44.359240" lon="7.741260">
                <time>2024-04-01T07:21:57Z</time>
            </trkpt>
            <trkpt lat="44.359150" lon="7.741430">
                <time>2024-04-01T07:21:58Z</time>
            </trkpt>
            <trkpt lat="44.359060" lon="7.741610">
                <time>2024-04-01T07:21:59Z</time>
            </trkpt>
            <trkpt lat="44.358960" lon="7.741800">
                <time>2024-04-01T07:22:00Z</time>
            </trkpt>
            <trkpt lat="44.358850" lon="7.741990">
                <time>2024-04-01T07:22:01Z</time>
            </trkpt>
            <trkpt lat="44.358760" lon="7.742160">
                <time>2024-04-01T07:22:02Z</time>
            </trkpt>
            <trkpt lat="44.358660" lon="7.742340">
                <time>2024-04-01T07:22:03Z</time>
            </trkpt>
            <trkpt lat="44.358570" lon="7.742510">
                <time>2024-04-01T07:22:04Z</time>
            </trkpt>
            <trkpt lat="44.358470" lon="7.742700">
                <time>2024-04-01T07:22:05Z</time>
            </trkpt>
            <trkpt lat="44.358370" lon="7.742890">
                <time>2024-04-01T07:22:06Z</time>
            </trkpt>
            <trkpt lat="44.358270" lon="7.743080">
                <time>2024-04-01T07:22:07Z</time>
            </trkpt>
            <trkpt lat="44.358170" lon="7.743290">
                <time>2024-04-01T07:22:08Z</time>
            </trkpt>
            <trkpt lat="44.358060" lon="7.743500">
                <time>2024-04-01T07:22:09Z</time>
            </trkpt>
            <trkpt lat="44.357950" lon="7.743710">
                <time>2024-04-01T07:22:10Z</time>
            </trkpt>
            <trkpt lat="44.357840" lon="7.743920">
                <time>2024-04-01T07:22:11Z</time>
            </trkpt>
            <trkpt lat="44.357730" lon="7.744130">
                <time>2024-04-01T07:22:12Z</time>
            </trkpt>
            <trkpt lat="44.357620" lon="7.744340">
                <time>2024-04-01T07:22:13Z</time>
            </trkpt>
            <trkpt lat="44.357510" lon="7.744550">
                <time>2024-04-01T07:22:14Z</time>
            </trkpt>
            <trkpt lat="44.357410" lon="7.744750">
                <time>2024-04-01T07:22:15Z</time>
            </trkpt>
            <trkpt lat="44.357300" lon="7.744960">
                <time>2024-04-01T07:22:16Z</time>
            </trkpt>
            <trkpt lat="44.357190" lon="7.745160">
                <time>2024-04-01T07:22:17Z</time>
            </trkpt>
            <trkpt lat="44.357080" lon="7.745350">
                <time>2024-04-01T07:22:18Z</time>
            </trkpt>
            <trkpt lat="44.356980" lon="7.745550">
                <time>2024-04-01T07:22:19Z</time>
            </trkpt>
            <trkpt lat="44.356870" lon="7.745750">
                <time>2024-04-01T07:22:20Z</time>
            </trkpt>
            <trkpt lat="44.356770" lon="7.745960">
                <time>2024-04-01T07:22:21Z</time>
            </trkpt>
            <trkpt lat="44.356650" lon="7.746160">
                <time>2024-04-01T07:22:22Z</time>
            </trkpt>
            <trkpt lat="44.356550" lon="7.746370">
                <time>2024-04-01T07:22:23Z</time>
            </trkpt>
            <trkpt lat="44.356440" lon="7.746570">
                <time>2024-04-01T07:22:24Z</time>
            </trkpt>
            <trkpt lat="44.356340" lon="7.746780">
                <time>2024-04-01T07:22:25Z</time>
            </trkpt>
            <trkpt lat="44.356230" lon="7.746980">
                <time>2024-04-01T07:22:26Z</time>
            </trkpt>
            <trkpt lat="44.356130" lon="7.747170">
                <time>2024-04-01T07:22:27Z</time>
            </trkpt>
            <trkpt lat="44.356020" lon="7.747360">
                <time>2024-04-01T07:22:28Z</time>
            </trkpt>
            <trkpt lat="44.355900" lon="7.747540">
                <time>2024-04-01T07:22:29Z</time>
            </trkpt>
            <trkpt lat="44.355780" lon="7.747710">
                <time>2024-04-01T07:22:30Z</time>
            </trkpt>
            <trkpt lat="44.355660" lon="7.747870">
                <time>2024-04-01T07:22:31Z</time>
            </trkpt>
            <trkpt lat="44.355530" lon="7.748010">
                <time>2024-04-01T07:22:32Z</time>
            </trkpt>
            <trkpt lat="44.355390" lon="7.748140">
                <time>2024-04-01T07:22:33Z</time>
            </trkpt>
            <trkpt lat="44.355250" lon="7.748260">
                <time>2024-04-01T07:22:34Z</time>
            </trkpt>
            <trkpt lat="44.355090" lon="7.748380">
                <time>2024-04-01T07:22:35Z</time>
            </trkpt>
            <trkpt lat="44.354930" lon="7.748480">
                <time>2024-04-01T07:22:36Z</time>
            </trkpt>
            <trkpt lat="44.354770" lon="7.748580">
                <time>2024-04-01T07:22:37Z</time>
            </trkpt>
            <trkpt lat="44.354600" lon="7.748660">
                <time>2024-04-01T07:22:38Z</time>
            </trkpt>
            <trkpt lat="44.354430" lon="7.748740">
                <time>2024-04-01T07:22:39Z</time>
            </trkpt>
            <trkpt lat="44.354250" lon="7.748810">
                <time>2024-04-01T07:22:40Z</time>
            </trkpt>
            <trkpt lat="44.354070" lon="7.748890">
                <time>2024-04-01T07:22:41Z</time>
            </trkpt>
            <trkpt lat="44.353890" lon="7.748970">
                <time>2024-04-01T07:22:42Z</time>
            </trkpt>
            <trkpt lat="44.353710" lon="7.749050">
                <time>2024-04-01T07:22:43Z</time>
            </trkpt>
            <trkpt lat="44.353540" lon="7.749140">
                <time>2024-04-01T07:22:44Z</time>
            </trkpt>
            <trkpt lat="44.353360" lon="7.749240">
                <time>2024-04-01T07:22:45Z</time>
            </trkpt>
            <trkpt lat="44.353180" lon="7.749350">
                <time>2024-04-01T07:22:46Z</time>
            </trkpt>
            <trkpt lat="44.353010" lon="7.749450">
                <time>2024-04-01T07:22:47Z</time>
            </trkpt>
            <trkpt lat="44.352830" lon="7.749570">
                <time>2024-04-01T07:22:48Z</time>
            </trkpt>
            <trkpt lat="44.352660" lon="7.749680">
                <time>2024-04-01T07:22:49Z</time>
            </trkpt>
            <trkpt lat="44.352500" lon="7.749810">
                <time>2024-04-01T07:22:50Z</time>
            </trkpt>
            <trkpt lat="44.352330" lon="7.749930">
                <time>2024-04-01T07:22:51Z</time>
            </trkpt>
            <trkpt lat="44.352160" lon="7.750050">
                <time>2024-04-01T07:22:52Z</time>
            </trkpt>
            <trkpt lat="44.352010" lon="7.750180">
                <time>2024-04-01T07:22:53Z</time>
            </trkpt>
            <trkpt lat="44.351850" lon="7.750290">
                <time>2024-04-01T07:22:54Z</time>
            </trkpt>
            <trkpt lat="44.351710" lon="7.750400">
                <time>2024-04-01T07:22:55Z</time>
            </trkpt>
            <trkpt lat="44.351570" lon="7.750510">
                <time>2024-04-01T07:22:56Z</time>
            </trkpt>
            <trkpt lat="44.351440" lon="7.750620">
                <time>2024-04-01T07:22:57Z</time>
            </trkpt>
            <trkpt lat="44.351300" lon="7.750720">
                <time>2024-04-01T07:22:58Z</time>
            </trkpt>
            <trkpt lat="44.351170" lon="7.750810">
                <time>2024-04-01T07:22:59Z</time>
            </trkpt>
            <trkpt lat="44.351050" lon="7.750900">
                <time>2024-04-01T07:23:00Z</time>
            </trkpt>
            <trkpt lat="44.350930" lon="7.750970">
                <time>2024-04-01T07:23:01Z</time>
            </trkpt>
            <trkpt lat="44.350810" lon="7.751040">
                <time>2024-04-01T07:23:02Z</time>
            </trkpt>
            <trkpt lat="44.350690" lon="7.751100">
                <time>2024-04-01T07:23:03Z</time>
            </trkpt>
            <trkpt lat="44.350590" lon="7.751180">
                <time>2024-04-01T07:23:04Z</time>
            </trkpt>
            <trkpt lat="44.350480" lon="7.751270">
                <time>2024-04-01T07:23:05Z</time>
            </trkpt>
            <trkpt lat="44.350380" lon="7.751370">
                <time>2024-04-01T07:23:06Z</time>
            </trkpt>
            <trkpt lat="44.350280" lon="7.751480">
                <time>2024-04-01T07:23:07Z</time>
            </trkpt>
            <trkpt lat="44.350180" lon="7.751570">
                <time>2024-04-01T07:23:08Z</time>
            </trkpt>
            <trkpt lat="44.350090" lon="7.751660">
                <time>2024-04-01T07:23:09Z</time>
            </trkpt>
            <trkpt lat="44.349980" lon="7.751740">
                <time>2024-04-01T07:23:10Z</time>
            </trkpt>
            <trkpt lat="44.349880" lon="7.751810">
                <time>2024-04-01T07:23:11Z</time>
            </trkpt>
            <trkpt lat="44.349770" lon="7.751890">
                <time>2024-04-01T07:23:12Z</time>
            </trkpt>
            <trkpt lat="44.349650" lon="7.751960">
                <time>2024-04-01T07:23:13Z</time>
            </trkpt>
            <trkpt lat="44.349530" lon="7.752030">
                <time>2024-04-01T07:23:14Z</time>
            </trkpt>
            <trkpt lat="44.349410" lon="7.752090">
                <time>2024-04-01T07:23:15Z</time>
            </trkpt>
            <trkpt lat="44.349280" lon="7.752130">
                <time>2024-04-01T07:23:16Z</time>
            </trkpt>
            <trkpt lat="44.349160" lon="7.752170">
                <time>2024-04-01T07:23:17Z</time>
            </trkpt>
            <trkpt lat="44.349030" lon="7.752190">
                <time>2024-04-01T07:23:18Z</time>
            </trkpt>
            <trkpt lat="44.348910" lon="7.752220">
                <time>2024-04-01T07:23:19Z</time>
            </trkpt>
            <trkpt lat="44.348790" lon="7.752240">
                <time>2024-04-01T07:23:20Z</time>
            </trkpt>
            <trkpt lat="44.348680" lon="7.752280">
                <time>2024-04-01T07:23:21Z</time>
            </trkpt>
            <trkpt lat="44.348570" lon="7.752310">
                <time>2024-04-01T07:23:22Z</time>
            </trkpt>
            <trkpt lat="44.348460" lon="7.752320">
                <time>2024-04-01T07:23:23Z</time>
            </trkpt>
            <trkpt lat="44.348360" lon="7.752340">
                <time>2024-04-01T07:23:24Z</time>
            </trkpt>
            <trkpt lat="44.348250" lon="7.752350">
                <time>2024-04-01T07:23:25Z</time>
            </trkpt>
            <trkpt lat="44.348140" lon="7.752390">
                <time>2024-04-01T07:23:26Z</time>
            </trkpt>
            <trkpt lat="44.348050" lon="7.752430">
                <time>2024-04-01T07:23:27Z</time>
            </trkpt>
            <trkpt lat="44.347960" lon="7.752460">
                <time>2024-04-01T07:23:28Z</time>
            </trkpt>
            <trkpt lat="44.347880" lon="7.752480">
                <time>2024-04-01T07:23:29Z</time>
            </trkpt>
            <trkpt lat="44.347790" lon="7.752500">
                <time>2024-04-01T07:23:30Z</time>
            </trkpt>
            <trkpt lat="44.347710" lon="7.752500">
                <time>2024-04-01T07:23:31Z</time>
            </trkpt>
            <trkpt lat="44.347630" lon="7.752470">
                <time>2024-04-01T07:23:32Z</time>
            </trkpt>
            <trkpt lat="44.347570" lon="7.752410">
                <time>2024-04-01T07:23:33Z</time>
            </trkpt>
            <trkpt lat="44.347510" lon="7.752330">
                <time>2024-04-01T07:23:34Z</time>
            </trkpt>
            <trkpt lat="44.347470" lon="7.752220">
                <time>2024-04-01T07:23:35Z</time>
            </trkpt>
            <trkpt lat="44.347420" lon="7.752100">
                <time>2024-04-01T07:23:36Z</time>
            </trkpt>
            <trkpt lat="44.347380" lon="7.751980">
                <time>2024-04-01T07:23:37Z</time>
            </trkpt>
            <trkpt lat="44.347340" lon="7.751870">
                <time>2024-04-01T07:23:38Z</time>
            </trkpt>
            <trkpt lat="44.347290" lon="7.751790">
                <time>2024-04-01T07:23:39Z</time>
            </trkpt>
            <trkpt lat="44.347260" lon="7.751720">
                <time>2024-04-01T07:23:40Z</time>
            </trkpt>
            <trkpt lat="44.347230" lon="7.751660">
                <time>2024-04-01T07:23:41Z</time>
            </trkpt>
            <trkpt lat="44.347200" lon="7.751610">
                <time>2024-04-01T07:23:42Z</time>
            </trkpt>
            <trkpt lat="44.347170" lon="7.751590">
                <time>2024-04-01T07:23:43Z</time>
            </trkpt>
            <trkpt lat="44.347120" lon="7.751580">
                <time>2024-04-01T07:23:44Z</time>
            </trkpt>
            <trkpt lat="44.347060" lon="7.751580">
                <time>2024-04-01T07:23:45Z</time>
            </trkpt>
            <trkpt lat="44.346990" lon="7.751580">
                <time>2024-04-01T07:23:46Z</time>
            </trkpt>
            <trkpt lat="44.346910" lon="7.751590">
                <time>2024-04-01T07:23:47Z</time>
            </trkpt>
            <trkpt lat="44.346820" lon="7.751620">
                <time>2024-04-01T07:23:48Z</time>
            </trkpt>
            <trkpt lat="44.346720" lon="7.751660">
                <time>2024-04-01T07:23:49Z</time>
            </trkpt>
            <trkpt lat="44.346640" lon="7.751730">
                <time>2024-04-01T07:23:50Z</time>
            </trkpt>
            <trkpt lat="44.346560" lon="7.751820">
                <time>2024-04-01T07:23:51Z</time>
            </trkpt>
            <trkpt lat="44.346500" lon="7.751930">
                <time>2024-04-01T07:23:52Z</time>
            </trkpt>
            <trkpt lat="44.346460" lon="7.752060">
                <time>2024-04-01T07:23:53Z</time>
            </trkpt>
            <trkpt lat="44.346430" lon="7.752210">
                <time>2024-04-01T07:23:54Z</time>
            </trkpt>
            <trkpt lat="44.346430" lon="7.752360">
                <time>2024-04-01T07:23:55Z</time>
            </trkpt>
            <trkpt lat="44.346440" lon="7.752520">
                <time>2024-04-01T07:23:56Z</time>
            </trkpt>
            <trkpt lat="44.346470" lon="7.752690">
                <time>2024-04-01T07:23:57Z</time>
            </trkpt>
            <trkpt lat="44.346500" lon="7.752870">
                <time>2024-04-01T07:23:58Z</time>
            </trkpt>
            <trkpt lat="44.346520" lon="7.753050">
                <time>2024-04-01T07:23:59Z</time>
            </trkpt>
            <trkpt lat="44.346530" lon="7.753230">
                <time>2024-04-01T07:24:00Z</time>
            </trkpt>
            <trkpt lat="44.346530" lon="7.753420">
                <time>2024-04-01T07:24:01Z</time>
            </trkpt>
            <trkpt lat="44.346520" lon="7.753610">
                <time>2024-04-01T07:24:02Z</time>
            </trkpt>
            <trkpt lat="44.346510" lon="7.753810">
                <time>2024-04-01T07:24:03Z</time>
            </trkpt>
            <trkpt lat="44.346490" lon="7.754020">
                <time>2024-04-01T07:24:04Z</time>
            </trkpt>
            <trkpt lat="44.346470" lon="7.754230">
                <time>2024-04-01T07:24:05Z</time>
            </trkpt>
            <trkpt lat="44.346450" lon="7.754450">
                <time>2024-04-01T07:24:06Z</time>
            </trkpt>
            <trkpt lat="44.346430" lon="7.754670">
                <time>2024-04-01T07:24:07Z</time>
            </trkpt>
            <trkpt lat="44.346410" lon="7.754900">
                <time>2024-04-01T07:24:08Z</time>
            </trkpt>
            <trkpt lat="44.346390" lon="7.755120">
                <time>2024-04-01T07:24:09Z</time>
            </trkpt>
            <trkpt lat="44.346380" lon="7.755350">
                <time>2024-04-01T07:24:10Z</time>
            </trkpt>
            <trkpt lat="44.346360" lon="7.755580">
                <time>2024-04-01T07:24:11Z</time>
            </trkpt>
            <trkpt lat="44.346350" lon="7.755820">
                <time>2024-04-01T07:24:12Z</time>
            </trkpt>
            <trkpt lat="44.346330" lon="7.756060">
                <time>2024-04-01T07:24:13Z</time>
            </trkpt>
            <trkpt lat="44.346320" lon="7.756290">
                <time>2024-04-01T07:24:14Z</time>
            </trkpt>
            <trkpt lat="44.346300" lon="7.756530">
                <time>2024-04-01T07:24:15Z</time>
            </trkpt>
            <trkpt lat="44.346290" lon="7.756760">
                <time>2024-04-01T07:24:16Z</time>
            </trkpt>
            <trkpt lat="44.346280" lon="7.756990">
                <time>2024-04-01T07:24:17Z</time>
            </trkpt>
            <trkpt lat="44.346270" lon="7.757230">
                <time>2024-04-01T07:24:18Z</time>
            </trkpt>
            <trkpt lat="44.346260" lon="7.757470">
                <time>2024-04-01T07:24:19Z</time>
            </trkpt>
            <trkpt lat="44.346240" lon="7.757700">
                <time>2024-04-01T07:24:20Z</time>
            </trkpt>
            <trkpt lat="44.346240" lon="7.757930">
                <time>2024-04-01T07:24:21Z</time>
            </trkpt>
            <trkpt lat="44.346230" lon="7.758140">
                <time>2024-04-01T07:24:22Z</time>
            </trkpt>
            <trkpt lat="44.346220" lon="7.758350">
                <time>2024-04-01T07:24:23Z</time>
            </trkpt>
            <trkpt lat="44.346210" lon="7.758560">
                <time>2024-04-01T07:24:24Z</time>
            </trkpt>
            <trkpt lat="44.346200" lon="7.758750">
                <time>2024-04-01T07:24:25Z</time>
            </trkpt>
            <trkpt lat="44.346190" lon="7.758940">
                <time>2024-04-01T07:24:26Z</time>
            </trkpt>
            <trkpt lat="44.346190" lon="7.759120">
                <time>2024-04-01T07:24:27Z</time>
            </trkpt>
            <trkpt lat="44.346200" lon="7.759290">
                <time>2024-04-01T07:24:28Z</time>
            </trkpt>
            <trkpt lat="44.346230" lon="7.759460">
                <time>2024-04-01T07:24:29Z</time>
            </trkpt>
            <trkpt lat="44.346280" lon="7.759630">
                <time>2024-04-01T07:24:30Z</time>
            </trkpt>
            <trkpt lat="44.346340" lon="7.759780">
                <time>2024-04-01T07:24:31Z</time>
            </trkpt>
            <trkpt lat="44.346430" lon="7.759930">
                <time>2024-04-01T07:24:32Z</time>
            </trkpt>
            <trkpt lat="44.346520" lon="7.760070">
                <time>2024-04-01T07:24:33Z</time>
            </trkpt>
            <trkpt lat="44.346630" lon="7.760190">
                <time>2024-04-01T07:24:34Z</time>
            </trkpt>
            <trkpt lat="44.346740" lon="7.760320">
                <time>2024-04-01T07:24:35Z</time>
            </trkpt>
            <trkpt lat="44.346870" lon="7.760450">
                <time>2024-04-01T07:24:36Z</time>
            </trkpt>
            <trkpt lat="44.347000" lon="7.760580">
                <time>2024-04-01T07:24:37Z</time>
            </trkpt>
            <trkpt lat="44.347130" lon="7.760710">
                <time>2024-04-01T07:24:38Z</time>
            </trkpt>
            <trkpt lat="44.347260" lon="7.760840">
                <time>2024-04-01T07:24:39Z</time>
            </trkpt>
            <trkpt lat="44.347390" lon="7.760970">
                <time>2024-04-01T07:24:40Z</time>
            </trkpt>
            <trkpt lat="44.347520" lon="7.761090">
                <time>2024-04-01T07:24:41Z</time>
            </trkpt>
            <trkpt lat="44.347640" lon="7.761220">
                <time>2024-04-01T07:24:42Z</time>
            </trkpt>
            <trkpt lat="44.347760" lon="7.761340">
                <time>2024-04-01T07:24:43Z</time>
            </trkpt>
            <trkpt lat="44.347870" lon="7.761460">
                <time>2024-04-01T07:24:44Z</time>
            </trkpt>
            <trkpt lat="44.347990" lon="7.761570">
                <time>2024-04-01T07:24:45Z</time>
            </trkpt>
            <trkpt lat="44.348100" lon="7.761690">
                <time>2024-04-01T07:24:46Z</time>
            </trkpt>
            <trkpt lat="44.348200" lon="7.761820">
                <time>2024-04-01T07:24:47Z</time>
            </trkpt>
            <trkpt lat="44.348290" lon="7.761960">
                <time>2024-04-01T07:24:48Z</time>
            </trkpt>
            <trkpt lat="44.348370" lon="7.762120">
                <time>2024-04-01T07:24:49Z</time>
            </trkpt>
            <trkpt lat="44.348460" lon="7.762280">
                <time>2024-04-01T07:24:50Z</time>
            </trkpt>
            <trkpt lat="44.348530" lon="7.762460">
                <time>2024-04-01T07:24:51Z</time>
            </trkpt>
            <trkpt lat="44.348600" lon="7.762640">
                <time>2024-04-01T07:24:52Z</time>
            </trkpt>
            <trkpt lat="44.348650" lon="7.762830">
                <time>2024-04-01T07:24:53Z</time>
            </trkpt>
            <trkpt lat="44.348690" lon="7.763020">
                <time>2024-04-01T07:24:54Z</time>
            </trkpt>
            <trkpt lat="44.348710" lon="7.763220">
                <time>2024-04-01T07:24:55Z</time>
            </trkpt>
            <trkpt lat="44.348730" lon="7.763410">
                <time>2024-04-01T07:24:56Z</time>
            </trkpt>
            <trkpt lat="44.348730" lon="7.763600">
                <time>2024-04-01T07:24:57Z</time>
            </trkpt>
            <trkpt lat="44.348720" lon="7.763790">
                <time>2024-04-01T07:24:58Z</time>
            </trkpt>
            <trkpt lat="44.348710" lon="7.763980">
                <time>2024-04-01T07:24:59Z</time>
            </trkpt>
            <trkpt lat="44.348690" lon="7.764180">
                <time>2024-04-01T07:25:00Z</time>
            </trkpt>
            <trkpt lat="44.348660" lon="7.764370">
                <time>2024-04-01T07:25:01Z</time>
            </trkpt>
            <trkpt lat="44.348640" lon="7.764560">
                <time>2024-04-01T07:25:02Z</time>
            </trkpt>
            <trkpt lat="44.348610" lon="7.764760">
                <time>2024-04-01T07:25:03Z</time>
            </trkpt>
            <trkpt lat="44.348590" lon="7.764940">
                <time>2024-04-01T07:25:04Z</time>
            </trkpt>
            <trkpt lat="44.348560" lon="7.765110">
                <time>2024-04-01T07:25:05Z</time>
            </trkpt>
            <trkpt lat="44.348530" lon="7.765260">
                <time>2024-04-01T07:25:06Z</time>
            </trkpt>
            <trkpt lat="44.348510" lon="7.765390">
                <time>2024-04-01T07:25:07Z</time>
            </trkpt>
            <trkpt lat="44.348480" lon="7.765500">
                <time>2024-04-01T07:25:08Z</time>
            </trkpt>
            <trkpt lat="44.348450" lon="7.765600">
                <time>2024-04-01T07:25:09Z</time>
            </trkpt>
            <trkpt lat="44.348410" lon="7.765690">
                <time>2024-04-01T07:25:10Z</time>
            </trkpt>
            <trkpt lat="44.348370" lon="7.765770">
                <time>2024-04-01T07:25:11Z</time>
            </trkpt>
            <trkpt lat="44.348360" lon="7.765850">
                <time>2024-04-01T07:25:12Z</time>
            </trkpt>
            <trkpt lat="44.348350" lon="7.765930">
                <time>2024-04-01T07:25:13Z</time>
            </trkpt>
            <trkpt lat="44.348360" lon="7.766020">
                <time>2024-04-01T07:25:14Z</time>
            </trkpt>
            <trkpt lat="44.348370" lon="7.766130">
                <time>2024-04-01T07:25:15Z</time>
            </trkpt>
            <trkpt lat="44.348360" lon="7.766240">
                <time>2024-04-01T07:25:16Z</time>
            </trkpt>
            <trkpt lat="44.348350" lon="7.766360">
                <time>2024-04-01T07:25:17Z</time>
            </trkpt>
            <trkpt lat="44.348330" lon="7.766500">
                <time>2024-04-01T07:25:18Z</time>
            </trkpt>
            <trkpt lat="44.348310" lon="7.766660">
                <time>2024-04-01T07:25:19Z</time>
            </trkpt>
            <trkpt lat="44.348280" lon="7.766810">
                <time>2024-04-01T07:25:20Z</time>
            </trkpt>
            <trkpt lat="44.348260" lon="7.766980">
                <time>2024-04-01T07:25:21Z</time>
            </trkpt>
            <trkpt lat="44.348220" lon="7.767150">
                <time>2024-04-01T07:25:22Z</time>
            </trkpt>
            <trkpt lat="44.348200" lon="7.767330">
                <time>2024-04-01T07:25:23Z</time>
            </trkpt>
            <trkpt lat="44.348170" lon="7.767520">
                <time>2024-04-01T07:25:24Z</time>
            </trkpt>
            <trkpt lat="44.348130" lon="7.767710">
                <time>2024-04-01T07:25:25Z</time>
            </trkpt>
            <trkpt lat="44.348100" lon="7.767910">
                <time>2024-04-01T07:25:26Z</time>
            </trkpt>
            <trkpt lat="44.348070" lon="7.768100">
                <time>2024-04-01T07:25:27Z</time>
            </trkpt>
            <trkpt lat="44.348040" lon="7.768280">
                <time>2024-04-01T07:25:28Z</time>
            </trkpt>
            <trkpt lat="44.348010" lon="7.768460">
                <time>2024-04-01T07:25:29Z</time>
            </trkpt>
            <trkpt lat="44.347980" lon="7.768620">
                <time>2024-04-01T07:25:30Z</time>
            </trkpt>
            <trkpt lat="44.347960" lon="7.768790">
                <time>2024-04-01T07:25:31Z</time>
            </trkpt>
            <trkpt lat="44.347930" lon="7.768950">
                <time>2024-04-01T07:25:32Z</time>
            </trkpt>
            <trkpt lat="44.347910" lon="7.769110">
                <time>2024-04-01T07:25:33Z</time>
            </trkpt>
            <trkpt lat="44.347880" lon="7.769260">
                <time>2024-04-01T07:25:34Z</time>
            </trkpt>
            <trkpt lat="44.347860" lon="7.769410">
                <time>2024-04-01T07:25:35Z</time>
            </trkpt>
            <trkpt lat="44.347830" lon="7.769540">
                <time>2024-04-01T07:25:36Z</time>
            </trkpt>
            <trkpt lat="44.347810" lon="7.769670">
                <time>2024-04-01T07:25:37Z</time>
            </trkpt>
            <trkpt lat="44.347790" lon="7.769780">
                <time>2024-04-01T07:25:38Z</time>
            </trkpt>
            <trkpt lat="44.347770" lon="7.769870">
                <time>2024-04-01T07:25:39Z</time>
            </trkpt>
            <trkpt lat="44.347750" lon="7.769930">
                <time>2024-04-01T07:25:40Z</time>
            </trkpt>
            <trkpt lat="44.347730" lon="7.769980">
                <time>2024-04-01T07:25:41Z</time>
            </trkpt>
            <trkpt lat="44.347710" lon="7.770000">
                <time>2024-04-01T07:25:42Z</time>
            </trkpt>
            <trkpt lat="44.347690" lon="7.770010">
                <time>2024-04-01T07:25:43Z</time>
            </trkpt>
            <trkpt lat="44.347690" lon="7.770010">
                <time>2024-04-01T07:25:44Z</time>
            </trkpt>
            <trkpt lat="44.347690" lon="7.770010">
                <time>2024-04-01T07:25:45Z</time>
            </trkpt>
            <trkpt lat="44.347680" lon="7.770020">
                <time>2024-04-01T07:25:46Z</time>
            </trkpt>
            <trkpt lat="44.347650" lon="7.770050">
                <time>2024-04-01T07:25:47Z</time>
            </trkpt>
            <trkpt lat="44.347600" lon="7.770090">
                <time>2024-04-01T07:25:48Z</time>
            </trkpt>
            <trkpt lat="44.347550" lon="7.770150">
                <time>2024-04-01T07:25:49Z</time>
            </trkpt>
            <trkpt lat="44.347520" lon="7.770230">
                <time>2024-04-01T07:25:50Z</time>
            </trkpt>
            <trkpt lat="44.347510" lon="7.770320">
                <time>2024-04-01T07:25:51Z</time>
            </trkpt>
            <trkpt lat="44.347520" lon="7.770410">
                <time>2024-04-01T07:25:52Z</time>
            </trkpt>
            <trkpt lat="44.347560" lon="7.770490">
                <time>2024-04-01T07:25:53Z</time>
            </trkpt>
            <trkpt lat="44.347600" lon="7.770570">
                <time>2024-04-01T07:25:54Z</time>
            </trkpt>
            <trkpt lat="44.347660" lon="7.770660">
                <time>2024-04-01T07:25:55Z</time>
            </trkpt>
            <trkpt lat="44.347700" lon="7.770770">
                <time>2024-04-01T07:25:56Z</time>
            </trkpt>
            <trkpt lat="44.347740" lon="7.770870">
                <time>2024-04-01T07:25:57Z</time>
            </trkpt>
            <trkpt lat="44.347760" lon="7.770990">
                <time>2024-04-01T07:25:58Z</time>
            </trkpt>
            <trkpt lat="44.347780" lon="7.771120">
                <time>2024-04-01T07:25:59Z</time>
            </trkpt>
            <trkpt lat="44.347780" lon="7.771260">
                <time>2024-04-01T07:26:00Z</time>
            </trkpt>
            <trkpt lat="44.347760" lon="7.771400">
                <time>2024-04-01T07:26:01Z</time>
            </trkpt>
            <trkpt lat="44.347730" lon="7.771540">
                <time>2024-04-01T07:26:02Z</time>
            </trkpt>
            <trkpt lat="44.347690" lon="7.771700">
                <time>2024-04-01T07:26:03Z</time>
            </trkpt>
            <trkpt lat="44.347650" lon="7.771860">
                <time>2024-04-01T07:26:04Z</time>
            </trkpt>
            <trkpt lat="44.347600" lon="7.772020">
                <time>2024-04-01T07:26:05Z</time>
            </trkpt>
            <trkpt lat="44.347550" lon="7.772190">
                <time>2024-04-01T07:26:06Z</time>
            </trkpt>
            <trkpt lat="44.347510" lon="7.772360">
                <time>2024-04-01T07:26:07Z</time>
            </trkpt>
            <trkpt lat="44.347470" lon="7.772530">
                <time>2024-04-01T07:26:08Z</time>
            </trkpt>
            <trkpt lat="44.347420" lon="7.772700">
                <time>2024-04-01T07:26:09Z</time>
            </trkpt>
            <trkpt lat="44.347380" lon="7.772860">
                <time>2024-04-01T07:26:10Z</time>
            </trkpt>
            <trkpt lat="44.347330" lon="7.773040">
                <time>2024-04-01T07:26:11Z</time>
            </trkpt>
            <trkpt lat="44.347290" lon="7.773210">
                <time>2024-04-01T07:26:12Z</time>
            </trkpt>
            <trkpt lat="44.347240" lon="7.773380">
                <time>2024-04-01T07:26:13Z</time>
            </trkpt>
            <trkpt lat="44.347190" lon="7.773550">
                <time>2024-04-01T07:26:14Z</time>
            </trkpt>
            <trkpt lat="44.347140" lon="7.773730">
                <time>2024-04-01T07:26:15Z</time>
            </trkpt>
            <trkpt lat="44.347080" lon="7.773910">
                <time>2024-04-01T07:26:16Z</time>
            </trkpt>
            <trkpt lat="44.347020" lon="7.774080">
                <time>2024-04-01T07:26:17Z</time>
            </trkpt>
            <trkpt lat="44.346950" lon="7.774250">
                <time>2024-04-01T07:26:18Z</time>
            </trkpt>
            <trkpt lat="44.346880" lon="7.774420">
                <time>2024-04-01T07:26:19Z</time>
            </trkpt>
            <trkpt lat="44.346800" lon="7.774580">
                <time>2024-04-01T07:26:20Z</time>
            </trkpt>
            <trkpt lat="44.346710" lon="7.774740">
                <time>2024-04-01T07:26:21Z</time>
            </trkpt>
            <trkpt lat="44.346620" lon="7.774900">
                <time>2024-04-01T07:26:22Z</time>
            </trkpt>
            <trkpt lat="44.346520" lon="7.775050">
                <time>2024-04-01T07:26:23Z</time>
            </trkpt>
            <trkpt lat="44.346410" lon="7.775200">
                <time>2024-04-01T07:26:24Z</time>
            </trkpt>
            <trkpt lat="44.346300" lon="7.775340">
                <time>2024-04-01T07:26:25Z</time>
            </trkpt>
            <trkpt lat="44.346180" lon="7.775480">
                <time>2024-04-01T07:26:26Z</time>
            </trkpt>
            <trkpt lat="44.346050" lon="7.775610">
                <time>2024-04-01T07:26:27Z</time>
            </trkpt>
            <trkpt lat="44.345930" lon="7.775730">
                <time>2024-04-01T07:26:28Z</time>
            </trkpt>
            <trkpt lat="44.345810" lon="7.775850">
                <time>2024-04-01T07:26:29Z</time>
            </trkpt>
            <trkpt lat="44.345700" lon="7.775960">
                <time>2024-04-01T07:26:30Z</time>
            </trkpt>
            <trkpt lat="44.345590" lon="7.776060">
                <time>2024-04-01T07:26:31Z</time>
            </trkpt>
            <trkpt lat="44.345480" lon="7.776150">
                <time>2024-04-01T07:26:32Z</time>
            </trkpt>
            <trkpt lat="44.345370" lon="7.776240">
                <time>2024-04-01T07:26:33Z</time>
            </trkpt>
            <trkpt lat="44.345270" lon="7.776330">
                <time>2024-04-01T07:26:34Z</time>
            </trkpt>
            <trkpt lat="44.345160" lon="7.776410">
                <time>2024-04-01T07:26:35Z</time>
            </trkpt>
            <trkpt lat="44.345050" lon="7.776490">
                <time>2024-04-01T07:26:36Z</time>
            </trkpt>
            <trkpt lat="44.344940" lon="7.776580">
                <time>2024-04-01T07:26:37Z</time>
            </trkpt>
            <trkpt lat="44.344830" lon="7.776670">
                <time>2024-04-01T07:26:38Z</time>
            </trkpt>
            <trkpt lat="44.344720" lon="7.776750">
                <time>2024-04-01T07:26:39Z</time>
            </trkpt>
            <trkpt lat="44.344600" lon="7.776840">
                <time>2024-04-01T07:26:40Z</time>
            </trkpt>
            <trkpt lat="44.344480" lon="7.776910">
                <time>2024-04-01T07:26:41Z</time>
            </trkpt>
            <trkpt lat="44.344350" lon="7.776990">
                <time>2024-04-01T07:26:42Z</time>
            </trkpt>
            <trkpt lat="44.344220" lon="7.777070">
                <time>2024-04-01T07:26:43Z</time>
            </trkpt>
            <trkpt lat="44.344090" lon="7.777130">
                <time>2024-04-01T07:26:44Z</time>
            </trkpt>
            <trkpt lat="44.343960" lon="7.777200">
                <time>2024-04-01T07:26:45Z</time>
            </trkpt>
            <trkpt lat="44.343830" lon="7.777260">
                <time>2024-04-01T07:26:46Z</time>
            </trkpt>
            <trkpt lat="44.343690" lon="7.777310">
                <time>2024-04-01T07:26:47Z</time>
            </trkpt>
            <trkpt lat="44.343550" lon="7.777350">
                <time>2024-04-01T07:26:48Z</time>
            </trkpt>
            <trkpt lat="44.343410" lon="7.777390">
                <time>2024-04-01T07:26:49Z</time>
            </trkpt>
            <trkpt lat="44.343260" lon="7.777410">
                <time>2024-04-01T07:26:50Z</time>
            </trkpt>
            <trkpt lat="44.343110" lon="7.777440">
                <time>2024-04-01T07:26:51Z</time>
            </trkpt>
            <trkpt lat="44.342960" lon="7.777460">
                <time>2024-04-01T07:26:52Z</time>
            </trkpt>
            <trkpt lat="44.342800" lon="7.777480">
                <time>2024-04-01T07:26:53Z</time>
            </trkpt>
            <trkpt lat="44.342640" lon="7.777500">
                <time>2024-04-01T07:26:54Z</time>
            </trkpt>
            <trkpt lat="44.342480" lon="7.777530">
                <time>2024-04-01T07:26:55Z</time>
            </trkpt>
            <trkpt lat="44.342320" lon="7.777550">
                <time>2024-04-01T07:26:56Z</time>
            </trkpt>
            <trkpt lat="44.342160" lon="7.777580">
                <time>2024-04-01T07:26:57Z</time>
            </trkpt>
            <trkpt lat="44.342000" lon="7.777600">
                <time>2024-04-01T07:26:58Z</time>
            </trkpt>
            <trkpt lat="44.341850" lon="7.777620">
                <time>2024-04-01T07:26:59Z</time>
            </trkpt>
            <trkpt lat="44.341700" lon="7.777650">
                <time>2024-04-01T07:27:00Z</time>
            </trkpt>
            <trkpt lat="44.341560" lon="7.777670">
                <time>2024-04-01T07:27:01Z</time>
            </trkpt>
            <trkpt lat="44.341430" lon="7.777690">
                <time>2024-04-01T07:27:02Z</time>
            </trkpt>
            <trkpt lat="44.341300" lon="7.777710">
                <time>2024-04-01T07:27:03Z</time>
            </trkpt>
            <trkpt lat="44.341180" lon="7.777730">
                <time>2024-04-01T07:27:04Z</time>
            </trkpt>
            <trkpt lat="44.341050" lon="7.777740">
                <time>2024-04-01T07:27:05Z</time>
            </trkpt>
            <trkpt lat="44.340920" lon="7.777760">
                <time>2024-04-01T07:27:06Z</time>
            </trkpt>
            <trkpt lat="44.340800" lon="7.777780">
                <time>2024-04-01T07:27:07Z</time>
            </trkpt>
            <trkpt lat="44.340670" lon="7.777810">
                <time>2024-04-01T07:27:08Z</time>
            </trkpt>
            <trkpt lat="44.340550" lon="7.777830">
                <time>2024-04-01T07:27:09Z</time>
            </trkpt>
            <trkpt lat="44.340440" lon="7.777860">
                <time>2024-04-01T07:27:10Z</time>
            </trkpt>
            <trkpt lat="44.340330" lon="7.777880">
                <time>2024-04-01T07:27:11Z</time>
            </trkpt>
            <trkpt lat="44.340220" lon="7.777900">
                <time>2024-04-01T07:27:12Z</time>
            </trkpt>
            <trkpt lat="44.340130" lon="7.777910">
                <time>2024-04-01T07:27:13Z</time>
            </trkpt>
            <trkpt lat="44.340060" lon="7.777910">
                <time>2024-04-01T07:27:14Z</time>
            </trkpt>
            <trkpt lat="44.339980" lon="7.777910">
                <time>2024-04-01T07:27:15Z</time>
            </trkpt>
            <trkpt lat="44.339910" lon="7.777910">
                <time>2024-04-01T07:27:16Z</time>
            </trkpt>
            <trkpt lat="44.339850" lon="7.777920">
                <time>2024-04-01T07:27:17Z</time>
            </trkpt>
            <trkpt lat="44.339790" lon="7.777950">
                <time>2024-04-01T07:27:18Z</time>
            </trkpt>
            <trkpt lat="44.339750" lon="7.778000">
                <time>2024-04-01T07:27:19Z</time>
            </trkpt>
            <trkpt lat="44.339730" lon="7.778060">
                <time>2024-04-01T07:27:20Z</time>
            </trkpt>
            <trkpt lat="44.339730" lon="7.778140">
                <time>2024-04-01T07:27:21Z</time>
            </trkpt>
            <trkpt lat="44.339740" lon="7.778210">
                <time>2024-04-01T07:27:22Z</time>
            </trkpt>
            <trkpt lat="44.339780" lon="7.778290">
                <time>2024-04-01T07:27:23Z</time>
            </trkpt>
            <trkpt lat="44.339840" lon="7.778380">
                <time>2024-04-01T07:27:24Z</time>
            </trkpt>
            <trkpt lat="44.339900" lon="7.778490">
                <time>2024-04-01T07:27:25Z</time>
            </trkpt>
            <trkpt lat="44.339970" lon="7.778600">
                <time>2024-04-01T07:27:26Z</time>
            </trkpt>
            <trkpt lat="44.340050" lon="7.778740">
                <time>2024-04-01T07:27:27Z</time>
            </trkpt>
            <trkpt lat="44.340140" lon="7.778900">
                <time>2024-04-01T07:27:28Z</time>
            </trkpt>
            <trkpt lat="44.340230" lon="7.779070">
                <time>2024-04-01T07:27:29Z</time>
            </trkpt>
            <trkpt lat="44.340320" lon="7.779240">
                <time>2024-04-01T07:27:30Z</time>
            </trkpt>
            <trkpt lat="44.340420" lon="7.779420">
                <time>2024-04-01T07:27:31Z</time>
            </trkpt>
            <trkpt lat="44.340520" lon="7.779610">
                <time>2024-04-01T07:27:32Z</time>
            </trkpt>
            <trkpt lat="44.340620" lon="7.779800">
                <time>2024-04-01T07:27:33Z</time>
            </trkpt>
            <trkpt lat="44.340720" lon="7.779990">
                <time>2024-04-01T07:27:34Z</time>
            </trkpt>
            <trkpt lat="44.340820" lon="7.780180">
                <time>2024-04-01T07:27:35Z</time>
            </trkpt>
            <trkpt lat="44.340930" lon="7.780370">
                <time>2024-04-01T07:27:36Z</time>
            </trkpt>
            <trkpt lat="44.341020" lon="7.780550">
                <time>2024-04-01T07:27:37Z</time>
            </trkpt>
            <trkpt lat="44.341120" lon="7.780730">
                <time>2024-04-01T07:27:38Z</time>
            </trkpt>
            <trkpt lat="44.341210" lon="7.780900">
                <time>2024-04-01T07:27:39Z</time>
            </trkpt>
            <trkpt lat="44.341300" lon="7.781060">
                <time>2024-04-01T07:27:40Z</time>
            </trkpt>
            <trkpt lat="44.341400" lon="7.781240">
                <time>2024-04-01T07:27:41Z</time>
            </trkpt>
            <trkpt lat="44.341500" lon="7.781420">
                <time>2024-04-01T07:27:42Z</time>
            </trkpt>
            <trkpt lat="44.341600" lon="7.781610">
                <time>2024-04-01T07:27:43Z</time>
            </trkpt>
            <trkpt lat="44.341700" lon="7.781800">
                <time>2024-04-01T07:27:44Z</time>
            </trkpt>
            <trkpt lat="44.341800" lon="7.782000">
                <time>2024-04-01T07:27:45Z</time>
            </trkpt>
            <trkpt lat="44.341910" lon="7.782200">
                <time>2024-04-01T07:27:46Z</time>
            </trkpt>
            <trkpt lat="44.342020" lon="7.782400">
                <time>2024-04-01T07:27:47Z</time>
            </trkpt>
            <trkpt lat="44.342120" lon="7.782610">
                <time>2024-04-01T07:27:48Z</time>
            </trkpt>
            <trkpt lat="44.342230" lon="7.782820">
                <time>2024-04-01T07:27:49Z</time>
            </trkpt>
            <trkpt lat="44.342340" lon="7.783020">
                <time>2024-04-01T07:27:50Z</time>
            </trkpt>
            <trkpt lat="44.342450" lon="7.783230">
                <time>2024-04-01T07:27:51Z</time>
            </trkpt>
            <trkpt lat="44.342560" lon="7.783450">
                <time>2024-04-01T07:27:52Z</time>
            </trkpt>
            <trkpt lat="44.342670" lon="7.783660">
                <time>2024-04-01T07:27:53Z</time>
            </trkpt>
            <trkpt lat="44.342790" lon="7.783870">
                <time>2024-04-01T07:27:54Z</time>
            </trkpt>
            <trkpt lat="44.342900" lon="7.784100">
                <time>2024-04-01T07:27:55Z</time>
            </trkpt>
            <trkpt lat="44.343020" lon="7.784320">
                <time>2024-04-01T07:27:56Z</time>
            </trkpt>
            <trkpt lat="44.343140" lon="7.784540">
                <time>2024-04-01T07:27:57Z</time>
            </trkpt>
            <trkpt lat="44.343260" lon="7.784770">
                <time>2024-04-01T07:27:58Z</time>
            </trkpt>
            <trkpt lat="44.343380" lon="7.785000">
                <time>2024-04-01T07:27:59Z</time>
            </trkpt>
            <trkpt lat="44.343500" lon="7.785230">
                <time>2024-04-01T07:28:00Z</time>
            </trkpt>
            <trkpt lat="44.343620" lon="7.785460">
                <time>2024-04-01T07:28:01Z</time>
            </trkpt>
            <trkpt lat="44.343740" lon="7.785690">
                <time>2024-04-01T07:28:02Z</time>
            </trkpt>
            <trkpt lat="44.343870" lon="7.785920">
                <time>2024-04-01T07:28:03Z</time>
            </trkpt>
            <trkpt lat="44.343990" lon="7.786150">
                <time>2024-04-01T07:28:04Z</time>
            </trkpt>
            <trkpt lat="44.344110" lon="7.786390">
                <time>2024-04-01T07:28:05Z</time>
            </trkpt>
            <trkpt lat="44.344240" lon="7.786630">
                <time>2024-04-01T07:28:06Z</time>
            </trkpt>
            <trkpt lat="44.344370" lon="7.786870">
                <time>2024-04-01T07:28:07Z</time>
            </trkpt>
            <trkpt lat="44.344500" lon="7.787110">
                <time>2024-04-01T07:28:08Z</time>
            </trkpt>
            <trkpt lat="44.344620" lon="7.787350">
                <time>2024-04-01T07:28:09Z</time>
            </trkpt>
            <trkpt lat="44.344760" lon="7.787590">
                <time>2024-04-01T07:28:10Z</time>
            </trkpt>
            <trkpt lat="44.344890" lon="7.787840">
                <time>2024-04-01T07:28:11Z</time>
            </trkpt>
            <trkpt lat="44.345010" lon="7.788090">
                <time>2024-04-01T07:28:12Z</time>
            </trkpt>
            <trkpt lat="44.345150" lon="7.788340">
                <time>2024-04-01T07:28:13Z</time>
            </trkpt>
            <trkpt lat="44.345280" lon="7.788590">
                <time>2024-04-01T07:28:14Z</time>
            </trkpt>
            <trkpt lat="44.345410" lon="7.788830">
                <time>2024-04-01T07:28:15Z</time>
            </trkpt>
            <trkpt lat="44.345540" lon="7.789070">
                <time>2024-04-01T07:28:16Z</time>
            </trkpt>
            <trkpt lat="44.345680" lon="7.789320">
                <time>2024-04-01T07:28:17Z</time>
            </trkpt>
            <trkpt lat="44.345800" lon="7.789550">
                <time>2024-04-01T07:28:18Z</time>
            </trkpt>
            <trkpt lat="44.345930" lon="7.789790">
                <time>2024-04-01T07:28:19Z</time>
            </trkpt>
            <trkpt lat="44.346060" lon="7.790020">
                <time>2024-04-01T07:28:20Z</time>
            </trkpt>
            <trkpt lat="44.346200" lon="7.790240">
                <time>2024-04-01T07:28:21Z</time>
            </trkpt>
            <trkpt lat="44.346330" lon="7.790450">
                <time>2024-04-01T07:28:22Z</time>
            </trkpt>
            <trkpt lat="44.346480" lon="7.790660">
                <time>2024-04-01T07:28:23Z</time>
            </trkpt>
            <trkpt lat="44.346620" lon="7.790860">
                <time>2024-04-01T07:28:24Z</time>
            </trkpt>
            <trkpt lat="44.346780" lon="7.791060">
                <time>2024-04-01T07:28:25Z</time>
            </trkpt>
            <trkpt lat="44.346940" lon="7.791250">
                <time>2024-04-01T07:28:26Z</time>
            </trkpt>
            <trkpt lat="44.347100" lon="7.791440">
                <time>2024-04-01T07:28:27Z</time>
            </trkpt>
            <trkpt lat="44.347270" lon="7.791630">
                <time>2024-04-01T07:28:28Z</time>
            </trkpt>
            <trkpt lat="44.347430" lon="7.791810">
                <time>2024-04-01T07:28:29Z</time>
            </trkpt>
            <trkpt lat="44.347590" lon="7.792000">
                <time>2024-04-01T07:28:30Z</time>
            </trkpt>
            <trkpt lat="44.347750" lon="7.792180">
                <time>2024-04-01T07:28:31Z</time>
            </trkpt>
            <trkpt lat="44.347920" lon="7.792370">
                <time>2024-04-01T07:28:32Z</time>
            </trkpt>
            <trkpt lat="44.348080" lon="7.792560">
                <time>2024-04-01T07:28:33Z</time>
            </trkpt>
            <trkpt lat="44.348240" lon="7.792740">
                <time>2024-04-01T07:28:34Z</time>
            </trkpt>
            <trkpt lat="44.348410" lon="7.792930">
                <time>2024-04-01T07:28:35Z</time>
            </trkpt>
            <trkpt lat="44.348560" lon="7.793110">
                <time>2024-04-01T07:28:36Z</time>
            </trkpt>
            <trkpt lat="44.348720" lon="7.793300">
                <time>2024-04-01T07:28:37Z</time>
            </trkpt>
            <trkpt lat="44.348870" lon="7.793500">
                <time>2024-04-01T07:28:38Z</time>
            </trkpt>
            <trkpt lat="44.349020" lon="7.793700">
                <time>2024-04-01T07:28:39Z</time>
            </trkpt>
            <trkpt lat="44.349170" lon="7.793900">
                <time>2024-04-01T07:28:40Z</time>
            </trkpt>
            <trkpt lat="44.349310" lon="7.794110">
                <time>2024-04-01T07:28:41Z</time>
            </trkpt>
            <trkpt lat="44.349460" lon="7.794320">
                <time>2024-04-01T07:28:42Z</time>
            </trkpt>
            <trkpt lat="44.349600" lon="7.794530">
                <time>2024-04-01T07:28:43Z</time>
            </trkpt>
            <trkpt lat="44.349730" lon="7.794750">
                <time>2024-04-01T07:28:44Z</time>
            </trkpt>
            <trkpt lat="44.349860" lon="7.794970">
                <time>2024-04-01T07:28:45Z</time>
            </trkpt>
            <trkpt lat="44.349980" lon="7.795210">
                <time>2024-04-01T07:28:46Z</time>
            </trkpt>
            <trkpt lat="44.350110" lon="7.795440">
                <time>2024-04-01T07:28:47Z</time>
            </trkpt>
            <trkpt lat="44.350230" lon="7.795690">
                <time>2024-04-01T07:28:48Z</time>
            </trkpt>
            <trkpt lat="44.350340" lon="7.795940">
                <time>2024-04-01T07:28:49Z</time>
            </trkpt>
            <trkpt lat="44.350460" lon="7.796200">
                <time>2024-04-01T07:28:50Z</time>
            </trkpt>
            <trkpt lat="44.350570" lon="7.796460">
                <time>2024-04-01T07:28:51Z</time>
            </trkpt>
            <trkpt lat="44.350680" lon="7.796720">
                <time>2024-04-01T07:28:52Z</time>
            </trkpt>
            <trkpt lat="44.350790" lon="7.796980">
                <time>2024-04-01T07:28:53Z</time>
            </trkpt>
            <trkpt lat="44.350910" lon="7.797250">
                <time>2024-04-01T07:28:54Z</time>
            </trkpt>
            <trkpt lat="44.351020" lon="7.797520">
                <time>2024-04-01T07:28:55Z</time>
            </trkpt>
            <trkpt lat="44.351140" lon="7.797780">
                <time>2024-04-01T07:28:56Z</time>
            </trkpt>
            <trkpt lat="44.351250" lon="7.798040">
                <time>2024-04-01T07:28:57Z</time>
            </trkpt>
            <trkpt lat="44.351360" lon="7.798310">
                <time>2024-04-01T07:28:58Z</time>
            </trkpt>
            <trkpt lat="44.351480" lon="7.798570">
                <time>2024-04-01T07:28:59Z</time>
            </trkpt>
            <trkpt lat="44.351590" lon="7.798840">
                <time>2024-04-01T07:29:00Z</time>
            </trkpt>
            <trkpt lat="44.351700" lon="7.799110">
                <time>2024-04-01T07:29:01Z</time>
            </trkpt>
            <trkpt lat="44.351810" lon="7.799370">
                <time>2024-04-01T07:29:02Z</time>
            </trkpt>
            <trkpt lat="44.351920" lon="7.799630">
                <time>2024-04-01T07:29:03Z</time>
            </trkpt>
            <trkpt lat="44.352030" lon="7.799890">
                <time>2024-04-01T07:29:04Z</time>
            </trkpt>
            <trkpt lat="44.352140" lon="7.800150">
                <time>2024-04-01T07:29:05Z</time>
            </trkpt>
            <trkpt lat="44.352250" lon="7.800400">
                <time>2024-04-01T07:29:06Z</time>
            </trkpt>
            <trkpt lat="44.352360" lon="7.800660">
                <time>2024-04-01T07:29:07Z</time>
            </trkpt>
            <trkpt lat="44.352460" lon="7.800910">
                <time>2024-04-01T07:29:08Z</time>
            </trkpt>
            <trkpt lat="44.352570" lon="7.801170">
                <time>2024-04-01T07:29:09Z</time>
            </trkpt>
            <trkpt lat="44.352680" lon="7.801420">
                <time>2024-04-01T07:29:10Z</time>
            </trkpt>
            <trkpt lat="44.352790" lon="7.801680">
                <time>2024-04-01T07:29:11Z</time>
            </trkpt>
            <trkpt lat="44.352890" lon="7.801920">
                <time>2024-04-01T07:29:12Z</time>
            </trkpt>
            <trkpt lat="44.352990" lon="7.802160">
                <time>2024-04-01T07:29:13Z</time>
            </trkpt>
            <trkpt lat="44.353090" lon="7.802390">
                <time>2024-04-01T07:29:14Z</time>
            </trkpt>
            <trkpt lat="44.353190" lon="7.802630">
                <time>2024-04-01T07:29:15Z</time>
            </trkpt>
            <trkpt lat="44.353290" lon="7.802880">
                <time>2024-04-01T07:29:16Z</time>
            </trkpt>
            <trkpt lat="44.353390" lon="7.803130">
                <time>2024-04-01T07:29:17Z</time>
            </trkpt>
            <trkpt lat="44.353470" lon="7.803380">
                <time>2024-04-01T07:29:18Z</time>
            </trkpt>
            <trkpt lat="44.353550" lon="7.803640">
                <time>2024-04-01T07:29:19Z</time>
            </trkpt>
            <trkpt lat="44.353620" lon="7.803900">
                <time>2024-04-01T07:29:20Z</time>
            </trkpt>
            <trkpt lat="44.353680" lon="7.804170">
                <time>2024-04-01T07:29:21Z</time>
            </trkpt>
            <trkpt lat="44.353740" lon="7.804440">
                <time>2024-04-01T07:29:22Z</time>
            </trkpt>
            <trkpt lat="44.353790" lon="7.804710">
                <time>2024-04-01T07:29:23Z</time>
            </trkpt>
            <trkpt lat="44.353830" lon="7.804990">
                <time>2024-04-01T07:29:24Z</time>
            </trkpt>
            <trkpt lat="44.353870" lon="7.805260">
                <time>2024-04-01T07:29:25Z</time>
            </trkpt>
            <trkpt lat="44.353900" lon="7.805530">
                <time>2024-04-01T07:29:26Z</time>
            </trkpt>
            <trkpt lat="44.353930" lon="7.805800">
                <time>2024-04-01T07:29:27Z</time>
            </trkpt>
            <trkpt lat="44.353960" lon="7.806060">
                <time>2024-04-01T07:29:28Z</time>
            </trkpt>
            <trkpt lat="44.353990" lon="7.806330">
                <time>2024-04-01T07:29:29Z</time>
            </trkpt>
            <trkpt lat="44.354020" lon="7.806600">
                <time>2024-04-01T07:29:30Z</time>
            </trkpt>
            <trkpt lat="44.354050" lon="7.806870">
                <time>2024-04-01T07:29:31Z</time>
            </trkpt>
            <trkpt lat="44.354080" lon="7.807140">
                <time>2024-04-01T07:29:32Z</time>
            </trkpt>
            <trkpt lat="44.354090" lon="7.807400">
                <time>2024-04-01T07:29:33Z</time>
            </trkpt>
            <trkpt lat="44.354100" lon="7.807670">
                <time>2024-04-01T07:29:34Z</time>
            </trkpt>
            <trkpt lat="44.354100" lon="7.807930">
                <time>2024-04-01T07:29:35Z</time>
            </trkpt>
            <trkpt lat="44.354080" lon="7.808190">
                <time>2024-04-01T07:29:36Z</time>
            </trkpt>
            <trkpt lat="44.354060" lon="7.808450">
                <time>2024-04-01T07:29:37Z</time>
            </trkpt>
            <trkpt lat="44.354030" lon="7.808710">
                <time>2024-04-01T07:29:38Z</time>
            </trkpt>
            <trkpt lat="44.353990" lon="7.808970">
                <time>2024-04-01T07:29:39Z</time>
            </trkpt>
            <trkpt lat="44.353950" lon="7.809230">
                <time>2024-04-01T07:29:40Z</time>
            </trkpt>
            <trkpt lat="44.353900" lon="7.809500">
                <time>2024-04-01T07:29:41Z</time>
            </trkpt>
            <trkpt lat="44.353850" lon="7.809760">
                <time>2024-04-01T07:29:42Z</time>
            </trkpt>
            <trkpt lat="44.353800" lon="7.810020">
                <time>2024-04-01T07:29:43Z</time>
            </trkpt>
            <trkpt lat="44.353740" lon="7.810290">
                <time>2024-04-01T07:29:44Z</time>
            </trkpt>
            <trkpt lat="44.353690" lon="7.810550">
                <time>2024-04-01T07:29:45Z</time>
            </trkpt>
            <trkpt lat="44.353630" lon="7.810810">
                <time>2024-04-01T07:29:46Z</time>
            </trkpt>
            <trkpt lat="44.353580" lon="7.811080">
                <time>2024-04-01T07:29:47Z</time>
            </trkpt>
            <trkpt lat="44.353530" lon="7.811340">
                <time>2024-04-01T07:29:48Z</time>
            </trkpt>
            <trkpt lat="44.353470" lon="7.811610">
                <time>2024-04-01T07:29:49Z</time>
            </trkpt>
            <trkpt lat="44.353420" lon="7.811870">
                <time>2024-04-01T07:29:50Z</time>
            </trkpt>
            <trkpt lat="44.353370" lon="7.812140">
                <time>2024-04-01T07:29:51Z</time>
            </trkpt>
            <trkpt lat="44.353320" lon="7.812400">
                <time>2024-04-01T07:29:52Z</time>
            </trkpt>
            <trkpt lat="44.353260" lon="7.812670">
                <time>2024-04-01T07:29:53Z</time>
            </trkpt>
            <trkpt lat="44.353210" lon="7.812930">
                <time>2024-04-01T07:29:54Z</time>
            </trkpt>
            <trkpt lat="44.353160" lon="7.813200">
                <time>2024-04-01T07:29:55Z</time>
            </trkpt>
            <trkpt lat="44.353100" lon="7.813470">
                <time>2024-04-01T07:29:56Z</time>
            </trkpt>
            <trkpt lat="44.353050" lon="7.813740">
                <time>2024-04-01T07:29:57Z</time>
            </trkpt>
            <trkpt lat="44.353000" lon="7.814010">
                <time>2024-04-01T07:29:58Z</time>
            </trkpt>
            <trkpt lat="44.352950" lon="7.814280">
                <time>2024-04-01T07:29:59Z</time>
            </trkpt>
            <trkpt lat="44.352890" lon="7.814560">
                <time>2024-04-01T07:30:00Z</time>
            </trkpt>
            <trkpt lat="44.352840" lon="7.814830">
                <time>2024-04-01T07:30:01Z</time>
            </trkpt>
            <trkpt lat="44.352790" lon="7.815090">
                <time>2024-04-01T07:30:02Z</time>
            </trkpt>
            <trkpt lat="44.352740" lon="7.815350">
                <time>2024-04-01T07:30:03Z</time>
            </trkpt>
            <trkpt lat="44.352690" lon="7.815600">
                <time>2024-04-01T07:30:04Z</time>
            </trkpt>
            <trkpt lat="44.352640" lon="7.815840">
                <time>2024-04-01T07:30:05Z</time>
            </trkpt>
            <trkpt lat="44.352590" lon="7.816080">
                <time>2024-04-01T07:30:06Z</time>
            </trkpt>
            <trkpt lat="44.352540" lon="7.816320">
                <time>2024-04-01T07:30:07Z</time>
            </trkpt>
            <trkpt lat="44.352490" lon="7.816550">
                <time>2024-04-01T07:30:08Z</time>
            </trkpt>
            <trkpt lat="44.352440" lon="7.816760">
                <time>2024-04-01T07:30:09Z</time>
            </trkpt>
            <trkpt lat="44.352380" lon="7.816960">
                <time>2024-04-01T07:30:10Z</time>
            </trkpt>
            <trkpt lat="44.352310" lon="7.817160">
                <time>2024-04-01T07:30:11Z</time>
            </trkpt>
            <trkpt lat="44.352240" lon="7.817350">
                <time>2024-04-01T07:30:12Z</time>
            </trkpt>
            <trkpt lat="44.352140" lon="7.817530">
                <time>2024-04-01T07:30:13Z</time>
            </trkpt>
            <trkpt lat="44.352040" lon="7.817720">
                <time>2024-04-01T07:30:14Z</time>
            </trkpt>
            <trkpt lat="44.351910" lon="7.817890">
                <time>2024-04-01T07:30:15Z</time>
            </trkpt>
            <trkpt lat="44.351780" lon="7.818070">
                <time>2024-04-01T07:30:16Z</time>
            </trkpt>
            <trkpt lat="44.351650" lon="7.818250">
                <time>2024-04-01T07:30:17Z</time>
            </trkpt>
            <trkpt lat="44.351520" lon="7.818420">
                <time>2024-04-01T07:30:18Z</time>
            </trkpt>
            <trkpt lat="44.351380" lon="7.818590">
                <time>2024-04-01T07:30:19Z</time>
            </trkpt>
            <trkpt lat="44.351250" lon="7.818750">
                <time>2024-04-01T07:30:20Z</time>
            </trkpt>
            <trkpt lat="44.351110" lon="7.818890">
                <time>2024-04-01T07:30:21Z</time>
            </trkpt>
            <trkpt lat="44.350960" lon="7.819010">
                <time>2024-04-01T07:30:22Z</time>
            </trkpt>
            <trkpt lat="44.350810" lon="7.819110">
                <time>2024-04-01T07:30:23Z</time>
            </trkpt>
            <trkpt lat="44.350640" lon="7.819200">
                <time>2024-04-01T07:30:24Z</time>
            </trkpt>
            <trkpt lat="44.350470" lon="7.819270">
                <time>2024-04-01T07:30:25Z</time>
            </trkpt>
            <trkpt lat="44.350300" lon="7.819340">
                <time>2024-04-01T07:30:26Z</time>
            </trkpt>
            <trkpt lat="44.350120" lon="7.819400">
                <time>2024-04-01T07:30:27Z</time>
            </trkpt>
            <trkpt lat="44.349930" lon="7.819470">
                <time>2024-04-01T07:30:28Z</time>
            </trkpt>
            <trkpt lat="44.349750" lon="7.819530">
                <time>2024-04-01T07:30:29Z</time>
            </trkpt>
            <trkpt lat="44.349570" lon="7.819600">
                <time>2024-04-01T07:30:30Z</time>
            </trkpt>
            <trkpt lat="44.349390" lon="7.819660">
                <time>2024-04-01T07:30:31Z</time>
            </trkpt>
            <trkpt lat="44.349220" lon="7.819730">
                <time>2024-04-01T07:30:32Z</time>
            </trkpt>
            <trkpt lat="44.349040" lon="7.819790">
                <time>2024-04-01T07:30:33Z</time>
            </trkpt>
            <trkpt lat="44.348860" lon="7.819860">
                <time>2024-04-01T07:30:34Z</time>
            </trkpt>
            <trkpt lat="44.348690" lon="7.819930">
                <time>2024-04-01T07:30:35Z</time>
            </trkpt>
            <trkpt lat="44.348520" lon="7.820010">
                <time>2024-04-01T07:30:36Z</time>
            </trkpt>
            <trkpt lat="44.348360" lon="7.820100">
                <time>2024-04-01T07:30:37Z</time>
            </trkpt>
            <trkpt lat="44.348200" lon="7.820210">
                <time>2024-04-01T07:30:38Z</time>
            </trkpt>
            <trkpt lat="44.348060" lon="7.820330">
                <time>2024-04-01T07:30:39Z</time>
            </trkpt>
            <trkpt lat="44.347920" lon="7.820470">
                <time>2024-04-01T07:30:40Z</time>
            </trkpt>
            <trkpt lat="44.347780" lon="7.820610">
                <time>2024-04-01T07:30:41Z</time>
            </trkpt>
            <trkpt lat="44.347640" lon="7.820750">
                <time>2024-04-01T07:30:42Z</time>
            </trkpt>
            <trkpt lat="44.347510" lon="7.820900">
                <time>2024-04-01T07:30:43Z</time>
            </trkpt>
            <trkpt lat="44.347370" lon="7.821040">
                <time>2024-04-01T07:30:44Z</time>
            </trkpt>
            <trkpt lat="44.347250" lon="7.821180">
                <time>2024-04-01T07:30:45Z</time>
            </trkpt>
            <trkpt lat="44.347120" lon="7.821300">
                <time>2024-04-01T07:30:46Z</time>
            </trkpt>
            <trkpt lat="44.347010" lon="7.821430">
                <time>2024-04-01T07:30:47Z</time>
            </trkpt>
            <trkpt lat="44.346900" lon="7.821530">
                <time>2024-04-01T07:30:48Z</time>
            </trkpt>
            <trkpt lat="44.346810" lon="7.821630">
                <time>2024-04-01T07:30:49Z</time>
            </trkpt>
            <trkpt lat="44.346720" lon="7.821720">
                <time>2024-04-01T07:30:50Z</time>
            </trkpt>
            <trkpt lat="44.346650" lon="7.821810">
                <time>2024-04-01T07:30:51Z</time>
            </trkpt>
            <trkpt lat="44.346570" lon="7.821880">
                <time>2024-04-01T07:30:52Z</time>
            </trkpt>
            <trkpt lat="44.346520" lon="7.821970">
                <time>2024-04-01T07:30:53Z</time>
            </trkpt>
            <trkpt lat="44.346490" lon="7.822050">
                <time>2024-04-01T07:30:54Z</time>
            </trkpt>
            <trkpt lat="44.346470" lon="7.822130">
                <time>2024-04-01T07:30:55Z</time>
            </trkpt>
            <trkpt lat="44.346460" lon="7.822190">
                <time>2024-04-01T07:30:56Z</time>
            </trkpt>
            <trkpt lat="44.346460" lon="7.822240">
                <time>2024-04-01T07:30:57Z</time>
            </trkpt>
            <trkpt lat="44.346480" lon="7.822300">
                <time>2024-04-01T07:30:58Z</time>
            </trkpt>
            <trkpt lat="44.346520" lon="7.822370">
                <time>2024-04-01T07:30:59Z</time>
            </trkpt>
            <trkpt lat="44.346570" lon="7.822430">
                <time>2024-04-01T07:31:00Z</time>
            </trkpt>
            <trkpt lat="44.346640" lon="7.822500">
                <time>2024-04-01T07:31:01Z</time>
            </trkpt>
            <trkpt lat="44.346720" lon="7.822570">
                <time>2024-04-01T07:31:02Z</time>
            </trkpt>
            <trkpt lat="44.346810" lon="7.822640">
                <time>2024-04-01T07:31:03Z</time>
            </trkpt>
            <trkpt lat="44.346890" lon="7.822720">
                <time>2024-04-01T07:31:04Z</time>
            </trkpt>
            <trkpt lat="44.346990" lon="7.822790">
                <time>2024-04-01T07:31:05Z</time>
            </trkpt>
            <trkpt lat="44.347090" lon="7.822870">
                <time>2024-04-01T07:31:06Z</time>
            </trkpt>
            <trkpt lat="44.347190" lon="7.822950">
                <time>2024-04-01T07:31:07Z</time>
            </trkpt>
            <trkpt lat="44.347300" lon="7.823020">
                <time>2024-04-01T07:31:08Z</time>
            </trkpt>
            <trkpt lat="44.347410" lon="7.823100">
                <time>2024-04-01T07:31:09Z</time>
            </trkpt>
            <trkpt lat="44.347510" lon="7.823170">
                <time>2024-04-01T07:31:10Z</time>
            </trkpt>
            <trkpt lat="44.347610" lon="7.823230">
                <time>2024-04-01T07:31:11Z</time>
            </trkpt>
            <trkpt lat="44.347720" lon="7.823300">
                <time>2024-04-01T07:31:12Z</time>
            </trkpt>
            <trkpt lat="44.347830" lon="7.823370">
                <time>2024-04-01T07:31:13Z</time>
            </trkpt>
            <trkpt lat="44.347940" lon="7.823430">
                <time>2024-04-01T07:31:14Z</time>
            </trkpt>
            <trkpt lat="44.348050" lon="7.823490">
                <time>2024-04-01T07:31:15Z</time>
            </trkpt>
            <trkpt lat="44.348170" lon="7.823520">
                <time>2024-04-01T07:31:16Z</time>
            </trkpt>
            <trkpt lat="44.348280" lon="7.823540">
                <time>2024-04-01T07:31:17Z</time>
            </trkpt>
            <trkpt lat="44.348400" lon="7.823540">
                <time>2024-04-01T07:31:18Z</time>
            </trkpt>
            <trkpt lat="44.348510" lon="7.823520">
                <time>2024-04-01T07:31:19Z</time>
            </trkpt>
            <trkpt lat="44.348620" lon="7.823500">
                <time>2024-04-01T07:31:20Z</time>
            </trkpt>
            <trkpt lat="44.348730" lon="7.823480">
                <time>2024-04-01T07:31:21Z</time>
            </trkpt>
            <trkpt lat="44.348840" lon="7.823450">
                <time>2024-04-01T07:31:22Z</time>
            </trkpt>
            <trkpt lat="44.348950" lon="7.823420">
                <time>2024-04-01T07:31:23Z</time>
            </trkpt>
            <trkpt lat="44.349060" lon="7.823400">
                <time>2024-04-01T07:31:24Z</time>
            </trkpt>
            <trkpt lat="44.349180" lon="7.823380">
                <time>2024-04-01T07:31:25Z</time>
            </trkpt>
            <trkpt lat="44.349290" lon="7.823360">
                <time>2024-04-01T07:31:26Z</time>
            </trkpt>
            <trkpt lat="44.349410" lon="7.823350">
                <time>2024-04-01T07:31:27Z</time>
            </trkpt>
            <trkpt lat="44.349520" lon="7.823380">
                <time>2024-04-01T07:31:28Z</time>
            </trkpt>
            <trkpt lat="44.349640" lon="7.823420">
                <time>2024-04-01T07:31:29Z</time>
            </trkpt>
            <trkpt lat="44.349750" lon="7.823500">
                <time>2024-04-01T07:31:30Z</time>
            </trkpt>
            <trkpt lat="44.349850" lon="7.823590">
                <time>2024-04-01T07:31:31Z</time>
            </trkpt>
            <trkpt lat="44.349950" lon="7.823700">
                <time>2024-04-01T07:31:32Z</time>
            </trkpt>
            <trkpt lat="44.350050" lon="7.823830">
                <time>2024-04-01T07:31:33Z</time>
            </trkpt>
            <trkpt lat="44.350150" lon="7.823960">
                <time>2024-04-01T07:31:34Z</time>
            </trkpt>
            <trkpt lat="44.350250" lon="7.824100">
                <time>2024-04-01T07:31:35Z</time>
            </trkpt>
            <trkpt lat="44.350350" lon="7.824250">
                <time>2024-04-01T07:31:36Z</time>
            </trkpt>
            <trkpt lat="44.350450" lon="7.824390">
                <time>2024-04-01T07:31:37Z</time>
            </trkpt>
            <trkpt lat="44.350540" lon="7.824540">
                <time>2024-04-01T07:31:38Z</time>
            </trkpt>
            <trkpt lat="44.350640" lon="7.824690">
                <time>2024-04-01T07:31:39Z</time>
            </trkpt>
            <trkpt lat="44.350720" lon="7.824840">
                <time>2024-04-01T07:31:40Z</time>
            </trkpt>
            <trkpt lat="44.350800" lon="7.825000">
                <time>2024-04-01T07:31:41Z</time>
            </trkpt>
            <trkpt lat="44.350890" lon="7.825150">
                <time>2024-04-01T07:31:42Z</time>
            </trkpt>
            <trkpt lat="44.350980" lon="7.825300">
                <time>2024-04-01T07:31:43Z</time>
            </trkpt>
            <trkpt lat="44.351070" lon="7.825440">
                <time>2024-04-01T07:31:44Z</time>
            </trkpt>
            <trkpt lat="44.351150" lon="7.825560">
                <time>2024-04-01T07:31:45Z</time>
            </trkpt>
            <trkpt lat="44.351240" lon="7.825670">
                <time>2024-04-01T07:31:46Z</time>
            </trkpt>
            <trkpt lat="44.351330" lon="7.825770">
                <time>2024-04-01T07:31:47Z</time>
            </trkpt>
            <trkpt lat="44.351410" lon="7.825860">
                <time>2024-04-01T07:31:48Z</time>
            </trkpt>
            <trkpt lat="44.351500" lon="7.825930">
                <time>2024-04-01T07:31:49Z</time>
            </trkpt>
            <trkpt lat="44.351570" lon="7.825980">
                <time>2024-04-01T07:31:50Z</time>
            </trkpt>
            <trkpt lat="44.351630" lon="7.826030">
                <time>2024-04-01T07:31:51Z</time>
            </trkpt>
            <trkpt lat="44.351680" lon="7.826060">
                <time>2024-04-01T07:31:52Z</time>
            </trkpt>
            <trkpt lat="44.351720" lon="7.826100">
                <time>2024-04-01T07:31:53Z</time>
            </trkpt>
            <trkpt lat="44.351750" lon="7.826160">
                <time>2024-04-01T07:31:54Z</time>
            </trkpt>
            <trkpt lat="44.351790" lon="7.826240">
                <time>2024-04-01T07:31:55Z</time>
            </trkpt>
            <trkpt lat="44.351830" lon="7.826330">
                <time>2024-04-01T07:31:56Z</time>
            </trkpt>
            <trkpt lat="44.351870" lon="7.826430">
                <time>2024-04-01T07:31:57Z</time>
            </trkpt>
            <trkpt lat="44.351930" lon="7.826510">
                <time>2024-04-01T07:31:58Z</time>
            </trkpt>
            <trkpt lat="44.351980" lon="7.826580">
                <time>2024-04-01T07:31:59Z</time>
            </trkpt>
            <trkpt lat="44.352050" lon="7.826620">
                <time>2024-04-01T07:32:00Z</time>
            </trkpt>
            <trkpt lat="44.352120" lon="7.826660">
                <time>2024-04-01T07:32:01Z</time>
            </trkpt>
            <trkpt lat="44.352210" lon="7.826690">
                <time>2024-04-01T07:32:02Z</time>
            </trkpt>
            <trkpt lat="44.352310" lon="7.826720">
                <time>2024-04-01T07:32:03Z</time>
            </trkpt>
            <trkpt lat="44.352420" lon="7.826750">
                <time>2024-04-01T07:32:04Z</time>
            </trkpt>
            <trkpt lat="44.352520" lon="7.826780">
                <time>2024-04-01T07:32:05Z</time>
            </trkpt>
            <trkpt lat="44.352640" lon="7.826820">
                <time>2024-04-01T07:32:06Z</time>
            </trkpt>
            <trkpt lat="44.352750" lon="7.826850">
                <time>2024-04-01T07:32:07Z</time>
            </trkpt>
            <trkpt lat="44.352850" lon="7.826880">
                <time>2024-04-01T07:32:08Z</time>
            </trkpt>
            <trkpt lat="44.352960" lon="7.826920">
                <time>2024-04-01T07:32:09Z</time>
            </trkpt>
            <trkpt lat="44.353070" lon="7.826950">
                <time>2024-04-01T07:32:10Z</time>
            </trkpt>
            <trkpt lat="44.353160" lon="7.826980">
                <time>2024-04-01T07:32:11Z</time>
            </trkpt>
            <trkpt lat="44.353260" lon="7.827000">
                <time>2024-04-01T07:32:12Z</time>
            </trkpt>
            <trkpt lat="44.353350" lon="7.827000">
                <time>2024-04-01T07:32:13Z</time>
            </trkpt>
            <trkpt lat="44.353430" lon="7.826970">
                <time>2024-04-01T07:32:14Z</time>
            </trkpt>
            <trkpt lat="44.353520" lon="7.826920">
                <time>2024-04-01T07:32:15Z</time>
            </trkpt>
            <trkpt lat="44.353600" lon="7.826830">
                <time>2024-04-01T07:32:16Z</time>
            </trkpt>
            <trkpt lat="44.353660" lon="7.826740">
                <time>2024-04-01T07:32:17Z</time>
            </trkpt>
            <trkpt lat="44.353700" lon="7.826600">
                <time>2024-04-01T07:32:18Z</time>
            </trkpt>
            <trkpt lat="44.353730" lon="7.826470">
                <time>2024-04-01T07:32:19Z</time>
            </trkpt>
            <trkpt lat="44.353750" lon="7.826320">
                <time>2024-04-01T07:32:20Z</time>
            </trkpt>
            <trkpt lat="44.353780" lon="7.826170">
                <time>2024-04-01T07:32:21Z</time>
            </trkpt>
            <trkpt lat="44.353810" lon="7.826010">
                <time>2024-04-01T07:32:22Z</time>
            </trkpt>
            <trkpt lat="44.353840" lon="7.825850">
                <time>2024-04-01T07:32:23Z</time>
            </trkpt>
            <trkpt lat="44.353870" lon="7.825700">
                <time>2024-04-01T07:32:24Z</time>
            </trkpt>
            <trkpt lat="44.353910" lon="7.825550">
                <time>2024-04-01T07:32:25Z</time>
            </trkpt>
            <trkpt lat="44.353960" lon="7.825410">
                <time>2024-04-01T07:32:26Z</time>
            </trkpt>
            <trkpt lat="44.354010" lon="7.825290">
                <time>2024-04-01T07:32:27Z</time>
            </trkpt>
            <trkpt lat="44.354080" lon="7.825190">
                <time>2024-04-01T07:32:28Z</time>
            </trkpt>
            <trkpt lat="44.354160" lon="7.825110">
                <time>2024-04-01T07:32:29Z</time>
            </trkpt>
            <trkpt lat="44.354260" lon="7.825050">
                <time>2024-04-01T07:32:30Z</time>
            </trkpt>
            <trkpt lat="44.354360" lon="7.825010">
                <time>2024-04-01T07:32:31Z</time>
            </trkpt>
            <trkpt lat="44.354480" lon="7.824970">
                <time>2024-04-01T07:32:32Z</time>
            </trkpt>
            <trkpt lat="44.354600" lon="7.824940">
                <time>2024-04-01T07:32:33Z</time>
            </trkpt>
            <trkpt lat="44.354710" lon="7.824910">
                <time>2024-04-01T07:32:34Z</time>
            </trkpt>
            <trkpt lat="44.354810" lon="7.824890">
                <time>2024-04-01T07:32:35Z</time>
            </trkpt>
            <trkpt lat="44.354900" lon="7.824890">
                <time>2024-04-01T07:32:36Z</time>
            </trkpt>
            <trkpt lat="44.354980" lon="7.824890">
                <time>2024-04-01T07:32:37Z</time>
            </trkpt>
            <trkpt lat="44.355060" lon="7.824920">
                <time>2024-04-01T07:32:38Z</time>
            </trkpt>
            <trkpt lat="44.355130" lon="7.824970">
                <time>2024-04-01T07:32:39Z</time>
            </trkpt>
            <trkpt lat="44.355180" lon="7.825040">
                <time>2024-04-01T07:32:40Z</time>
            </trkpt>
            <trkpt lat="44.355230" lon="7.825140">
                <time>2024-04-01T07:32:41Z</time>
            </trkpt>
            <trkpt lat="44.355260" lon="7.825250">
                <time>2024-04-01T07:32:42Z</time>
            </trkpt>
            <trkpt lat="44.355280" lon="7.825390">
                <time>2024-04-01T07:32:43Z</time>
            </trkpt>
            <trkpt lat="44.355300" lon="7.825530">
                <time>2024-04-01T07:32:44Z</time>
            </trkpt>
            <trkpt lat="44.355300" lon="7.825680">
                <time>2024-04-01T07:32:45Z</time>
            </trkpt>
            <trkpt lat="44.355300" lon="7.825840">
                <time>2024-04-01T07:32:46Z</time>
            </trkpt>
            <trkpt lat="44.355320" lon="7.826010">
                <time>2024-04-01T07:32:47Z</time>
            </trkpt>
            <trkpt lat="44.355340" lon="7.826170">
                <time>2024-04-01T07:32:48Z</time>
            </trkpt>
            <trkpt lat="44.355370" lon="7.826320">
                <time>2024-04-01T07:32:49Z</time>
            </trkpt>
            <trkpt lat="44.355420" lon="7.826460">
                <time>2024-04-01T07:32:50Z</time>
            </trkpt>
            <trkpt lat="44.355470" lon="7.826600">
                <time>2024-04-01T07:32:51Z</time>
            </trkpt>
            <trkpt lat="44.355520" lon="7.826740">
                <time>2024-04-01T07:32:52Z</time>
            </trkpt>
            <trkpt lat="44.355570" lon="7.826880">
                <time>2024-04-01T07:32:53Z</time>
            </trkpt>
            <trkpt lat="44.355620" lon="7.827020">
                <time>2024-04-01T07:32:54Z</time>
            </trkpt>
            <trkpt lat="44.355670" lon="7.827160">
                <time>2024-04-01T07:32:55Z</time>
            </trkpt>
            <trkpt lat="44.355730" lon="7.827310">
                <time>2024-04-01T07:32:56Z</time>
            </trkpt>
            <trkpt lat="44.355780" lon="7.827470">
                <time>2024-04-01T07:32:57Z</time>
            </trkpt>
            <trkpt lat="44.355840" lon="7.827630">
                <time>2024-04-01T07:32:58Z</time>
            </trkpt>
            <trkpt lat="44.355890" lon="7.827790">
                <time>2024-04-01T07:32:59Z</time>
            </trkpt>
            <trkpt lat="44.355940" lon="7.827950">
                <time>2024-04-01T07:33:00Z</time>
            </trkpt>
            <trkpt lat="44.355980" lon="7.828090">
                <time>2024-04-01T07:33:01Z</time>
            </trkpt>
            <trkpt lat="44.356010" lon="7.828210">
                <time>2024-04-01T07:33:02Z</time>
            </trkpt>
            <trkpt lat="44.356050" lon="7.828320">
                <time>2024-04-01T07:33:03Z</time>
            </trkpt>
            <trkpt lat="44.356090" lon="7.828400">
                <time>2024-04-01T07:33:04Z</time>
            </trkpt>
            <trkpt lat="44.356150" lon="7.828450">
                <time>2024-04-01T07:33:05Z</time>
            </trkpt>
            <trkpt lat="44.356210" lon="7.828480">
                <time>2024-04-01T07:33:06Z</time>
            </trkpt>
            <trkpt lat="44.356280" lon="7.828470">
                <time>2024-04-01T07:33:07Z</time>
            </trkpt>
            <trkpt lat="44.356340" lon="7.828430">
                <time>2024-04-01T07:33:08Z</time>
            </trkpt>
            <trkpt lat="44.356390" lon="7.828370">
                <time>2024-04-01T07:33:09Z</time>
            </trkpt>
            <trkpt lat="44.356420" lon="7.828280">
                <time>2024-04-01T07:33:10Z</time>
            </trkpt>
            <trkpt lat="44.356440" lon="7.828170">
                <time>2024-04-01T07:33:11Z</time>
            </trkpt>
            <trkpt lat="44.356460" lon="7.828060">
                <time>2024-04-01T07:33:12Z</time>
            </trkpt>
            <trkpt lat="44.356470" lon="7.827930">
                <time>2024-04-01T07:33:13Z</time>
            </trkpt>
            <trkpt lat="44.356500" lon="7.827820">
                <time>2024-04-01T07:33:14Z</time>
            </trkpt>
            <trkpt lat="44.356540" lon="7.827710">
                <time>2024-04-01T07:33:15Z</time>
            </trkpt>
            <trkpt lat="44.356610" lon="7.827600">
                <time>2024-04-01T07:33:16Z</time>
            </trkpt>
            <trkpt lat="44.356700" lon="7.827490">
                <time>2024-04-01T07:33:17Z</time>
            </trkpt>
            <trkpt lat="44.356790" lon="7.827380">
                <time>2024-04-01T07:33:18Z</time>
            </trkpt>
            <trkpt lat="44.356890" lon="7.827270">
                <time>2024-04-01T07:33:19Z</time>
            </trkpt>
            <trkpt lat="44.356990" lon="7.827170">
                <time>2024-04-01T07:33:20Z</time>
            </trkpt>
            <trkpt lat="44.357070" lon="7.827070">
                <time>2024-04-01T07:33:21Z</time>
            </trkpt>
            <trkpt lat="44.357150" lon="7.826990">
                <time>2024-04-01T07:33:22Z</time>
            </trkpt>
            <trkpt lat="44.357220" lon="7.826920">
                <time>2024-04-01T07:33:23Z</time>
            </trkpt>
            <trkpt lat="44.357290" lon="7.826890">
                <time>2024-04-01T07:33:24Z</time>
            </trkpt>
            <trkpt lat="44.357370" lon="7.826890">
                <time>2024-04-01T07:33:25Z</time>
            </trkpt>
            <trkpt lat="44.357430" lon="7.826930">
                <time>2024-04-01T07:33:26Z</time>
            </trkpt>
            <trkpt lat="44.357490" lon="7.827000">
                <time>2024-04-01T07:33:27Z</time>
            </trkpt>
            <trkpt lat="44.357530" lon="7.827110">
                <time>2024-04-01T07:33:28Z</time>
            </trkpt>
            <trkpt lat="44.357540" lon="7.827230">
                <time>2024-04-01T07:33:29Z</time>
            </trkpt>
            <trkpt lat="44.357530" lon="7.827370">
                <time>2024-04-01T07:33:30Z</time>
            </trkpt>
            <trkpt lat="44.357510" lon="7.827530">
                <time>2024-04-01T07:33:31Z</time>
            </trkpt>
            <trkpt lat="44.357490" lon="7.827700">
                <time>2024-04-01T07:33:32Z</time>
            </trkpt>
            <trkpt lat="44.357480" lon="7.827870">
                <time>2024-04-01T07:33:33Z</time>
            </trkpt>
            <trkpt lat="44.357470" lon="7.828060">
                <time>2024-04-01T07:33:34Z</time>
            </trkpt>
            <trkpt lat="44.357460" lon="7.828270">
                <time>2024-04-01T07:33:35Z</time>
            </trkpt>
            <trkpt lat="44.357460" lon="7.828470">
                <time>2024-04-01T07:33:36Z</time>
            </trkpt>
            <trkpt lat="44.357460" lon="7.828680">
                <time>2024-04-01T07:33:37Z</time>
            </trkpt>
            <trkpt lat="44.357470" lon="7.828890">
                <time>2024-04-01T07:33:38Z</time>
            </trkpt>
            <trkpt lat="44.357490" lon="7.829110">
                <time>2024-04-01T07:33:39Z</time>
            </trkpt>
            <trkpt lat="44.357510" lon="7.829320">
                <time>2024-04-01T07:33:40Z</time>
            </trkpt>
            <trkpt lat="44.357540" lon="7.829540">
                <time>2024-04-01T07:33:41Z</time>
            </trkpt>
            <trkpt lat="44.357570" lon="7.829750">
                <time>2024-04-01T07:33:42Z</time>
            </trkpt>
            <trkpt lat="44.357610" lon="7.829960">
                <time>2024-04-01T07:33:43Z</time>
            </trkpt>
            <trkpt lat="44.357660" lon="7.830160">
                <time>2024-04-01T07:33:44Z</time>
            </trkpt>
            <trkpt lat="44.357720" lon="7.830350">
                <time>2024-04-01T07:33:45Z</time>
            </trkpt>
            <trkpt lat="44.357790" lon="7.830530">
                <time>2024-04-01T07:33:46Z</time>
            </trkpt>
            <trkpt lat="44.357880" lon="7.830710">
                <time>2024-04-01T07:33:47Z</time>
            </trkpt>
            <trkpt lat="44.357980" lon="7.830870">
                <time>2024-04-01T07:33:48Z</time>
            </trkpt>
            <trkpt lat="44.358080" lon="7.831030">
                <time>2024-04-01T07:33:49Z</time>
            </trkpt>
            <trkpt lat="44.358190" lon="7.831200">
                <time>2024-04-01T07:33:50Z</time>
            </trkpt>
            <trkpt lat="44.358300" lon="7.831360">
                <time>2024-04-01T07:33:51Z</time>
            </trkpt>
            <trkpt lat="44.358410" lon="7.831530">
                <time>2024-04-01T07:33:52Z</time>
            </trkpt>
            <trkpt lat="44.358520" lon="7.831710">
                <time>2024-04-01T07:33:53Z</time>
            </trkpt>
            <trkpt lat="44.358630" lon="7.831880">
                <time>2024-04-01T07:33:54Z</time>
            </trkpt>
            <trkpt lat="44.358730" lon="7.832060">
                <time>2024-04-01T07:33:55Z</time>
            </trkpt>
            <trkpt lat="44.358830" lon="7.832230">
                <time>2024-04-01T07:33:56Z</time>
            </trkpt>
            <trkpt lat="44.358920" lon="7.832410">
                <time>2024-04-01T07:33:57Z</time>
            </trkpt>
            <trkpt lat="44.359020" lon="7.832590">
                <time>2024-04-01T07:33:58Z</time>
            </trkpt>
            <trkpt lat="44.359110" lon="7.832770">
                <time>2024-04-01T07:33:59Z</time>
            </trkpt>
            <trkpt lat="44.359210" lon="7.832940">
                <time>2024-04-01T07:34:00Z</time>
            </trkpt>
            <trkpt lat="44.359300" lon="7.833110">
                <time>2024-04-01T07:34:01Z</time>
            </trkpt>
            <trkpt lat="44.359390" lon="7.833280">
                <time>2024-04-01T07:34:02Z</time>
            </trkpt>
            <trkpt lat="44.359480" lon="7.833450">
                <time>2024-04-01T07:34:03Z</time>
            </trkpt>
            <trkpt lat="44.359550" lon="7.833600">
                <time>2024-04-01T07:34:04Z</time>
            </trkpt>
            <trkpt lat="44.359630" lon="7.833730">
                <time>2024-04-01T07:34:05Z</time>
            </trkpt>
            <trkpt lat="44.359690" lon="7.833850">
                <time>2024-04-01T07:34:06Z</time>
            </trkpt>
            <trkpt lat="44.359750" lon="7.833950">
                <time>2024-04-01T07:34:07Z</time>
            </trkpt>
            <trkpt lat="44.359800" lon="7.834040">
                <time>2024-04-01T07:34:08Z</time>
            </trkpt>
            <trkpt lat="44.359850" lon="7.834130">
                <time>2024-04-01T07:34:09Z</time>
            </trkpt>
            <trkpt lat="44.359880" lon="7.834210">
                <time>2024-04-01T07:34:10Z</time>
            </trkpt>
            <trkpt lat="44.359910" lon="7.834270">
                <time>2024-04-01T07:34:11Z</time>
            </trkpt>
            <trkpt lat="44.359910" lon="7.834320">
                <time>2024-04-01T07:34:12Z</time>
            </trkpt>
            <trkpt lat="44.359920" lon="7.834350">
                <time>2024-04-01T07:34:13Z</time>
            </trkpt>
            <trkpt lat="44.359920" lon="7.834360">
                <time>2024-04-01T07:34:14Z</time>
            </trkpt>
            <trkpt lat="44.359920" lon="7.834350">
                <time>2024-04-01T07:34:15Z</time>
            </trkpt>
            <trkpt lat="44.359920" lon="7.834360">
                <time>2024-04-01T07:34:16Z</time>
            </trkpt>
            <trkpt lat="44.359910" lon="7.834380">
                <time>2024-04-01T07:34:17Z</time>
            </trkpt>
            <trkpt lat="44.359900" lon="7.834420">
                <time>2024-04-01T07:34:18Z</time>
            </trkpt>
            <trkpt lat="44.359860" lon="7.834450">
                <time>2024-04-01T07:34:19Z</time>
            </trkpt>
            <trkpt lat="44.359810" lon="7.834470">
                <time>2024-04-01T07:34:20Z</time>
            </trkpt>
            <trkpt lat="44.359750" lon="7.834500">
                <time>2024-04-01T07:34:21Z</time>
            </trkpt>
            <trkpt lat="44.359670" lon="7.834530">
                <time>2024-04-01T07:34:22Z</time>
            </trkpt>
            <trkpt lat="44.359580" lon="7.834570">
                <time>2024-04-01T07:34:23Z</time>
            </trkpt>
            <trkpt lat="44.359480" lon="7.834610">
                <time>2024-04-01T07:34:24Z</time>
            </trkpt>
            <trkpt lat="44.359370" lon="7.834660">
                <time>2024-04-01T07:34:25Z</time>
            </trkpt>
            <trkpt lat="44.359240" lon="7.834720">
                <time>2024-04-01T07:34:26Z</time>
            </trkpt>
            <trkpt lat="44.359110" lon="7.834780">
                <time>2024-04-01T07:34:27Z</time>
            </trkpt>
            <trkpt lat="44.358980" lon="7.834840">
                <time>2024-04-01T07:34:28Z</time>
            </trkpt>
            <trkpt lat="44.358860" lon="7.834920">
                <time>2024-04-01T07:34:29Z</time>
            </trkpt>
            <trkpt lat="44.358750" lon="7.835010">
                <time>2024-04-01T07:34:30Z</time>
            </trkpt>
            <trkpt lat="44.358650" lon="7.835130">
                <time>2024-04-01T07:34:31Z</time>
            </trkpt>
            <trkpt lat="44.358570" lon="7.835270">
                <time>2024-04-01T07:34:32Z</time>
            </trkpt>
            <trkpt lat="44.358500" lon="7.835440">
                <time>2024-04-01T07:34:33Z</time>
            </trkpt>
            <trkpt lat="44.358440" lon="7.835630">
                <time>2024-04-01T07:34:34Z</time>
            </trkpt>
            <trkpt lat="44.358370" lon="7.835820">
                <time>2024-04-01T07:34:35Z</time>
            </trkpt>
            <trkpt lat="44.358310" lon="7.836030">
                <time>2024-04-01T07:34:36Z</time>
            </trkpt>
            <trkpt lat="44.358240" lon="7.836250">
                <time>2024-04-01T07:34:37Z</time>
            </trkpt>
            <trkpt lat="44.358170" lon="7.836470">
                <time>2024-04-01T07:34:38Z</time>
            </trkpt>
            <trkpt lat="44.358090" lon="7.836690">
                <time>2024-04-01T07:34:39Z</time>
            </trkpt>
            <trkpt lat="44.358020" lon="7.836920">
                <time>2024-04-01T07:34:40Z</time>
            </trkpt>
            <trkpt lat="44.357940" lon="7.837160">
                <time>2024-04-01T07:34:41Z</time>
            </trkpt>
            <trkpt lat="44.357860" lon="7.837400">
                <time>2024-04-01T07:34:42Z</time>
            </trkpt>
            <trkpt lat="44.357780" lon="7.837650">
                <time>2024-04-01T07:34:43Z</time>
            </trkpt>
            <trkpt lat="44.357700" lon="7.837890">
                <time>2024-04-01T07:34:44Z</time>
            </trkpt>
            <trkpt lat="44.357620" lon="7.838130">
                <time>2024-04-01T07:34:45Z</time>
            </trkpt>
            <trkpt lat="44.357530" lon="7.838380">
                <time>2024-04-01T07:34:46Z</time>
            </trkpt>
            <trkpt lat="44.357450" lon="7.838630">
                <time>2024-04-01T07:34:47Z</time>
            </trkpt>
            <trkpt lat="44.357360" lon="7.838890">
                <time>2024-04-01T07:34:48Z</time>
            </trkpt>
            <trkpt lat="44.357280" lon="7.839140">
                <time>2024-04-01T07:34:49Z</time>
            </trkpt>
            <trkpt lat="44.357190" lon="7.839400">
                <time>2024-04-01T07:34:50Z</time>
            </trkpt>
            <trkpt lat="44.357110" lon="7.839660">
                <time>2024-04-01T07:34:51Z</time>
            </trkpt>
            <trkpt lat="44.357020" lon="7.839920">
                <time>2024-04-01T07:34:52Z</time>
            </trkpt>
            <trkpt lat="44.356940" lon="7.840170">
                <time>2024-04-01T07:34:53Z</time>
            </trkpt>
            <trkpt lat="44.356860" lon="7.840420">
                <time>2024-04-01T07:34:54Z</time>
            </trkpt>
            <trkpt lat="44.356770" lon="7.840670">
                <time>2024-04-01T07:34:55Z</time>
            </trkpt>
            <trkpt lat="44.356690" lon="7.840920">
                <time>2024-04-01T07:34:56Z</time>
            </trkpt>
            <trkpt lat="44.356610" lon="7.841150">
                <time>2024-04-01T07:34:57Z</time>
            </trkpt>
            <trkpt lat="44.356530" lon="7.841390">
                <time>2024-04-01T07:34:58Z</time>
            </trkpt>
            <trkpt lat="44.356460" lon="7.841620">
                <time>2024-04-01T07:34:59Z</time>
            </trkpt>
            <trkpt lat="44.356400" lon="7.841850">
                <time>2024-04-01T07:35:00Z</time>
            </trkpt>
            <trkpt lat="44.356360" lon="7.842080">
                <time>2024-04-01T07:35:01Z</time>
            </trkpt>
            <trkpt lat="44.356330" lon="7.842320">
                <time>2024-04-01T07:35:02Z</time>
            </trkpt>
            <trkpt lat="44.356330" lon="7.842550">
                <time>2024-04-01T07:35:03Z</time>
            </trkpt>
            <trkpt lat="44.356340" lon="7.842790">
                <time>2024-04-01T07:35:04Z</time>
            </trkpt>
            <trkpt lat="44.356380" lon="7.843020">
                <time>2024-04-01T07:35:05Z</time>
            </trkpt>
            <trkpt lat="44.356430" lon="7.843250">
                <time>2024-04-01T07:35:06Z</time>
            </trkpt>
            <trkpt lat="44.356490" lon="7.843490">
                <time>2024-04-01T07:35:07Z</time>
            </trkpt>
            <trkpt lat="44.356550" lon="7.843720">
                <time>2024-04-01T07:35:08Z</time>
            </trkpt>
            <trkpt lat="44.356620" lon="7.843970">
                <time>2024-04-01T07:35:09Z</time>
            </trkpt>
            <trkpt lat="44.356690" lon="7.844220">
                <time>2024-04-01T07:35:10Z</time>
            </trkpt>
            <trkpt lat="44.356760" lon="7.844470">
                <time>2024-04-01T07:35:11Z</time>
            </trkpt>
            <trkpt lat="44.356830" lon="7.844730">
                <time>2024-04-01T07:35:12Z</time>
            </trkpt>
            <trkpt lat="44.356910" lon="7.844990">
                <time>2024-04-01T07:35:13Z</time>
            </trkpt>
            <trkpt lat="44.356980" lon="7.845250">
                <time>2024-04-01T07:35:14Z</time>
            </trkpt>
            <trkpt lat="44.357060" lon="7.845520">
                <time>2024-04-01T07:35:15Z</time>
            </trkpt>
            <trkpt lat="44.357130" lon="7.845780">
                <time>2024-04-01T07:35:16Z</time>
            </trkpt>
            <trkpt lat="44.357210" lon="7.846040">
                <time>2024-04-01T07:35:17Z</time>
            </trkpt>
            <trkpt lat="44.357280" lon="7.846290">
                <time>2024-04-01T07:35:18Z</time>
            </trkpt>
            <trkpt lat="44.357360" lon="7.846540">
                <time>2024-04-01T07:35:19Z</time>
            </trkpt>
            <trkpt lat="44.357430" lon="7.846800">
                <time>2024-04-01T07:35:20Z</time>
            </trkpt>
            <trkpt lat="44.357510" lon="7.847060">
                <time>2024-04-01T07:35:21Z</time>
            </trkpt>
            <trkpt lat="44.357580" lon="7.847320">
                <time>2024-04-01T07:35:22Z</time>
            </trkpt>
            <trkpt lat="44.357660" lon="7.847590">
                <time>2024-04-01T07:35:23Z</time>
            </trkpt>
            <trkpt lat="44.357740" lon="7.847870">
                <time>2024-04-01T07:35:24Z</time>
            </trkpt>
            <trkpt lat="44.357810" lon="7.848140">
                <time>2024-04-01T07:35:25Z</time>
            </trkpt>
            <trkpt lat="44.357890" lon="7.848410">
                <time>2024-04-01T07:35:26Z</time>
            </trkpt>
            <trkpt lat="44.357970" lon="7.848680">
                <time>2024-04-01T07:35:27Z</time>
            </trkpt>
            <trkpt lat="44.358050" lon="7.848950">
                <time>2024-04-01T07:35:28Z</time>
            </trkpt>
            <trkpt lat="44.358130" lon="7.849230">
                <time>2024-04-01T07:35:29Z</time>
            </trkpt>
            <trkpt lat="44.358210" lon="7.849500">
                <time>2024-04-01T07:35:30Z</time>
            </trkpt>
            <trkpt lat="44.358290" lon="7.849770">
                <time>2024-04-01T07:35:31Z</time>
            </trkpt>
            <trkpt lat="44.358360" lon="7.850040">
                <time>2024-04-01T07:35:32Z</time>
            </trkpt>
            <trkpt lat="44.358430" lon="7.850280">
                <time>2024-04-01T07:35:33Z</time>
            </trkpt>
            <trkpt lat="44.358500" lon="7.850520">
                <time>2024-04-01T07:35:34Z</time>
            </trkpt>
            <trkpt lat="44.358570" lon="7.850760">
                <time>2024-04-01T07:35:35Z</time>
            </trkpt>
            <trkpt lat="44.358640" lon="7.850990">
                <time>2024-04-01T07:35:36Z</time>
            </trkpt>
            <trkpt lat="44.358700" lon="7.851220">
                <time>2024-04-01T07:35:37Z</time>
            </trkpt>
            <trkpt lat="44.358770" lon="7.851450">
                <time>2024-04-01T07:35:38Z</time>
            </trkpt>
            <trkpt lat="44.358840" lon="7.851670">
                <time>2024-04-01T07:35:39Z</time>
            </trkpt>
            <trkpt lat="44.358900" lon="7.851900">
                <time>2024-04-01T07:35:40Z</time>
            </trkpt>
            <trkpt lat="44.358970" lon="7.852120">
                <time>2024-04-01T07:35:41Z</time>
            </trkpt>
            <trkpt lat="44.359030" lon="7.852350">
                <time>2024-04-01T07:35:42Z</time>
            </trkpt>
            <trkpt lat="44.359090" lon="7.852580">
                <time>2024-04-01T07:35:43Z</time>
            </trkpt>
            <trkpt lat="44.359160" lon="7.852800">
                <time>2024-04-01T07:35:44Z</time>
            </trkpt>
            <trkpt lat="44.359220" lon="7.853030">
                <time>2024-04-01T07:35:45Z</time>
            </trkpt>
            <trkpt lat="44.359280" lon="7.853250">
                <time>2024-04-01T07:35:46Z</time>
            </trkpt>
            <trkpt lat="44.359340" lon="7.853480">
                <time>2024-04-01T07:35:47Z</time>
            </trkpt>
            <trkpt lat="44.359410" lon="7.853700">
                <time>2024-04-01T07:35:48Z</time>
            </trkpt>
            <trkpt lat="44.359470" lon="7.853920">
                <time>2024-04-01T07:35:49Z</time>
            </trkpt>
            <trkpt lat="44.359530" lon="7.854140">
                <time>2024-04-01T07:35:50Z</time>
            </trkpt>
            <trkpt lat="44.359600" lon="7.854350">
                <time>2024-04-01T07:35:51Z</time>
            </trkpt>
            <trkpt lat="44.359660" lon="7.854570">
                <time>2024-04-01T07:35:52Z</time>
            </trkpt>
            <trkpt lat="44.359730" lon="7.854800">
                <time>2024-04-01T07:35:53Z</time>
            </trkpt>
            <trkpt lat="44.359790" lon="7.855010">
                <time>2024-04-01T07:35:54Z</time>
            </trkpt>
            <trkpt lat="44.359850" lon="7.855230">
                <time>2024-04-01T07:35:55Z</time>
            </trkpt>
            <trkpt lat="44.359910" lon="7.855450">
                <time>2024-04-01T07:35:56Z</time>
            </trkpt>
            <trkpt lat="44.359970" lon="7.855660">
                <time>2024-04-01T07:35:57Z</time>
            </trkpt>
            <trkpt lat="44.360030" lon="7.855870">
                <time>2024-04-01T07:35:58Z</time>
            </trkpt>
            <trkpt lat="44.360090" lon="7.856080">
                <time>2024-04-01T07:35:59Z</time>
            </trkpt>
            <trkpt lat="44.360150" lon="7.856290">
                <time>2024-04-01T07:36:00Z</time>
            </trkpt>
            <trkpt lat="44.360210" lon="7.856510">
                <time>2024-04-01T07:36:01Z</time>
            </trkpt>
            <trkpt lat="44.360270" lon="7.856720">
                <time>2024-04-01T07:36:02Z</time>
            </trkpt>
            <trkpt lat="44.360330" lon="7.856930">
                <time>2024-04-01T07:36:03Z</time>
            </trkpt>
            <trkpt lat="44.360390" lon="7.857140">
                <time>2024-04-01T07:36:04Z</time>
            </trkpt>
            <trkpt lat="44.360450" lon="7.857350">
                <time>2024-04-01T07:36:05Z</time>
            </trkpt>
            <trkpt lat="44.360510" lon="7.857560">
                <time>2024-04-01T07:36:06Z</time>
            </trkpt>
            <trkpt lat="44.360570" lon="7.857780">
                <time>2024-04-01T07:36:07Z</time>
            </trkpt>
            <trkpt lat="44.360640" lon="7.857990">
                <time>2024-04-01T07:36:08Z</time>
            </trkpt>
            <trkpt lat="44.360700" lon="7.858210">
                <time>2024-04-01T07:36:09Z</time>
            </trkpt>
            <trkpt lat="44.360770" lon="7.858420">
                <time>2024-04-01T07:36:10Z</time>
            </trkpt>
            <trkpt lat="44.360830" lon="7.858630">
                <time>2024-04-01T07:36:11Z</time>
            </trkpt>
            <trkpt lat="44.360880" lon="7.858830">
                <time>2024-04-01T07:36:12Z</time>
            </trkpt>
            <trkpt lat="44.360940" lon="7.859020">
                <time>2024-04-01T07:36:13Z</time>
            </trkpt>
            <trkpt lat="44.361000" lon="7.859220">
                <time>2024-04-01T07:36:14Z</time>
            </trkpt>
            <trkpt lat="44.361050" lon="7.859410">
                <time>2024-04-01T07:36:15Z</time>
            </trkpt>
            <trkpt lat="44.361110" lon="7.859600">
                <time>2024-04-01T07:36:16Z</time>
            </trkpt>
            <trkpt lat="44.361170" lon="7.859780">
                <time>2024-04-01T07:36:17Z</time>
            </trkpt>
            <trkpt lat="44.361220" lon="7.859950">
                <time>2024-04-01T07:36:18Z</time>
            </trkpt>
            <trkpt lat="44.361270" lon="7.860120">
                <time>2024-04-01T07:36:19Z</time>
            </trkpt>
            <trkpt lat="44.361320" lon="7.860290">
                <time>2024-04-01T07:36:20Z</time>
            </trkpt>
            <trkpt lat="44.361370" lon="7.860450">
                <time>2024-04-01T07:36:21Z</time>
            </trkpt>
            <trkpt lat="44.361400" lon="7.860590">
                <time>2024-04-01T07:36:22Z</time>
            </trkpt>
            <trkpt lat="44.361420" lon="7.860720">
                <time>2024-04-01T07:36:23Z</time>
            </trkpt>
            <trkpt lat="44.361440" lon="7.860850">
                <time>2024-04-01T07:36:24Z</time>
            </trkpt>
            <trkpt lat="44.361440" lon="7.860980">
                <time>2024-04-01T07:36:25Z</time>
            </trkpt>
            <trkpt lat="44.361450" lon="7.861120">
                <time>2024-04-01T07:36:26Z</time>
            </trkpt>
            <trkpt lat="44.361480" lon="7.861260">
                <time>2024-04-01T07:36:27Z</time>
            </trkpt>
            <trkpt lat="44.361530" lon="7.861410">
                <time>2024-04-01T07:36:28Z</time>
            </trkpt>
            <trkpt lat="44.361570" lon="7.861560">
                <time>2024-04-01T07:36:29Z</time>
            </trkpt>
            <trkpt lat="44.361630" lon="7.861710">
                <time>2024-04-01T07:36:30Z</time>
            </trkpt>
            <trkpt lat="44.361700" lon="7.861870">
                <time>2024-04-01T07:36:31Z</time>
            </trkpt>
            <trkpt lat="44.361760" lon="7.862040">
                <time>2024-04-01T07:36:32Z</time>
            </trkpt>
            <trkpt lat="44.361810" lon="7.862210">
                <time>2024-04-01T07:36:33Z</time>
            </trkpt>
            <trkpt lat="44.361850" lon="7.862400">
                <time>2024-04-01T07:36:34Z</time>
            </trkpt>
            <trkpt lat="44.361880" lon="7.862600">
                <time>2024-04-01T07:36:35Z</time>
            </trkpt>
            <trkpt lat="44.361910" lon="7.862810">
                <time>2024-04-01T07:36:36Z</time>
            </trkpt>
            <trkpt lat="44.361930" lon="7.863030">
                <time>2024-04-01T07:36:37Z</time>
            </trkpt>
            <trkpt lat="44.361960" lon="7.863250">
                <time>2024-04-01T07:36:38Z</time>
            </trkpt>
            <trkpt lat="44.361990" lon="7.863460">
                <time>2024-04-01T07:36:39Z</time>
            </trkpt>
            <trkpt lat="44.362020" lon="7.863680">
                <time>2024-04-01T07:36:40Z</time>
            </trkpt>
            <trkpt lat="44.362060" lon="7.863900">
                <time>2024-04-01T07:36:41Z</time>
            </trkpt>
            <trkpt lat="44.362110" lon="7.864130">
                <time>2024-04-01T07:36:42Z</time>
            </trkpt>
            <trkpt lat="44.362160" lon="7.864360">
                <time>2024-04-01T07:36:43Z</time>
            </trkpt>
            <trkpt lat="44.362220" lon="7.864590">
                <time>2024-04-01T07:36:44Z</time>
            </trkpt>
            <trkpt lat="44.362270" lon="7.864810">
                <time>2024-04-01T07:36:45Z</time>
            </trkpt>
            <trkpt lat="44.362330" lon="7.865030">
                <time>2024-04-01T07:36:46Z</time>
            </trkpt>
            <trkpt lat="44.362390" lon="7.865260">
                <time>2024-04-01T07:36:47Z</time>
            </trkpt>
            <trkpt lat="44.362460" lon="7.865470">
                <time>2024-04-01T07:36:48Z</time>
            </trkpt>
            <trkpt lat="44.362520" lon="7.865690">
                <time>2024-04-01T07:36:49Z</time>
            </trkpt>
            <trkpt lat="44.362580" lon="7.865900">
                <time>2024-04-01T07:36:50Z</time>
            </trkpt>
            <trkpt lat="44.362650" lon="7.866110">
                <time>2024-04-01T07:36:51Z</time>
            </trkpt>
            <trkpt lat="44.362720" lon="7.866320">
                <time>2024-04-01T07:36:52Z</time>
            </trkpt>
            <trkpt lat="44.362790" lon="7.866530">
                <time>2024-04-01T07:36:53Z</time>
            </trkpt>
            <trkpt lat="44.362880" lon="7.866730">
                <time>2024-04-01T07:36:54Z</time>
            </trkpt>
            <trkpt lat="44.362980" lon="7.866920">
                <time>2024-04-01T07:36:55Z</time>
            </trkpt>
            <trkpt lat="44.363080" lon="7.867110">
                <time>2024-04-01T07:36:56Z</time>
            </trkpt>
            <trkpt lat="44.363200" lon="7.867280">
                <time>2024-04-01T07:36:57Z</time>
            </trkpt>
            <trkpt lat="44.363330" lon="7.867440">
                <time>2024-04-01T07:36:58Z</time>
            </trkpt>
            <trkpt lat="44.363470" lon="7.867590">
                <time>2024-04-01T07:36:59Z</time>
            </trkpt>
            <trkpt lat="44.363610" lon="7.867750">
                <time>2024-04-01T07:37:00Z</time>
            </trkpt>
            <trkpt lat="44.363750" lon="7.867900">
                <time>2024-04-01T07:37:01Z</time>
            </trkpt>
            <trkpt lat="44.363890" lon="7.868050">
                <time>2024-04-01T07:37:02Z</time>
            </trkpt>
            <trkpt lat="44.364030" lon="7.868190">
                <time>2024-04-01T07:37:03Z</time>
            </trkpt>
            <trkpt lat="44.364160" lon="7.868330">
                <time>2024-04-01T07:37:04Z</time>
            </trkpt>
            <trkpt lat="44.364300" lon="7.868470">
                <time>2024-04-01T07:37:05Z</time>
            </trkpt>
            <trkpt lat="44.364430" lon="7.868600">
                <time>2024-04-01T07:37:06Z</time>
            </trkpt>
            <trkpt lat="44.364550" lon="7.868720">
                <time>2024-04-01T07:37:07Z</time>
            </trkpt>
            <trkpt lat="44.364670" lon="7.868840">
                <time>2024-04-01T07:37:08Z</time>
            </trkpt>
            <trkpt lat="44.364790" lon="7.868960">
                <time>2024-04-01T07:37:09Z</time>
            </trkpt>
            <trkpt lat="44.364910" lon="7.869060">
                <time>2024-04-01T07:37:10Z</time>
            </trkpt>
            <trkpt lat="44.365020" lon="7.869150">
                <time>2024-04-01T07:37:11Z</time>
            </trkpt>
            <trkpt lat="44.365130" lon="7.869230">
                <time>2024-04-01T07:37:12Z</time>
            </trkpt>
            <trkpt lat="44.365240" lon="7.869300">
                <time>2024-04-01T07:37:13Z</time>
            </trkpt>
            <trkpt lat="44.365330" lon="7.869380">
                <time>2024-04-01T07:37:14Z</time>
            </trkpt>
            <trkpt lat="44.365410" lon="7.869460">
                <time>2024-04-01T07:37:15Z</time>
            </trkpt>
            <trkpt lat="44.365490" lon="7.869560">
                <time>2024-04-01T07:37:16Z</time>
            </trkpt>
            <trkpt lat="44.365550" lon="7.869650">
                <time>2024-04-01T07:37:17Z</time>
            </trkpt>
            <trkpt lat="44.365620" lon="7.869720">
                <time>2024-04-01T07:37:18Z</time>
            </trkpt>
            <trkpt lat="44.365680" lon="7.869750">
                <time>2024-04-01T07:37:19Z</time>
            </trkpt>
            <trkpt lat="44.365760" lon="7.869770">
                <time>2024-04-01T07:37:20Z</time>
            </trkpt>
            <trkpt lat="44.365840" lon="7.869790">
                <time>2024-04-01T07:37:21Z</time>
            </trkpt>
            <trkpt lat="44.365910" lon="7.869850">
                <time>2024-04-01T07:37:22Z</time>
            </trkpt>
            <trkpt lat="44.365970" lon="7.869930">
                <time>2024-04-01T07:37:23Z</time>
            </trkpt>
            <trkpt lat="44.366030" lon="7.870040">
                <time>2024-04-01T07:37:24Z</time>
            </trkpt>
            <trkpt lat="44.366090" lon="7.870170">
                <time>2024-04-01T07:37:25Z</time>
            </trkpt>
            <trkpt lat="44.366150" lon="7.870330">
                <time>2024-04-01T07:37:26Z</time>
            </trkpt>
            <trkpt lat="44.366210" lon="7.870510">
                <time>2024-04-01T07:37:27Z</time>
            </trkpt>
            <trkpt lat="44.366280" lon="7.870700">
                <time>2024-04-01T07:37:28Z</time>
            </trkpt>
            <trkpt lat="44.366340" lon="7.870880">
                <time>2024-04-01T07:37:29Z</time>
            </trkpt>
            <trkpt lat="44.366410" lon="7.871090">
                <time>2024-04-01T07:37:30Z</time>
            </trkpt>
            <trkpt lat="44.366490" lon="7.871300">
                <time>2024-04-01T07:37:31Z</time>
            </trkpt>
            <trkpt lat="44.366560" lon="7.871520">
                <time>2024-04-01T07:37:32Z</time>
            </trkpt>
            <trkpt lat="44.366640" lon="7.871740">
                <time>2024-04-01T07:37:33Z</time>
            </trkpt>
            <trkpt lat="44.366720" lon="7.871960">
                <time>2024-04-01T07:37:34Z</time>
            </trkpt>
            <trkpt lat="44.366790" lon="7.872190">
                <time>2024-04-01T07:37:35Z</time>
            </trkpt>
            <trkpt lat="44.366870" lon="7.872430">
                <time>2024-04-01T07:37:36Z</time>
            </trkpt>
            <trkpt lat="44.366960" lon="7.872670">
                <time>2024-04-01T07:37:37Z</time>
            </trkpt>
            <trkpt lat="44.367040" lon="7.872910">
                <time>2024-04-01T07:37:38Z</time>
            </trkpt>
            <trkpt lat="44.367120" lon="7.873140">
                <time>2024-04-01T07:37:39Z</time>
            </trkpt>
            <trkpt lat="44.367200" lon="7.873370">
                <time>2024-04-01T07:37:40Z</time>
            </trkpt>
            <trkpt lat="44.367290" lon="7.873600">
                <time>2024-04-01T07:37:41Z</time>
            </trkpt>
            <trkpt lat="44.367370" lon="7.873830">
                <time>2024-04-01T07:37:42Z</time>
            </trkpt>
            <trkpt lat="44.367450" lon="7.874060">
                <time>2024-04-01T07:37:43Z</time>
            </trkpt>
            <trkpt lat="44.367520" lon="7.874280">
                <time>2024-04-01T07:37:44Z</time>
            </trkpt>
            <trkpt lat="44.367600" lon="7.874500">
                <time>2024-04-01T07:37:45Z</time>
            </trkpt>
            <trkpt lat="44.367660" lon="7.874720">
                <time>2024-04-01T07:37:46Z</time>
            </trkpt>
            <trkpt lat="44.367720" lon="7.874920">
                <time>2024-04-01T07:37:47Z</time>
            </trkpt>
            <trkpt lat="44.367760" lon="7.875170">
                <time>2024-04-01T07:37:48Z</time>
            </trkpt>
            <trkpt lat="44.367810" lon="7.875380">
                <time>2024-04-01T07:37:49Z</time>
            </trkpt>
            <trkpt lat="44.367880" lon="7.875590">
                <time>2024-04-01T07:37:50Z</time>
            </trkpt>
            <trkpt lat="44.367990" lon="7.875760">
                <time>2024-04-01T07:37:51Z</time>
            </trkpt>
            <trkpt lat="44.368050" lon="7.875970">
                <time>2024-04-01T07:37:52Z</time>
            </trkpt>
            <trkpt lat="44.368150" lon="7.876170">
                <time>2024-04-01T07:37:53Z</time>
            </trkpt>
            <trkpt lat="44.368260" lon="7.876360">
                <time>2024-04-01T07:37:54Z</time>
            </trkpt>
            <trkpt lat="44.368320" lon="7.876500">
                <time>2024-04-01T07:37:55Z</time>
            </trkpt>
            <trkpt lat="44.368370" lon="7.876710">
                <time>2024-04-01T07:37:56Z</time>
            </trkpt>
            <trkpt lat="44.368440" lon="7.876900">
                <time>2024-04-01T07:37:57Z</time>
            </trkpt>
            <trkpt lat="44.368500" lon="7.877100">
                <time>2024-04-01T07:37:58Z</time>
            </trkpt>
            <trkpt lat="44.368570" lon="7.877280">
                <time>2024-04-01T07:37:59Z</time>
            </trkpt>
            <trkpt lat="44.368630" lon="7.877470">
                <time>2024-04-01T07:38:00Z</time>
            </trkpt>
            <trkpt lat="44.368690" lon="7.877650">
                <time>2024-04-01T07:38:01Z</time>
            </trkpt>
            <trkpt lat="44.368750" lon="7.877820">
                <time>2024-04-01T07:38:02Z</time>
            </trkpt>
            <trkpt lat="44.368810" lon="7.878000">
                <time>2024-04-01T07:38:03Z</time>
            </trkpt>
            <trkpt lat="44.368860" lon="7.878180">
                <time>2024-04-01T07:38:04Z</time>
            </trkpt>
            <trkpt lat="44.368920" lon="7.878340">
                <time>2024-04-01T07:38:05Z</time>
            </trkpt>
            <trkpt lat="44.368980" lon="7.878510">
                <time>2024-04-01T07:38:06Z</time>
            </trkpt>
            <trkpt lat="44.369040" lon="7.878670">
                <time>2024-04-01T07:38:07Z</time>
            </trkpt>
            <trkpt lat="44.369080" lon="7.878830">
                <time>2024-04-01T07:38:08Z</time>
            </trkpt>
            <trkpt lat="44.369120" lon="7.878990">
                <time>2024-04-01T07:38:09Z</time>
            </trkpt>
            <trkpt lat="44.369140" lon="7.879130">
                <time>2024-04-01T07:38:10Z</time>
            </trkpt>
            <trkpt lat="44.369140" lon="7.879270">
                <time>2024-04-01T07:38:11Z</time>
            </trkpt>
            <trkpt lat="44.369140" lon="7.879380">
                <time>2024-04-01T07:38:12Z</time>
            </trkpt>
            <trkpt lat="44.369120" lon="7.879460">
                <time>2024-04-01T07:38:13Z</time>
            </trkpt>
            <trkpt lat="44.369120" lon="7.879530">
                <time>2024-04-01T07:38:14Z</time>
            </trkpt>
            <trkpt lat="44.369120" lon="7.879580">
                <time>2024-04-01T07:38:15Z</time>
            </trkpt>
            <trkpt lat="44.369140" lon="7.879610">
                <time>2024-04-01T07:38:16Z</time>
            </trkpt>
            <trkpt lat="44.369160" lon="7.879620">
                <time>2024-04-01T07:38:17Z</time>
            </trkpt>
            <trkpt lat="44.369190" lon="7.879620">
                <time>2024-04-01T07:38:18Z</time>
            </trkpt>
            <trkpt lat="44.369230" lon="7.879600">
                <time>2024-04-01T07:38:19Z</time>
            </trkpt>
            <trkpt lat="44.369280" lon="7.879570">
                <time>2024-04-01T07:38:20Z</time>
            </trkpt>
            <trkpt lat="44.369340" lon="7.879520">
                <time>2024-04-01T07:38:21Z</time>
            </trkpt>
            <trkpt lat="44.369400" lon="7.879470">
                <time>2024-04-01T07:38:22Z</time>
            </trkpt>
            <trkpt lat="44.369480" lon="7.879400">
                <time>2024-04-01T07:38:23Z</time>
            </trkpt>
            <trkpt lat="44.369570" lon="7.879340">
                <time>2024-04-01T07:38:24Z</time>
            </trkpt>
            <trkpt lat="44.369660" lon="7.879270">
                <time>2024-04-01T07:38:25Z</time>
            </trkpt>
            <trkpt lat="44.369760" lon="7.879180">
                <time>2024-04-01T07:38:26Z</time>
            </trkpt>
            <trkpt lat="44.369870" lon="7.879100">
                <time>2024-04-01T07:38:27Z</time>
            </trkpt>
            <trkpt lat="44.369970" lon="7.879010">
                <time>2024-04-01T07:38:28Z</time>
            </trkpt>
            <trkpt lat="44.370080" lon="7.878930">
                <time>2024-04-01T07:38:29Z</time>
            </trkpt>
            <trkpt lat="44.370190" lon="7.878840">
                <time>2024-04-01T07:38:30Z</time>
            </trkpt>
            <trkpt lat="44.370300" lon="7.878750">
                <time>2024-04-01T07:38:31Z</time>
            </trkpt>
            <trkpt lat="44.370410" lon="7.878650">
                <time>2024-04-01T07:38:32Z</time>
            </trkpt>
            <trkpt lat="44.370530" lon="7.878560">
                <time>2024-04-01T07:38:33Z</time>
            </trkpt>
            <trkpt lat="44.370650" lon="7.878480">
                <time>2024-04-01T07:38:34Z</time>
            </trkpt>
            <trkpt lat="44.370780" lon="7.878390">
                <time>2024-04-01T07:38:35Z</time>
            </trkpt>
            <trkpt lat="44.370910" lon="7.878300">
                <time>2024-04-01T07:38:36Z</time>
            </trkpt>
            <trkpt lat="44.371040" lon="7.878220">
                <time>2024-04-01T07:38:37Z</time>
            </trkpt>
            <trkpt lat="44.371170" lon="7.878150">
                <time>2024-04-01T07:38:38Z</time>
            </trkpt>
            <trkpt lat="44.371300" lon="7.878080">
                <time>2024-04-01T07:38:39Z</time>
            </trkpt>
            <trkpt lat="44.371420" lon="7.878020">
                <time>2024-04-01T07:38:40Z</time>
            </trkpt>
            <trkpt lat="44.371540" lon="7.877980">
                <time>2024-04-01T07:38:41Z</time>
            </trkpt>
            <trkpt lat="44.371660" lon="7.877930">
                <time>2024-04-01T07:38:42Z</time>
            </trkpt>
            <trkpt lat="44.371770" lon="7.877890">
                <time>2024-04-01T07:38:43Z</time>
            </trkpt>
            <trkpt lat="44.371880" lon="7.877840">
                <time>2024-04-01T07:38:44Z</time>
            </trkpt>
            <trkpt lat="44.371980" lon="7.877780">
                <time>2024-04-01T07:38:45Z</time>
            </trkpt>
            <trkpt lat="44.372080" lon="7.877690">
                <time>2024-04-01T07:38:46Z</time>
            </trkpt>
            <trkpt lat="44.372180" lon="7.877590">
                <time>2024-04-01T07:38:47Z</time>
            </trkpt>
            <trkpt lat="44.372270" lon="7.877480">
                <time>2024-04-01T07:38:48Z</time>
            </trkpt>
            <trkpt lat="44.372370" lon="7.877360">
                <time>2024-04-01T07:38:49Z</time>
            </trkpt>
            <trkpt lat="44.372470" lon="7.877230">
                <time>2024-04-01T07:38:50Z</time>
            </trkpt>
            <trkpt lat="44.372570" lon="7.877100">
                <time>2024-04-01T07:38:51Z</time>
            </trkpt>
            <trkpt lat="44.372660" lon="7.876950">
                <time>2024-04-01T07:38:52Z</time>
            </trkpt>
            <trkpt lat="44.372750" lon="7.876790">
                <time>2024-04-01T07:38:53Z</time>
            </trkpt>
            <trkpt lat="44.372830" lon="7.876620">
                <time>2024-04-01T07:38:54Z</time>
            </trkpt>
            <trkpt lat="44.372920" lon="7.876460">
                <time>2024-04-01T07:38:55Z</time>
            </trkpt>
            <trkpt lat="44.373000" lon="7.876300">
                <time>2024-04-01T07:38:56Z</time>
            </trkpt>
            <trkpt lat="44.373070" lon="7.876160">
                <time>2024-04-01T07:38:57Z</time>
            </trkpt>
            <trkpt lat="44.373130" lon="7.876020">
                <time>2024-04-01T07:38:58Z</time>
            </trkpt>
            <trkpt lat="44.373200" lon="7.875880">
                <time>2024-04-01T07:38:59Z</time>
            </trkpt>
            <trkpt lat="44.373250" lon="7.875730">
                <time>2024-04-01T07:39:00Z</time>
            </trkpt>
            <trkpt lat="44.373300" lon="7.875580">
                <time>2024-04-01T07:39:01Z</time>
            </trkpt>
            <trkpt lat="44.373350" lon="7.875420">
                <time>2024-04-01T07:39:02Z</time>
            </trkpt>
            <trkpt lat="44.373410" lon="7.875260">
                <time>2024-04-01T07:39:03Z</time>
            </trkpt>
            <trkpt lat="44.373460" lon="7.875100">
                <time>2024-04-01T07:39:04Z</time>
            </trkpt>
            <trkpt lat="44.373500" lon="7.874930">
                <time>2024-04-01T07:39:05Z</time>
            </trkpt>
            <trkpt lat="44.373540" lon="7.874760">
                <time>2024-04-01T07:39:06Z</time>
            </trkpt>
            <trkpt lat="44.373580" lon="7.874610">
                <time>2024-04-01T07:39:07Z</time>
            </trkpt>
            <trkpt lat="44.373610" lon="7.874450">
                <time>2024-04-01T07:39:08Z</time>
            </trkpt>
            <trkpt lat="44.373640" lon="7.874300">
                <time>2024-04-01T07:39:09Z</time>
            </trkpt>
            <trkpt lat="44.373670" lon="7.874160">
                <time>2024-04-01T07:39:10Z</time>
            </trkpt>
            <trkpt lat="44.373690" lon="7.874020">
                <time>2024-04-01T07:39:11Z</time>
            </trkpt>
            <trkpt lat="44.373690" lon="7.873890">
                <time>2024-04-01T07:39:12Z</time>
            </trkpt>
            <trkpt lat="44.373680" lon="7.873770">
                <time>2024-04-01T07:39:13Z</time>
            </trkpt>
            <trkpt lat="44.373680" lon="7.873670">
                <time>2024-04-01T07:39:14Z</time>
            </trkpt>
            <trkpt lat="44.373670" lon="7.873590">
                <time>2024-04-01T07:39:15Z</time>
            </trkpt>
            <trkpt lat="44.373660" lon="7.873520">
                <time>2024-04-01T07:39:16Z</time>
            </trkpt>
            <trkpt lat="44.373660" lon="7.873470">
                <time>2024-04-01T07:39:17Z</time>
            </trkpt>
            <trkpt lat="44.373680" lon="7.873440">
                <time>2024-04-01T07:39:18Z</time>
            </trkpt>
            <trkpt lat="44.373710" lon="7.873420">
                <time>2024-04-01T07:39:19Z</time>
            </trkpt>
            <trkpt lat="44.373750" lon="7.873410">
                <time>2024-04-01T07:39:20Z</time>
            </trkpt>
            <trkpt lat="44.373810" lon="7.873410">
                <time>2024-04-01T07:39:21Z</time>
            </trkpt>
            <trkpt lat="44.373880" lon="7.873410">
                <time>2024-04-01T07:39:22Z</time>
            </trkpt>
            <trkpt lat="44.373950" lon="7.873410">
                <time>2024-04-01T07:39:23Z</time>
            </trkpt>
            <trkpt lat="44.374030" lon="7.873410">
                <time>2024-04-01T07:39:24Z</time>
            </trkpt>
            <trkpt lat="44.374110" lon="7.873400">
                <time>2024-04-01T07:39:25Z</time>
            </trkpt>
            <trkpt lat="44.374200" lon="7.873390">
                <time>2024-04-01T07:39:26Z</time>
            </trkpt>
            <trkpt lat="44.374290" lon="7.873380">
                <time>2024-04-01T07:39:27Z</time>
            </trkpt>
            <trkpt lat="44.374390" lon="7.873360">
                <time>2024-04-01T07:39:28Z</time>
            </trkpt>
            <trkpt lat="44.374490" lon="7.873340">
                <time>2024-04-01T07:39:29Z</time>
            </trkpt>
            <trkpt lat="44.374610" lon="7.873330">
                <time>2024-04-01T07:39:30Z</time>
            </trkpt>
            <trkpt lat="44.374740" lon="7.873320">
                <time>2024-04-01T07:39:31Z</time>
            </trkpt>
            <trkpt lat="44.374870" lon="7.873310">
                <time>2024-04-01T07:39:32Z</time>
            </trkpt>
            <trkpt lat="44.375010" lon="7.873300">
                <time>2024-04-01T07:39:33Z</time>
            </trkpt>
            <trkpt lat="44.375150" lon="7.873290">
                <time>2024-04-01T07:39:34Z</time>
            </trkpt>
            <trkpt lat="44.375280" lon="7.873280">
                <time>2024-04-01T07:39:35Z</time>
            </trkpt>
            <trkpt lat="44.375410" lon="7.873270">
                <time>2024-04-01T07:39:36Z</time>
            </trkpt>
            <trkpt lat="44.375540" lon="7.873290">
                <time>2024-04-01T07:39:37Z</time>
            </trkpt>
            <trkpt lat="44.375680" lon="7.873330">
                <time>2024-04-01T07:39:38Z</time>
            </trkpt>
            <trkpt lat="44.375810" lon="7.873380">
                <time>2024-04-01T07:39:39Z</time>
            </trkpt>
            <trkpt lat="44.375960" lon="7.873440">
                <time>2024-04-01T07:39:40Z</time>
            </trkpt>
            <trkpt lat="44.376100" lon="7.873510">
                <time>2024-04-01T07:39:41Z</time>
            </trkpt>
            <trkpt lat="44.376230" lon="7.873590">
                <time>2024-04-01T07:39:42Z</time>
            </trkpt>
            <trkpt lat="44.376370" lon="7.873670">
                <time>2024-04-01T07:39:43Z</time>
            </trkpt>
            <trkpt lat="44.376510" lon="7.873750">
                <time>2024-04-01T07:39:44Z</time>
            </trkpt>
            <trkpt lat="44.376650" lon="7.873830">
                <time>2024-04-01T07:39:45Z</time>
            </trkpt>
            <trkpt lat="44.376790" lon="7.873910">
                <time>2024-04-01T07:39:46Z</time>
            </trkpt>
            <trkpt lat="44.376920" lon="7.874010">
                <time>2024-04-01T07:39:47Z</time>
            </trkpt>
            <trkpt lat="44.377050" lon="7.874110">
                <time>2024-04-01T07:39:48Z</time>
            </trkpt>
            <trkpt lat="44.377180" lon="7.874220">
                <time>2024-04-01T07:39:49Z</time>
            </trkpt>
            <trkpt lat="44.377320" lon="7.874330">
                <time>2024-04-01T07:39:50Z</time>
            </trkpt>
            <trkpt lat="44.377460" lon="7.874440">
                <time>2024-04-01T07:39:51Z</time>
            </trkpt>
            <trkpt lat="44.377590" lon="7.874560">
                <time>2024-04-01T07:39:52Z</time>
            </trkpt>
            <trkpt lat="44.377730" lon="7.874680">
                <time>2024-04-01T07:39:53Z</time>
            </trkpt>
            <trkpt lat="44.377860" lon="7.874790">
                <time>2024-04-01T07:39:54Z</time>
            </trkpt>
            <trkpt lat="44.377980" lon="7.874910">
                <time>2024-04-01T07:39:55Z</time>
            </trkpt>
            <trkpt lat="44.378100" lon="7.875020">
                <time>2024-04-01T07:39:56Z</time>
            </trkpt>
            <trkpt lat="44.378220" lon="7.875120">
                <time>2024-04-01T07:39:57Z</time>
            </trkpt>
            <trkpt lat="44.378330" lon="7.875210">
                <time>2024-04-01T07:39:58Z</time>
            </trkpt>
            <trkpt lat="44.378450" lon="7.875290">
                <time>2024-04-01T07:39:59Z</time>
            </trkpt>
            <trkpt lat="44.378580" lon="7.875350">
                <time>2024-04-01T07:40:00Z</time>
            </trkpt>
            <trkpt lat="44.378720" lon="7.875400">
                <time>2024-04-01T07:40:01Z</time>
            </trkpt>
            <trkpt lat="44.378860" lon="7.875450">
                <time>2024-04-01T07:40:02Z</time>
            </trkpt>
            <trkpt lat="44.379000" lon="7.875490">
                <time>2024-04-01T07:40:03Z</time>
            </trkpt>
            <trkpt lat="44.379150" lon="7.875510">
                <time>2024-04-01T07:40:04Z</time>
            </trkpt>
            <trkpt lat="44.379300" lon="7.875520">
                <time>2024-04-01T07:40:05Z</time>
            </trkpt>
            <trkpt lat="44.379450" lon="7.875520">
                <time>2024-04-01T07:40:06Z</time>
            </trkpt>
            <trkpt lat="44.379610" lon="7.875510">
                <time>2024-04-01T07:40:07Z</time>
            </trkpt>
            <trkpt lat="44.379770" lon="7.875490">
                <time>2024-04-01T07:40:08Z</time>
            </trkpt>
            <trkpt lat="44.379920" lon="7.875480">
                <time>2024-04-01T07:40:09Z</time>
            </trkpt>
            <trkpt lat="44.380060" lon="7.875460">
                <time>2024-04-01T07:40:10Z</time>
            </trkpt>
            <trkpt lat="44.380190" lon="7.875450">
                <time>2024-04-01T07:40:11Z</time>
            </trkpt>
            <trkpt lat="44.380310" lon="7.875450">
                <time>2024-04-01T07:40:12Z</time>
            </trkpt>
            <trkpt lat="44.380420" lon="7.875480">
                <time>2024-04-01T07:40:13Z</time>
            </trkpt>
            <trkpt lat="44.380520" lon="7.875540">
                <time>2024-04-01T07:40:14Z</time>
            </trkpt>
            <trkpt lat="44.380610" lon="7.875620">
                <time>2024-04-01T07:40:15Z</time>
            </trkpt>
            <trkpt lat="44.380690" lon="7.875730">
                <time>2024-04-01T07:40:16Z</time>
            </trkpt>
            <trkpt lat="44.380750" lon="7.875860">
                <time>2024-04-01T07:40:17Z</time>
            </trkpt>
            <trkpt lat="44.380810" lon="7.876000">
                <time>2024-04-01T07:40:18Z</time>
            </trkpt>
            <trkpt lat="44.380860" lon="7.876150">
                <time>2024-04-01T07:40:19Z</time>
            </trkpt>
            <trkpt lat="44.380900" lon="7.876290">
                <time>2024-04-01T07:40:20Z</time>
            </trkpt>
            <trkpt lat="44.380940" lon="7.876420">
                <time>2024-04-01T07:40:21Z</time>
            </trkpt>
            <trkpt lat="44.380990" lon="7.876550">
                <time>2024-04-01T07:40:22Z</time>
            </trkpt>
            <trkpt lat="44.381050" lon="7.876680">
                <time>2024-04-01T07:40:23Z</time>
            </trkpt>
            <trkpt lat="44.381130" lon="7.876800">
                <time>2024-04-01T07:40:24Z</time>
            </trkpt>
            <trkpt lat="44.381210" lon="7.876910">
                <time>2024-04-01T07:40:25Z</time>
            </trkpt>
            <trkpt lat="44.381300" lon="7.877000">
                <time>2024-04-01T07:40:26Z</time>
            </trkpt>
            <trkpt lat="44.381400" lon="7.877060">
                <time>2024-04-01T07:40:27Z</time>
            </trkpt>
            <trkpt lat="44.381510" lon="7.877110">
                <time>2024-04-01T07:40:28Z</time>
            </trkpt>
            <trkpt lat="44.381620" lon="7.877160">
                <time>2024-04-01T07:40:29Z</time>
            </trkpt>
            <trkpt lat="44.381750" lon="7.877220">
                <time>2024-04-01T07:40:30Z</time>
            </trkpt>
            <trkpt lat="44.381870" lon="7.877280">
                <time>2024-04-01T07:40:31Z</time>
            </trkpt>
            <trkpt lat="44.381990" lon="7.877350">
                <time>2024-04-01T07:40:32Z</time>
            </trkpt>
            <trkpt lat="44.382110" lon="7.877420">
                <time>2024-04-01T07:40:33Z</time>
            </trkpt>
            <trkpt lat="44.382230" lon="7.877510">
                <time>2024-04-01T07:40:34Z</time>
            </trkpt>
            <trkpt lat="44.382330" lon="7.877600">
                <time>2024-04-01T07:40:35Z</time>
            </trkpt>
            <trkpt lat="44.382430" lon="7.877710">
                <time>2024-04-01T07:40:36Z</time>
            </trkpt>
            <trkpt lat="44.382520" lon="7.877840">
                <time>2024-04-01T07:40:37Z</time>
            </trkpt>
            <trkpt lat="44.382590" lon="7.877980">
                <time>2024-04-01T07:40:38Z</time>
            </trkpt>
            <trkpt lat="44.382670" lon="7.878130">
                <time>2024-04-01T07:40:39Z</time>
            </trkpt>
            <trkpt lat="44.382740" lon="7.878280">
                <time>2024-04-01T07:40:40Z</time>
            </trkpt>
            <trkpt lat="44.382810" lon="7.878450">
                <time>2024-04-01T07:40:41Z</time>
            </trkpt>
            <trkpt lat="44.382870" lon="7.878630">
                <time>2024-04-01T07:40:42Z</time>
            </trkpt>
            <trkpt lat="44.382920" lon="7.878800">
                <time>2024-04-01T07:40:43Z</time>
            </trkpt>
            <trkpt lat="44.382980" lon="7.878980">
                <time>2024-04-01T07:40:44Z</time>
            </trkpt>
            <trkpt lat="44.383030" lon="7.879150">
                <time>2024-04-01T07:40:45Z</time>
            </trkpt>
            <trkpt lat="44.383080" lon="7.879310">
                <time>2024-04-01T07:40:46Z</time>
            </trkpt>
            <trkpt lat="44.383130" lon="7.879450">
                <time>2024-04-01T07:40:47Z</time>
            </trkpt>
            <trkpt lat="44.383190" lon="7.879590">
                <time>2024-04-01T07:40:48Z</time>
            </trkpt>
            <trkpt lat="44.383240" lon="7.879720">
                <time>2024-04-01T07:40:49Z</time>
            </trkpt>
            <trkpt lat="44.383300" lon="7.879850">
                <time>2024-04-01T07:40:50Z</time>
            </trkpt>
            <trkpt lat="44.383360" lon="7.879970">
                <time>2024-04-01T07:40:51Z</time>
            </trkpt>
            <trkpt lat="44.383410" lon="7.880090">
                <time>2024-04-01T07:40:52Z</time>
            </trkpt>
            <trkpt lat="44.383480" lon="7.880220">
                <time>2024-04-01T07:40:53Z</time>
            </trkpt>
            <trkpt lat="44.383540" lon="7.880350">
                <time>2024-04-01T07:40:54Z</time>
            </trkpt>
            <trkpt lat="44.383600" lon="7.880490">
                <time>2024-04-01T07:40:55Z</time>
            </trkpt>
            <trkpt lat="44.383670" lon="7.880640">
                <time>2024-04-01T07:40:56Z</time>
            </trkpt>
            <trkpt lat="44.383720" lon="7.880800">
                <time>2024-04-01T07:40:57Z</time>
            </trkpt>
            <trkpt lat="44.383780" lon="7.880940">
                <time>2024-04-01T07:40:58Z</time>
            </trkpt>
            <trkpt lat="44.383830" lon="7.881080">
                <time>2024-04-01T07:40:59Z</time>
            </trkpt>
            <trkpt lat="44.383870" lon="7.881210">
                <time>2024-04-01T07:41:00Z</time>
            </trkpt>
            <trkpt lat="44.383910" lon="7.881340">
                <time>2024-04-01T07:41:01Z</time>
            </trkpt>
            <trkpt lat="44.383940" lon="7.881470">
                <time>2024-04-01T07:41:02Z</time>
            </trkpt>
            <trkpt lat="44.383960" lon="7.881620">
                <time>2024-04-01T07:41:03Z</time>
            </trkpt>
            <trkpt lat="44.383970" lon="7.881780">
                <time>2024-04-01T07:41:04Z</time>
            </trkpt>
            <trkpt lat="44.383980" lon="7.881950">
                <time>2024-04-01T07:41:05Z</time>
            </trkpt>
            <trkpt lat="44.383990" lon="7.882130">
                <time>2024-04-01T07:41:06Z</time>
            </trkpt>
            <trkpt lat="44.384000" lon="7.882300">
                <time>2024-04-01T07:41:07Z</time>
            </trkpt>
            <trkpt lat="44.384010" lon="7.882470">
                <time>2024-04-01T07:41:08Z</time>
            </trkpt>
            <trkpt lat="44.384040" lon="7.882620">
                <time>2024-04-01T07:41:09Z</time>
            </trkpt>
            <trkpt lat="44.384070" lon="7.882770">
                <time>2024-04-01T07:41:10Z</time>
            </trkpt>
            <trkpt lat="44.384130" lon="7.882920">
                <time>2024-04-01T07:41:11Z</time>
            </trkpt>
            <trkpt lat="44.384190" lon="7.883050">
                <time>2024-04-01T07:41:12Z</time>
            </trkpt>
            <trkpt lat="44.384280" lon="7.883160">
                <time>2024-04-01T07:41:13Z</time>
            </trkpt>
            <trkpt lat="44.384370" lon="7.883260">
                <time>2024-04-01T07:41:14Z</time>
            </trkpt>
            <trkpt lat="44.384480" lon="7.883360">
                <time>2024-04-01T07:41:15Z</time>
            </trkpt>
            <trkpt lat="44.384580" lon="7.883460">
                <time>2024-04-01T07:41:16Z</time>
            </trkpt>
            <trkpt lat="44.384690" lon="7.883560">
                <time>2024-04-01T07:41:17Z</time>
            </trkpt>
            <trkpt lat="44.384800" lon="7.883660">
                <time>2024-04-01T07:41:18Z</time>
            </trkpt>
            <trkpt lat="44.384910" lon="7.883760">
                <time>2024-04-01T07:41:19Z</time>
            </trkpt>
            <trkpt lat="44.385020" lon="7.883870">
                <time>2024-04-01T07:41:20Z</time>
            </trkpt>
            <trkpt lat="44.385130" lon="7.883980">
                <time>2024-04-01T07:41:21Z</time>
            </trkpt>
            <trkpt lat="44.385240" lon="7.884090">
                <time>2024-04-01T07:41:22Z</time>
            </trkpt>
            <trkpt lat="44.385350" lon="7.884200">
                <time>2024-04-01T07:41:23Z</time>
            </trkpt>
            <trkpt lat="44.385470" lon="7.884310">
                <time>2024-04-01T07:41:24Z</time>
            </trkpt>
            <trkpt lat="44.385590" lon="7.884420">
                <time>2024-04-01T07:41:25Z</time>
            </trkpt>
            <trkpt lat="44.385700" lon="7.884530">
                <time>2024-04-01T07:41:26Z</time>
            </trkpt>
            <trkpt lat="44.385820" lon="7.884640">
                <time>2024-04-01T07:41:27Z</time>
            </trkpt>
            <trkpt lat="44.385930" lon="7.884750">
                <time>2024-04-01T07:41:28Z</time>
            </trkpt>
            <trkpt lat="44.386050" lon="7.884850">
                <time>2024-04-01T07:41:29Z</time>
            </trkpt>
            <trkpt lat="44.386170" lon="7.884960">
                <time>2024-04-01T07:41:30Z</time>
            </trkpt>
            <trkpt lat="44.386280" lon="7.885070">
                <time>2024-04-01T07:41:31Z</time>
            </trkpt>
            <trkpt lat="44.386400" lon="7.885180">
                <time>2024-04-01T07:41:32Z</time>
            </trkpt>
            <trkpt lat="44.386500" lon="7.885280">
                <time>2024-04-01T07:41:33Z</time>
            </trkpt>
            <trkpt lat="44.386600" lon="7.885370">
                <time>2024-04-01T07:41:34Z</time>
            </trkpt>
            <trkpt lat="44.386680" lon="7.885460">
                <time>2024-04-01T07:41:35Z</time>
            </trkpt>
            <trkpt lat="44.386760" lon="7.885560">
                <time>2024-04-01T07:41:36Z</time>
            </trkpt>
            <trkpt lat="44.386820" lon="7.885670">
                <time>2024-04-01T07:41:37Z</time>
            </trkpt>
            <trkpt lat="44.386870" lon="7.885800">
                <time>2024-04-01T07:41:38Z</time>
            </trkpt>
            <trkpt lat="44.386880" lon="7.885930">
                <time>2024-04-01T07:41:39Z</time>
            </trkpt>
            <trkpt lat="44.386880" lon="7.886070">
                <time>2024-04-01T07:41:40Z</time>
            </trkpt>
            <trkpt lat="44.386850" lon="7.886220">
                <time>2024-04-01T07:41:41Z</time>
            </trkpt>
            <trkpt lat="44.386820" lon="7.886380">
                <time>2024-04-01T07:41:42Z</time>
            </trkpt>
            <trkpt lat="44.386780" lon="7.886540">
                <time>2024-04-01T07:41:43Z</time>
            </trkpt>
            <trkpt lat="44.386730" lon="7.886700">
                <time>2024-04-01T07:41:44Z</time>
            </trkpt>
            <trkpt lat="44.386700" lon="7.886870">
                <time>2024-04-01T07:41:45Z</time>
            </trkpt>
            <trkpt lat="44.386660" lon="7.887020">
                <time>2024-04-01T07:41:46Z</time>
            </trkpt>
            <trkpt lat="44.386630" lon="7.887150">
                <time>2024-04-01T07:41:47Z</time>
            </trkpt>
            <trkpt lat="44.386600" lon="7.887280">
                <time>2024-04-01T07:41:48Z</time>
            </trkpt>
            <trkpt lat="44.386580" lon="7.887410">
                <time>2024-04-01T07:41:49Z</time>
            </trkpt>
            <trkpt lat="44.386560" lon="7.887550">
                <time>2024-04-01T07:41:50Z</time>
            </trkpt>
            <trkpt lat="44.386540" lon="7.887700">
                <time>2024-04-01T07:41:51Z</time>
            </trkpt>
            <trkpt lat="44.386530" lon="7.887850">
                <time>2024-04-01T07:41:52Z</time>
            </trkpt>
            <trkpt lat="44.386520" lon="7.888020">
                <time>2024-04-01T07:41:53Z</time>
            </trkpt>
            <trkpt lat="44.386510" lon="7.888190">
                <time>2024-04-01T07:41:54Z</time>
            </trkpt>
            <trkpt lat="44.386500" lon="7.888370">
                <time>2024-04-01T07:41:55Z</time>
            </trkpt>
            <trkpt lat="44.386480" lon="7.888550">
                <time>2024-04-01T07:41:56Z</time>
            </trkpt>
            <trkpt lat="44.386460" lon="7.888730">
                <time>2024-04-01T07:41:57Z</time>
            </trkpt>
            <trkpt lat="44.386440" lon="7.888910">
                <time>2024-04-01T07:41:58Z</time>
            </trkpt>
            <trkpt lat="44.386410" lon="7.889100">
                <time>2024-04-01T07:41:59Z</time>
            </trkpt>
            <trkpt lat="44.386380" lon="7.889280">
                <time>2024-04-01T07:42:00Z</time>
            </trkpt>
            <trkpt lat="44.386350" lon="7.889460">
                <time>2024-04-01T07:42:01Z</time>
            </trkpt>
            <trkpt lat="44.386330" lon="7.889640">
                <time>2024-04-01T07:42:02Z</time>
            </trkpt>
            <trkpt lat="44.386300" lon="7.889820">
                <time>2024-04-01T07:42:03Z</time>
            </trkpt>
            <trkpt lat="44.386280" lon="7.889990">
                <time>2024-04-01T07:42:04Z</time>
            </trkpt>
            <trkpt lat="44.386260" lon="7.890170">
                <time>2024-04-01T07:42:05Z</time>
            </trkpt>
            <trkpt lat="44.386240" lon="7.890340">
                <time>2024-04-01T07:42:06Z</time>
            </trkpt>
            <trkpt lat="44.386240" lon="7.890510">
                <time>2024-04-01T07:42:07Z</time>
            </trkpt>
            <trkpt lat="44.386250" lon="7.890680">
                <time>2024-04-01T07:42:08Z</time>
            </trkpt>
            <trkpt lat="44.386260" lon="7.890850">
                <time>2024-04-01T07:42:09Z</time>
            </trkpt>
            <trkpt lat="44.386280" lon="7.891010">
                <time>2024-04-01T07:42:10Z</time>
            </trkpt>
            <trkpt lat="44.386300" lon="7.891170">
                <time>2024-04-01T07:42:11Z</time>
            </trkpt>
            <trkpt lat="44.386320" lon="7.891320">
                <time>2024-04-01T07:42:12Z</time>
            </trkpt>
            <trkpt lat="44.386350" lon="7.891450">
                <time>2024-04-01T07:42:13Z</time>
            </trkpt>
            <trkpt lat="44.386370" lon="7.891570">
                <time>2024-04-01T07:42:14Z</time>
            </trkpt>
            <trkpt lat="44.386410" lon="7.891680">
                <time>2024-04-01T07:42:15Z</time>
            </trkpt>
            <trkpt lat="44.386450" lon="7.891770">
                <time>2024-04-01T07:42:16Z</time>
            </trkpt>
            <trkpt lat="44.386500" lon="7.891840">
                <time>2024-04-01T07:42:17Z</time>
            </trkpt>
            <trkpt lat="44.386560" lon="7.891880">
                <time>2024-04-01T07:42:18Z</time>
            </trkpt>
            <trkpt lat="44.386620" lon="7.891900">
                <time>2024-04-01T07:42:19Z</time>
            </trkpt>
            <trkpt lat="44.386680" lon="7.891900">
                <time>2024-04-01T07:42:20Z</time>
            </trkpt>
            <trkpt lat="44.386730" lon="7.891870">
                <time>2024-04-01T07:42:21Z</time>
            </trkpt>
            <trkpt lat="44.386780" lon="7.891820">
                <time>2024-04-01T07:42:22Z</time>
            </trkpt>
            <trkpt lat="44.386850" lon="7.891750">
                <time>2024-04-01T07:42:23Z</time>
            </trkpt>
            <trkpt lat="44.386920" lon="7.891660">
                <time>2024-04-01T07:42:24Z</time>
            </trkpt>
            <trkpt lat="44.387010" lon="7.891560">
                <time>2024-04-01T07:42:25Z</time>
            </trkpt>
            <trkpt lat="44.387090" lon="7.891460">
                <time>2024-04-01T07:42:26Z</time>
            </trkpt>
            <trkpt lat="44.387180" lon="7.891350">
                <time>2024-04-01T07:42:27Z</time>
            </trkpt>
            <trkpt lat="44.387260" lon="7.891240">
                <time>2024-04-01T07:42:28Z</time>
            </trkpt>
            <trkpt lat="44.387350" lon="7.891140">
                <time>2024-04-01T07:42:29Z</time>
            </trkpt>
            <trkpt lat="44.387450" lon="7.891050">
                <time>2024-04-01T07:42:30Z</time>
            </trkpt>
            <trkpt lat="44.387570" lon="7.890970">
                <time>2024-04-01T07:42:31Z</time>
            </trkpt>
            <trkpt lat="44.387680" lon="7.890910">
                <time>2024-04-01T07:42:32Z</time>
            </trkpt>
            <trkpt lat="44.387800" lon="7.890870">
                <time>2024-04-01T07:42:33Z</time>
            </trkpt>
            <trkpt lat="44.387930" lon="7.890860">
                <time>2024-04-01T07:42:34Z</time>
            </trkpt>
            <trkpt lat="44.388060" lon="7.890860">
                <time>2024-04-01T07:42:35Z</time>
            </trkpt>
            <trkpt lat="44.388190" lon="7.890880">
                <time>2024-04-01T07:42:36Z</time>
            </trkpt>
            <trkpt lat="44.388330" lon="7.890900">
                <time>2024-04-01T07:42:37Z</time>
            </trkpt>
            <trkpt lat="44.388470" lon="7.890930">
                <time>2024-04-01T07:42:38Z</time>
            </trkpt>
            <trkpt lat="44.388610" lon="7.890950">
                <time>2024-04-01T07:42:39Z</time>
            </trkpt>
            <trkpt lat="44.388740" lon="7.890980">
                <time>2024-04-01T07:42:40Z</time>
            </trkpt>
            <trkpt lat="44.388880" lon="7.891010">
                <time>2024-04-01T07:42:41Z</time>
            </trkpt>
            <trkpt lat="44.389010" lon="7.891040">
                <time>2024-04-01T07:42:42Z</time>
            </trkpt>
            <trkpt lat="44.389150" lon="7.891090">
                <time>2024-04-01T07:42:43Z</time>
            </trkpt>
            <trkpt lat="44.389280" lon="7.891140">
                <time>2024-04-01T07:42:44Z</time>
            </trkpt>
            <trkpt lat="44.389400" lon="7.891210">
                <time>2024-04-01T07:42:45Z</time>
            </trkpt>
            <trkpt lat="44.389520" lon="7.891310">
                <time>2024-04-01T07:42:46Z</time>
            </trkpt>
            <trkpt lat="44.389630" lon="7.891420">
                <time>2024-04-01T07:42:47Z</time>
            </trkpt>
            <trkpt lat="44.389740" lon="7.891550">
                <time>2024-04-01T07:42:48Z</time>
            </trkpt>
            <trkpt lat="44.389840" lon="7.891690">
                <time>2024-04-01T07:42:49Z</time>
            </trkpt>
            <trkpt lat="44.389940" lon="7.891850">
                <time>2024-04-01T07:42:50Z</time>
            </trkpt>
            <trkpt lat="44.390040" lon="7.892010">
                <time>2024-04-01T07:42:51Z</time>
            </trkpt>
            <trkpt lat="44.390140" lon="7.892180">
                <time>2024-04-01T07:42:52Z</time>
            </trkpt>
            <trkpt lat="44.390240" lon="7.892360">
                <time>2024-04-01T07:42:53Z</time>
            </trkpt>
            <trkpt lat="44.390340" lon="7.892520">
                <time>2024-04-01T07:42:54Z</time>
            </trkpt>
            <trkpt lat="44.390440" lon="7.892680">
                <time>2024-04-01T07:42:55Z</time>
            </trkpt>
            <trkpt lat="44.390550" lon="7.892850">
                <time>2024-04-01T07:42:56Z</time>
            </trkpt>
            <trkpt lat="44.390660" lon="7.893010">
                <time>2024-04-01T07:42:57Z</time>
            </trkpt>
            <trkpt lat="44.390770" lon="7.893160">
                <time>2024-04-01T07:42:58Z</time>
            </trkpt>
            <trkpt lat="44.390880" lon="7.893300">
                <time>2024-04-01T07:42:59Z</time>
            </trkpt>
            <trkpt lat="44.390990" lon="7.893440">
                <time>2024-04-01T07:43:00Z</time>
            </trkpt>
            <trkpt lat="44.391090" lon="7.893570">
                <time>2024-04-01T07:43:01Z</time>
            </trkpt>
            <trkpt lat="44.391180" lon="7.893690">
                <time>2024-04-01T07:43:02Z</time>
            </trkpt>
            <trkpt lat="44.391270" lon="7.893800">
                <time>2024-04-01T07:43:03Z</time>
            </trkpt>
            <trkpt lat="44.391350" lon="7.893910">
                <time>2024-04-01T07:43:04Z</time>
            </trkpt>
            <trkpt lat="44.391430" lon="7.894030">
                <time>2024-04-01T07:43:05Z</time>
            </trkpt>
            <trkpt lat="44.391500" lon="7.894160">
                <time>2024-04-01T07:43:06Z</time>
            </trkpt>
            <trkpt lat="44.391560" lon="7.894300">
                <time>2024-04-01T07:43:07Z</time>
            </trkpt>
            <trkpt lat="44.391600" lon="7.894440">
                <time>2024-04-01T07:43:08Z</time>
            </trkpt>
            <trkpt lat="44.391640" lon="7.894590">
                <time>2024-04-01T07:43:09Z</time>
            </trkpt>
            <trkpt lat="44.391670" lon="7.894750">
                <time>2024-04-01T07:43:10Z</time>
            </trkpt>
            <trkpt lat="44.391700" lon="7.894920">
                <time>2024-04-01T07:43:11Z</time>
            </trkpt>
            <trkpt lat="44.391720" lon="7.895090">
                <time>2024-04-01T07:43:12Z</time>
            </trkpt>
            <trkpt lat="44.391740" lon="7.895260">
                <time>2024-04-01T07:43:13Z</time>
            </trkpt>
            <trkpt lat="44.391760" lon="7.895450">
                <time>2024-04-01T07:43:14Z</time>
            </trkpt>
            <trkpt lat="44.391780" lon="7.895630">
                <time>2024-04-01T07:43:15Z</time>
            </trkpt>
            <trkpt lat="44.391810" lon="7.895820">
                <time>2024-04-01T07:43:16Z</time>
            </trkpt>
            <trkpt lat="44.391830" lon="7.896020">
                <time>2024-04-01T07:43:17Z</time>
            </trkpt>
            <trkpt lat="44.391850" lon="7.896210">
                <time>2024-04-01T07:43:18Z</time>
            </trkpt>
            <trkpt lat="44.391870" lon="7.896410">
                <time>2024-04-01T07:43:19Z</time>
            </trkpt>
            <trkpt lat="44.391890" lon="7.896610">
                <time>2024-04-01T07:43:20Z</time>
            </trkpt>
            <trkpt lat="44.391920" lon="7.896820">
                <time>2024-04-01T07:43:21Z</time>
            </trkpt>
            <trkpt lat="44.391940" lon="7.897010">
                <time>2024-04-01T07:43:22Z</time>
            </trkpt>
            <trkpt lat="44.391970" lon="7.897210">
                <time>2024-04-01T07:43:23Z</time>
            </trkpt>
            <trkpt lat="44.392000" lon="7.897400">
                <time>2024-04-01T07:43:24Z</time>
            </trkpt>
            <trkpt lat="44.392040" lon="7.897590">
                <time>2024-04-01T07:43:25Z</time>
            </trkpt>
            <trkpt lat="44.392080" lon="7.897770">
                <time>2024-04-01T07:43:26Z</time>
            </trkpt>
            <trkpt lat="44.392120" lon="7.897960">
                <time>2024-04-01T07:43:27Z</time>
            </trkpt>
            <trkpt lat="44.392170" lon="7.898130">
                <time>2024-04-01T07:43:28Z</time>
            </trkpt>
            <trkpt lat="44.392210" lon="7.898300">
                <time>2024-04-01T07:43:29Z</time>
            </trkpt>
            <trkpt lat="44.392250" lon="7.898480">
                <time>2024-04-01T07:43:30Z</time>
            </trkpt>
            <trkpt lat="44.392270" lon="7.898650">
                <time>2024-04-01T07:43:31Z</time>
            </trkpt>
            <trkpt lat="44.392280" lon="7.898830">
                <time>2024-04-01T07:43:32Z</time>
            </trkpt>
            <trkpt lat="44.392260" lon="7.899010">
                <time>2024-04-01T07:43:33Z</time>
            </trkpt>
            <trkpt lat="44.392230" lon="7.899190">
                <time>2024-04-01T07:43:34Z</time>
            </trkpt>
            <trkpt lat="44.392200" lon="7.899370">
                <time>2024-04-01T07:43:35Z</time>
            </trkpt>
            <trkpt lat="44.392170" lon="7.899550">
                <time>2024-04-01T07:43:36Z</time>
            </trkpt>
            <trkpt lat="44.392150" lon="7.899710">
                <time>2024-04-01T07:43:37Z</time>
            </trkpt>
            <trkpt lat="44.392130" lon="7.899860">
                <time>2024-04-01T07:43:38Z</time>
            </trkpt>
            <trkpt lat="44.392130" lon="7.900020">
                <time>2024-04-01T07:43:39Z</time>
            </trkpt>
            <trkpt lat="44.392130" lon="7.900170">
                <time>2024-04-01T07:43:40Z</time>
            </trkpt>
            <trkpt lat="44.392120" lon="7.900320">
                <time>2024-04-01T07:43:41Z</time>
            </trkpt>
            <trkpt lat="44.392120" lon="7.900480">
                <time>2024-04-01T07:43:42Z</time>
            </trkpt>
            <trkpt lat="44.392120" lon="7.900630">
                <time>2024-04-01T07:43:43Z</time>
            </trkpt>
            <trkpt lat="44.392130" lon="7.900780">
                <time>2024-04-01T07:43:44Z</time>
            </trkpt>
            <trkpt lat="44.392150" lon="7.900950">
                <time>2024-04-01T07:43:45Z</time>
            </trkpt>
            <trkpt lat="44.392180" lon="7.901120">
                <time>2024-04-01T07:43:46Z</time>
            </trkpt>
            <trkpt lat="44.392230" lon="7.901300">
                <time>2024-04-01T07:43:47Z</time>
            </trkpt>
            <trkpt lat="44.392280" lon="7.901480">
                <time>2024-04-01T07:43:48Z</time>
            </trkpt>
            <trkpt lat="44.392330" lon="7.901660">
                <time>2024-04-01T07:43:49Z</time>
            </trkpt>
            <trkpt lat="44.392380" lon="7.901850">
                <time>2024-04-01T07:43:50Z</time>
            </trkpt>
            <trkpt lat="44.392440" lon="7.902020">
                <time>2024-04-01T07:43:51Z</time>
            </trkpt>
            <trkpt lat="44.392490" lon="7.902190">
                <time>2024-04-01T07:43:52Z</time>
            </trkpt>
            <trkpt lat="44.392550" lon="7.902350">
                <time>2024-04-01T07:43:53Z</time>
            </trkpt>
            <trkpt lat="44.392620" lon="7.902500">
                <time>2024-04-01T07:43:54Z</time>
            </trkpt>
            <trkpt lat="44.392710" lon="7.902650">
                <time>2024-04-01T07:43:55Z</time>
            </trkpt>
            <trkpt lat="44.392800" lon="7.902810">
                <time>2024-04-01T07:43:56Z</time>
            </trkpt>
            <trkpt lat="44.392900" lon="7.902960">
                <time>2024-04-01T07:43:57Z</time>
            </trkpt>
            <trkpt lat="44.393000" lon="7.903110">
                <time>2024-04-01T07:43:58Z</time>
            </trkpt>
            <trkpt lat="44.393100" lon="7.903260">
                <time>2024-04-01T07:43:59Z</time>
            </trkpt>
            <trkpt lat="44.393210" lon="7.903410">
                <time>2024-04-01T07:44:00Z</time>
            </trkpt>
            <trkpt lat="44.393320" lon="7.903570">
                <time>2024-04-01T07:44:01Z</time>
            </trkpt>
            <trkpt lat="44.393420" lon="7.903730">
                <time>2024-04-01T07:44:02Z</time>
            </trkpt>
            <trkpt lat="44.393530" lon="7.903890">
                <time>2024-04-01T07:44:03Z</time>
            </trkpt>
            <trkpt lat="44.393640" lon="7.904050">
                <time>2024-04-01T07:44:04Z</time>
            </trkpt>
            <trkpt lat="44.393750" lon="7.904220">
                <time>2024-04-01T07:44:05Z</time>
            </trkpt>
            <trkpt lat="44.393860" lon="7.904370">
                <time>2024-04-01T07:44:06Z</time>
            </trkpt>
            <trkpt lat="44.393970" lon="7.904540">
                <time>2024-04-01T07:44:07Z</time>
            </trkpt>
            <trkpt lat="44.394080" lon="7.904700">
                <time>2024-04-01T07:44:08Z</time>
            </trkpt>
            <trkpt lat="44.394190" lon="7.904870">
                <time>2024-04-01T07:44:09Z</time>
            </trkpt>
            <trkpt lat="44.394310" lon="7.905040">
                <time>2024-04-01T07:44:10Z</time>
            </trkpt>
            <trkpt lat="44.394420" lon="7.905210">
                <time>2024-04-01T07:44:11Z</time>
            </trkpt>
            <trkpt lat="44.394530" lon="7.905380">
                <time>2024-04-01T07:44:12Z</time>
            </trkpt>
            <trkpt lat="44.394650" lon="7.905540">
                <time>2024-04-01T07:44:13Z</time>
            </trkpt>
            <trkpt lat="44.394760" lon="7.905710">
                <time>2024-04-01T07:44:14Z</time>
            </trkpt>
            <trkpt lat="44.394890" lon="7.905880">
                <time>2024-04-01T07:44:15Z</time>
            </trkpt>
            <trkpt lat="44.395010" lon="7.906060">
                <time>2024-04-01T07:44:16Z</time>
            </trkpt>
            <trkpt lat="44.395140" lon="7.906230">
                <time>2024-04-01T07:44:17Z</time>
            </trkpt>
            <trkpt lat="44.395260" lon="7.906390">
                <time>2024-04-01T07:44:18Z</time>
            </trkpt>
            <trkpt lat="44.395380" lon="7.906560">
                <time>2024-04-01T07:44:19Z</time>
            </trkpt>
            <trkpt lat="44.395500" lon="7.906730">
                <time>2024-04-01T07:44:20Z</time>
            </trkpt>
            <trkpt lat="44.395610" lon="7.906890">
                <time>2024-04-01T07:44:21Z</time>
            </trkpt>
            <trkpt lat="44.395730" lon="7.907060">
                <time>2024-04-01T07:44:22Z</time>
            </trkpt>
            <trkpt lat="44.395840" lon="7.907220">
                <time>2024-04-01T07:44:23Z</time>
            </trkpt>
            <trkpt lat="44.395940" lon="7.907380">
                <time>2024-04-01T07:44:24Z</time>
            </trkpt>
            <trkpt lat="44.396030" lon="7.907550">
                <time>2024-04-01T07:44:25Z</time>
            </trkpt>
            <trkpt lat="44.396100" lon="7.907730">
                <time>2024-04-01T07:44:26Z</time>
            </trkpt>
            <trkpt lat="44.396160" lon="7.907920">
                <time>2024-04-01T07:44:27Z</time>
            </trkpt>
            <trkpt lat="44.396220" lon="7.908140">
                <time>2024-04-01T07:44:28Z</time>
            </trkpt>
            <trkpt lat="44.396260" lon="7.908360">
                <time>2024-04-01T07:44:29Z</time>
            </trkpt>
            <trkpt lat="44.396310" lon="7.908590">
                <time>2024-04-01T07:44:30Z</time>
            </trkpt>
            <trkpt lat="44.396360" lon="7.908820">
                <time>2024-04-01T07:44:31Z</time>
            </trkpt>
            <trkpt lat="44.396420" lon="7.909050">
                <time>2024-04-01T07:44:32Z</time>
            </trkpt>
            <trkpt lat="44.396470" lon="7.909280">
                <time>2024-04-01T07:44:33Z</time>
            </trkpt>
            <trkpt lat="44.396510" lon="7.909500">
                <time>2024-04-01T07:44:34Z</time>
            </trkpt>
            <trkpt lat="44.396550" lon="7.909730">
                <time>2024-04-01T07:44:35Z</time>
            </trkpt>
            <trkpt lat="44.396590" lon="7.909960">
                <time>2024-04-01T07:44:36Z</time>
            </trkpt>
            <trkpt lat="44.396640" lon="7.910190">
                <time>2024-04-01T07:44:37Z</time>
            </trkpt>
            <trkpt lat="44.396680" lon="7.910420">
                <time>2024-04-01T07:44:38Z</time>
            </trkpt>
            <trkpt lat="44.396740" lon="7.910640">
                <time>2024-04-01T07:44:39Z</time>
            </trkpt>
            <trkpt lat="44.396820" lon="7.910840">
                <time>2024-04-01T07:44:40Z</time>
            </trkpt>
            <trkpt lat="44.396910" lon="7.911030">
                <time>2024-04-01T07:44:41Z</time>
            </trkpt>
            <trkpt lat="44.397000" lon="7.911220">
                <time>2024-04-01T07:44:42Z</time>
            </trkpt>
            <trkpt lat="44.397100" lon="7.911410">
                <time>2024-04-01T07:44:43Z</time>
            </trkpt>
            <trkpt lat="44.397180" lon="7.911580">
                <time>2024-04-01T07:44:44Z</time>
            </trkpt>
            <trkpt lat="44.397270" lon="7.911750">
                <time>2024-04-01T07:44:45Z</time>
            </trkpt>
            <trkpt lat="44.397340" lon="7.911940">
                <time>2024-04-01T07:44:46Z</time>
            </trkpt>
            <trkpt lat="44.397410" lon="7.912130">
                <time>2024-04-01T07:44:47Z</time>
            </trkpt>
            <trkpt lat="44.397460" lon="7.912330">
                <time>2024-04-01T07:44:48Z</time>
            </trkpt>
            <trkpt lat="44.397500" lon="7.912540">
                <time>2024-04-01T07:44:49Z</time>
            </trkpt>
            <trkpt lat="44.397550" lon="7.912770">
                <time>2024-04-01T07:44:50Z</time>
            </trkpt>
            <trkpt lat="44.397580" lon="7.913000">
                <time>2024-04-01T07:44:51Z</time>
            </trkpt>
            <trkpt lat="44.397620" lon="7.913230">
                <time>2024-04-01T07:44:52Z</time>
            </trkpt>
            <trkpt lat="44.397650" lon="7.913470">
                <time>2024-04-01T07:44:53Z</time>
            </trkpt>
            <trkpt lat="44.397690" lon="7.913710">
                <time>2024-04-01T07:44:54Z</time>
            </trkpt>
            <trkpt lat="44.397730" lon="7.913950">
                <time>2024-04-01T07:44:55Z</time>
            </trkpt>
            <trkpt lat="44.397770" lon="7.914180">
                <time>2024-04-01T07:44:56Z</time>
            </trkpt>
            <trkpt lat="44.397810" lon="7.914410">
                <time>2024-04-01T07:44:57Z</time>
            </trkpt>
            <trkpt lat="44.397840" lon="7.914610">
                <time>2024-04-01T07:44:58Z</time>
            </trkpt>
            <trkpt lat="44.397870" lon="7.914810">
                <time>2024-04-01T07:44:59Z</time>
            </trkpt>
            <trkpt lat="44.397900" lon="7.915000">
                <time>2024-04-01T07:45:00Z</time>
            </trkpt>
            <trkpt lat="44.397940" lon="7.915190">
                <time>2024-04-01T07:45:01Z</time>
            </trkpt>
            <trkpt lat="44.397990" lon="7.915380">
                <time>2024-04-01T07:45:02Z</time>
            </trkpt>
            <trkpt lat="44.398050" lon="7.915570">
                <time>2024-04-01T07:45:03Z</time>
            </trkpt>
            <trkpt lat="44.398110" lon="7.915740">
                <time>2024-04-01T07:45:04Z</time>
            </trkpt>
            <trkpt lat="44.398190" lon="7.915910">
                <time>2024-04-01T07:45:05Z</time>
            </trkpt>
            <trkpt lat="44.398280" lon="7.916060">
                <time>2024-04-01T07:45:06Z</time>
            </trkpt>
            <trkpt lat="44.398370" lon="7.916210">
                <time>2024-04-01T07:45:07Z</time>
            </trkpt>
            <trkpt lat="44.398470" lon="7.916350">
                <time>2024-04-01T07:45:08Z</time>
            </trkpt>
            <trkpt lat="44.398580" lon="7.916470">
                <time>2024-04-01T07:45:09Z</time>
            </trkpt>
            <trkpt lat="44.398710" lon="7.916600">
                <time>2024-04-01T07:45:10Z</time>
            </trkpt>
            <trkpt lat="44.398850" lon="7.916710">
                <time>2024-04-01T07:45:11Z</time>
            </trkpt>
            <trkpt lat="44.398990" lon="7.916840">
                <time>2024-04-01T07:45:12Z</time>
            </trkpt>
            <trkpt lat="44.399140" lon="7.916960">
                <time>2024-04-01T07:45:13Z</time>
            </trkpt>
            <trkpt lat="44.399300" lon="7.917090">
                <time>2024-04-01T07:45:14Z</time>
            </trkpt>
            <trkpt lat="44.399460" lon="7.917230">
                <time>2024-04-01T07:45:15Z</time>
            </trkpt>
            <trkpt lat="44.399630" lon="7.917360">
                <time>2024-04-01T07:45:16Z</time>
            </trkpt>
            <trkpt lat="44.399800" lon="7.917500">
                <time>2024-04-01T07:45:17Z</time>
            </trkpt>
            <trkpt lat="44.399970" lon="7.917630">
                <time>2024-04-01T07:45:18Z</time>
            </trkpt>
            <trkpt lat="44.400130" lon="7.917770">
                <time>2024-04-01T07:45:19Z</time>
            </trkpt>
            <trkpt lat="44.400290" lon="7.917900">
                <time>2024-04-01T07:45:20Z</time>
            </trkpt>
            <trkpt lat="44.400440" lon="7.918040">
                <time>2024-04-01T07:45:21Z</time>
            </trkpt>
            <trkpt lat="44.400600" lon="7.918170">
                <time>2024-04-01T07:45:22Z</time>
            </trkpt>
            <trkpt lat="44.400760" lon="7.918300">
                <time>2024-04-01T07:45:23Z</time>
            </trkpt>
            <trkpt lat="44.400910" lon="7.918430">
                <time>2024-04-01T07:45:24Z</time>
            </trkpt>
            <trkpt lat="44.401060" lon="7.918560">
                <time>2024-04-01T07:45:25Z</time>
            </trkpt>
            <trkpt lat="44.401210" lon="7.918680">
                <time>2024-04-01T07:45:26Z</time>
            </trkpt>
            <trkpt lat="44.401350" lon="7.918800">
                <time>2024-04-01T07:45:27Z</time>
            </trkpt>
            <trkpt lat="44.401490" lon="7.918920">
                <time>2024-04-01T07:45:28Z</time>
            </trkpt>
            <trkpt lat="44.401640" lon="7.919030">
                <time>2024-04-01T07:45:29Z</time>
            </trkpt>
            <trkpt lat="44.401780" lon="7.919150">
                <time>2024-04-01T07:45:30Z</time>
            </trkpt>
            <trkpt lat="44.401910" lon="7.919250">
                <time>2024-04-01T07:45:31Z</time>
            </trkpt>
            <trkpt lat="44.402040" lon="7.919370">
                <time>2024-04-01T07:45:32Z</time>
            </trkpt>
            <trkpt lat="44.402170" lon="7.919470">
                <time>2024-04-01T07:45:33Z</time>
            </trkpt>
            <trkpt lat="44.402310" lon="7.919580">
                <time>2024-04-01T07:45:34Z</time>
            </trkpt>
            <trkpt lat="44.402430" lon="7.919690">
                <time>2024-04-01T07:45:35Z</time>
            </trkpt>
            <trkpt lat="44.402560" lon="7.919810">
                <time>2024-04-01T07:45:36Z</time>
            </trkpt>
            <trkpt lat="44.402680" lon="7.919920">
                <time>2024-04-01T07:45:37Z</time>
            </trkpt>
            <trkpt lat="44.402790" lon="7.920040">
                <time>2024-04-01T07:45:38Z</time>
            </trkpt>
            <trkpt lat="44.402890" lon="7.920170">
                <time>2024-04-01T07:45:39Z</time>
            </trkpt>
            <trkpt lat="44.402980" lon="7.920320">
                <time>2024-04-01T07:45:40Z</time>
            </trkpt>
            <trkpt lat="44.403070" lon="7.920480">
                <time>2024-04-01T07:45:41Z</time>
            </trkpt>
            <trkpt lat="44.403130" lon="7.920640">
                <time>2024-04-01T07:45:42Z</time>
            </trkpt>
            <trkpt lat="44.403190" lon="7.920810">
                <time>2024-04-01T07:45:43Z</time>
            </trkpt>
            <trkpt lat="44.403220" lon="7.920980">
                <time>2024-04-01T07:45:44Z</time>
            </trkpt>
            <trkpt lat="44.403250" lon="7.921160">
                <time>2024-04-01T07:45:45Z</time>
            </trkpt>
            <trkpt lat="44.403260" lon="7.921350">
                <time>2024-04-01T07:45:46Z</time>
            </trkpt>
            <trkpt lat="44.403270" lon="7.921560">
                <time>2024-04-01T07:45:47Z</time>
            </trkpt>
            <trkpt lat="44.403270" lon="7.921770">
                <time>2024-04-01T07:45:48Z</time>
            </trkpt>
            <trkpt lat="44.403280" lon="7.921990">
                <time>2024-04-01T07:45:49Z</time>
            </trkpt>
            <trkpt lat="44.403290" lon="7.922210">
                <time>2024-04-01T07:45:50Z</time>
            </trkpt>
            <trkpt lat="44.403290" lon="7.922440">
                <time>2024-04-01T07:45:51Z</time>
            </trkpt>
            <trkpt lat="44.403290" lon="7.922660">
                <time>2024-04-01T07:45:52Z</time>
            </trkpt>
            <trkpt lat="44.403300" lon="7.922880">
                <time>2024-04-01T07:45:53Z</time>
            </trkpt>
            <trkpt lat="44.403300" lon="7.923100">
                <time>2024-04-01T07:45:54Z</time>
            </trkpt>
            <trkpt lat="44.403310" lon="7.923320">
                <time>2024-04-01T07:45:55Z</time>
            </trkpt>
            <trkpt lat="44.403310" lon="7.923540">
                <time>2024-04-01T07:45:56Z</time>
            </trkpt>
            <trkpt lat="44.403320" lon="7.923760">
                <time>2024-04-01T07:45:57Z</time>
            </trkpt>
            <trkpt lat="44.403320" lon="7.923970">
                <time>2024-04-01T07:45:58Z</time>
            </trkpt>
            <trkpt lat="44.403320" lon="7.924190">
                <time>2024-04-01T07:45:59Z</time>
            </trkpt>
            <trkpt lat="44.403320" lon="7.924400">
                <time>2024-04-01T07:46:00Z</time>
            </trkpt>
            <trkpt lat="44.403330" lon="7.924620">
                <time>2024-04-01T07:46:01Z</time>
            </trkpt>
            <trkpt lat="44.403330" lon="7.924840">
                <time>2024-04-01T07:46:02Z</time>
            </trkpt>
            <trkpt lat="44.403330" lon="7.925050">
                <time>2024-04-01T07:46:03Z</time>
            </trkpt>
            <trkpt lat="44.403340" lon="7.925260">
                <time>2024-04-01T07:46:04Z</time>
            </trkpt>
            <trkpt lat="44.403340" lon="7.925450">
                <time>2024-04-01T07:46:05Z</time>
            </trkpt>
            <trkpt lat="44.403340" lon="7.925640">
                <time>2024-04-01T07:46:06Z</time>
            </trkpt>
            <trkpt lat="44.403340" lon="7.925810">
                <time>2024-04-01T07:46:07Z</time>
            </trkpt>
            <trkpt lat="44.403340" lon="7.925970">
                <time>2024-04-01T07:46:08Z</time>
            </trkpt>
            <trkpt lat="44.403350" lon="7.926120">
                <time>2024-04-01T07:46:09Z</time>
            </trkpt>
            <trkpt lat="44.403360" lon="7.926260">
                <time>2024-04-01T07:46:10Z</time>
            </trkpt>
            <trkpt lat="44.403390" lon="7.926400">
                <time>2024-04-01T07:46:11Z</time>
            </trkpt>
            <trkpt lat="44.403420" lon="7.926530">
                <time>2024-04-01T07:46:12Z</time>
            </trkpt>
            <trkpt lat="44.403470" lon="7.926650">
                <time>2024-04-01T07:46:13Z</time>
            </trkpt>
            <trkpt lat="44.403520" lon="7.926770">
                <time>2024-04-01T07:46:14Z</time>
            </trkpt>
            <trkpt lat="44.403610" lon="7.926880">
                <time>2024-04-01T07:46:15Z</time>
            </trkpt>
            <trkpt lat="44.403690" lon="7.926970">
                <time>2024-04-01T07:46:16Z</time>
            </trkpt>
            <trkpt lat="44.403790" lon="7.927060">
                <time>2024-04-01T07:46:17Z</time>
            </trkpt>
            <trkpt lat="44.403890" lon="7.927160">
                <time>2024-04-01T07:46:18Z</time>
            </trkpt>
            <trkpt lat="44.403980" lon="7.927260">
                <time>2024-04-01T07:46:19Z</time>
            </trkpt>
            <trkpt lat="44.404070" lon="7.927350">
                <time>2024-04-01T07:46:20Z</time>
            </trkpt>
            <trkpt lat="44.404160" lon="7.927450">
                <time>2024-04-01T07:46:21Z</time>
            </trkpt>
            <trkpt lat="44.404250" lon="7.927540">
                <time>2024-04-01T07:46:22Z</time>
            </trkpt>
            <trkpt lat="44.404320" lon="7.927640">
                <time>2024-04-01T07:46:23Z</time>
            </trkpt>
            <trkpt lat="44.404400" lon="7.927730">
                <time>2024-04-01T07:46:24Z</time>
            </trkpt>
            <trkpt lat="44.404470" lon="7.927810">
                <time>2024-04-01T07:46:25Z</time>
            </trkpt>
            <trkpt lat="44.404540" lon="7.927890">
                <time>2024-04-01T07:46:26Z</time>
            </trkpt>
            <trkpt lat="44.404610" lon="7.927950">
                <time>2024-04-01T07:46:27Z</time>
            </trkpt>
            <trkpt lat="44.404670" lon="7.928000">
                <time>2024-04-01T07:46:28Z</time>
            </trkpt>
            <trkpt lat="44.404750" lon="7.928040">
                <time>2024-04-01T07:46:29Z</time>
            </trkpt>
            <trkpt lat="44.404820" lon="7.928080">
                <time>2024-04-01T07:46:30Z</time>
            </trkpt>
            <trkpt lat="44.404880" lon="7.928100">
                <time>2024-04-01T07:46:31Z</time>
            </trkpt>
            <trkpt lat="44.404950" lon="7.928130">
                <time>2024-04-01T07:46:32Z</time>
            </trkpt>
            <trkpt lat="44.405020" lon="7.928150">
                <time>2024-04-01T07:46:33Z</time>
            </trkpt>
            <trkpt lat="44.405070" lon="7.928170">
                <time>2024-04-01T07:46:34Z</time>
            </trkpt>
            <trkpt lat="44.405130" lon="7.928200">
                <time>2024-04-01T07:46:35Z</time>
            </trkpt>
            <trkpt lat="44.405170" lon="7.928220">
                <time>2024-04-01T07:46:36Z</time>
            </trkpt>
            <trkpt lat="44.405210" lon="7.928250">
                <time>2024-04-01T07:46:37Z</time>
            </trkpt>
            <trkpt lat="44.405230" lon="7.928290">
                <time>2024-04-01T07:46:38Z</time>
            </trkpt>
            <trkpt lat="44.405270" lon="7.928340">
                <time>2024-04-01T07:46:39Z</time>
            </trkpt>
            <trkpt lat="44.405300" lon="7.928350">
                <time>2024-04-01T07:46:40Z</time>
            </trkpt>
            <trkpt lat="44.405340" lon="7.928340">
                <time>2024-04-01T07:46:41Z</time>
            </trkpt>
            <trkpt lat="44.405370" lon="7.928320">
                <time>2024-04-01T07:46:42Z</time>
            </trkpt>
            <trkpt lat="44.405390" lon="7.928300">
                <time>2024-04-01T07:46:43Z</time>
            </trkpt>
            <trkpt lat="44.405410" lon="7.928270">
                <time>2024-04-01T07:46:44Z</time>
            </trkpt>
            <trkpt lat="44.405420" lon="7.928260">
                <time>2024-04-01T07:46:45Z</time>
            </trkpt>
            <trkpt lat="44.405420" lon="7.928260">
                <time>2024-04-01T07:46:46Z</time>
            </trkpt>
            <trkpt lat="44.405420" lon="7.928260">
                <time>2024-04-01T07:46:47Z</time>
            </trkpt>
            <trkpt lat="44.405430" lon="7.928260">
                <time>2024-04-01T07:46:48Z</time>
            </trkpt>
            <trkpt lat="44.405430" lon="7.928260">
                <time>2024-04-01T07:46:49Z</time>
            </trkpt>
            <trkpt lat="44.405430" lon="7.928260">
                <time>2024-04-01T07:46:50Z</time>
            </trkpt>
            <trkpt lat="44.405430" lon="7.928260">
                <time>2024-04-01T07:46:51Z</time>
            </trkpt>
            <trkpt lat="44.405430" lon="7.928260">
                <time>2024-04-01T07:46:52Z</time>
            </trkpt>
            <trkpt lat="44.405430" lon="7.928260">
                <time>2024-04-01T07:46:53Z</time>
            </trkpt>
            <trkpt lat="44.405430" lon="7.928260">
                <time>2024-04-01T07:46:54Z</time>
            </trkpt>
            <trkpt lat="44.405430" lon="7.928260">
                <time>2024-04-01T07:46:55Z</time>
            </trkpt>
            <trkpt lat="44.405430" lon="7.928260">
                <time>2024-04-01T07:46:56Z</time>
            </trkpt>
            <trkpt lat="44.405430" lon="7.928260">
                <time>2024-04-01T07:46:57Z</time>
            </trkpt>
            <trkpt lat="44.405430" lon="7.928260">
                <time>2024-04-01T07:46:58Z</time>
            </trkpt>
            <trkpt lat="44.405430" lon="7.928260">
                <time>2024-04-01T07:46:59Z</time>
            </trkpt>
            <trkpt lat="44.405430" lon="7.928260">
                <time>2024-04-01T07:47:00Z</time>
            </trkpt>
            <trkpt lat="44.405430" lon="7.928260">
                <time>2024-04-01T07:47:01Z</time>
            </trkpt>
            <trkpt lat="44.405430" lon="7.928260">
                <time>2024-04-01T07:47:02Z</time>
            </trkpt>
            <trkpt lat="44.405430" lon="7.928260">
                <time>2024-04-01T07:47:03Z</time>
            </trkpt>
            <trkpt lat="44.405430" lon="7.928260">
                <time>2024-04-01T07:47:04Z</time>
            </trkpt>
            <trkpt lat="44.405430" lon="7.928260">
                <time>2024-04-01T07:47:05Z</time>
            </trkpt>
            <trkpt lat="44.405430" lon="7.928260">
                <time>2024-04-01T07:47:06Z</time>
            </trkpt>
            <trkpt lat="44.405430" lon="7.928260">
                <time>2024-04-01T07:47:07Z</time>
            </trkpt>
            <trkpt lat="44.405430" lon="7.928260">
                <time>2024-04-01T07:47:08Z</time>
            </trkpt>
            <trkpt lat="44.405430" lon="7.928260">
                <time>2024-04-01T07:47:09Z</time>
            </trkpt>
            <trkpt lat="44.405430" lon="7.928260">
                <time>2024-04-01T07:47:10Z</time>
            </trkpt>
            <trkpt lat="44.405430" lon="7.928260">
                <time>2024-04-01T07:47:11Z</time>
            </trkpt>
            <trkpt lat="44.405430" lon="7.928260">
                <time>2024-04-01T07:47:12Z</time>
            </trkpt>
            <trkpt lat="44.405430" lon="7.928260">
                <time>2024-04-01T07:47:13Z</time>
            </trkpt>
            <trkpt lat="44.405430" lon="7.928260">
                <time>2024-04-01T07:47:14Z</time>
            </trkpt>
            <trkpt lat="44.405430" lon="7.928260">
                <time>2024-04-01T07:47:15Z</time>
            </trkpt>
            <trkpt lat="44.405430" lon="7.928260">
                <time>2024-04-01T07:47:16Z</time>
            </trkpt>
            <trkpt lat="44.405430" lon="7.928260">
                <time>2024-04-01T07:47:17Z</time>
            </trkpt>
            <trkpt lat="44.405430" lon="7.928260">
                <time>2024-04-01T07:47:18Z</time>
            </trkpt>
            <trkpt lat="44.405430" lon="7.928260">
                <time>2024-04-01T07:47:19Z</time>
            </trkpt>
            <trkpt lat="44.405430" lon="7.928260">
                <time>2024-04-01T07:47:20Z</time>
            </trkpt>
            <trkpt lat="44.405430" lon="7.928260">
                <time>2024-04-01T07:47:21Z</time>
            </trkpt>
            <trkpt lat="44.405430" lon="7.928260">
                <time>2024-04-01T07:47:22Z</time>
            </trkpt>
            <trkpt lat="44.405430" lon="7.928260">
                <time>2024-04-01T07:47:23Z</time>
            </trkpt>
            <trkpt lat="44.405430" lon="7.928260">
                <time>2024-04-01T07:47:24Z</time>
            </trkpt>
            <trkpt lat="44.405430" lon="7.928260">
                <time>2024-04-01T07:47:25Z</time>
            </trkpt>
            <trkpt lat="44.405430" lon="7.928260">
                <time>2024-04-01T07:47:26Z</time>
            </trkpt>
            <trkpt lat="44.405430" lon="7.928260">
                <time>2024-04-01T07:47:27Z</time>
            </trkpt>
            <trkpt lat="44.405180" lon="7.928100">
                <time>2024-04-01T07:51:03Z</time>
            </trkpt>
            <trkpt lat="44.405170" lon="7.928100">
                <time>2024-04-01T07:51:04Z</time>
            </trkpt>
            <trkpt lat="44.405240" lon="7.928120">
                <time>2024-04-01T07:51:05Z</time>
            </trkpt>
            <trkpt lat="44.405260" lon="7.928120">
                <time>2024-04-01T07:51:06Z</time>
            </trkpt>
            <trkpt lat="44.405300" lon="7.928120">
                <time>2024-04-01T07:51:07Z</time>
            </trkpt>
            <trkpt lat="44.405300" lon="7.928100">
                <time>2024-04-01T07:51:09Z</time>
            </trkpt>
            <trkpt lat="44.405320" lon="7.928110">
                <time>2024-04-01T07:51:10Z</time>
            </trkpt>
            <trkpt lat="44.405330" lon="7.928110">
                <time>2024-04-01T07:51:11Z</time>
            </trkpt>
            <trkpt lat="44.405330" lon="7.928120">
                <time>2024-04-01T07:51:12Z</time>
            </trkpt>
            <trkpt lat="44.405330" lon="7.928120">
                <time>2024-04-01T07:51:13Z</time>
            </trkpt>
            <trkpt lat="44.405330" lon="7.928120">
                <time>2024-04-01T07:51:14Z</time>
            </trkpt>
            <trkpt lat="44.405330" lon="7.928120">
                <time>2024-04-01T07:51:15Z</time>
            </trkpt>
            <trkpt lat="44.405330" lon="7.928120">
                <time>2024-04-01T07:51:16Z</time>
            </trkpt>
            <trkpt lat="44.405330" lon="7.928120">
                <time>2024-04-01T07:51:17Z</time>
            </trkpt>
            <trkpt lat="44.405330" lon="7.928120">
                <time>2024-04-01T07:51:18Z</time>
            </trkpt>
            <trkpt lat="44.405330" lon="7.928120">
                <time>2024-04-01T07:51:19Z</time>
            </trkpt>
            <trkpt lat="44.405330" lon="7.928130">
                <time>2024-04-01T07:51:20Z</time>
            </trkpt>
            <trkpt lat="44.405340" lon="7.928130">
                <time>2024-04-01T07:51:21Z</time>
            </trkpt>
            <trkpt lat="44.405340" lon="7.928130">
                <time>2024-04-01T07:51:22Z</time>
            </trkpt>
            <trkpt lat="44.405340" lon="7.928130">
                <time>2024-04-01T07:51:23Z</time>
            </trkpt>
            <trkpt lat="44.405340" lon="7.928130">
                <time>2024-04-01T07:51:24Z</time>
            </trkpt>
            <trkpt lat="44.405340" lon="7.928130">
                <time>2024-04-01T07:51:25Z</time>
            </trkpt>
            <trkpt lat="44.405340" lon="7.928130">
                <time>2024-04-01T07:51:26Z</time>
            </trkpt>
            <trkpt lat="44.405340" lon="7.928130">
                <time>2024-04-01T07:51:27Z</time>
            </trkpt>
            <trkpt lat="44.405340" lon="7.928130">
                <time>2024-04-01T07:51:28Z</time>
            </trkpt>
            <trkpt lat="44.405340" lon="7.928130">
                <time>2024-04-01T07:51:29Z</time>
            </trkpt>
            <trkpt lat="44.405340" lon="7.928130">
                <time>2024-04-01T07:51:30Z</time>
            </trkpt>
            <trkpt lat="44.405340" lon="7.928130">
                <time>2024-04-01T07:51:31Z</time>
            </trkpt>
            <trkpt lat="44.405340" lon="7.928130">
                <time>2024-04-01T07:51:32Z</time>
            </trkpt>
            <trkpt lat="44.405340" lon="7.928130">
                <time>2024-04-01T07:51:33Z</time>
            </trkpt>
            <trkpt lat="44.405340" lon="7.928130">
                <time>2024-04-01T07:51:34Z</time>
            </trkpt>
            <trkpt lat="44.405340" lon="7.928130">
                <time>2024-04-01T07:51:35Z</time>
            </trkpt>
            <trkpt lat="44.405340" lon="7.928130">
                <time>2024-04-01T07:51:36Z</time>
            </trkpt>
            <trkpt lat="44.405340" lon="7.928130">
                <time>2024-04-01T07:51:37Z</time>
            </trkpt>
            <trkpt lat="44.405340" lon="7.928130">
                <time>2024-04-01T07:51:38Z</time>
            </trkpt>
            <trkpt lat="44.405340" lon="7.928130">
                <time>2024-04-01T07:51:39Z</time>
            </trkpt>
            <trkpt lat="44.405340" lon="7.928130">
                <time>2024-04-01T07:51:40Z</time>
            </trkpt>
            <trkpt lat="44.405340" lon="7.928130">
                <time>2024-04-01T07:51:41Z</time>
            </trkpt>
            <trkpt lat="44.405340" lon="7.928130">
                <time>2024-04-01T07:51:42Z</time>
            </trkpt>
            <trkpt lat="44.405340" lon="7.928130">
                <time>2024-04-01T07:51:43Z</time>
            </trkpt>
            <trkpt lat="44.405340" lon="7.928130">
                <time>2024-04-01T07:51:44Z</time>
            </trkpt>
            <trkpt lat="44.405340" lon="7.928130">
                <time>2024-04-01T07:51:45Z</time>
            </trkpt>
            <trkpt lat="44.405340" lon="7.928130">
                <time>2024-04-01T07:51:46Z</time>
            </trkpt>
            <trkpt lat="44.405340" lon="7.928130">
                <time>2024-04-01T07:51:47Z</time>
            </trkpt>
            <trkpt lat="44.405340" lon="7.928130">
                <time>2024-04-01T07:51:48Z</time>
            </trkpt>
            <trkpt lat="44.405340" lon="7.928130">
                <time>2024-04-01T07:51:49Z</time>
            </trkpt>
            <trkpt lat="44.405340" lon="7.928130">
                <time>2024-04-01T07:51:50Z</time>
            </trkpt>
            <trkpt lat="44.405340" lon="7.928130">
                <time>2024-04-01T07:51:51Z</time>
            </trkpt>
            <trkpt lat="44.405340" lon="7.928130">
                <time>2024-04-01T07:51:52Z</time>
            </trkpt>
            <trkpt lat="44.405340" lon="7.928130">
                <time>2024-04-01T07:51:53Z</time>
            </trkpt>
            <trkpt lat="44.405340" lon="7.928130">
                <time>2024-04-01T07:51:54Z</time>
            </trkpt>
            <trkpt lat="44.405340" lon="7.928130">
                <time>2024-04-01T07:51:55Z</time>
            </trkpt>
            <trkpt lat="44.405340" lon="7.928130">
                <time>2024-04-01T07:51:56Z</time>
            </trkpt>
            <trkpt lat="44.405340" lon="7.928130">
                <time>2024-04-01T07:51:57Z</time>
            </trkpt>
            <trkpt lat="44.405340" lon="7.928130">
                <time>2024-04-01T07:51:58Z</time>
            </trkpt>
            <trkpt lat="44.405340" lon="7.928130">
                <time>2024-04-01T07:51:59Z</time>
            </trkpt>
            <trkpt lat="44.405340" lon="7.928130">
                <time>2024-04-01T07:52:00Z</time>
            </trkpt>
            <trkpt lat="44.405340" lon="7.928130">
                <time>2024-04-01T07:52:01Z</time>
            </trkpt>
            <trkpt lat="44.405340" lon="7.928130">
                <time>2024-04-01T07:52:02Z</time>
            </trkpt>
            <trkpt lat="44.405340" lon="7.928130">
                <time>2024-04-01T07:52:03Z</time>
            </trkpt>
            <trkpt lat="44.405340" lon="7.928130">
                <time>2024-04-01T07:52:04Z</time>
            </trkpt>
            <trkpt lat="44.405340" lon="7.928130">
                <time>2024-04-01T07:52:05Z</time>
            </trkpt>
            <trkpt lat="44.405340" lon="7.928130">
                <time>2024-04-01T07:52:06Z</time>
            </trkpt>
            <trkpt lat="44.405340" lon="7.928130">
                <time>2024-04-01T07:52:07Z</time>
            </trkpt>
            <trkpt lat="44.405340" lon="7.928130">
                <time>2024-04-01T07:52:08Z</time>
            </trkpt>
            <trkpt lat="44.405340" lon="7.928130">
                <time>2024-04-01T07:52:09Z</time>
            </trkpt>
            <trkpt lat="44.405340" lon="7.928130">
                <time>2024-04-01T07:52:10Z</time>
            </trkpt>
            <trkpt lat="44.405340" lon="7.928130">
                <time>2024-04-01T07:52:11Z</time>
            </trkpt>
            <trkpt lat="44.405340" lon="7.928130">
                <time>2024-04-01T07:52:12Z</time>
            </trkpt>
            <trkpt lat="44.405340" lon="7.928130">
                <time>2024-04-01T07:52:13Z</time>
            </trkpt>
            <trkpt lat="44.405340" lon="7.928130">
                <time>2024-04-01T07:52:14Z</time>
            </trkpt>
            <trkpt lat="44.405340" lon="7.928130">
                <time>2024-04-01T07:52:15Z</time>
            </trkpt>
            <trkpt lat="44.405340" lon="7.928130">
                <time>2024-04-01T07:52:16Z</time>
            </trkpt>
            <trkpt lat="44.405340" lon="7.928130">
                <time>2024-04-01T07:52:17Z</time>
            </trkpt>
            <trkpt lat="44.405340" lon="7.928130">
                <time>2024-04-01T07:52:18Z</time>
            </trkpt>
            <trkpt lat="44.405340" lon="7.928130">
                <time>2024-04-01T07:52:19Z</time>
            </trkpt>
            <trkpt lat="44.405340" lon="7.928130">
                <time>2024-04-01T07:52:20Z</time>
            </trkpt>
            <trkpt lat="44.405340" lon="7.928130">
                <time>2024-04-01T07:52:21Z</time>
            </trkpt>
            <trkpt lat="44.405340" lon="7.928130">
                <time>2024-04-01T07:52:22Z</time>
            </trkpt>
            <trkpt lat="44.405340" lon="7.928130">
                <time>2024-04-01T07:52:23Z</time>
            </trkpt>
            <trkpt lat="44.405340" lon="7.928130">
                <time>2024-04-01T07:52:24Z</time>
            </trkpt>
            <trkpt lat="44.405340" lon="7.928130">
                <time>2024-04-01T07:52:25Z</time>
            </trkpt>
            <trkpt lat="44.405340" lon="7.928130">
                <time>2024-04-01T07:52:26Z</time>
            </trkpt>
            <trkpt lat="44.405340" lon="7.928130">
                <time>2024-04-01T07:52:27Z</time>
            </trkpt>
            <trkpt lat="44.405340" lon="7.928130">
                <time>2024-04-01T07:52:28Z</time>
            </trkpt>
            <trkpt lat="44.405340" lon="7.928130">
                <time>2024-04-01T07:52:29Z</time>
            </trkpt>
            <trkpt lat="44.405340" lon="7.928130">
                <time>2024-04-01T07:52:30Z</time>
            </trkpt>
            <trkpt lat="44.405340" lon="7.928130">
                <time>2024-04-01T07:52:31Z</time>
            </trkpt>
            <trkpt lat="44.405340" lon="7.928130">
                <time>2024-04-01T07:52:32Z</time>
            </trkpt>
            <trkpt lat="44.405340" lon="7.928130">
                <time>2024-04-01T07:52:33Z</time>
            </trkpt>
            <trkpt lat="44.405340" lon="7.928130">
                <time>2024-04-01T07:52:34Z</time>
            </trkpt>
            <trkpt lat="44.405340" lon="7.928130">
                <time>2024-04-01T07:52:35Z</time>
            </trkpt>
            <trkpt lat="44.405340" lon="7.928130">
                <time>2024-04-01T07:52:36Z</time>
            </trkpt>
            <trkpt lat="44.405340" lon="7.928130">
                <time>2024-04-01T07:52:37Z</time>
            </trkpt>
            <trkpt lat="44.405340" lon="7.928130">
                <time>2024-04-01T07:52:38Z</time>
            </trkpt>
            <trkpt lat="44.405340" lon="7.928130">
                <time>2024-04-01T07:52:39Z</time>
            </trkpt>
            <trkpt lat="44.405340" lon="7.928130">
                <time>2024-04-01T07:52:40Z</time>
            </trkpt>
            <trkpt lat="44.405340" lon="7.928130">
                <time>2024-04-01T07:52:41Z</time>
            </trkpt>
            <trkpt lat="44.405340" lon="7.928130">
                <time>2024-04-01T07:52:42Z</time>
            </trkpt>
            <trkpt lat="44.405340" lon="7.928130">
                <time>2024-04-01T07:52:43Z</time>
            </trkpt>
            <trkpt lat="44.405340" lon="7.928130">
                <time>2024-04-01T07:52:44Z</time>
            </trkpt>
            <trkpt lat="44.405340" lon="7.928130">
                <time>2024-04-01T07:52:45Z</time>
            </trkpt>
            <trkpt lat="44.405340" lon="7.928130">
                <time>2024-04-01T07:52:46Z</time>
            </trkpt>
            <trkpt lat="44.405340" lon="7.928130">
                <time>2024-04-01T07:52:47Z</time>
            </trkpt>
            <trkpt lat="44.405340" lon="7.928130">
                <time>2024-04-01T07:52:48Z</time>
            </trkpt>
            <trkpt lat="44.405340" lon="7.928130">
                <time>2024-04-01T07:52:49Z</time>
            </trkpt>
            <trkpt lat="44.405340" lon="7.928130">
                <time>2024-04-01T07:52:50Z</time>
            </trkpt>
            <trkpt lat="44.405340" lon="7.928130">
                <time>2024-04-01T07:52:51Z</time>
            </trkpt>
            <trkpt lat="44.405340" lon="7.928130">
                <time>2024-04-01T07:52:52Z</time>
            </trkpt>
            <trkpt lat="44.405340" lon="7.928130">
                <time>2024-04-01T07:52:53Z</time>
            </trkpt>
            <trkpt lat="44.405340" lon="7.928130">
                <time>2024-04-01T07:52:54Z</time>
            </trkpt>
            <trkpt lat="44.405340" lon="7.928130">
                <time>2024-04-01T07:52:55Z</time>
            </trkpt>
            <trkpt lat="44.405340" lon="7.928130">
                <time>2024-04-01T07:52:56Z</time>
            </trkpt>
            <trkpt lat="44.405340" lon="7.928130">
                <time>2024-04-01T07:52:57Z</time>
            </trkpt>
            <trkpt lat="44.405340" lon="7.928130">
                <time>2024-04-01T07:52:58Z</time>
            </trkpt>
            <trkpt lat="44.405340" lon="7.928130">
                <time>2024-04-01T07:52:59Z</time>
            </trkpt>
            <trkpt lat="44.405340" lon="7.928130">
                <time>2024-04-01T07:53:00Z</time>
            </trkpt>
            <trkpt lat="44.405340" lon="7.928130">
                <time>2024-04-01T07:53:01Z</time>
            </trkpt>
            <trkpt lat="44.405340" lon="7.928130">
                <time>2024-04-01T07:53:02Z</time>
            </trkpt>
            <trkpt lat="44.405340" lon="7.928130">
                <time>2024-04-01T07:53:03Z</time>
            </trkpt>
            <trkpt lat="44.405340" lon="7.928130">
                <time>2024-04-01T07:53:04Z</time>
            </trkpt>
            <trkpt lat="44.405340" lon="7.928130">
                <time>2024-04-01T07:53:05Z</time>
            </trkpt>
            <trkpt lat="44.405340" lon="7.928130">
                <time>2024-04-01T07:53:06Z</time>
            </trkpt>
            <trkpt lat="44.405340" lon="7.928130">
                <time>2024-04-01T07:53:07Z</time>
            </trkpt>
            <trkpt lat="44.405340" lon="7.928130">
                <time>2024-04-01T07:53:08Z</time>
            </trkpt>
            <trkpt lat="44.405340" lon="7.928130">
                <time>2024-04-01T07:53:09Z</time>
            </trkpt>
            <trkpt lat="44.405340" lon="7.928130">
                <time>2024-04-01T07:53:10Z</time>
            </trkpt>
            <trkpt lat="44.405340" lon="7.928130">
                <time>2024-04-01T07:53:11Z</time>
            </trkpt>
            <trkpt lat="44.405340" lon="7.928130">
                <time>2024-04-01T07:53:12Z</time>
            </trkpt>
            <trkpt lat="44.405340" lon="7.928130">
                <time>2024-04-01T07:53:13Z</time>
            </trkpt>
            <trkpt lat="44.405340" lon="7.928130">
                <time>2024-04-01T07:53:14Z</time>
            </trkpt>
            <trkpt lat="44.405340" lon="7.928130">
                <time>2024-04-01T07:53:15Z</time>
            </trkpt>
            <trkpt lat="44.405340" lon="7.928130">
                <time>2024-04-01T07:53:16Z</time>
            </trkpt>
            <trkpt lat="44.405340" lon="7.928130">
                <time>2024-04-01T07:53:17Z</time>
            </trkpt>
            <trkpt lat="44.405340" lon="7.928130">
                <time>2024-04-01T07:53:18Z</time>
            </trkpt>
            <trkpt lat="44.405340" lon="7.928130">
                <time>2024-04-01T07:53:19Z</time>
            </trkpt>
            <trkpt lat="44.405340" lon="7.928130">
                <time>2024-04-01T07:53:20Z</time>
            </trkpt>
            <trkpt lat="44.405340" lon="7.928130">
                <time>2024-04-01T07:53:21Z</time>
            </trkpt>
            <trkpt lat="44.405340" lon="7.928130">
                <time>2024-04-01T07:53:22Z</time>
            </trkpt>
            <trkpt lat="44.405340" lon="7.928130">
                <time>2024-04-01T07:53:23Z</time>
            </trkpt>
            <trkpt lat="44.405340" lon="7.928130">
                <time>2024-04-01T07:53:24Z</time>
            </trkpt>
            <trkpt lat="44.405340" lon="7.928130">
                <time>2024-04-01T07:53:25Z</time>
            </trkpt>
            <trkpt lat="44.405340" lon="7.928130">
                <time>2024-04-01T07:53:26Z</time>
            </trkpt>
            <trkpt lat="44.405340" lon="7.928130">
                <time>2024-04-01T07:53:27Z</time>
            </trkpt>
            <trkpt lat="44.405340" lon="7.928130">
                <time>2024-04-01T07:53:28Z</time>
            </trkpt>
            <trkpt lat="44.405340" lon="7.928130">
                <time>2024-04-01T07:53:29Z</time>
            </trkpt>
            <trkpt lat="44.405340" lon="7.928130">
                <time>2024-04-01T07:53:30Z</time>
            </trkpt>
            <trkpt lat="44.405340" lon="7.928130">
                <time>2024-04-01T07:53:31Z</time>
            </trkpt>
            <trkpt lat="44.405340" lon="7.928130">
                <time>2024-04-01T07:53:32Z</time>
            </trkpt>
            <trkpt lat="44.405340" lon="7.928130">
                <time>2024-04-01T07:53:33Z</time>
            </trkpt>
            <trkpt lat="44.405340" lon="7.928130">
                <time>2024-04-01T07:53:34Z</time>
            </trkpt>
            <trkpt lat="44.405340" lon="7.928130">
                <time>2024-04-01T07:53:35Z</time>
            </trkpt>
            <trkpt lat="44.405340" lon="7.928130">
                <time>2024-04-01T07:53:36Z</time>
            </trkpt>
            <trkpt lat="44.405350" lon="7.928120">
                <time>2024-04-01T07:53:37Z</time>
            </trkpt>
            <trkpt lat="44.405360" lon="7.928100">
                <time>2024-04-01T07:53:38Z</time>
            </trkpt>
            <trkpt lat="44.405390" lon="7.928070">
                <time>2024-04-01T07:53:39Z</time>
            </trkpt>
            <trkpt lat="44.405460" lon="7.928030">
                <time>2024-04-01T07:53:40Z</time>
            </trkpt>
            <trkpt lat="44.405510" lon="7.928000">
                <time>2024-04-01T07:53:41Z</time>
            </trkpt>
            <trkpt lat="44.405570" lon="7.927990">
                <time>2024-04-01T07:53:42Z</time>
            </trkpt>
            <trkpt lat="44.405650" lon="7.927970">
                <time>2024-04-01T07:53:43Z</time>
            </trkpt>
            <trkpt lat="44.405740" lon="7.927940">
                <time>2024-04-01T07:53:44Z</time>
            </trkpt>
            <trkpt lat="44.405820" lon="7.927910">
                <time>2024-04-01T07:53:45Z</time>
            </trkpt>
            <trkpt lat="44.405910" lon="7.927900">
                <time>2024-04-01T07:53:46Z</time>
            </trkpt>
            <trkpt lat="44.405990" lon="7.927880">
                <time>2024-04-01T07:53:47Z</time>
            </trkpt>
            <trkpt lat="44.406080" lon="7.927870">
                <time>2024-04-01T07:53:48Z</time>
            </trkpt>
            <trkpt lat="44.406170" lon="7.927870">
                <time>2024-04-01T07:53:49Z</time>
            </trkpt>
            <trkpt lat="44.406280" lon="7.927880">
                <time>2024-04-01T07:53:50Z</time>
            </trkpt>
            <trkpt lat="44.406370" lon="7.927880">
                <time>2024-04-01T07:53:51Z</time>
            </trkpt>
            <trkpt lat="44.406480" lon="7.927890">
                <time>2024-04-01T07:53:52Z</time>
            </trkpt>
            <trkpt lat="44.406580" lon="7.927880">
                <time>2024-04-01T07:53:53Z</time>
            </trkpt>
            <trkpt lat="44.406680" lon="7.927870">
                <time>2024-04-01T07:53:54Z</time>
            </trkpt>
            <trkpt lat="44.406770" lon="7.927850">
                <time>2024-04-01T07:53:55Z</time>
            </trkpt>
            <trkpt lat="44.406840" lon="7.927850">
                <time>2024-04-01T07:53:56Z</time>
            </trkpt>
            <trkpt lat="44.406950" lon="7.927820">
                <time>2024-04-01T07:53:57Z</time>
            </trkpt>
            <trkpt lat="44.407030" lon="7.927810">
                <time>2024-04-01T07:53:58Z</time>
            </trkpt>
            <trkpt lat="44.407140" lon="7.927780">
                <time>2024-04-01T07:53:59Z</time>
            </trkpt>
            <trkpt lat="44.407250" lon="7.927770">
                <time>2024-04-01T07:54:00Z</time>
            </trkpt>
            <trkpt lat="44.407350" lon="7.927720">
                <time>2024-04-01T07:54:01Z</time>
            </trkpt>
            <trkpt lat="44.407450" lon="7.927680">
                <time>2024-04-01T07:54:02Z</time>
            </trkpt>
            <trkpt lat="44.407560" lon="7.927640">
                <time>2024-04-01T07:54:03Z</time>
            </trkpt>
            <trkpt lat="44.407640" lon="7.927610">
                <time>2024-04-01T07:54:04Z</time>
            </trkpt>
            <trkpt lat="44.407740" lon="7.927580">
                <time>2024-04-01T07:54:05Z</time>
            </trkpt>
            <trkpt lat="44.407830" lon="7.927540">
                <time>2024-04-01T07:54:06Z</time>
            </trkpt>
            <trkpt lat="44.407940" lon="7.927500">
                <time>2024-04-01T07:54:07Z</time>
            </trkpt>
            <trkpt lat="44.408040" lon="7.927470">
                <time>2024-04-01T07:54:08Z</time>
            </trkpt>
            <trkpt lat="44.408130" lon="7.927440">
                <time>2024-04-01T07:54:09Z</time>
            </trkpt>
            <trkpt lat="44.408230" lon="7.927410">
                <time>2024-04-01T07:54:10Z</time>
            </trkpt>
            <trkpt lat="44.408310" lon="7.927390">
                <time>2024-04-01T07:54:11Z</time>
            </trkpt>
            <trkpt lat="44.408380" lon="7.927380">
                <time>2024-04-01T07:54:12Z</time>
            </trkpt>
            <trkpt lat="44.408450" lon="7.927370">
                <time>2024-04-01T07:54:13Z</time>
            </trkpt>
            <trkpt lat="44.408520" lon="7.927360">
                <time>2024-04-01T07:54:14Z</time>
            </trkpt>
            <trkpt lat="44.408620" lon="7.927350">
                <time>2024-04-01T07:54:15Z</time>
            </trkpt>
            <trkpt lat="44.408720" lon="7.927340">
                <time>2024-04-01T07:54:16Z</time>
            </trkpt>
            <trkpt lat="44.408810" lon="7.927340">
                <time>2024-04-01T07:54:17Z</time>
            </trkpt>
            <trkpt lat="44.408910" lon="7.927340">
                <time>2024-04-01T07:54:18Z</time>
            </trkpt>
            <trkpt lat="44.409000" lon="7.927340">
                <time>2024-04-01T07:54:19Z</time>
            </trkpt>
            <trkpt lat="44.409080" lon="7.927330">
                <time>2024-04-01T07:54:20Z</time>
            </trkpt>
            <trkpt lat="44.409180" lon="7.927310">
                <time>2024-04-01T07:54:21Z</time>
            </trkpt>
            <trkpt lat="44.409280" lon="7.927290">
                <time>2024-04-01T07:54:22Z</time>
            </trkpt>
            <trkpt lat="44.409380" lon="7.927240">
                <time>2024-04-01T07:54:23Z</time>
            </trkpt>
            <trkpt lat="44.409480" lon="7.927180">
                <time>2024-04-01T07:54:24Z</time>
            </trkpt>
            <trkpt lat="44.409590" lon="7.927100">
                <time>2024-04-01T07:54:25Z</time>
            </trkpt>
            <trkpt lat="44.409690" lon="7.927020">
                <time>2024-04-01T07:54:26Z</time>
            </trkpt>
            <trkpt lat="44.409800" lon="7.926940">
                <time>2024-04-01T07:54:27Z</time>
            </trkpt>
            <trkpt lat="44.409890" lon="7.926850">
                <time>2024-04-01T07:54:28Z</time>
            </trkpt>
            <trkpt lat="44.409990" lon="7.926760">
                <time>2024-04-01T07:54:29Z</time>
            </trkpt>
            <trkpt lat="44.410080" lon="7.926680">
                <time>2024-04-01T07:54:30Z</time>
            </trkpt>
            <trkpt lat="44.410180" lon="7.926590">
                <time>2024-04-01T07:54:31Z</time>
            </trkpt>
            <trkpt lat="44.410270" lon="7.926510">
                <time>2024-04-01T07:54:32Z</time>
            </trkpt>
            <trkpt lat="44.410370" lon="7.926440">
                <time>2024-04-01T07:54:33Z</time>
            </trkpt>
            <trkpt lat="44.410460" lon="7.926360">
                <time>2024-04-01T07:54:34Z</time>
            </trkpt>
            <trkpt lat="44.410540" lon="7.926280">
                <time>2024-04-01T07:54:35Z</time>
            </trkpt>
            <trkpt lat="44.410630" lon="7.926210">
                <time>2024-04-01T07:54:36Z</time>
            </trkpt>
            <trkpt lat="44.410710" lon="7.926120">
                <time>2024-04-01T07:54:37Z</time>
            </trkpt>
            <trkpt lat="44.410800" lon="7.926020">
                <time>2024-04-01T07:54:38Z</time>
            </trkpt>
            <trkpt lat="44.410870" lon="7.925920">
                <time>2024-04-01T07:54:39Z</time>
            </trkpt>
            <trkpt lat="44.410950" lon="7.925820">
                <time>2024-04-01T07:54:40Z</time>
            </trkpt>
            <trkpt lat="44.411020" lon="7.925730">
                <time>2024-04-01T07:54:41Z</time>
            </trkpt>
            <trkpt lat="44.411080" lon="7.925630">
                <time>2024-04-01T07:54:42Z</time>
            </trkpt>
            <trkpt lat="44.411150" lon="7.925520">
                <time>2024-04-01T07:54:43Z</time>
            </trkpt>
            <trkpt lat="44.411230" lon="7.925430">
                <time>2024-04-01T07:54:44Z</time>
            </trkpt>
            <trkpt lat="44.411310" lon="7.925340">
                <time>2024-04-01T07:54:45Z</time>
            </trkpt>
            <trkpt lat="44.411400" lon="7.925260">
                <time>2024-04-01T07:54:46Z</time>
            </trkpt>
            <trkpt lat="44.411490" lon="7.925180">
                <time>2024-04-01T07:54:47Z</time>
            </trkpt>
            <trkpt lat="44.411580" lon="7.925100">
                <time>2024-04-01T07:54:48Z</time>
            </trkpt>
            <trkpt lat="44.411670" lon="7.925010">
                <time>2024-04-01T07:54:49Z</time>
            </trkpt>
            <trkpt lat="44.411750" lon="7.924910">
                <time>2024-04-01T07:54:50Z</time>
            </trkpt>
            <trkpt lat="44.411830" lon="7.924810">
                <time>2024-04-01T07:54:51Z</time>
            </trkpt>
            <trkpt lat="44.411900" lon="7.924720">
                <time>2024-04-01T07:54:52Z</time>
            </trkpt>
            <trkpt lat="44.411980" lon="7.924630">
                <time>2024-04-01T07:54:53Z</time>
            </trkpt>
            <trkpt lat="44.412060" lon="7.924530">
                <time>2024-04-01T07:54:54Z</time>
            </trkpt>
            <trkpt lat="44.412130" lon="7.924440">
                <time>2024-04-01T07:54:55Z</time>
            </trkpt>
            <trkpt lat="44.412210" lon="7.924350">
                <time>2024-04-01T07:54:56Z</time>
            </trkpt>
            <trkpt lat="44.412290" lon="7.924270">
                <time>2024-04-01T07:54:57Z</time>
            </trkpt>
            <trkpt lat="44.412360" lon="7.924200">
                <time>2024-04-01T07:54:58Z</time>
            </trkpt>
            <trkpt lat="44.412430" lon="7.924120">
                <time>2024-04-01T07:54:59Z</time>
            </trkpt>
            <trkpt lat="44.412510" lon="7.924050">
                <time>2024-04-01T07:55:00Z</time>
            </trkpt>
            <trkpt lat="44.412580" lon="7.923980">
                <time>2024-04-01T07:55:01Z</time>
            </trkpt>
            <trkpt lat="44.412660" lon="7.923920">
                <time>2024-04-01T07:55:02Z</time>
            </trkpt>
            <trkpt lat="44.412740" lon="7.923850">
                <time>2024-04-01T07:55:03Z</time>
            </trkpt>
            <trkpt lat="44.412830" lon="7.923770">
                <time>2024-04-01T07:55:04Z</time>
            </trkpt>
            <trkpt lat="44.412940" lon="7.923700">
                <time>2024-04-01T07:55:05Z</time>
            </trkpt>
            <trkpt lat="44.413040" lon="7.923630">
                <time>2024-04-01T07:55:06Z</time>
            </trkpt>
            <trkpt lat="44.413120" lon="7.923540">
                <time>2024-04-01T07:55:07Z</time>
            </trkpt>
            <trkpt lat="44.413200" lon="7.923450">
                <time>2024-04-01T07:55:08Z</time>
            </trkpt>
            <trkpt lat="44.413280" lon="7.923370">
                <time>2024-04-01T07:55:09Z</time>
            </trkpt>
            <trkpt lat="44.413370" lon="7.923300">
                <time>2024-04-01T07:55:10Z</time>
            </trkpt>
            <trkpt lat="44.413430" lon="7.923200">
                <time>2024-04-01T07:55:11Z</time>
            </trkpt>
            <trkpt lat="44.413490" lon="7.923110">
                <time>2024-04-01T07:55:12Z</time>
            </trkpt>
            <trkpt lat="44.413570" lon="7.923030">
                <time>2024-04-01T07:55:13Z</time>
            </trkpt>
            <trkpt lat="44.413640" lon="7.922970">
                <time>2024-04-01T07:55:14Z</time>
            </trkpt>
            <trkpt lat="44.413700" lon="7.922910">
                <time>2024-04-01T07:55:15Z</time>
            </trkpt>
            <trkpt lat="44.413760" lon="7.922880">
                <time>2024-04-01T07:55:16Z</time>
            </trkpt>
            <trkpt lat="44.413830" lon="7.922870">
                <time>2024-04-01T07:55:17Z</time>
            </trkpt>
            <trkpt lat="44.413890" lon="7.922890">
                <time>2024-04-01T07:55:18Z</time>
            </trkpt>
            <trkpt lat="44.413960" lon="7.922930">
                <time>2024-04-01T07:55:19Z</time>
            </trkpt>
            <trkpt lat="44.414030" lon="7.922990">
                <time>2024-04-01T07:55:20Z</time>
            </trkpt>
            <trkpt lat="44.414100" lon="7.923050">
                <time>2024-04-01T07:55:21Z</time>
            </trkpt>
            <trkpt lat="44.414180" lon="7.923130">
                <time>2024-04-01T07:55:22Z</time>
            </trkpt>
            <trkpt lat="44.414260" lon="7.923190">
                <time>2024-04-01T07:55:23Z</time>
            </trkpt>
            <trkpt lat="44.414340" lon="7.923260">
                <time>2024-04-01T07:55:24Z</time>
            </trkpt>
            <trkpt lat="44.414410" lon="7.923320">
                <time>2024-04-01T07:55:25Z</time>
            </trkpt>
            <trkpt lat="44.414480" lon="7.923380">
                <time>2024-04-01T07:55:26Z</time>
            </trkpt>
            <trkpt lat="44.414540" lon="7.923460">
                <time>2024-04-01T07:55:27Z</time>
            </trkpt>
            <trkpt lat="44.414580" lon="7.923560">
                <time>2024-04-01T07:55:28Z</time>
            </trkpt>
            <trkpt lat="44.414600" lon="7.923660">
                <time>2024-04-01T07:55:29Z</time>
            </trkpt>
            <trkpt lat="44.414610" lon="7.923790">
                <time>2024-04-01T07:55:30Z</time>
            </trkpt>
            <trkpt lat="44.414610" lon="7.923920">
                <time>2024-04-01T07:55:31Z</time>
            </trkpt>
            <trkpt lat="44.414610" lon="7.924070">
                <time>2024-04-01T07:55:32Z</time>
            </trkpt>
            <trkpt lat="44.414600" lon="7.924210">
                <time>2024-04-01T07:55:33Z</time>
            </trkpt>
            <trkpt lat="44.414590" lon="7.924350">
                <time>2024-04-01T07:55:34Z</time>
            </trkpt>
            <trkpt lat="44.414580" lon="7.924470">
                <time>2024-04-01T07:55:35Z</time>
            </trkpt>
            <trkpt lat="44.414550" lon="7.924570">
                <time>2024-04-01T07:55:36Z</time>
            </trkpt>
            <trkpt lat="44.414510" lon="7.924670">
                <time>2024-04-01T07:55:37Z</time>
            </trkpt>
            <trkpt lat="44.414450" lon="7.924760">
                <time>2024-04-01T07:55:38Z</time>
            </trkpt>
            <trkpt lat="44.414380" lon="7.924850">
                <time>2024-04-01T07:55:39Z</time>
            </trkpt>
            <trkpt lat="44.414290" lon="7.924910">
                <time>2024-04-01T07:55:40Z</time>
            </trkpt>
            <trkpt lat="44.414200" lon="7.924970">
                <time>2024-04-01T07:55:41Z</time>
            </trkpt>
            <trkpt lat="44.414110" lon="7.925010">
                <time>2024-04-01T07:55:42Z</time>
            </trkpt>
            <trkpt lat="44.414030" lon="7.925030">
                <time>2024-04-01T07:55:43Z</time>
            </trkpt>
            <trkpt lat="44.413960" lon="7.925040">
                <time>2024-04-01T07:55:44Z</time>
            </trkpt>
            <trkpt lat="44.413900" lon="7.925070">
                <time>2024-04-01T07:55:45Z</time>
            </trkpt>
            <trkpt lat="44.413860" lon="7.925120">
                <time>2024-04-01T07:55:46Z</time>
            </trkpt>
            <trkpt lat="44.413850" lon="7.925180">
                <time>2024-04-01T07:55:47Z</time>
            </trkpt>
            <trkpt lat="44.413840" lon="7.925250">
                <time>2024-04-01T07:55:48Z</time>
            </trkpt>
            <trkpt lat="44.413900" lon="7.925310">
                <time>2024-04-01T07:55:49Z</time>
            </trkpt>
            <trkpt lat="44.413950" lon="7.925360">
                <time>2024-04-01T07:55:50Z</time>
            </trkpt>
            <trkpt lat="44.414020" lon="7.925410">
                <time>2024-04-01T07:55:51Z</time>
            </trkpt>
            <trkpt lat="44.414100" lon="7.925450">
                <time>2024-04-01T07:55:52Z</time>
            </trkpt>
            <trkpt lat="44.414200" lon="7.925500">
                <time>2024-04-01T07:55:53Z</time>
            </trkpt>
            <trkpt lat="44.414310" lon="7.925560">
                <time>2024-04-01T07:55:54Z</time>
            </trkpt>
            <trkpt lat="44.414410" lon="7.925640">
                <time>2024-04-01T07:55:55Z</time>
            </trkpt>
            <trkpt lat="44.414510" lon="7.925720">
                <time>2024-04-01T07:55:56Z</time>
            </trkpt>
            <trkpt lat="44.414600" lon="7.925810">
                <time>2024-04-01T07:55:57Z</time>
            </trkpt>
            <trkpt lat="44.414680" lon="7.925900">
                <time>2024-04-01T07:55:58Z</time>
            </trkpt>
            <trkpt lat="44.414750" lon="7.926010">
                <time>2024-04-01T07:55:59Z</time>
            </trkpt>
            <trkpt lat="44.414800" lon="7.926110">
                <time>2024-04-01T07:56:00Z</time>
            </trkpt>
            <trkpt lat="44.414840" lon="7.926200">
                <time>2024-04-01T07:56:01Z</time>
            </trkpt>
            <trkpt lat="44.414880" lon="7.926250">
                <time>2024-04-01T07:56:02Z</time>
            </trkpt>
            <trkpt lat="44.414930" lon="7.926280">
                <time>2024-04-01T07:56:03Z</time>
            </trkpt>
            <trkpt lat="44.414980" lon="7.926260">
                <time>2024-04-01T07:56:04Z</time>
            </trkpt>
            <trkpt lat="44.415010" lon="7.926210">
                <time>2024-04-01T07:56:05Z</time>
            </trkpt>
            <trkpt lat="44.415020" lon="7.926130">
                <time>2024-04-01T07:56:06Z</time>
            </trkpt>
            <trkpt lat="44.415030" lon="7.926030">
                <time>2024-04-01T07:56:07Z</time>
            </trkpt>
            <trkpt lat="44.415020" lon="7.925920">
                <time>2024-04-01T07:56:08Z</time>
            </trkpt>
            <trkpt lat="44.415000" lon="7.925800">
                <time>2024-04-01T07:56:09Z</time>
            </trkpt>
            <trkpt lat="44.414990" lon="7.925690">
                <time>2024-04-01T07:56:10Z</time>
            </trkpt>
            <trkpt lat="44.414980" lon="7.925570">
                <time>2024-04-01T07:56:11Z</time>
            </trkpt>
            <trkpt lat="44.414970" lon="7.925460">
                <time>2024-04-01T07:56:12Z</time>
            </trkpt>
            <trkpt lat="44.414960" lon="7.925360">
                <time>2024-04-01T07:56:13Z</time>
            </trkpt>
            <trkpt lat="44.414960" lon="7.925240">
                <time>2024-04-01T07:56:14Z</time>
            </trkpt>
            <trkpt lat="44.414970" lon="7.925140">
                <time>2024-04-01T07:56:15Z</time>
            </trkpt>
            <trkpt lat="44.414990" lon="7.925040">
                <time>2024-04-01T07:56:16Z</time>
            </trkpt>
            <trkpt lat="44.415020" lon="7.924980">
                <time>2024-04-01T07:56:17Z</time>
            </trkpt>
            <trkpt lat="44.415050" lon="7.924930">
                <time>2024-04-01T07:56:18Z</time>
            </trkpt>
            <trkpt lat="44.415110" lon="7.924880">
                <time>2024-04-01T07:56:19Z</time>
            </trkpt>
            <trkpt lat="44.415180" lon="7.924860">
                <time>2024-04-01T07:56:20Z</time>
            </trkpt>
            <trkpt lat="44.415260" lon="7.924850">
                <time>2024-04-01T07:56:21Z</time>
            </trkpt>
            <trkpt lat="44.415330" lon="7.924850">
                <time>2024-04-01T07:56:22Z</time>
            </trkpt>
            <trkpt lat="44.415400" lon="7.924860">
                <time>2024-04-01T07:56:23Z</time>
            </trkpt>
            <trkpt lat="44.415460" lon="7.924890">
                <time>2024-04-01T07:56:24Z</time>
            </trkpt>
            <trkpt lat="44.415510" lon="7.924920">
                <time>2024-04-01T07:56:25Z</time>
            </trkpt>
            <trkpt lat="44.415550" lon="7.924980">
                <time>2024-04-01T07:56:26Z</time>
            </trkpt>
            <trkpt lat="44.415570" lon="7.925060">
                <time>2024-04-01T07:56:27Z</time>
            </trkpt>
            <trkpt lat="44.415570" lon="7.925150">
                <time>2024-04-01T07:56:28Z</time>
            </trkpt>
            <trkpt lat="44.415570" lon="7.925250">
                <time>2024-04-01T07:56:29Z</time>
            </trkpt>
            <trkpt lat="44.415570" lon="7.925350">
                <time>2024-04-01T07:56:30Z</time>
            </trkpt>
            <trkpt lat="44.415560" lon="7.925440">
                <time>2024-04-01T07:56:31Z</time>
            </trkpt>
            <trkpt lat="44.415550" lon="7.925530">
                <time>2024-04-01T07:56:32Z</time>
            </trkpt>
            <trkpt lat="44.415550" lon="7.925610">
                <time>2024-04-01T07:56:33Z</time>
            </trkpt>
            <trkpt lat="44.415540" lon="7.925680">
                <time>2024-04-01T07:56:34Z</time>
            </trkpt>
            <trkpt lat="44.415530" lon="7.925740">
                <time>2024-04-01T07:56:35Z</time>
            </trkpt>
            <trkpt lat="44.415520" lon="7.925800">
                <time>2024-04-01T07:56:36Z</time>
            </trkpt>
            <trkpt lat="44.415510" lon="7.925860">
                <time>2024-04-01T07:56:37Z</time>
            </trkpt>
            <trkpt lat="44.415500" lon="7.925920">
                <time>2024-04-01T07:56:38Z</time>
            </trkpt>
            <trkpt lat="44.415500" lon="7.925990">
                <time>2024-04-01T07:56:39Z</time>
            </trkpt>
            <trkpt lat="44.415500" lon="7.926050">
                <time>2024-04-01T07:56:40Z</time>
            </trkpt>
            <trkpt lat="44.415510" lon="7.926100">
                <time>2024-04-01T07:56:41Z</time>
            </trkpt>
            <trkpt lat="44.415530" lon="7.926150">
                <time>2024-04-01T07:56:42Z</time>
            </trkpt>
            <trkpt lat="44.415540" lon="7.926190">
                <time>2024-04-01T07:56:43Z</time>
            </trkpt>
            <trkpt lat="44.415560" lon="7.926220">
                <time>2024-04-01T07:56:44Z</time>
            </trkpt>
            <trkpt lat="44.415570" lon="7.926260">
                <time>2024-04-01T07:56:45Z</time>
            </trkpt>
            <trkpt lat="44.415580" lon="7.926290">
                <time>2024-04-01T07:56:46Z</time>
            </trkpt>
            <trkpt lat="44.415590" lon="7.926310">
                <time>2024-04-01T07:56:47Z</time>
            </trkpt>
            <trkpt lat="44.415610" lon="7.926320">
                <time>2024-04-01T07:56:48Z</time>
            </trkpt>
            <trkpt lat="44.415630" lon="7.926310">
                <time>2024-04-01T07:56:49Z</time>
            </trkpt>
            <trkpt lat="44.415640" lon="7.926290">
                <time>2024-04-01T07:56:50Z</time>
            </trkpt>
            <trkpt lat="44.415640" lon="7.926250">
                <time>2024-04-01T07:56:51Z</time>
            </trkpt>
            <trkpt lat="44.415640" lon="7.926180">
                <time>2024-04-01T07:56:52Z</time>
            </trkpt>
            <trkpt lat="44.415640" lon="7.926110">
                <time>2024-04-01T07:56:53Z</time>
            </trkpt>
            <trkpt lat="44.415640" lon="7.926050">
                <time>2024-04-01T07:56:54Z</time>
            </trkpt>
            <trkpt lat="44.415630" lon="7.925990">
                <time>2024-04-01T07:56:55Z</time>
            </trkpt>
            <trkpt lat="44.415610" lon="7.925950">
                <time>2024-04-01T07:56:56Z</time>
            </trkpt>
            <trkpt lat="44.415580" lon="7.925910">
                <time>2024-04-01T07:56:57Z</time>
            </trkpt>
            <trkpt lat="44.415540" lon="7.925880">
                <time>2024-04-01T07:56:58Z</time>
            </trkpt>
            <trkpt lat="44.415510" lon="7.925850">
                <time>2024-04-01T07:56:59Z</time>
            </trkpt>
            <trkpt lat="44.415480" lon="7.925810">
                <time>2024-04-01T07:57:00Z</time>
            </trkpt>
            <trkpt lat="44.415450" lon="7.925770">
                <time>2024-04-01T07:57:01Z</time>
            </trkpt>
            <trkpt lat="44.415430" lon="7.925690">
                <time>2024-04-01T07:57:02Z</time>
            </trkpt>
            <trkpt lat="44.415420" lon="7.925600">
                <time>2024-04-01T07:57:03Z</time>
            </trkpt>
            <trkpt lat="44.415420" lon="7.925500">
                <time>2024-04-01T07:57:04Z</time>
            </trkpt>
            <trkpt lat="44.415430" lon="7.925400">
                <time>2024-04-01T07:57:05Z</time>
            </trkpt>
            <trkpt lat="44.415430" lon="7.925300">
                <time>2024-04-01T07:57:06Z</time>
            </trkpt>
            <trkpt lat="44.415430" lon="7.925190">
                <time>2024-04-01T07:57:07Z</time>
            </trkpt>
            <trkpt lat="44.415440" lon="7.925090">
                <time>2024-04-01T07:57:08Z</time>
            </trkpt>
            <trkpt lat="44.415450" lon="7.924990">
                <time>2024-04-01T07:57:09Z</time>
            </trkpt>
            <trkpt lat="44.415450" lon="7.924880">
                <time>2024-04-01T07:57:10Z</time>
            </trkpt>
            <trkpt lat="44.415460" lon="7.924770">
                <time>2024-04-01T07:57:11Z</time>
            </trkpt>
            <trkpt lat="44.415470" lon="7.924660">
                <time>2024-04-01T07:57:12Z</time>
            </trkpt>
            <trkpt lat="44.415480" lon="7.924520">
                <time>2024-04-01T07:57:13Z</time>
            </trkpt>
            <trkpt lat="44.415480" lon="7.924380">
                <time>2024-04-01T07:57:14Z</time>
            </trkpt>
            <trkpt lat="44.415500" lon="7.924230">
                <time>2024-04-01T07:57:15Z</time>
            </trkpt>
            <trkpt lat="44.415510" lon="7.924060">
                <time>2024-04-01T07:57:16Z</time>
            </trkpt>
            <trkpt lat="44.415540" lon="7.923880">
                <time>2024-04-01T07:57:17Z</time>
            </trkpt>
            <trkpt lat="44.415570" lon="7.923710">
                <time>2024-04-01T07:57:18Z</time>
            </trkpt>
            <trkpt lat="44.415600" lon="7.923520">
                <time>2024-04-01T07:57:19Z</time>
            </trkpt>
            <trkpt lat="44.415650" lon="7.923340">
                <time>2024-04-01T07:57:20Z</time>
            </trkpt>
            <trkpt lat="44.415700" lon="7.923150">
                <time>2024-04-01T07:57:21Z</time>
            </trkpt>
            <trkpt lat="44.415760" lon="7.922950">
                <time>2024-04-01T07:57:22Z</time>
            </trkpt>
            <trkpt lat="44.415830" lon="7.922760">
                <time>2024-04-01T07:57:23Z</time>
            </trkpt>
            <trkpt lat="44.415900" lon="7.922570">
                <time>2024-04-01T07:57:24Z</time>
            </trkpt>
            <trkpt lat="44.415980" lon="7.922390">
                <time>2024-04-01T07:57:25Z</time>
            </trkpt>
            <trkpt lat="44.416070" lon="7.922200">
                <time>2024-04-01T07:57:26Z</time>
            </trkpt>
            <trkpt lat="44.416170" lon="7.922020">
                <time>2024-04-01T07:57:27Z</time>
            </trkpt>
            <trkpt lat="44.416270" lon="7.921850">
                <time>2024-04-01T07:57:28Z</time>
            </trkpt>
            <trkpt lat="44.416380" lon="7.921690">
                <time>2024-04-01T07:57:29Z</time>
            </trkpt>
            <trkpt lat="44.416480" lon="7.921520">
                <time>2024-04-01T07:57:30Z</time>
            </trkpt>
            <trkpt lat="44.416610" lon="7.921370">
                <time>2024-04-01T07:57:31Z</time>
            </trkpt>
            <trkpt lat="44.416730" lon="7.921220">
                <time>2024-04-01T07:57:32Z</time>
            </trkpt>
            <trkpt lat="44.416870" lon="7.921090">
                <time>2024-04-01T07:57:33Z</time>
            </trkpt>
            <trkpt lat="44.417000" lon="7.920970">
                <time>2024-04-01T07:57:34Z</time>
            </trkpt>
            <trkpt lat="44.417140" lon="7.920850">
                <time>2024-04-01T07:57:35Z</time>
            </trkpt>
            <trkpt lat="44.417280" lon="7.920740">
                <time>2024-04-01T07:57:36Z</time>
            </trkpt>
            <trkpt lat="44.417430" lon="7.920630">
                <time>2024-04-01T07:57:37Z</time>
            </trkpt>
            <trkpt lat="44.417580" lon="7.920530">
                <time>2024-04-01T07:57:38Z</time>
            </trkpt>
            <trkpt lat="44.417730" lon="7.920430">
                <time>2024-04-01T07:57:39Z</time>
            </trkpt>
            <trkpt lat="44.417890" lon="7.920330">
                <time>2024-04-01T07:57:40Z</time>
            </trkpt>
            <trkpt lat="44.418040" lon="7.920220">
                <time>2024-04-01T07:57:41Z</time>
            </trkpt>
            <trkpt lat="44.418190" lon="7.920130">
                <time>2024-04-01T07:57:42Z</time>
            </trkpt>
            <trkpt lat="44.418340" lon="7.920030">
                <time>2024-04-01T07:57:43Z</time>
            </trkpt>
            <trkpt lat="44.418470" lon="7.919940">
                <time>2024-04-01T07:57:44Z</time>
            </trkpt>
            <trkpt lat="44.418600" lon="7.919850">
                <time>2024-04-01T07:57:45Z</time>
            </trkpt>
            <trkpt lat="44.418730" lon="7.919760">
                <time>2024-04-01T07:57:46Z</time>
            </trkpt>
            <trkpt lat="44.418850" lon="7.919670">
                <time>2024-04-01T07:57:47Z</time>
            </trkpt>
            <trkpt lat="44.418960" lon="7.919580">
                <time>2024-04-01T07:57:48Z</time>
            </trkpt>
            <trkpt lat="44.419080" lon="7.919480">
                <time>2024-04-01T07:57:49Z</time>
            </trkpt>
            <trkpt lat="44.419210" lon="7.919380">
                <time>2024-04-01T07:57:50Z</time>
            </trkpt>
            <trkpt lat="44.419330" lon="7.919280">
                <time>2024-04-01T07:57:51Z</time>
            </trkpt>
            <trkpt lat="44.419440" lon="7.919190">
                <time>2024-04-01T07:57:52Z</time>
            </trkpt>
            <trkpt lat="44.419550" lon="7.919110">
                <time>2024-04-01T07:57:53Z</time>
            </trkpt>
            <trkpt lat="44.419650" lon="7.919030">
                <time>2024-04-01T07:57:54Z</time>
            </trkpt>
            <trkpt lat="44.419760" lon="7.918940">
                <time>2024-04-01T07:57:55Z</time>
            </trkpt>
            <trkpt lat="44.419880" lon="7.918850">
                <time>2024-04-01T07:57:56Z</time>
            </trkpt>
            <trkpt lat="44.420010" lon="7.918770">
                <time>2024-04-01T07:57:57Z</time>
            </trkpt>
            <trkpt lat="44.420140" lon="7.918680">
                <time>2024-04-01T07:57:58Z</time>
            </trkpt>
            <trkpt lat="44.420290" lon="7.918600">
                <time>2024-04-01T07:57:59Z</time>
            </trkpt>
            <trkpt lat="44.420440" lon="7.918530">
                <time>2024-04-01T07:58:00Z</time>
            </trkpt>
            <trkpt lat="44.420600" lon="7.918460">
                <time>2024-04-01T07:58:01Z</time>
            </trkpt>
            <trkpt lat="44.420760" lon="7.918410">
                <time>2024-04-01T07:58:02Z</time>
            </trkpt>
            <trkpt lat="44.420920" lon="7.918360">
                <time>2024-04-01T07:58:03Z</time>
            </trkpt>
            <trkpt lat="44.421090" lon="7.918320">
                <time>2024-04-01T07:58:04Z</time>
            </trkpt>
            <trkpt lat="44.421260" lon="7.918280">
                <time>2024-04-01T07:58:05Z</time>
            </trkpt>
            <trkpt lat="44.421420" lon="7.918240">
                <time>2024-04-01T07:58:06Z</time>
            </trkpt>
            <trkpt lat="44.421580" lon="7.918210">
                <time>2024-04-01T07:58:07Z</time>
            </trkpt>
            <trkpt lat="44.421740" lon="7.918170">
                <time>2024-04-01T07:58:08Z</time>
            </trkpt>
            <trkpt lat="44.421900" lon="7.918120">
                <time>2024-04-01T07:58:09Z</time>
            </trkpt>
            <trkpt lat="44.422070" lon="7.918070">
                <time>2024-04-01T07:58:10Z</time>
            </trkpt>
            <trkpt lat="44.422230" lon="7.918000">
                <time>2024-04-01T07:58:11Z</time>
            </trkpt>
            <trkpt lat="44.422400" lon="7.917940">
                <time>2024-04-01T07:58:12Z</time>
            </trkpt>
            <trkpt lat="44.422560" lon="7.917870">
                <time>2024-04-01T07:58:13Z</time>
            </trkpt>
            <trkpt lat="44.422720" lon="7.917800">
                <time>2024-04-01T07:58:14Z</time>
            </trkpt>
            <trkpt lat="44.422880" lon="7.917720">
                <time>2024-04-01T07:58:15Z</time>
            </trkpt>
            <trkpt lat="44.423050" lon="7.917650">
                <time>2024-04-01T07:58:16Z</time>
            </trkpt>
            <trkpt lat="44.423210" lon="7.917580">
                <time>2024-04-01T07:58:17Z</time>
            </trkpt>
            <trkpt lat="44.423380" lon="7.917510">
                <time>2024-04-01T07:58:18Z</time>
            </trkpt>
            <trkpt lat="44.423530" lon="7.917430">
                <time>2024-04-01T07:58:19Z</time>
            </trkpt>
            <trkpt lat="44.423700" lon="7.917360">
                <time>2024-04-01T07:58:20Z</time>
            </trkpt>
            <trkpt lat="44.423860" lon="7.917290">
                <time>2024-04-01T07:58:21Z</time>
            </trkpt>
            <trkpt lat="44.424020" lon="7.917230">
                <time>2024-04-01T07:58:22Z</time>
            </trkpt>
            <trkpt lat="44.424170" lon="7.917170">
                <time>2024-04-01T07:58:23Z</time>
            </trkpt>
            <trkpt lat="44.424330" lon="7.917110">
                <time>2024-04-01T07:58:24Z</time>
            </trkpt>
            <trkpt lat="44.424490" lon="7.917070">
                <time>2024-04-01T07:58:25Z</time>
            </trkpt>
            <trkpt lat="44.424650" lon="7.917020">
                <time>2024-04-01T07:58:26Z</time>
            </trkpt>
            <trkpt lat="44.424810" lon="7.916980">
                <time>2024-04-01T07:58:27Z</time>
            </trkpt>
            <trkpt lat="44.424960" lon="7.916940">
                <time>2024-04-01T07:58:28Z</time>
            </trkpt>
            <trkpt lat="44.425130" lon="7.916900">
                <time>2024-04-01T07:58:29Z</time>
            </trkpt>
            <trkpt lat="44.425290" lon="7.916860">
                <time>2024-04-01T07:58:30Z</time>
            </trkpt>
            <trkpt lat="44.425460" lon="7.916820">
                <time>2024-04-01T07:58:31Z</time>
            </trkpt>
            <trkpt lat="44.425630" lon="7.916780">
                <time>2024-04-01T07:58:32Z</time>
            </trkpt>
            <trkpt lat="44.425790" lon="7.916730">
                <time>2024-04-01T07:58:33Z</time>
            </trkpt>
            <trkpt lat="44.425950" lon="7.916690">
                <time>2024-04-01T07:58:34Z</time>
            </trkpt>
            <trkpt lat="44.426110" lon="7.916660">
                <time>2024-04-01T07:58:35Z</time>
            </trkpt>
            <trkpt lat="44.426260" lon="7.916620">
                <time>2024-04-01T07:58:36Z</time>
            </trkpt>
            <trkpt lat="44.426410" lon="7.916590">
                <time>2024-04-01T07:58:37Z</time>
            </trkpt>
            <trkpt lat="44.426550" lon="7.916550">
                <time>2024-04-01T07:58:38Z</time>
            </trkpt>
            <trkpt lat="44.426700" lon="7.916520">
                <time>2024-04-01T07:58:39Z</time>
            </trkpt>
            <trkpt lat="44.426850" lon="7.916480">
                <time>2024-04-01T07:58:40Z</time>
            </trkpt>
            <trkpt lat="44.427000" lon="7.916420">
                <time>2024-04-01T07:58:41Z</time>
            </trkpt>
            <trkpt lat="44.427150" lon="7.916340">
                <time>2024-04-01T07:58:42Z</time>
            </trkpt>
            <trkpt lat="44.427290" lon="7.916230">
                <time>2024-04-01T07:58:43Z</time>
            </trkpt>
            <trkpt lat="44.427420" lon="7.916100">
                <time>2024-04-01T07:58:44Z</time>
            </trkpt>
            <trkpt lat="44.427540" lon="7.915960">
                <time>2024-04-01T07:58:45Z</time>
            </trkpt>
            <trkpt lat="44.427660" lon="7.915790">
                <time>2024-04-01T07:58:46Z</time>
            </trkpt>
            <trkpt lat="44.427770" lon="7.915610">
                <time>2024-04-01T07:58:47Z</time>
            </trkpt>
            <trkpt lat="44.427860" lon="7.915420">
                <time>2024-04-01T07:58:48Z</time>
            </trkpt>
            <trkpt lat="44.427940" lon="7.915210">
                <time>2024-04-01T07:58:49Z</time>
            </trkpt>
            <trkpt lat="44.428010" lon="7.915010">
                <time>2024-04-01T07:58:50Z</time>
            </trkpt>
            <trkpt lat="44.428060" lon="7.914790">
                <time>2024-04-01T07:58:51Z</time>
            </trkpt>
            <trkpt lat="44.428090" lon="7.914580">
                <time>2024-04-01T07:58:52Z</time>
            </trkpt>
            <trkpt lat="44.428110" lon="7.914370">
                <time>2024-04-01T07:58:53Z</time>
            </trkpt>
            <trkpt lat="44.428110" lon="7.914140">
                <time>2024-04-01T07:58:54Z</time>
            </trkpt>
            <trkpt lat="44.428100" lon="7.913920">
                <time>2024-04-01T07:58:55Z</time>
            </trkpt>
            <trkpt lat="44.428090" lon="7.913690">
                <time>2024-04-01T07:58:56Z</time>
            </trkpt>
            <trkpt lat="44.428090" lon="7.913460">
                <time>2024-04-01T07:58:57Z</time>
            </trkpt>
            <trkpt lat="44.428100" lon="7.913230">
                <time>2024-04-01T07:58:58Z</time>
            </trkpt>
            <trkpt lat="44.428130" lon="7.913000">
                <time>2024-04-01T07:58:59Z</time>
            </trkpt>
            <trkpt lat="44.428170" lon="7.912770">
                <time>2024-04-01T07:59:00Z</time>
            </trkpt>
            <trkpt lat="44.428210" lon="7.912550">
                <time>2024-04-01T07:59:01Z</time>
            </trkpt>
            <trkpt lat="44.428250" lon="7.912320">
                <time>2024-04-01T07:59:02Z</time>
            </trkpt>
            <trkpt lat="44.428280" lon="7.912100">
                <time>2024-04-01T07:59:03Z</time>
            </trkpt>
            <trkpt lat="44.428300" lon="7.911870">
                <time>2024-04-01T07:59:04Z</time>
            </trkpt>
            <trkpt lat="44.428320" lon="7.911640">
                <time>2024-04-01T07:59:05Z</time>
            </trkpt>
            <trkpt lat="44.428330" lon="7.911420">
                <time>2024-04-01T07:59:06Z</time>
            </trkpt>
            <trkpt lat="44.428330" lon="7.911180">
                <time>2024-04-01T07:59:07Z</time>
            </trkpt>
            <trkpt lat="44.428320" lon="7.910950">
                <time>2024-04-01T07:59:08Z</time>
            </trkpt>
            <trkpt lat="44.428300" lon="7.910720">
                <time>2024-04-01T07:59:09Z</time>
            </trkpt>
            <trkpt lat="44.428270" lon="7.910500">
                <time>2024-04-01T07:59:10Z</time>
            </trkpt>
            <trkpt lat="44.428230" lon="7.910290">
                <time>2024-04-01T07:59:11Z</time>
            </trkpt>
            <trkpt lat="44.428170" lon="7.910090">
                <time>2024-04-01T07:59:12Z</time>
            </trkpt>
            <trkpt lat="44.428110" lon="7.909880">
                <time>2024-04-01T07:59:13Z</time>
            </trkpt>
            <trkpt lat="44.428040" lon="7.909690">
                <time>2024-04-01T07:59:14Z</time>
            </trkpt>
            <trkpt lat="44.427970" lon="7.909490">
                <time>2024-04-01T07:59:15Z</time>
            </trkpt>
            <trkpt lat="44.427910" lon="7.909290">
                <time>2024-04-01T07:59:16Z</time>
            </trkpt>
            <trkpt lat="44.427860" lon="7.909090">
                <time>2024-04-01T07:59:17Z</time>
            </trkpt>
            <trkpt lat="44.427820" lon="7.908890">
                <time>2024-04-01T07:59:18Z</time>
            </trkpt>
            <trkpt lat="44.427780" lon="7.908690">
                <time>2024-04-01T07:59:19Z</time>
            </trkpt>
            <trkpt lat="44.427750" lon="7.908520">
                <time>2024-04-01T07:59:20Z</time>
            </trkpt>
            <trkpt lat="44.427730" lon="7.908370">
                <time>2024-04-01T07:59:21Z</time>
            </trkpt>
            <trkpt lat="44.427710" lon="7.908240">
                <time>2024-04-01T07:59:22Z</time>
            </trkpt>
            <trkpt lat="44.427700" lon="7.908130">
                <time>2024-04-01T07:59:23Z</time>
            </trkpt>
            <trkpt lat="44.427710" lon="7.908040">
                <time>2024-04-01T07:59:24Z</time>
            </trkpt>
            <trkpt lat="44.427730" lon="7.907940">
                <time>2024-04-01T07:59:25Z</time>
            </trkpt>
            <trkpt lat="44.427770" lon="7.907820">
                <time>2024-04-01T07:59:26Z</time>
            </trkpt>
            <trkpt lat="44.427820" lon="7.907710">
                <time>2024-04-01T07:59:27Z</time>
            </trkpt>
            <trkpt lat="44.427890" lon="7.907580">
                <time>2024-04-01T07:59:28Z</time>
            </trkpt>
            <trkpt lat="44.427960" lon="7.907460">
                <time>2024-04-01T07:59:29Z</time>
            </trkpt>
            <trkpt lat="44.428030" lon="7.907360">
                <time>2024-04-01T07:59:30Z</time>
            </trkpt>
            <trkpt lat="44.428120" lon="7.907290">
                <time>2024-04-01T07:59:31Z</time>
            </trkpt>
            <trkpt lat="44.428220" lon="7.907240">
                <time>2024-04-01T07:59:32Z</time>
            </trkpt>
            <trkpt lat="44.428330" lon="7.907220">
                <time>2024-04-01T07:59:33Z</time>
            </trkpt>
            <trkpt lat="44.428430" lon="7.907230">
                <time>2024-04-01T07:59:34Z</time>
            </trkpt>
            <trkpt lat="44.428540" lon="7.907270">
                <time>2024-04-01T07:59:35Z</time>
            </trkpt>
            <trkpt lat="44.428650" lon="7.907330">
                <time>2024-04-01T07:59:36Z</time>
            </trkpt>
            <trkpt lat="44.428750" lon="7.907420">
                <time>2024-04-01T07:59:37Z</time>
            </trkpt>
            <trkpt lat="44.428850" lon="7.907520">
                <time>2024-04-01T07:59:38Z</time>
            </trkpt>
            <trkpt lat="44.428940" lon="7.907650">
                <time>2024-04-01T07:59:39Z</time>
            </trkpt>
            <trkpt lat="44.429020" lon="7.907790">
                <time>2024-04-01T07:59:40Z</time>
            </trkpt>
            <trkpt lat="44.429110" lon="7.907930">
                <time>2024-04-01T07:59:41Z</time>
            </trkpt>
            <trkpt lat="44.429190" lon="7.908070">
                <time>2024-04-01T07:59:42Z</time>
            </trkpt>
            <trkpt lat="44.429280" lon="7.908220">
                <time>2024-04-01T07:59:43Z</time>
            </trkpt>
            <trkpt lat="44.429370" lon="7.908370">
                <time>2024-04-01T07:59:44Z</time>
            </trkpt>
            <trkpt lat="44.429460" lon="7.908520">
                <time>2024-04-01T07:59:45Z</time>
            </trkpt>
            <trkpt lat="44.429560" lon="7.908680">
                <time>2024-04-01T07:59:46Z</time>
            </trkpt>
            <trkpt lat="44.429660" lon="7.908840">
                <time>2024-04-01T07:59:47Z</time>
            </trkpt>
            <trkpt lat="44.429750" lon="7.909000">
                <time>2024-04-01T07:59:48Z</time>
            </trkpt>
            <trkpt lat="44.429840" lon="7.909150">
                <time>2024-04-01T07:59:49Z</time>
            </trkpt>
            <trkpt lat="44.429940" lon="7.909300">
                <time>2024-04-01T07:59:50Z</time>
            </trkpt>
            <trkpt lat="44.430030" lon="7.909440">
                <time>2024-04-01T07:59:51Z</time>
            </trkpt>
            <trkpt lat="44.430120" lon="7.909570">
                <time>2024-04-01T07:59:52Z</time>
            </trkpt>
            <trkpt lat="44.430220" lon="7.909690">
                <time>2024-04-01T07:59:53Z</time>
            </trkpt>
            <trkpt lat="44.430330" lon="7.909790">
                <time>2024-04-01T07:59:54Z</time>
            </trkpt>
            <trkpt lat="44.430440" lon="7.909880">
                <time>2024-04-01T07:59:55Z</time>
            </trkpt>
            <trkpt lat="44.430560" lon="7.909960">
                <time>2024-04-01T07:59:56Z</time>
            </trkpt>
            <trkpt lat="44.430680" lon="7.910030">
                <time>2024-04-01T07:59:57Z</time>
            </trkpt>
            <trkpt lat="44.430810" lon="7.910080">
                <time>2024-04-01T07:59:58Z</time>
            </trkpt>
            <trkpt lat="44.430950" lon="7.910110">
                <time>2024-04-01T07:59:59Z</time>
            </trkpt>
            <trkpt lat="44.431090" lon="7.910130">
                <time>2024-04-01T08:00:00Z</time>
            </trkpt>
            <trkpt lat="44.431230" lon="7.910130">
                <time>2024-04-01T08:00:01Z</time>
            </trkpt>
            <trkpt lat="44.431370" lon="7.910130">
                <time>2024-04-01T08:00:02Z</time>
            </trkpt>
            <trkpt lat="44.431510" lon="7.910120">
                <time>2024-04-01T08:00:03Z</time>
            </trkpt>
            <trkpt lat="44.431640" lon="7.910110">
                <time>2024-04-01T08:00:04Z</time>
            </trkpt>
            <trkpt lat="44.431780" lon="7.910090">
                <time>2024-04-01T08:00:05Z</time>
            </trkpt>
            <trkpt lat="44.431930" lon="7.910050">
                <time>2024-04-01T08:00:06Z</time>
            </trkpt>
            <trkpt lat="44.432060" lon="7.910000">
                <time>2024-04-01T08:00:07Z</time>
            </trkpt>
            <trkpt lat="44.432200" lon="7.909930">
                <time>2024-04-01T08:00:08Z</time>
            </trkpt>
            <trkpt lat="44.432340" lon="7.909830">
                <time>2024-04-01T08:00:09Z</time>
            </trkpt>
            <trkpt lat="44.432470" lon="7.909730">
                <time>2024-04-01T08:00:10Z</time>
            </trkpt>
            <trkpt lat="44.432610" lon="7.909590">
                <time>2024-04-01T08:00:11Z</time>
            </trkpt>
            <trkpt lat="44.432730" lon="7.909440">
                <time>2024-04-01T08:00:12Z</time>
            </trkpt>
            <trkpt lat="44.432840" lon="7.909270">
                <time>2024-04-01T08:00:13Z</time>
            </trkpt>
            <trkpt lat="44.432960" lon="7.909090">
                <time>2024-04-01T08:00:14Z</time>
            </trkpt>
            <trkpt lat="44.433070" lon="7.908920">
                <time>2024-04-01T08:00:15Z</time>
            </trkpt>
            <trkpt lat="44.433180" lon="7.908740">
                <time>2024-04-01T08:00:16Z</time>
            </trkpt>
            <trkpt lat="44.433290" lon="7.908550">
                <time>2024-04-01T08:00:17Z</time>
            </trkpt>
            <trkpt lat="44.433390" lon="7.908370">
                <time>2024-04-01T08:00:18Z</time>
            </trkpt>
            <trkpt lat="44.433490" lon="7.908200">
                <time>2024-04-01T08:00:19Z</time>
            </trkpt>
            <trkpt lat="44.433600" lon="7.908030">
                <time>2024-04-01T08:00:20Z</time>
            </trkpt>
            <trkpt lat="44.433700" lon="7.907860">
                <time>2024-04-01T08:00:21Z</time>
            </trkpt>
            <trkpt lat="44.433810" lon="7.907710">
                <time>2024-04-01T08:00:22Z</time>
            </trkpt>
            <trkpt lat="44.433930" lon="7.907560">
                <time>2024-04-01T08:00:23Z</time>
            </trkpt>
            <trkpt lat="44.434050" lon="7.907420">
                <time>2024-04-01T08:00:24Z</time>
            </trkpt>
            <trkpt lat="44.434180" lon="7.907280">
                <time>2024-04-01T08:00:25Z</time>
            </trkpt>
            <trkpt lat="44.434310" lon="7.907150">
                <time>2024-04-01T08:00:26Z</time>
            </trkpt>
            <trkpt lat="44.434450" lon="7.907010">
                <time>2024-04-01T08:00:27Z</time>
            </trkpt>
            <trkpt lat="44.434600" lon="7.906880">
                <time>2024-04-01T08:00:28Z</time>
            </trkpt>
            <trkpt lat="44.434740" lon="7.906740">
                <time>2024-04-01T08:00:29Z</time>
            </trkpt>
            <trkpt lat="44.434890" lon="7.906600">
                <time>2024-04-01T08:00:30Z</time>
            </trkpt>
            <trkpt lat="44.435040" lon="7.906460">
                <time>2024-04-01T08:00:31Z</time>
            </trkpt>
            <trkpt lat="44.435180" lon="7.906330">
                <time>2024-04-01T08:00:32Z</time>
            </trkpt>
            <trkpt lat="44.435320" lon="7.906210">
                <time>2024-04-01T08:00:33Z</time>
            </trkpt>
            <trkpt lat="44.435460" lon="7.906110">
                <time>2024-04-01T08:00:34Z</time>
            </trkpt>
            <trkpt lat="44.435600" lon="7.906020">
                <time>2024-04-01T08:00:35Z</time>
            </trkpt>
            <trkpt lat="44.435750" lon="7.905940">
                <time>2024-04-01T08:00:36Z</time>
            </trkpt>
            <trkpt lat="44.435890" lon="7.905880">
                <time>2024-04-01T08:00:37Z</time>
            </trkpt>
            <trkpt lat="44.436040" lon="7.905810">
                <time>2024-04-01T08:00:38Z</time>
            </trkpt>
            <trkpt lat="44.436180" lon="7.905740">
                <time>2024-04-01T08:00:39Z</time>
            </trkpt>
            <trkpt lat="44.436330" lon="7.905680">
                <time>2024-04-01T08:00:40Z</time>
            </trkpt>
            <trkpt lat="44.436470" lon="7.905610">
                <time>2024-04-01T08:00:41Z</time>
            </trkpt>
            <trkpt lat="44.436620" lon="7.905550">
                <time>2024-04-01T08:00:42Z</time>
            </trkpt>
            <trkpt lat="44.436770" lon="7.905480">
                <time>2024-04-01T08:00:43Z</time>
            </trkpt>
            <trkpt lat="44.436920" lon="7.905410">
                <time>2024-04-01T08:00:44Z</time>
            </trkpt>
            <trkpt lat="44.437080" lon="7.905340">
                <time>2024-04-01T08:00:45Z</time>
            </trkpt>
            <trkpt lat="44.437240" lon="7.905260">
                <time>2024-04-01T08:00:46Z</time>
            </trkpt>
            <trkpt lat="44.437390" lon="7.905190">
                <time>2024-04-01T08:00:47Z</time>
            </trkpt>
            <trkpt lat="44.437550" lon="7.905120">
                <time>2024-04-01T08:00:48Z</time>
            </trkpt>
            <trkpt lat="44.437690" lon="7.905050">
                <time>2024-04-01T08:00:49Z</time>
            </trkpt>
            <trkpt lat="44.437830" lon="7.904960">
                <time>2024-04-01T08:00:50Z</time>
            </trkpt>
            <trkpt lat="44.437970" lon="7.904860">
                <time>2024-04-01T08:00:51Z</time>
            </trkpt>
            <trkpt lat="44.438110" lon="7.904750">
                <time>2024-04-01T08:00:52Z</time>
            </trkpt>
            <trkpt lat="44.438250" lon="7.904630">
                <time>2024-04-01T08:00:53Z</time>
            </trkpt>
            <trkpt lat="44.438390" lon="7.904480">
                <time>2024-04-01T08:00:54Z</time>
            </trkpt>
            <trkpt lat="44.438510" lon="7.904330">
                <time>2024-04-01T08:00:55Z</time>
            </trkpt>
            <trkpt lat="44.438620" lon="7.904170">
                <time>2024-04-01T08:00:56Z</time>
            </trkpt>
            <trkpt lat="44.438730" lon="7.904000">
                <time>2024-04-01T08:00:57Z</time>
            </trkpt>
            <trkpt lat="44.438840" lon="7.903820">
                <time>2024-04-01T08:00:58Z</time>
            </trkpt>
            <trkpt lat="44.438940" lon="7.903630">
                <time>2024-04-01T08:00:59Z</time>
            </trkpt>
            <trkpt lat="44.439030" lon="7.903440">
                <time>2024-04-01T08:01:00Z</time>
            </trkpt>
            <trkpt lat="44.439120" lon="7.903230">
                <time>2024-04-01T08:01:01Z</time>
            </trkpt>
            <trkpt lat="44.439210" lon="7.903020">
                <time>2024-04-01T08:01:02Z</time>
            </trkpt>
            <trkpt lat="44.439310" lon="7.902800">
                <time>2024-04-01T08:01:03Z</time>
            </trkpt>
            <trkpt lat="44.439410" lon="7.902580">
                <time>2024-04-01T08:01:04Z</time>
            </trkpt>
            <trkpt lat="44.439510" lon="7.902350">
                <time>2024-04-01T08:01:05Z</time>
            </trkpt>
            <trkpt lat="44.439620" lon="7.902130">
                <time>2024-04-01T08:01:06Z</time>
            </trkpt>
            <trkpt lat="44.439720" lon="7.901910">
                <time>2024-04-01T08:01:07Z</time>
            </trkpt>
            <trkpt lat="44.439820" lon="7.901690">
                <time>2024-04-01T08:01:08Z</time>
            </trkpt>
            <trkpt lat="44.439920" lon="7.901470">
                <time>2024-04-01T08:01:09Z</time>
            </trkpt>
            <trkpt lat="44.440010" lon="7.901260">
                <time>2024-04-01T08:01:10Z</time>
            </trkpt>
            <trkpt lat="44.440110" lon="7.901040">
                <time>2024-04-01T08:01:11Z</time>
            </trkpt>
            <trkpt lat="44.440200" lon="7.900830">
                <time>2024-04-01T08:01:12Z</time>
            </trkpt>
            <trkpt lat="44.440290" lon="7.900620">
                <time>2024-04-01T08:01:13Z</time>
            </trkpt>
            <trkpt lat="44.440380" lon="7.900400">
                <time>2024-04-01T08:01:14Z</time>
            </trkpt>
            <trkpt lat="44.440450" lon="7.900180">
                <time>2024-04-01T08:01:15Z</time>
            </trkpt>
            <trkpt lat="44.440520" lon="7.899950">
                <time>2024-04-01T08:01:16Z</time>
            </trkpt>
            <trkpt lat="44.440580" lon="7.899720">
                <time>2024-04-01T08:01:17Z</time>
            </trkpt>
            <trkpt lat="44.440630" lon="7.899480">
                <time>2024-04-01T08:01:18Z</time>
            </trkpt>
            <trkpt lat="44.440680" lon="7.899240">
                <time>2024-04-01T08:01:19Z</time>
            </trkpt>
            <trkpt lat="44.440730" lon="7.899000">
                <time>2024-04-01T08:01:20Z</time>
            </trkpt>
            <trkpt lat="44.440770" lon="7.898760">
                <time>2024-04-01T08:01:21Z</time>
            </trkpt>
            <trkpt lat="44.440800" lon="7.898530">
                <time>2024-04-01T08:01:22Z</time>
            </trkpt>
            <trkpt lat="44.440830" lon="7.898290">
                <time>2024-04-01T08:01:23Z</time>
            </trkpt>
            <trkpt lat="44.440850" lon="7.898060">
                <time>2024-04-01T08:01:24Z</time>
            </trkpt>
            <trkpt lat="44.440860" lon="7.897820">
                <time>2024-04-01T08:01:25Z</time>
            </trkpt>
            <trkpt lat="44.440880" lon="7.897600">
                <time>2024-04-01T08:01:26Z</time>
            </trkpt>
            <trkpt lat="44.440900" lon="7.897390">
                <time>2024-04-01T08:01:27Z</time>
            </trkpt>
            <trkpt lat="44.440910" lon="7.897190">
                <time>2024-04-01T08:01:28Z</time>
            </trkpt>
            <trkpt lat="44.440930" lon="7.896980">
                <time>2024-04-01T08:01:29Z</time>
            </trkpt>
            <trkpt lat="44.440950" lon="7.896770">
                <time>2024-04-01T08:01:30Z</time>
            </trkpt>
            <trkpt lat="44.440960" lon="7.896560">
                <time>2024-04-01T08:01:31Z</time>
            </trkpt>
            <trkpt lat="44.440980" lon="7.896370">
                <time>2024-04-01T08:01:32Z</time>
            </trkpt>
            <trkpt lat="44.440990" lon="7.896200">
                <time>2024-04-01T08:01:33Z</time>
            </trkpt>
            <trkpt lat="44.441010" lon="7.896040">
                <time>2024-04-01T08:01:34Z</time>
            </trkpt>
            <trkpt lat="44.441010" lon="7.895910">
                <time>2024-04-01T08:01:35Z</time>
            </trkpt>
            <trkpt lat="44.441020" lon="7.895780">
                <time>2024-04-01T08:01:36Z</time>
            </trkpt>
            <trkpt lat="44.441030" lon="7.895680">
                <time>2024-04-01T08:01:37Z</time>
            </trkpt>
            <trkpt lat="44.441030" lon="7.895580">
                <time>2024-04-01T08:01:38Z</time>
            </trkpt>
            <trkpt lat="44.441040" lon="7.895500">
                <time>2024-04-01T08:01:39Z</time>
            </trkpt>
            <trkpt lat="44.441050" lon="7.895430">
                <time>2024-04-01T08:01:40Z</time>
            </trkpt>
            <trkpt lat="44.441060" lon="7.895360">
                <time>2024-04-01T08:01:41Z</time>
            </trkpt>
            <trkpt lat="44.441060" lon="7.895300">
                <time>2024-04-01T08:01:42Z</time>
            </trkpt>
            <trkpt lat="44.441070" lon="7.895230">
                <time>2024-04-01T08:01:43Z</time>
            </trkpt>
            <trkpt lat="44.441080" lon="7.895170">
                <time>2024-04-01T08:01:44Z</time>
            </trkpt>
            <trkpt lat="44.441090" lon="7.895110">
                <time>2024-04-01T08:01:45Z</time>
            </trkpt>
            <trkpt lat="44.441110" lon="7.895060">
                <time>2024-04-01T08:01:46Z</time>
            </trkpt>
            <trkpt lat="44.441120" lon="7.895020">
                <time>2024-04-01T08:01:47Z</time>
            </trkpt>
            <trkpt lat="44.441120" lon="7.895000">
                <time>2024-04-01T08:01:48Z</time>
            </trkpt>
            <trkpt lat="44.441120" lon="7.895000">
                <time>2024-04-01T08:01:49Z</time>
            </trkpt>
            <trkpt lat="44.441120" lon="7.895000">
                <time>2024-04-01T08:01:50Z</time>
            </trkpt>
            <trkpt lat="44.441120" lon="7.895000">
                <time>2024-04-01T08:01:51Z</time>
            </trkpt>
            <trkpt lat="44.441120" lon="7.894990">
                <time>2024-04-01T08:01:52Z</time>
            </trkpt>
            <trkpt lat="44.441120" lon="7.894990">
                <time>2024-04-01T08:01:53Z</time>
            </trkpt>
            <trkpt lat="44.441120" lon="7.894990">
                <time>2024-04-01T08:01:54Z</time>
            </trkpt>
            <trkpt lat="44.441110" lon="7.894990">
                <time>2024-04-01T08:01:55Z</time>
            </trkpt>
            <trkpt lat="44.441110" lon="7.894990">
                <time>2024-04-01T08:01:56Z</time>
            </trkpt>
            <trkpt lat="44.441110" lon="7.895000">
                <time>2024-04-01T08:01:57Z</time>
            </trkpt>
            <trkpt lat="44.441110" lon="7.895000">
                <time>2024-04-01T08:01:58Z</time>
            </trkpt>
            <trkpt lat="44.441110" lon="7.895000">
                <time>2024-04-01T08:01:59Z</time>
            </trkpt>
            <trkpt lat="44.441110" lon="7.895000">
                <time>2024-04-01T08:02:00Z</time>
            </trkpt>
            <trkpt lat="44.441110" lon="7.895000">
                <time>2024-04-01T08:02:01Z</time>
            </trkpt>
            <trkpt lat="44.441110" lon="7.895000">
                <time>2024-04-01T08:02:02Z</time>
            </trkpt>
            <trkpt lat="44.441110" lon="7.895000">
                <time>2024-04-01T08:02:03Z</time>
            </trkpt>
            <trkpt lat="44.441110" lon="7.895000">
                <time>2024-04-01T08:02:04Z</time>
            </trkpt>
            <trkpt lat="44.441110" lon="7.895000">
                <time>2024-04-01T08:02:05Z</time>
            </trkpt>
            <trkpt lat="44.441110" lon="7.895000">
                <time>2024-04-01T08:02:06Z</time>
            </trkpt>
            <trkpt lat="44.441110" lon="7.895000">
                <time>2024-04-01T08:02:07Z</time>
            </trkpt>
            <trkpt lat="44.441110" lon="7.895000">
                <time>2024-04-01T08:02:08Z</time>
            </trkpt>
            <trkpt lat="44.441110" lon="7.895000">
                <time>2024-04-01T08:02:09Z</time>
            </trkpt>
            <trkpt lat="44.441110" lon="7.895000">
                <time>2024-04-01T08:02:10Z</time>
            </trkpt>
            <trkpt lat="44.441110" lon="7.895000">
                <time>2024-04-01T08:02:11Z</time>
            </trkpt>
            <trkpt lat="44.441110" lon="7.895000">
                <time>2024-04-01T08:02:12Z</time>
            </trkpt>
            <trkpt lat="44.441110" lon="7.895000">
                <time>2024-04-01T08:02:13Z</time>
            </trkpt>
            <trkpt lat="44.441110" lon="7.895000">
                <time>2024-04-01T08:02:14Z</time>
            </trkpt>
            <trkpt lat="44.441110" lon="7.895000">
                <time>2024-04-01T08:02:15Z</time>
            </trkpt>
            <trkpt lat="44.441110" lon="7.895000">
                <time>2024-04-01T08:02:16Z</time>
            </trkpt>
            <trkpt lat="44.441110" lon="7.895000">
                <time>2024-04-01T08:02:17Z</time>
            </trkpt>
            <trkpt lat="44.441110" lon="7.895000">
                <time>2024-04-01T08:02:18Z</time>
            </trkpt>
            <trkpt lat="44.441110" lon="7.895000">
                <time>2024-04-01T08:02:19Z</time>
            </trkpt>
            <trkpt lat="44.441110" lon="7.895000">
                <time>2024-04-01T08:02:20Z</time>
            </trkpt>
            <trkpt lat="44.441120" lon="7.894990">
                <time>2024-04-01T08:02:21Z</time>
            </trkpt>
            <trkpt lat="44.441110" lon="7.894950">
                <time>2024-04-01T08:02:22Z</time>
            </trkpt>
            <trkpt lat="44.441090" lon="7.894910">
                <time>2024-04-01T08:02:23Z</time>
            </trkpt>
            <trkpt lat="44.441080" lon="7.894870">
                <time>2024-04-01T08:02:24Z</time>
            </trkpt>
            <trkpt lat="44.441060" lon="7.894840">
                <time>2024-04-01T08:02:25Z</time>
            </trkpt>
            <trkpt lat="44.441060" lon="7.894800">
                <time>2024-04-01T08:02:26Z</time>
            </trkpt>
            <trkpt lat="44.441060" lon="7.894770">
                <time>2024-04-01T08:02:27Z</time>
            </trkpt>
            <trkpt lat="44.441080" lon="7.894740">
                <time>2024-04-01T08:02:28Z</time>
            </trkpt>
            <trkpt lat="44.441080" lon="7.894730">
                <time>2024-04-01T08:02:29Z</time>
            </trkpt>
            <trkpt lat="44.441080" lon="7.894730">
                <time>2024-04-01T08:02:30Z</time>
            </trkpt>
            <trkpt lat="44.441090" lon="7.894740">
                <time>2024-04-01T08:02:31Z</time>
            </trkpt>
            <trkpt lat="44.441080" lon="7.894740">
                <time>2024-04-01T08:02:32Z</time>
            </trkpt>
            <trkpt lat="44.441080" lon="7.894750">
                <time>2024-04-01T08:02:33Z</time>
            </trkpt>
            <trkpt lat="44.441080" lon="7.894750">
                <time>2024-04-01T08:02:34Z</time>
            </trkpt>
            <trkpt lat="44.441080" lon="7.894760">
                <time>2024-04-01T08:02:35Z</time>
            </trkpt>
            <trkpt lat="44.441070" lon="7.894760">
                <time>2024-04-01T08:02:36Z</time>
            </trkpt>
            <trkpt lat="44.441070" lon="7.894760">
                <time>2024-04-01T08:02:37Z</time>
            </trkpt>
            <trkpt lat="44.441070" lon="7.894760">
                <time>2024-04-01T08:02:38Z</time>
            </trkpt>
            <trkpt lat="44.441070" lon="7.894760">
                <time>2024-04-01T08:02:39Z</time>
            </trkpt>
            <trkpt lat="44.441070" lon="7.894770">
                <time>2024-04-01T08:02:40Z</time>
            </trkpt>
            <trkpt lat="44.441060" lon="7.894770">
                <time>2024-04-01T08:02:41Z</time>
            </trkpt>
            <trkpt lat="44.441060" lon="7.894770">
                <time>2024-04-01T08:02:42Z</time>
            </trkpt>
            <trkpt lat="44.441060" lon="7.894770">
                <time>2024-04-01T08:02:43Z</time>
            </trkpt>
            <trkpt lat="44.441060" lon="7.894770">
                <time>2024-04-01T08:02:44Z</time>
            </trkpt>
            <trkpt lat="44.441050" lon="7.894770">
                <time>2024-04-01T08:02:45Z</time>
            </trkpt>
            <trkpt lat="44.441050" lon="7.894770">
                <time>2024-04-01T08:02:46Z</time>
            </trkpt>
            <trkpt lat="44.441050" lon="7.894770">
                <time>2024-04-01T08:02:47Z</time>
            </trkpt>
            <trkpt lat="44.441050" lon="7.894770">
                <time>2024-04-01T08:02:48Z</time>
            </trkpt>
            <trkpt lat="44.441050" lon="7.894770">
                <time>2024-04-01T08:02:49Z</time>
            </trkpt>
            <trkpt lat="44.441040" lon="7.894770">
                <time>2024-04-01T08:02:50Z</time>
            </trkpt>
            <trkpt lat="44.441040" lon="7.894770">
                <time>2024-04-01T08:02:51Z</time>
            </trkpt>
            <trkpt lat="44.441040" lon="7.894770">
                <time>2024-04-01T08:02:52Z</time>
            </trkpt>
            <trkpt lat="44.441040" lon="7.894770">
                <time>2024-04-01T08:02:53Z</time>
            </trkpt>
            <trkpt lat="44.441040" lon="7.894760">
                <time>2024-04-01T08:02:54Z</time>
            </trkpt>
            <trkpt lat="44.441040" lon="7.894760">
                <time>2024-04-01T08:02:55Z</time>
            </trkpt>
            <trkpt lat="44.441040" lon="7.894760">
                <time>2024-04-01T08:02:56Z</time>
            </trkpt>
            <trkpt lat="44.441050" lon="7.894760">
                <time>2024-04-01T08:02:57Z</time>
            </trkpt>
            <trkpt lat="44.441050" lon="7.894760">
                <time>2024-04-01T08:02:58Z</time>
            </trkpt>
            <trkpt lat="44.441050" lon="7.894760">
                <time>2024-04-01T08:02:59Z</time>
            </trkpt>
            <trkpt lat="44.441050" lon="7.894760">
                <time>2024-04-01T08:03:00Z</time>
            </trkpt>
            <trkpt lat="44.441040" lon="7.894760">
                <time>2024-04-01T08:03:01Z</time>
            </trkpt>
            <trkpt lat="44.441040" lon="7.894760">
                <time>2024-04-01T08:03:02Z</time>
            </trkpt>
            <trkpt lat="44.441040" lon="7.894760">
                <time>2024-04-01T08:03:03Z</time>
            </trkpt>
            <trkpt lat="44.441040" lon="7.894760">
                <time>2024-04-01T08:03:04Z</time>
            </trkpt>
            <trkpt lat="44.441040" lon="7.894760">
                <time>2024-04-01T08:03:05Z</time>
            </trkpt>
            <trkpt lat="44.441030" lon="7.894760">
                <time>2024-04-01T08:03:06Z</time>
            </trkpt>
            <trkpt lat="44.441030" lon="7.894760">
                <time>2024-04-01T08:03:07Z</time>
            </trkpt>
            <trkpt lat="44.441030" lon="7.894760">
                <time>2024-04-01T08:03:08Z</time>
            </trkpt>
            <trkpt lat="44.441030" lon="7.894760">
                <time>2024-04-01T08:03:09Z</time>
            </trkpt>
            <trkpt lat="44.441030" lon="7.894760">
                <time>2024-04-01T08:03:10Z</time>
            </trkpt>
            <trkpt lat="44.441030" lon="7.894760">
                <time>2024-04-01T08:03:11Z</time>
            </trkpt>
            <trkpt lat="44.441030" lon="7.894760">
                <time>2024-04-01T08:03:12Z</time>
            </trkpt>
            <trkpt lat="44.441030" lon="7.894760">
                <time>2024-04-01T08:03:13Z</time>
            </trkpt>
            <trkpt lat="44.441030" lon="7.894760">
                <time>2024-04-01T08:03:14Z</time>
            </trkpt>
            <trkpt lat="44.441040" lon="7.894760">
                <time>2024-04-01T08:03:15Z</time>
            </trkpt>
            <trkpt lat="44.441040" lon="7.894760">
                <time>2024-04-01T08:03:16Z</time>
            </trkpt>
            <trkpt lat="44.441120" lon="7.894700">
                <time>2024-04-01T08:07:53Z</time>
            </trkpt>
            <trkpt lat="44.441190" lon="7.894850">
                <time>2024-04-01T08:07:54Z</time>
            </trkpt>
            <trkpt lat="44.441190" lon="7.894840">
                <time>2024-04-01T08:07:55Z</time>
            </trkpt>
            <trkpt lat="44.441050" lon="7.894770">
                <time>2024-04-01T08:07:56Z</time>
            </trkpt>
            <trkpt lat="44.441030" lon="7.894750">
                <time>2024-04-01T08:07:58Z</time>
            </trkpt>
            <trkpt lat="44.441030" lon="7.894750">
                <time>2024-04-01T08:07:59Z</time>
            </trkpt>
            <trkpt lat="44.441030" lon="7.894750">
                <time>2024-04-01T08:08:00Z</time>
            </trkpt>
            <trkpt lat="44.441040" lon="7.894750">
                <time>2024-04-01T08:08:01Z</time>
            </trkpt>
            <trkpt lat="44.441040" lon="7.894750">
                <time>2024-04-01T08:08:02Z</time>
            </trkpt>
            <trkpt lat="44.441040" lon="7.894760">
                <time>2024-04-01T08:08:03Z</time>
            </trkpt>
            <trkpt lat="44.441040" lon="7.894760">
                <time>2024-04-01T08:08:04Z</time>
            </trkpt>
            <trkpt lat="44.441040" lon="7.894760">
                <time>2024-04-01T08:08:05Z</time>
            </trkpt>
            <trkpt lat="44.441040" lon="7.894760">
                <time>2024-04-01T08:08:06Z</time>
            </trkpt>
            <trkpt lat="44.441040" lon="7.894760">
                <time>2024-04-01T08:08:07Z</time>
            </trkpt>
            <trkpt lat="44.441040" lon="7.894760">
                <time>2024-04-01T08:08:08Z</time>
            </trkpt>
            <trkpt lat="44.441040" lon="7.894760">
                <time>2024-04-01T08:08:09Z</time>
            </trkpt>
            <trkpt lat="44.441040" lon="7.894760">
                <time>2024-04-01T08:08:10Z</time>
            </trkpt>
            <trkpt lat="44.441040" lon="7.894760">
                <time>2024-04-01T08:08:11Z</time>
            </trkpt>
            <trkpt lat="44.441040" lon="7.894760">
                <time>2024-04-01T08:08:12Z</time>
            </trkpt>
            <trkpt lat="44.441040" lon="7.894760">
                <time>2024-04-01T08:08:13Z</time>
            </trkpt>
            <trkpt lat="44.441040" lon="7.894760">
                <time>2024-04-01T08:08:14Z</time>
            </trkpt>
            <trkpt lat="44.441040" lon="7.894760">
                <time>2024-04-01T08:08:15Z</time>
            </trkpt>
            <trkpt lat="44.441040" lon="7.894760">
                <time>2024-04-01T08:08:16Z</time>
            </trkpt>
            <trkpt lat="44.441040" lon="7.894760">
                <time>2024-04-01T08:08:17Z</time>
            </trkpt>
            <trkpt lat="44.441040" lon="7.894760">
                <time>2024-04-01T08:08:18Z</time>
            </trkpt>
            <trkpt lat="44.441040" lon="7.894760">
                <time>2024-04-01T08:08:19Z</time>
            </trkpt>
            <trkpt lat="44.441040" lon="7.894760">
                <time>2024-04-01T08:08:20Z</time>
            </trkpt>
            <trkpt lat="44.441040" lon="7.894760">
                <time>2024-04-01T08:08:21Z</time>
            </trkpt>
            <trkpt lat="44.441040" lon="7.894760">
                <time>2024-04-01T08:08:22Z</time>
            </trkpt>
            <trkpt lat="44.441040" lon="7.894760">
                <time>2024-04-01T08:08:23Z</time>
            </trkpt>
            <trkpt lat="44.441040" lon="7.894760">
                <time>2024-04-01T08:08:24Z</time>
            </trkpt>
            <trkpt lat="44.441040" lon="7.894760">
                <time>2024-04-01T08:08:25Z</time>
            </trkpt>
            <trkpt lat="44.441040" lon="7.894760">
                <time>2024-04-01T08:08:26Z</time>
            </trkpt>
            <trkpt lat="44.440960" lon="7.894810">
                <time>2024-04-01T08:11:56Z</time>
            </trkpt>
            <trkpt lat="44.441020" lon="7.894820">
                <time>2024-04-01T08:11:57Z</time>
            </trkpt>
            <trkpt lat="44.441020" lon="7.894820">
                <time>2024-04-01T08:11:58Z</time>
            </trkpt>
            <trkpt lat="44.441070" lon="7.894820">
                <time>2024-04-01T08:11:59Z</time>
            </trkpt>
            <trkpt lat="44.441080" lon="7.894800">
                <time>2024-04-01T08:12:00Z</time>
            </trkpt>
            <trkpt lat="44.441070" lon="7.894800">
                <time>2024-04-01T08:12:01Z</time>
            </trkpt>
            <trkpt lat="44.441040" lon="7.894760">
                <time>2024-04-01T08:12:03Z</time>
            </trkpt>
            <trkpt lat="44.441040" lon="7.894760">
                <time>2024-04-01T08:12:04Z</time>
            </trkpt>
            <trkpt lat="44.441050" lon="7.894760">
                <time>2024-04-01T08:12:05Z</time>
            </trkpt>
            <trkpt lat="44.441080" lon="7.894740">
                <time>2024-04-01T08:12:06Z</time>
            </trkpt>
            <trkpt lat="44.441100" lon="7.894710">
                <time>2024-04-01T08:12:07Z</time>
            </trkpt>
            <trkpt lat="44.441130" lon="7.894620">
                <time>2024-04-01T08:12:08Z</time>
            </trkpt>
            <trkpt lat="44.441150" lon="7.894550">
                <time>2024-04-01T08:12:09Z</time>
            </trkpt>
            <trkpt lat="44.441170" lon="7.894470">
                <time>2024-04-01T08:12:10Z</time>
            </trkpt>
            <trkpt lat="44.441190" lon="7.894400">
                <time>2024-04-01T08:12:11Z</time>
            </trkpt>
            <trkpt lat="44.441210" lon="7.894320">
                <time>2024-04-01T08:12:12Z</time>
            </trkpt>
            <trkpt lat="44.441220" lon="7.894250">
                <time>2024-04-01T08:12:13Z</time>
            </trkpt>
            <trkpt lat="44.441230" lon="7.894180">
                <time>2024-04-01T08:12:14Z</time>
            </trkpt>
            <trkpt lat="44.441240" lon="7.894110">
                <time>2024-04-01T08:12:15Z</time>
            </trkpt>
            <trkpt lat="44.441240" lon="7.894050">
                <time>2024-04-01T08:12:16Z</time>
            </trkpt>
            <trkpt lat="44.441240" lon="7.893980">
                <time>2024-04-01T08:12:17Z</time>
            </trkpt>
            <trkpt lat="44.441240" lon="7.893900">
                <time>2024-04-01T08:12:18Z</time>
            </trkpt>
            <trkpt lat="44.441250" lon="7.893800">
                <time>2024-04-01T08:12:19Z</time>
            </trkpt>
            <trkpt lat="44.441250" lon="7.893690">
                <time>2024-04-01T08:12:20Z</time>
            </trkpt>
            <trkpt lat="44.441260" lon="7.893570">
                <time>2024-04-01T08:12:21Z</time>
            </trkpt>
            <trkpt lat="44.441280" lon="7.893440">
                <time>2024-04-01T08:12:22Z</time>
            </trkpt>
            <trkpt lat="44.441300" lon="7.893310">
                <time>2024-04-01T08:12:23Z</time>
            </trkpt>
            <trkpt lat="44.441330" lon="7.893170">
                <time>2024-04-01T08:12:24Z</time>
            </trkpt>
            <trkpt lat="44.441360" lon="7.893020">
                <time>2024-04-01T08:12:25Z</time>
            </trkpt>
            <trkpt lat="44.441380" lon="7.892880">
                <time>2024-04-01T08:12:26Z</time>
            </trkpt>
            <trkpt lat="44.441420" lon="7.892730">
                <time>2024-04-01T08:12:27Z</time>
            </trkpt>
            <trkpt lat="44.441450" lon="7.892580">
                <time>2024-04-01T08:12:28Z</time>
            </trkpt>
            <trkpt lat="44.441500" lon="7.892440">
                <time>2024-04-01T08:12:29Z</time>
            </trkpt>
            <trkpt lat="44.441560" lon="7.892300">
                <time>2024-04-01T08:12:30Z</time>
            </trkpt>
            <trkpt lat="44.441630" lon="7.892170">
                <time>2024-04-01T08:12:31Z</time>
            </trkpt>
            <trkpt lat="44.441710" lon="7.892060">
                <time>2024-04-01T08:12:32Z</time>
            </trkpt>
            <trkpt lat="44.441790" lon="7.891960">
                <time>2024-04-01T08:12:33Z</time>
            </trkpt>
            <trkpt lat="44.441890" lon="7.891860">
                <time>2024-04-01T08:12:34Z</time>
            </trkpt>
            <trkpt lat="44.441990" lon="7.891790">
                <time>2024-04-01T08:12:35Z</time>
            </trkpt>
            <trkpt lat="44.442090" lon="7.891730">
                <time>2024-04-01T08:12:36Z</time>
            </trkpt>
            <trkpt lat="44.442200" lon="7.891690">
                <time>2024-04-01T08:12:37Z</time>
            </trkpt>
            <trkpt lat="44.442310" lon="7.891670">
                <time>2024-04-01T08:12:38Z</time>
            </trkpt>
            <trkpt lat="44.442420" lon="7.891660">
                <time>2024-04-01T08:12:39Z</time>
            </trkpt>
            <trkpt lat="44.442540" lon="7.891670">
                <time>2024-04-01T08:12:40Z</time>
            </trkpt>
            <trkpt lat="44.442650" lon="7.891710">
                <time>2024-04-01T08:12:41Z</time>
            </trkpt>
            <trkpt lat="44.442770" lon="7.891760">
                <time>2024-04-01T08:12:42Z</time>
            </trkpt>
            <trkpt lat="44.442890" lon="7.891830">
                <time>2024-04-01T08:12:43Z</time>
            </trkpt>
            <trkpt lat="44.443010" lon="7.891900">
                <time>2024-04-01T08:12:44Z</time>
            </trkpt>
            <trkpt lat="44.443130" lon="7.891980">
                <time>2024-04-01T08:12:45Z</time>
            </trkpt>
            <trkpt lat="44.443260" lon="7.892060">
                <time>2024-04-01T08:12:46Z</time>
            </trkpt>
            <trkpt lat="44.443380" lon="7.892150">
                <time>2024-04-01T08:12:47Z</time>
            </trkpt>
            <trkpt lat="44.443510" lon="7.892240">
                <time>2024-04-01T08:12:48Z</time>
            </trkpt>
            <trkpt lat="44.443640" lon="7.892330">
                <time>2024-04-01T08:12:49Z</time>
            </trkpt>
            <trkpt lat="44.443760" lon="7.892410">
                <time>2024-04-01T08:12:50Z</time>
            </trkpt>
            <trkpt lat="44.443890" lon="7.892510">
                <time>2024-04-01T08:12:51Z</time>
            </trkpt>
            <trkpt lat="44.444010" lon="7.892600">
                <time>2024-04-01T08:12:52Z</time>
            </trkpt>
            <trkpt lat="44.444140" lon="7.892700">
                <time>2024-04-01T08:12:53Z</time>
            </trkpt>
            <trkpt lat="44.444260" lon="7.892810">
                <time>2024-04-01T08:12:54Z</time>
            </trkpt>
            <trkpt lat="44.444370" lon="7.892920">
                <time>2024-04-01T08:12:55Z</time>
            </trkpt>
            <trkpt lat="44.444480" lon="7.893040">
                <time>2024-04-01T08:12:56Z</time>
            </trkpt>
            <trkpt lat="44.444580" lon="7.893190">
                <time>2024-04-01T08:12:57Z</time>
            </trkpt>
            <trkpt lat="44.444680" lon="7.893340">
                <time>2024-04-01T08:12:58Z</time>
            </trkpt>
            <trkpt lat="44.444760" lon="7.893500">
                <time>2024-04-01T08:12:59Z</time>
            </trkpt>
            <trkpt lat="44.444840" lon="7.893670">
                <time>2024-04-01T08:13:00Z</time>
            </trkpt>
            <trkpt lat="44.444920" lon="7.893850">
                <time>2024-04-01T08:13:01Z</time>
            </trkpt>
            <trkpt lat="44.444990" lon="7.894020">
                <time>2024-04-01T08:13:02Z</time>
            </trkpt>
            <trkpt lat="44.445070" lon="7.894200">
                <time>2024-04-01T08:13:03Z</time>
            </trkpt>
            <trkpt lat="44.445140" lon="7.894370">
                <time>2024-04-01T08:13:04Z</time>
            </trkpt>
            <trkpt lat="44.445220" lon="7.894540">
                <time>2024-04-01T08:13:05Z</time>
            </trkpt>
            <trkpt lat="44.445290" lon="7.894720">
                <time>2024-04-01T08:13:06Z</time>
            </trkpt>
            <trkpt lat="44.445360" lon="7.894890">
                <time>2024-04-01T08:13:07Z</time>
            </trkpt>
            <trkpt lat="44.445420" lon="7.895050">
                <time>2024-04-01T08:13:08Z</time>
            </trkpt>
            <trkpt lat="44.445490" lon="7.895210">
                <time>2024-04-01T08:13:09Z</time>
            </trkpt>
            <trkpt lat="44.445560" lon="7.895370">
                <time>2024-04-01T08:13:10Z</time>
            </trkpt>
            <trkpt lat="44.445620" lon="7.895530">
                <time>2024-04-01T08:13:11Z</time>
            </trkpt>
            <trkpt lat="44.445680" lon="7.895690">
                <time>2024-04-01T08:13:12Z</time>
            </trkpt>
            <trkpt lat="44.445740" lon="7.895830">
                <time>2024-04-01T08:13:13Z</time>
            </trkpt>
            <trkpt lat="44.445810" lon="7.895950">
                <time>2024-04-01T08:13:14Z</time>
            </trkpt>
            <trkpt lat="44.445890" lon="7.896070">
                <time>2024-04-01T08:13:15Z</time>
            </trkpt>
            <trkpt lat="44.445980" lon="7.896170">
                <time>2024-04-01T08:13:16Z</time>
            </trkpt>
            <trkpt lat="44.446070" lon="7.896260">
                <time>2024-04-01T08:13:17Z</time>
            </trkpt>
            <trkpt lat="44.446180" lon="7.896330">
                <time>2024-04-01T08:13:18Z</time>
            </trkpt>
            <trkpt lat="44.446300" lon="7.896370">
                <time>2024-04-01T08:13:19Z</time>
            </trkpt>
            <trkpt lat="44.446410" lon="7.896400">
                <time>2024-04-01T08:13:20Z</time>
            </trkpt>
            <trkpt lat="44.446530" lon="7.896400">
                <time>2024-04-01T08:13:21Z</time>
            </trkpt>
            <trkpt lat="44.446650" lon="7.896380">
                <time>2024-04-01T08:13:22Z</time>
            </trkpt>
            <trkpt lat="44.446760" lon="7.896360">
                <time>2024-04-01T08:13:23Z</time>
            </trkpt>
            <trkpt lat="44.446870" lon="7.896330">
                <time>2024-04-01T08:13:24Z</time>
            </trkpt>
            <trkpt lat="44.446990" lon="7.896290">
                <time>2024-04-01T08:13:25Z</time>
            </trkpt>
            <trkpt lat="44.447100" lon="7.896240">
                <time>2024-04-01T08:13:26Z</time>
            </trkpt>
            <trkpt lat="44.447220" lon="7.896200">
                <time>2024-04-01T08:13:27Z</time>
            </trkpt>
            <trkpt lat="44.447340" lon="7.896150">
                <time>2024-04-01T08:13:28Z</time>
            </trkpt>
            <trkpt lat="44.447460" lon="7.896110">
                <time>2024-04-01T08:13:29Z</time>
            </trkpt>
            <trkpt lat="44.447580" lon="7.896060">
                <time>2024-04-01T08:13:30Z</time>
            </trkpt>
            <trkpt lat="44.447710" lon="7.896020">
                <time>2024-04-01T08:13:31Z</time>
            </trkpt>
            <trkpt lat="44.447830" lon="7.895970">
                <time>2024-04-01T08:13:32Z</time>
            </trkpt>
            <trkpt lat="44.447960" lon="7.895930">
                <time>2024-04-01T08:13:33Z</time>
            </trkpt>
            <trkpt lat="44.448090" lon="7.895880">
                <time>2024-04-01T08:13:34Z</time>
            </trkpt>
            <trkpt lat="44.448220" lon="7.895840">
                <time>2024-04-01T08:13:35Z</time>
            </trkpt>
            <trkpt lat="44.448360" lon="7.895790">
                <time>2024-04-01T08:13:36Z</time>
            </trkpt>
            <trkpt lat="44.448500" lon="7.895740">
                <time>2024-04-01T08:13:37Z</time>
            </trkpt>
            <trkpt lat="44.448650" lon="7.895680">
                <time>2024-04-01T08:13:38Z</time>
            </trkpt>
            <trkpt lat="44.448800" lon="7.895620">
                <time>2024-04-01T08:13:39Z</time>
            </trkpt>
            <trkpt lat="44.448950" lon="7.895560">
                <time>2024-04-01T08:13:40Z</time>
            </trkpt>
            <trkpt lat="44.449090" lon="7.895510">
                <time>2024-04-01T08:13:41Z</time>
            </trkpt>
            <trkpt lat="44.449220" lon="7.895430">
                <time>2024-04-01T08:13:42Z</time>
            </trkpt>
            <trkpt lat="44.449360" lon="7.895340">
                <time>2024-04-01T08:13:43Z</time>
            </trkpt>
            <trkpt lat="44.449490" lon="7.895230">
                <time>2024-04-01T08:13:44Z</time>
            </trkpt>
            <trkpt lat="44.449620" lon="7.895110">
                <time>2024-04-01T08:13:45Z</time>
            </trkpt>
            <trkpt lat="44.449740" lon="7.894960">
                <time>2024-04-01T08:13:46Z</time>
            </trkpt>
            <trkpt lat="44.449860" lon="7.894810">
                <time>2024-04-01T08:13:47Z</time>
            </trkpt>
            <trkpt lat="44.449980" lon="7.894660">
                <time>2024-04-01T08:13:48Z</time>
            </trkpt>
            <trkpt lat="44.450110" lon="7.894500">
                <time>2024-04-01T08:13:49Z</time>
            </trkpt>
            <trkpt lat="44.450240" lon="7.894340">
                <time>2024-04-01T08:13:50Z</time>
            </trkpt>
            <trkpt lat="44.450370" lon="7.894180">
                <time>2024-04-01T08:13:51Z</time>
            </trkpt>
            <trkpt lat="44.450500" lon="7.894030">
                <time>2024-04-01T08:13:52Z</time>
            </trkpt>
            <trkpt lat="44.450620" lon="7.893870">
                <time>2024-04-01T08:13:53Z</time>
            </trkpt>
            <trkpt lat="44.450740" lon="7.893730">
                <time>2024-04-01T08:13:54Z</time>
            </trkpt>
            <trkpt lat="44.450860" lon="7.893590">
                <time>2024-04-01T08:13:55Z</time>
            </trkpt>
            <trkpt lat="44.450970" lon="7.893460">
                <time>2024-04-01T08:13:56Z</time>
            </trkpt>
            <trkpt lat="44.451080" lon="7.893330">
                <time>2024-04-01T08:13:57Z</time>
            </trkpt>
            <trkpt lat="44.451180" lon="7.893210">
                <time>2024-04-01T08:13:58Z</time>
            </trkpt>
            <trkpt lat="44.451270" lon="7.893110">
                <time>2024-04-01T08:13:59Z</time>
            </trkpt>
            <trkpt lat="44.451350" lon="7.893020">
                <time>2024-04-01T08:14:00Z</time>
            </trkpt>
            <trkpt lat="44.451420" lon="7.892950">
                <time>2024-04-01T08:14:01Z</time>
            </trkpt>
            <trkpt lat="44.451490" lon="7.892890">
                <time>2024-04-01T08:14:02Z</time>
            </trkpt>
            <trkpt lat="44.451560" lon="7.892830">
                <time>2024-04-01T08:14:03Z</time>
            </trkpt>
            <trkpt lat="44.451630" lon="7.892770">
                <time>2024-04-01T08:14:04Z</time>
            </trkpt>
            <trkpt lat="44.451710" lon="7.892720">
                <time>2024-04-01T08:14:05Z</time>
            </trkpt>
            <trkpt lat="44.451800" lon="7.892670">
                <time>2024-04-01T08:14:06Z</time>
            </trkpt>
            <trkpt lat="44.451900" lon="7.892610">
                <time>2024-04-01T08:14:07Z</time>
            </trkpt>
            <trkpt lat="44.452020" lon="7.892570">
                <time>2024-04-01T08:14:08Z</time>
            </trkpt>
            <trkpt lat="44.452150" lon="7.892520">
                <time>2024-04-01T08:14:09Z</time>
            </trkpt>
            <trkpt lat="44.452280" lon="7.892470">
                <time>2024-04-01T08:14:10Z</time>
            </trkpt>
            <trkpt lat="44.452420" lon="7.892420">
                <time>2024-04-01T08:14:11Z</time>
            </trkpt>
            <trkpt lat="44.452590" lon="7.892360">
                <time>2024-04-01T08:14:12Z</time>
            </trkpt>
            <trkpt lat="44.452750" lon="7.892310">
                <time>2024-04-01T08:14:13Z</time>
            </trkpt>
            <trkpt lat="44.452920" lon="7.892250">
                <time>2024-04-01T08:14:14Z</time>
            </trkpt>
            <trkpt lat="44.453100" lon="7.892190">
                <time>2024-04-01T08:14:15Z</time>
            </trkpt>
            <trkpt lat="44.453280" lon="7.892130">
                <time>2024-04-01T08:14:16Z</time>
            </trkpt>
            <trkpt lat="44.453460" lon="7.892060">
                <time>2024-04-01T08:14:17Z</time>
            </trkpt>
            <trkpt lat="44.453650" lon="7.892000">
                <time>2024-04-01T08:14:18Z</time>
            </trkpt>
            <trkpt lat="44.453830" lon="7.891930">
                <time>2024-04-01T08:14:19Z</time>
            </trkpt>
            <trkpt lat="44.454030" lon="7.891860">
                <time>2024-04-01T08:14:20Z</time>
            </trkpt>
            <trkpt lat="44.454220" lon="7.891800">
                <time>2024-04-01T08:14:21Z</time>
            </trkpt>
            <trkpt lat="44.454420" lon="7.891730">
                <time>2024-04-01T08:14:22Z</time>
            </trkpt>
            <trkpt lat="44.454620" lon="7.891660">
                <time>2024-04-01T08:14:23Z</time>
            </trkpt>
            <trkpt lat="44.454820" lon="7.891590">
                <time>2024-04-01T08:14:24Z</time>
            </trkpt>
            <trkpt lat="44.455030" lon="7.891520">
                <time>2024-04-01T08:14:25Z</time>
            </trkpt>
            <trkpt lat="44.455230" lon="7.891450">
                <time>2024-04-01T08:14:26Z</time>
            </trkpt>
            <trkpt lat="44.455430" lon="7.891380">
                <time>2024-04-01T08:14:27Z</time>
            </trkpt>
            <trkpt lat="44.455630" lon="7.891310">
                <time>2024-04-01T08:14:28Z</time>
            </trkpt>
            <trkpt lat="44.455830" lon="7.891240">
                <time>2024-04-01T08:14:29Z</time>
            </trkpt>
            <trkpt lat="44.456030" lon="7.891170">
                <time>2024-04-01T08:14:30Z</time>
            </trkpt>
            <trkpt lat="44.456230" lon="7.891100">
                <time>2024-04-01T08:14:31Z</time>
            </trkpt>
            <trkpt lat="44.456430" lon="7.891030">
                <time>2024-04-01T08:14:32Z</time>
            </trkpt>
            <trkpt lat="44.456640" lon="7.890960">
                <time>2024-04-01T08:14:33Z</time>
            </trkpt>
            <trkpt lat="44.456840" lon="7.890890">
                <time>2024-04-01T08:14:34Z</time>
            </trkpt>
            <trkpt lat="44.457040" lon="7.890810">
                <time>2024-04-01T08:14:35Z</time>
            </trkpt>
            <trkpt lat="44.457240" lon="7.890750">
                <time>2024-04-01T08:14:36Z</time>
            </trkpt>
            <trkpt lat="44.457450" lon="7.890680">
                <time>2024-04-01T08:14:37Z</time>
            </trkpt>
            <trkpt lat="44.457660" lon="7.890600">
                <time>2024-04-01T08:14:38Z</time>
            </trkpt>
            <trkpt lat="44.457860" lon="7.890530">
                <time>2024-04-01T08:14:39Z</time>
            </trkpt>
            <trkpt lat="44.458060" lon="7.890460">
                <time>2024-04-01T08:14:40Z</time>
            </trkpt>
            <trkpt lat="44.458260" lon="7.890380">
                <time>2024-04-01T08:14:41Z</time>
            </trkpt>
            <trkpt lat="44.458460" lon="7.890320">
                <time>2024-04-01T08:14:42Z</time>
            </trkpt>
            <trkpt lat="44.458640" lon="7.890250">
                <time>2024-04-01T08:14:43Z</time>
            </trkpt>
            <trkpt lat="44.458820" lon="7.890180">
                <time>2024-04-01T08:14:44Z</time>
            </trkpt>
            <trkpt lat="44.458990" lon="7.890110">
                <time>2024-04-01T08:14:45Z</time>
            </trkpt>
            <trkpt lat="44.459150" lon="7.890030">
                <time>2024-04-01T08:14:46Z</time>
            </trkpt>
            <trkpt lat="44.459300" lon="7.889940">
                <time>2024-04-01T08:14:47Z</time>
            </trkpt>
            <trkpt lat="44.459450" lon="7.889840">
                <time>2024-04-01T08:14:48Z</time>
            </trkpt>
            <trkpt lat="44.459600" lon="7.889720">
                <time>2024-04-01T08:14:49Z</time>
            </trkpt>
            <trkpt lat="44.459740" lon="7.889590">
                <time>2024-04-01T08:14:50Z</time>
            </trkpt>
            <trkpt lat="44.459880" lon="7.889470">
                <time>2024-04-01T08:14:51Z</time>
            </trkpt>
            <trkpt lat="44.460010" lon="7.889330">
                <time>2024-04-01T08:14:52Z</time>
            </trkpt>
            <trkpt lat="44.460130" lon="7.889200">
                <time>2024-04-01T08:14:53Z</time>
            </trkpt>
            <trkpt lat="44.460260" lon="7.889050">
                <time>2024-04-01T08:14:54Z</time>
            </trkpt>
            <trkpt lat="44.460370" lon="7.888910">
                <time>2024-04-01T08:14:55Z</time>
            </trkpt>
            <trkpt lat="44.460480" lon="7.888770">
                <time>2024-04-01T08:14:56Z</time>
            </trkpt>
            <trkpt lat="44.460600" lon="7.888640">
                <time>2024-04-01T08:14:57Z</time>
            </trkpt>
            <trkpt lat="44.460710" lon="7.888500">
                <time>2024-04-01T08:14:58Z</time>
            </trkpt>
            <trkpt lat="44.460810" lon="7.888360">
                <time>2024-04-01T08:14:59Z</time>
            </trkpt>
            <trkpt lat="44.460920" lon="7.888220">
                <time>2024-04-01T08:15:00Z</time>
            </trkpt>
            <trkpt lat="44.461040" lon="7.888080">
                <time>2024-04-01T08:15:01Z</time>
            </trkpt>
            <trkpt lat="44.461150" lon="7.887940">
                <time>2024-04-01T08:15:02Z</time>
            </trkpt>
            <trkpt lat="44.461280" lon="7.887780">
                <time>2024-04-01T08:15:03Z</time>
            </trkpt>
            <trkpt lat="44.461410" lon="7.887620">
                <time>2024-04-01T08:15:04Z</time>
            </trkpt>
            <trkpt lat="44.461540" lon="7.887460">
                <time>2024-04-01T08:15:05Z</time>
            </trkpt>
            <trkpt lat="44.461670" lon="7.887310">
                <time>2024-04-01T08:15:06Z</time>
            </trkpt>
            <trkpt lat="44.461790" lon="7.887160">
                <time>2024-04-01T08:15:07Z</time>
            </trkpt>
            <trkpt lat="44.461910" lon="7.887010">
                <time>2024-04-01T08:15:08Z</time>
            </trkpt>
            <trkpt lat="44.462020" lon="7.886870">
                <time>2024-04-01T08:15:09Z</time>
            </trkpt>
            <trkpt lat="44.462130" lon="7.886740">
                <time>2024-04-01T08:15:10Z</time>
            </trkpt>
            <trkpt lat="44.462240" lon="7.886600">
                <time>2024-04-01T08:15:11Z</time>
            </trkpt>
            <trkpt lat="44.462340" lon="7.886470">
                <time>2024-04-01T08:15:12Z</time>
            </trkpt>
            <trkpt lat="44.462450" lon="7.886340">
                <time>2024-04-01T08:15:13Z</time>
            </trkpt>
            <trkpt lat="44.462550" lon="7.886210">
                <time>2024-04-01T08:15:14Z</time>
            </trkpt>
            <trkpt lat="44.462660" lon="7.886080">
                <time>2024-04-01T08:15:15Z</time>
            </trkpt>
            <trkpt lat="44.462770" lon="7.885950">
                <time>2024-04-01T08:15:16Z</time>
            </trkpt>
            <trkpt lat="44.462890" lon="7.885810">
                <time>2024-04-01T08:15:17Z</time>
            </trkpt>
            <trkpt lat="44.463030" lon="7.885660">
                <time>2024-04-01T08:15:18Z</time>
            </trkpt>
            <trkpt lat="44.463160" lon="7.885520">
                <time>2024-04-01T08:15:19Z</time>
            </trkpt>
            <trkpt lat="44.463320" lon="7.885370">
                <time>2024-04-01T08:15:20Z</time>
            </trkpt>
            <trkpt lat="44.463480" lon="7.885220">
                <time>2024-04-01T08:15:21Z</time>
            </trkpt>
            <trkpt lat="44.463650" lon="7.885080">
                <time>2024-04-01T08:15:22Z</time>
            </trkpt>
            <trkpt lat="44.463820" lon="7.884950">
                <time>2024-04-01T08:15:23Z</time>
            </trkpt>
            <trkpt lat="44.464000" lon="7.884830">
                <time>2024-04-01T08:15:24Z</time>
            </trkpt>
            <trkpt lat="44.464180" lon="7.884710">
                <time>2024-04-01T08:15:25Z</time>
            </trkpt>
            <trkpt lat="44.464380" lon="7.884590">
                <time>2024-04-01T08:15:26Z</time>
            </trkpt>
            <trkpt lat="44.464570" lon="7.884490">
                <time>2024-04-01T08:15:27Z</time>
            </trkpt>
            <trkpt lat="44.464770" lon="7.884390">
                <time>2024-04-01T08:15:28Z</time>
            </trkpt>
            <trkpt lat="44.464980" lon="7.884310">
                <time>2024-04-01T08:15:29Z</time>
            </trkpt>
            <trkpt lat="44.465190" lon="7.884250">
                <time>2024-04-01T08:15:30Z</time>
            </trkpt>
            <trkpt lat="44.465400" lon="7.884200">
                <time>2024-04-01T08:15:31Z</time>
            </trkpt>
            <trkpt lat="44.465620" lon="7.884150">
                <time>2024-04-01T08:15:32Z</time>
            </trkpt>
            <trkpt lat="44.465840" lon="7.884130">
                <time>2024-04-01T08:15:33Z</time>
            </trkpt>
            <trkpt lat="44.466070" lon="7.884110">
                <time>2024-04-01T08:15:34Z</time>
            </trkpt>
            <trkpt lat="44.466290" lon="7.884100">
                <time>2024-04-01T08:15:35Z</time>
            </trkpt>
            <trkpt lat="44.466510" lon="7.884110">
                <time>2024-04-01T08:15:36Z</time>
            </trkpt>
            <trkpt lat="44.466730" lon="7.884130">
                <time>2024-04-01T08:15:37Z</time>
            </trkpt>
            <trkpt lat="44.466940" lon="7.884160">
                <time>2024-04-01T08:15:38Z</time>
            </trkpt>
            <trkpt lat="44.467160" lon="7.884200">
                <time>2024-04-01T08:15:39Z</time>
            </trkpt>
            <trkpt lat="44.467370" lon="7.884250">
                <time>2024-04-01T08:15:40Z</time>
            </trkpt>
            <trkpt lat="44.467570" lon="7.884310">
                <time>2024-04-01T08:15:41Z</time>
            </trkpt>
            <trkpt lat="44.467780" lon="7.884390">
                <time>2024-04-01T08:15:42Z</time>
            </trkpt>
            <trkpt lat="44.467980" lon="7.884490">
                <time>2024-04-01T08:15:43Z</time>
            </trkpt>
            <trkpt lat="44.468190" lon="7.884590">
                <time>2024-04-01T08:15:44Z</time>
            </trkpt>
            <trkpt lat="44.468390" lon="7.884710">
                <time>2024-04-01T08:15:45Z</time>
            </trkpt>
            <trkpt lat="44.468580" lon="7.884830">
                <time>2024-04-01T08:15:46Z</time>
            </trkpt>
            <trkpt lat="44.468770" lon="7.884970">
                <time>2024-04-01T08:15:47Z</time>
            </trkpt>
            <trkpt lat="44.468960" lon="7.885120">
                <time>2024-04-01T08:15:48Z</time>
            </trkpt>
            <trkpt lat="44.469140" lon="7.885280">
                <time>2024-04-01T08:15:49Z</time>
            </trkpt>
            <trkpt lat="44.469330" lon="7.885450">
                <time>2024-04-01T08:15:50Z</time>
            </trkpt>
            <trkpt lat="44.469500" lon="7.885640">
                <time>2024-04-01T08:15:51Z</time>
            </trkpt>
            <trkpt lat="44.469680" lon="7.885840">
                <time>2024-04-01T08:15:52Z</time>
            </trkpt>
            <trkpt lat="44.469840" lon="7.886050">
                <time>2024-04-01T08:15:53Z</time>
            </trkpt>
            <trkpt lat="44.470010" lon="7.886280">
                <time>2024-04-01T08:15:54Z</time>
            </trkpt>
            <trkpt lat="44.470170" lon="7.886500">
                <time>2024-04-01T08:15:55Z</time>
            </trkpt>
            <trkpt lat="44.470330" lon="7.886720">
                <time>2024-04-01T08:15:56Z</time>
            </trkpt>
            <trkpt lat="44.470490" lon="7.886940">
                <time>2024-04-01T08:15:57Z</time>
            </trkpt>
            <trkpt lat="44.470650" lon="7.887160">
                <time>2024-04-01T08:15:58Z</time>
            </trkpt>
            <trkpt lat="44.470820" lon="7.887380">
                <time>2024-04-01T08:15:59Z</time>
            </trkpt>
            <trkpt lat="44.470980" lon="7.887590">
                <time>2024-04-01T08:16:00Z</time>
            </trkpt>
            <trkpt lat="44.471150" lon="7.887790">
                <time>2024-04-01T08:16:01Z</time>
            </trkpt>
            <trkpt lat="44.471330" lon="7.887990">
                <time>2024-04-01T08:16:02Z</time>
            </trkpt>
            <trkpt lat="44.471520" lon="7.888180">
                <time>2024-04-01T08:16:03Z</time>
            </trkpt>
            <trkpt lat="44.471710" lon="7.888360">
                <time>2024-04-01T08:16:04Z</time>
            </trkpt>
            <trkpt lat="44.471900" lon="7.888530">
                <time>2024-04-01T08:16:05Z</time>
            </trkpt>
            <trkpt lat="44.472100" lon="7.888690">
                <time>2024-04-01T08:16:06Z</time>
            </trkpt>
            <trkpt lat="44.472310" lon="7.888830">
                <time>2024-04-01T08:16:07Z</time>
            </trkpt>
            <trkpt lat="44.472510" lon="7.888970">
                <time>2024-04-01T08:16:08Z</time>
            </trkpt>
            <trkpt lat="44.472730" lon="7.889100">
                <time>2024-04-01T08:16:09Z</time>
            </trkpt>
            <trkpt lat="44.472940" lon="7.889220">
                <time>2024-04-01T08:16:10Z</time>
            </trkpt>
            <trkpt lat="44.473160" lon="7.889320">
                <time>2024-04-01T08:16:11Z</time>
            </trkpt>
            <trkpt lat="44.473370" lon="7.889410">
                <time>2024-04-01T08:16:12Z</time>
            </trkpt>
            <trkpt lat="44.473590" lon="7.889480">
                <time>2024-04-01T08:16:13Z</time>
            </trkpt>
            <trkpt lat="44.473820" lon="7.889550">
                <time>2024-04-01T08:16:14Z</time>
            </trkpt>
            <trkpt lat="44.474050" lon="7.889600">
                <time>2024-04-01T08:16:15Z</time>
            </trkpt>
            <trkpt lat="44.474270" lon="7.889640">
                <time>2024-04-01T08:16:16Z</time>
            </trkpt>
            <trkpt lat="44.474490" lon="7.889670">
                <time>2024-04-01T08:16:17Z</time>
            </trkpt>
            <trkpt lat="44.474710" lon="7.889690">
                <time>2024-04-01T08:16:18Z</time>
            </trkpt>
            <trkpt lat="44.474930" lon="7.889690">
                <time>2024-04-01T08:16:19Z</time>
            </trkpt>
            <trkpt lat="44.475150" lon="7.889690">
                <time>2024-04-01T08:16:20Z</time>
            </trkpt>
            <trkpt lat="44.475360" lon="7.889690">
                <time>2024-04-01T08:16:21Z</time>
            </trkpt>
            <trkpt lat="44.475580" lon="7.889680">
                <time>2024-04-01T08:16:22Z</time>
            </trkpt>
            <trkpt lat="44.475790" lon="7.889680">
                <time>2024-04-01T08:16:23Z</time>
            </trkpt>
            <trkpt lat="44.476010" lon="7.889700">
                <time>2024-04-01T08:16:24Z</time>
            </trkpt>
            <trkpt lat="44.476220" lon="7.889720">
                <time>2024-04-01T08:16:25Z</time>
            </trkpt>
            <trkpt lat="44.476420" lon="7.889760">
                <time>2024-04-01T08:16:26Z</time>
            </trkpt>
            <trkpt lat="44.476630" lon="7.889800">
                <time>2024-04-01T08:16:27Z</time>
            </trkpt>
            <trkpt lat="44.476820" lon="7.889860">
                <time>2024-04-01T08:16:28Z</time>
            </trkpt>
            <trkpt lat="44.477010" lon="7.889920">
                <time>2024-04-01T08:16:29Z</time>
            </trkpt>
            <trkpt lat="44.477200" lon="7.889990">
                <time>2024-04-01T08:16:30Z</time>
            </trkpt>
            <trkpt lat="44.477380" lon="7.890060">
                <time>2024-04-01T08:16:31Z</time>
            </trkpt>
            <trkpt lat="44.477550" lon="7.890130">
                <time>2024-04-01T08:16:32Z</time>
            </trkpt>
            <trkpt lat="44.477730" lon="7.890190">
                <time>2024-04-01T08:16:33Z</time>
            </trkpt>
            <trkpt lat="44.477890" lon="7.890250">
                <time>2024-04-01T08:16:34Z</time>
            </trkpt>
            <trkpt lat="44.478060" lon="7.890290">
                <time>2024-04-01T08:16:35Z</time>
            </trkpt>
            <trkpt lat="44.478220" lon="7.890320">
                <time>2024-04-01T08:16:36Z</time>
            </trkpt>
            <trkpt lat="44.478370" lon="7.890340">
                <time>2024-04-01T08:16:37Z</time>
            </trkpt>
            <trkpt lat="44.478520" lon="7.890350">
                <time>2024-04-01T08:16:38Z</time>
            </trkpt>
            <trkpt lat="44.478660" lon="7.890340">
                <time>2024-04-01T08:16:39Z</time>
            </trkpt>
            <trkpt lat="44.478800" lon="7.890320">
                <time>2024-04-01T08:16:40Z</time>
            </trkpt>
            <trkpt lat="44.478920" lon="7.890300">
                <time>2024-04-01T08:16:41Z</time>
            </trkpt>
            <trkpt lat="44.479030" lon="7.890270">
                <time>2024-04-01T08:16:42Z</time>
            </trkpt>
            <trkpt lat="44.479130" lon="7.890260">
                <time>2024-04-01T08:16:43Z</time>
            </trkpt>
            <trkpt lat="44.479220" lon="7.890270">
                <time>2024-04-01T08:16:44Z</time>
            </trkpt>
            <trkpt lat="44.479310" lon="7.890290">
                <time>2024-04-01T08:16:45Z</time>
            </trkpt>
            <trkpt lat="44.479390" lon="7.890290">
                <time>2024-04-01T08:16:46Z</time>
            </trkpt>
            <trkpt lat="44.479470" lon="7.890270">
                <time>2024-04-01T08:16:47Z</time>
            </trkpt>
            <trkpt lat="44.479550" lon="7.890230">
                <time>2024-04-01T08:16:48Z</time>
            </trkpt>
            <trkpt lat="44.479620" lon="7.890160">
                <time>2024-04-01T08:16:49Z</time>
            </trkpt>
            <trkpt lat="44.479700" lon="7.890090">
                <time>2024-04-01T08:16:50Z</time>
            </trkpt>
            <trkpt lat="44.479790" lon="7.890040">
                <time>2024-04-01T08:16:51Z</time>
            </trkpt>
            <trkpt lat="44.479890" lon="7.890000">
                <time>2024-04-01T08:16:52Z</time>
            </trkpt>
            <trkpt lat="44.480000" lon="7.889970">
                <time>2024-04-01T08:16:53Z</time>
            </trkpt>
            <trkpt lat="44.480130" lon="7.889950">
                <time>2024-04-01T08:16:54Z</time>
            </trkpt>
            <trkpt lat="44.480260" lon="7.889940">
                <time>2024-04-01T08:16:55Z</time>
            </trkpt>
            <trkpt lat="44.480400" lon="7.889940">
                <time>2024-04-01T08:16:56Z</time>
            </trkpt>
            <trkpt lat="44.480540" lon="7.889950">
                <time>2024-04-01T08:16:57Z</time>
            </trkpt>
            <trkpt lat="44.480690" lon="7.889980">
                <time>2024-04-01T08:16:58Z</time>
            </trkpt>
            <trkpt lat="44.480840" lon="7.890020">
                <time>2024-04-01T08:16:59Z</time>
            </trkpt>
            <trkpt lat="44.480990" lon="7.890090">
                <time>2024-04-01T08:17:00Z</time>
            </trkpt>
            <trkpt lat="44.481140" lon="7.890170">
                <time>2024-04-01T08:17:01Z</time>
            </trkpt>
            <trkpt lat="44.481280" lon="7.890270">
                <time>2024-04-01T08:17:02Z</time>
            </trkpt>
            <trkpt lat="44.481420" lon="7.890390">
                <time>2024-04-01T08:17:03Z</time>
            </trkpt>
            <trkpt lat="44.481560" lon="7.890520">
                <time>2024-04-01T08:17:04Z</time>
            </trkpt>
            <trkpt lat="44.481680" lon="7.890680">
                <time>2024-04-01T08:17:05Z</time>
            </trkpt>
            <trkpt lat="44.481790" lon="7.890850">
                <time>2024-04-01T08:17:06Z</time>
            </trkpt>
            <trkpt lat="44.481890" lon="7.891050">
                <time>2024-04-01T08:17:07Z</time>
            </trkpt>
            <trkpt lat="44.481980" lon="7.891270">
                <time>2024-04-01T08:17:08Z</time>
            </trkpt>
            <trkpt lat="44.482070" lon="7.891510">
                <time>2024-04-01T08:17:09Z</time>
            </trkpt>
            <trkpt lat="44.482150" lon="7.891760">
                <time>2024-04-01T08:17:10Z</time>
            </trkpt>
            <trkpt lat="44.482240" lon="7.892010">
                <time>2024-04-01T08:17:11Z</time>
            </trkpt>
            <trkpt lat="44.482320" lon="7.892250">
                <time>2024-04-01T08:17:12Z</time>
            </trkpt>
            <trkpt lat="44.482400" lon="7.892490">
                <time>2024-04-01T08:17:13Z</time>
            </trkpt>
            <trkpt lat="44.482480" lon="7.892710">
                <time>2024-04-01T08:17:14Z</time>
            </trkpt>
            <trkpt lat="44.482550" lon="7.892930">
                <time>2024-04-01T08:17:15Z</time>
            </trkpt>
            <trkpt lat="44.482630" lon="7.893140">
                <time>2024-04-01T08:17:16Z</time>
            </trkpt>
            <trkpt lat="44.482700" lon="7.893350">
                <time>2024-04-01T08:17:17Z</time>
            </trkpt>
            <trkpt lat="44.482780" lon="7.893550">
                <time>2024-04-01T08:17:18Z</time>
            </trkpt>
            <trkpt lat="44.482840" lon="7.893750">
                <time>2024-04-01T08:17:19Z</time>
            </trkpt>
            <trkpt lat="44.482910" lon="7.893950">
                <time>2024-04-01T08:17:20Z</time>
            </trkpt>
            <trkpt lat="44.482970" lon="7.894140">
                <time>2024-04-01T08:17:21Z</time>
            </trkpt>
            <trkpt lat="44.483040" lon="7.894330">
                <time>2024-04-01T08:17:22Z</time>
            </trkpt>
            <trkpt lat="44.483110" lon="7.894530">
                <time>2024-04-01T08:17:23Z</time>
            </trkpt>
            <trkpt lat="44.483170" lon="7.894730">
                <time>2024-04-01T08:17:24Z</time>
            </trkpt>
            <trkpt lat="44.483240" lon="7.894930">
                <time>2024-04-01T08:17:25Z</time>
            </trkpt>
            <trkpt lat="44.483300" lon="7.895120">
                <time>2024-04-01T08:17:26Z</time>
            </trkpt>
            <trkpt lat="44.483370" lon="7.895320">
                <time>2024-04-01T08:17:27Z</time>
            </trkpt>
            <trkpt lat="44.483440" lon="7.895520">
                <time>2024-04-01T08:17:28Z</time>
            </trkpt>
            <trkpt lat="44.483510" lon="7.895720">
                <time>2024-04-01T08:17:29Z</time>
            </trkpt>
            <trkpt lat="44.483570" lon="7.895920">
                <time>2024-04-01T08:17:30Z</time>
            </trkpt>
            <trkpt lat="44.483640" lon="7.896110">
                <time>2024-04-01T08:17:31Z</time>
            </trkpt>
            <trkpt lat="44.483700" lon="7.896300">
                <time>2024-04-01T08:17:32Z</time>
            </trkpt>
            <trkpt lat="44.483770" lon="7.896490">
                <time>2024-04-01T08:17:33Z</time>
            </trkpt>
            <trkpt lat="44.483840" lon="7.896680">
                <time>2024-04-01T08:17:34Z</time>
            </trkpt>
            <trkpt lat="44.483910" lon="7.896870">
                <time>2024-04-01T08:17:35Z</time>
            </trkpt>
            <trkpt lat="44.483980" lon="7.897060">
                <time>2024-04-01T08:17:36Z</time>
            </trkpt>
            <trkpt lat="44.484060" lon="7.897250">
                <time>2024-04-01T08:17:37Z</time>
            </trkpt>
            <trkpt lat="44.484150" lon="7.897440">
                <time>2024-04-01T08:17:38Z</time>
            </trkpt>
            <trkpt lat="44.484240" lon="7.897630">
                <time>2024-04-01T08:17:39Z</time>
            </trkpt>
            <trkpt lat="44.484350" lon="7.897810">
                <time>2024-04-01T08:17:40Z</time>
            </trkpt>
            <trkpt lat="44.484460" lon="7.898000">
                <time>2024-04-01T08:17:41Z</time>
            </trkpt>
            <trkpt lat="44.484580" lon="7.898180">
                <time>2024-04-01T08:17:42Z</time>
            </trkpt>
            <trkpt lat="44.484700" lon="7.898360">
                <time>2024-04-01T08:17:43Z</time>
            </trkpt>
            <trkpt lat="44.484840" lon="7.898520">
                <time>2024-04-01T08:17:44Z</time>
            </trkpt>
            <trkpt lat="44.484970" lon="7.898690">
                <time>2024-04-01T08:17:45Z</time>
            </trkpt>
            <trkpt lat="44.485100" lon="7.898850">
                <time>2024-04-01T08:17:46Z</time>
            </trkpt>
            <trkpt lat="44.485230" lon="7.899010">
                <time>2024-04-01T08:17:47Z</time>
            </trkpt>
            <trkpt lat="44.485360" lon="7.899160">
                <time>2024-04-01T08:17:48Z</time>
            </trkpt>
            <trkpt lat="44.485480" lon="7.899300">
                <time>2024-04-01T08:17:49Z</time>
            </trkpt>
            <trkpt lat="44.485590" lon="7.899440">
                <time>2024-04-01T08:17:50Z</time>
            </trkpt>
            <trkpt lat="44.485700" lon="7.899560">
                <time>2024-04-01T08:17:51Z</time>
            </trkpt>
            <trkpt lat="44.485800" lon="7.899690">
                <time>2024-04-01T08:17:52Z</time>
            </trkpt>
            <trkpt lat="44.485890" lon="7.899800">
                <time>2024-04-01T08:17:53Z</time>
            </trkpt>
            <trkpt lat="44.485980" lon="7.899890">
                <time>2024-04-01T08:17:54Z</time>
            </trkpt>
            <trkpt lat="44.486050" lon="7.899970">
                <time>2024-04-01T08:17:55Z</time>
            </trkpt>
            <trkpt lat="44.486130" lon="7.900050">
                <time>2024-04-01T08:17:56Z</time>
            </trkpt>
            <trkpt lat="44.486190" lon="7.900110">
                <time>2024-04-01T08:17:57Z</time>
            </trkpt>
            <trkpt lat="44.486250" lon="7.900170">
                <time>2024-04-01T08:17:58Z</time>
            </trkpt>
            <trkpt lat="44.486300" lon="7.900220">
                <time>2024-04-01T08:17:59Z</time>
            </trkpt>
            <trkpt lat="44.486360" lon="7.900260">
                <time>2024-04-01T08:18:00Z</time>
            </trkpt>
            <trkpt lat="44.486420" lon="7.900310">
                <time>2024-04-01T08:18:01Z</time>
            </trkpt>
            <trkpt lat="44.486470" lon="7.900360">
                <time>2024-04-01T08:18:02Z</time>
            </trkpt>
            <trkpt lat="44.486520" lon="7.900430">
                <time>2024-04-01T08:18:03Z</time>
            </trkpt>
            <trkpt lat="44.486580" lon="7.900500">
                <time>2024-04-01T08:18:04Z</time>
            </trkpt>
            <trkpt lat="44.486650" lon="7.900570">
                <time>2024-04-01T08:18:05Z</time>
            </trkpt>
            <trkpt lat="44.486720" lon="7.900630">
                <time>2024-04-01T08:18:06Z</time>
            </trkpt>
            <trkpt lat="44.486800" lon="7.900690">
                <time>2024-04-01T08:18:07Z</time>
            </trkpt>
            <trkpt lat="44.486880" lon="7.900760">
                <time>2024-04-01T08:18:08Z</time>
            </trkpt>
            <trkpt lat="44.486960" lon="7.900860">
                <time>2024-04-01T08:18:09Z</time>
            </trkpt>
            <trkpt lat="44.487040" lon="7.900970">
                <time>2024-04-01T08:18:10Z</time>
            </trkpt>
            <trkpt lat="44.487110" lon="7.901090">
                <time>2024-04-01T08:18:11Z</time>
            </trkpt>
            <trkpt lat="44.487200" lon="7.901210">
                <time>2024-04-01T08:18:12Z</time>
            </trkpt>
            <trkpt lat="44.487290" lon="7.901350">
                <time>2024-04-01T08:18:13Z</time>
            </trkpt>
            <trkpt lat="44.487380" lon="7.901480">
                <time>2024-04-01T08:18:14Z</time>
            </trkpt>
            <trkpt lat="44.487490" lon="7.901610">
                <time>2024-04-01T08:18:15Z</time>
            </trkpt>
            <trkpt lat="44.487610" lon="7.901750">
                <time>2024-04-01T08:18:16Z</time>
            </trkpt>
            <trkpt lat="44.487740" lon="7.901890">
                <time>2024-04-01T08:18:17Z</time>
            </trkpt>
            <trkpt lat="44.487880" lon="7.902020">
                <time>2024-04-01T08:18:18Z</time>
            </trkpt>
            <trkpt lat="44.488020" lon="7.902150">
                <time>2024-04-01T08:18:19Z</time>
            </trkpt>
            <trkpt lat="44.488180" lon="7.902280">
                <time>2024-04-01T08:18:20Z</time>
            </trkpt>
            <trkpt lat="44.488340" lon="7.902430">
                <time>2024-04-01T08:18:21Z</time>
            </trkpt>
            <trkpt lat="44.488500" lon="7.902570">
                <time>2024-04-01T08:18:22Z</time>
            </trkpt>
            <trkpt lat="44.488660" lon="7.902710">
                <time>2024-04-01T08:18:23Z</time>
            </trkpt>
            <trkpt lat="44.488830" lon="7.902860">
                <time>2024-04-01T08:18:24Z</time>
            </trkpt>
            <trkpt lat="44.489000" lon="7.903000">
                <time>2024-04-01T08:18:25Z</time>
            </trkpt>
            <trkpt lat="44.489180" lon="7.903150">
                <time>2024-04-01T08:18:26Z</time>
            </trkpt>
            <trkpt lat="44.489350" lon="7.903300">
                <time>2024-04-01T08:18:27Z</time>
            </trkpt>
            <trkpt lat="44.489530" lon="7.903460">
                <time>2024-04-01T08:18:28Z</time>
            </trkpt>
            <trkpt lat="44.489710" lon="7.903610">
                <time>2024-04-01T08:18:29Z</time>
            </trkpt>
            <trkpt lat="44.489880" lon="7.903760">
                <time>2024-04-01T08:18:30Z</time>
            </trkpt>
            <trkpt lat="44.490050" lon="7.903900">
                <time>2024-04-01T08:18:31Z</time>
            </trkpt>
            <trkpt lat="44.490210" lon="7.904040">
                <time>2024-04-01T08:18:32Z</time>
            </trkpt>
            <trkpt lat="44.490370" lon="7.904180">
                <time>2024-04-01T08:18:33Z</time>
            </trkpt>
            <trkpt lat="44.490540" lon="7.904320">
                <time>2024-04-01T08:18:34Z</time>
            </trkpt>
            <trkpt lat="44.490700" lon="7.904450">
                <time>2024-04-01T08:18:35Z</time>
            </trkpt>
            <trkpt lat="44.490860" lon="7.904590">
                <time>2024-04-01T08:18:36Z</time>
            </trkpt>
            <trkpt lat="44.491020" lon="7.904730">
                <time>2024-04-01T08:18:37Z</time>
            </trkpt>
            <trkpt lat="44.491190" lon="7.904870">
                <time>2024-04-01T08:18:38Z</time>
            </trkpt>
            <trkpt lat="44.491350" lon="7.905020">
                <time>2024-04-01T08:18:39Z</time>
            </trkpt>
            <trkpt lat="44.491520" lon="7.905160">
                <time>2024-04-01T08:18:40Z</time>
            </trkpt>
            <trkpt lat="44.491690" lon="7.905310">
                <time>2024-04-01T08:18:41Z</time>
            </trkpt>
            <trkpt lat="44.491860" lon="7.905460">
                <time>2024-04-01T08:18:42Z</time>
            </trkpt>
            <trkpt lat="44.492030" lon="7.905610">
                <time>2024-04-01T08:18:43Z</time>
            </trkpt>
            <trkpt lat="44.492210" lon="7.905750">
                <time>2024-04-01T08:18:44Z</time>
            </trkpt>
            <trkpt lat="44.492390" lon="7.905890">
                <time>2024-04-01T08:18:45Z</time>
            </trkpt>
            <trkpt lat="44.492570" lon="7.906020">
                <time>2024-04-01T08:18:46Z</time>
            </trkpt>
            <trkpt lat="44.492760" lon="7.906150">
                <time>2024-04-01T08:18:47Z</time>
            </trkpt>
            <trkpt lat="44.492940" lon="7.906270">
                <time>2024-04-01T08:18:48Z</time>
            </trkpt>
            <trkpt lat="44.493140" lon="7.906370">
                <time>2024-04-01T08:18:49Z</time>
            </trkpt>
            <trkpt lat="44.493330" lon="7.906470">
                <time>2024-04-01T08:18:50Z</time>
            </trkpt>
            <trkpt lat="44.493520" lon="7.906560">
                <time>2024-04-01T08:18:51Z</time>
            </trkpt>
            <trkpt lat="44.493720" lon="7.906640">
                <time>2024-04-01T08:18:52Z</time>
            </trkpt>
            <trkpt lat="44.493930" lon="7.906720">
                <time>2024-04-01T08:18:53Z</time>
            </trkpt>
            <trkpt lat="44.494120" lon="7.906780">
                <time>2024-04-01T08:18:54Z</time>
            </trkpt>
            <trkpt lat="44.494320" lon="7.906830">
                <time>2024-04-01T08:18:55Z</time>
            </trkpt>
            <trkpt lat="44.494520" lon="7.906860">
                <time>2024-04-01T08:18:56Z</time>
            </trkpt>
            <trkpt lat="44.494730" lon="7.906890">
                <time>2024-04-01T08:18:57Z</time>
            </trkpt>
            <trkpt lat="44.494930" lon="7.906910">
                <time>2024-04-01T08:18:58Z</time>
            </trkpt>
            <trkpt lat="44.495130" lon="7.906910">
                <time>2024-04-01T08:18:59Z</time>
            </trkpt>
            <trkpt lat="44.495330" lon="7.906910">
                <time>2024-04-01T08:19:00Z</time>
            </trkpt>
            <trkpt lat="44.495530" lon="7.906900">
                <time>2024-04-01T08:19:01Z</time>
            </trkpt>
            <trkpt lat="44.495730" lon="7.906880">
                <time>2024-04-01T08:19:02Z</time>
            </trkpt>
            <trkpt lat="44.495920" lon="7.906850">
                <time>2024-04-01T08:19:03Z</time>
            </trkpt>
            <trkpt lat="44.496110" lon="7.906810">
                <time>2024-04-01T08:19:04Z</time>
            </trkpt>
            <trkpt lat="44.496310" lon="7.906770">
                <time>2024-04-01T08:19:05Z</time>
            </trkpt>
            <trkpt lat="44.496500" lon="7.906730">
                <time>2024-04-01T08:19:06Z</time>
            </trkpt>
            <trkpt lat="44.496690" lon="7.906690">
                <time>2024-04-01T08:19:07Z</time>
            </trkpt>
            <trkpt lat="44.496880" lon="7.906640">
                <time>2024-04-01T08:19:08Z</time>
            </trkpt>
            <trkpt lat="44.497070" lon="7.906590">
                <time>2024-04-01T08:19:09Z</time>
            </trkpt>
            <trkpt lat="44.497260" lon="7.906540">
                <time>2024-04-01T08:19:10Z</time>
            </trkpt>
            <trkpt lat="44.497450" lon="7.906490">
                <time>2024-04-01T08:19:11Z</time>
            </trkpt>
            <trkpt lat="44.497630" lon="7.906440">
                <time>2024-04-01T08:19:12Z</time>
            </trkpt>
            <trkpt lat="44.497810" lon="7.906390">
                <time>2024-04-01T08:19:13Z</time>
            </trkpt>
            <trkpt lat="44.497990" lon="7.906350">
                <time>2024-04-01T08:19:14Z</time>
            </trkpt>
            <trkpt lat="44.498170" lon="7.906300">
                <time>2024-04-01T08:19:15Z</time>
            </trkpt>
            <trkpt lat="44.498360" lon="7.906260">
                <time>2024-04-01T08:19:16Z</time>
            </trkpt>
            <trkpt lat="44.498540" lon="7.906210">
                <time>2024-04-01T08:19:17Z</time>
            </trkpt>
            <trkpt lat="44.498720" lon="7.906170">
                <time>2024-04-01T08:19:18Z</time>
            </trkpt>
            <trkpt lat="44.498910" lon="7.906120">
                <time>2024-04-01T08:19:19Z</time>
            </trkpt>
            <trkpt lat="44.499090" lon="7.906080">
                <time>2024-04-01T08:19:20Z</time>
            </trkpt>
            <trkpt lat="44.499270" lon="7.906030">
                <time>2024-04-01T08:19:21Z</time>
            </trkpt>
            <trkpt lat="44.499450" lon="7.905990">
                <time>2024-04-01T08:19:22Z</time>
            </trkpt>
            <trkpt lat="44.499630" lon="7.905940">
                <time>2024-04-01T08:19:23Z</time>
            </trkpt>
            <trkpt lat="44.499810" lon="7.905900">
                <time>2024-04-01T08:19:24Z</time>
            </trkpt>
            <trkpt lat="44.499990" lon="7.905860">
                <time>2024-04-01T08:19:25Z</time>
            </trkpt>
            <trkpt lat="44.500170" lon="7.905810">
                <time>2024-04-01T08:19:26Z</time>
            </trkpt>
            <trkpt lat="44.500360" lon="7.905760">
                <time>2024-04-01T08:19:27Z</time>
            </trkpt>
            <trkpt lat="44.500540" lon="7.905710">
                <time>2024-04-01T08:19:28Z</time>
            </trkpt>
            <trkpt lat="44.500720" lon="7.905670">
                <time>2024-04-01T08:19:29Z</time>
            </trkpt>
            <trkpt lat="44.500890" lon="7.905620">
                <time>2024-04-01T08:19:30Z</time>
            </trkpt>
            <trkpt lat="44.501070" lon="7.905570">
                <time>2024-04-01T08:19:31Z</time>
            </trkpt>
            <trkpt lat="44.501240" lon="7.905530">
                <time>2024-04-01T08:19:32Z</time>
            </trkpt>
            <trkpt lat="44.501420" lon="7.905480">
                <time>2024-04-01T08:19:33Z</time>
            </trkpt>
            <trkpt lat="44.501600" lon="7.905430">
                <time>2024-04-01T08:19:34Z</time>
            </trkpt>
            <trkpt lat="44.501780" lon="7.905380">
                <time>2024-04-01T08:19:35Z</time>
            </trkpt>
            <trkpt lat="44.501970" lon="7.905330">
                <time>2024-04-01T08:19:36Z</time>
            </trkpt>
            <trkpt lat="44.502150" lon="7.905280">
                <time>2024-04-01T08:19:37Z</time>
            </trkpt>
            <trkpt lat="44.502330" lon="7.905230">
                <time>2024-04-01T08:19:38Z</time>
            </trkpt>
            <trkpt lat="44.502520" lon="7.905180">
                <time>2024-04-01T08:19:39Z</time>
            </trkpt>
            <trkpt lat="44.502710" lon="7.905130">
                <time>2024-04-01T08:19:40Z</time>
            </trkpt>
            <trkpt lat="44.502910" lon="7.905080">
                <time>2024-04-01T08:19:41Z</time>
            </trkpt>
            <trkpt lat="44.503100" lon="7.905030">
                <time>2024-04-01T08:19:42Z</time>
            </trkpt>
            <trkpt lat="44.503300" lon="7.904980">
                <time>2024-04-01T08:19:43Z</time>
            </trkpt>
            <trkpt lat="44.503500" lon="7.904930">
                <time>2024-04-01T08:19:44Z</time>
            </trkpt>
            <trkpt lat="44.503690" lon="7.904880">
                <time>2024-04-01T08:19:45Z</time>
            </trkpt>
            <trkpt lat="44.503880" lon="7.904840">
                <time>2024-04-01T08:19:46Z</time>
            </trkpt>
            <trkpt lat="44.504060" lon="7.904790">
                <time>2024-04-01T08:19:47Z</time>
            </trkpt>
            <trkpt lat="44.504250" lon="7.904740">
                <time>2024-04-01T08:19:48Z</time>
            </trkpt>
            <trkpt lat="44.504430" lon="7.904700">
                <time>2024-04-01T08:19:49Z</time>
            </trkpt>
            <trkpt lat="44.504610" lon="7.904660">
                <time>2024-04-01T08:19:50Z</time>
            </trkpt>
            <trkpt lat="44.504790" lon="7.904610">
                <time>2024-04-01T08:19:51Z</time>
            </trkpt>
            <trkpt lat="44.504970" lon="7.904570">
                <time>2024-04-01T08:19:52Z</time>
            </trkpt>
            <trkpt lat="44.505150" lon="7.904520">
                <time>2024-04-01T08:19:53Z</time>
            </trkpt>
            <trkpt lat="44.505340" lon="7.904470">
                <time>2024-04-01T08:19:54Z</time>
            </trkpt>
            <trkpt lat="44.505530" lon="7.904420">
                <time>2024-04-01T08:19:55Z</time>
            </trkpt>
            <trkpt lat="44.505730" lon="7.904370">
                <time>2024-04-01T08:19:56Z</time>
            </trkpt>
            <trkpt lat="44.505930" lon="7.904320">
                <time>2024-04-01T08:19:57Z</time>
            </trkpt>
            <trkpt lat="44.506140" lon="7.904270">
                <time>2024-04-01T08:19:58Z</time>
            </trkpt>
            <trkpt lat="44.506350" lon="7.904210">
                <time>2024-04-01T08:19:59Z</time>
            </trkpt>
            <trkpt lat="44.506570" lon="7.904150">
                <time>2024-04-01T08:20:00Z</time>
            </trkpt>
            <trkpt lat="44.506780" lon="7.904110">
                <time>2024-04-01T08:20:01Z</time>
            </trkpt>
            <trkpt lat="44.507000" lon="7.904050">
                <time>2024-04-01T08:20:02Z</time>
            </trkpt>
            <trkpt lat="44.507220" lon="7.904000">
                <time>2024-04-01T08:20:03Z</time>
            </trkpt>
            <trkpt lat="44.507430" lon="7.903940">
                <time>2024-04-01T08:20:04Z</time>
            </trkpt>
            <trkpt lat="44.507630" lon="7.903890">
                <time>2024-04-01T08:20:05Z</time>
            </trkpt>
            <trkpt lat="44.507820" lon="7.903840">
                <time>2024-04-01T08:20:06Z</time>
            </trkpt>
            <trkpt lat="44.508010" lon="7.903780">
                <time>2024-04-01T08:20:07Z</time>
            </trkpt>
            <trkpt lat="44.508190" lon="7.903730">
                <time>2024-04-01T08:20:08Z</time>
            </trkpt>
            <trkpt lat="44.508370" lon="7.903690">
                <time>2024-04-01T08:20:09Z</time>
            </trkpt>
            <trkpt lat="44.508550" lon="7.903640">
                <time>2024-04-01T08:20:10Z</time>
            </trkpt>
            <trkpt lat="44.508720" lon="7.903600">
                <time>2024-04-01T08:20:11Z</time>
            </trkpt>
            <trkpt lat="44.508900" lon="7.903560">
                <time>2024-04-01T08:20:12Z</time>
            </trkpt>
            <trkpt lat="44.509090" lon="7.903530">
                <time>2024-04-01T08:20:13Z</time>
            </trkpt>
            <trkpt lat="44.509280" lon="7.903490">
                <time>2024-04-01T08:20:14Z</time>
            </trkpt>
            <trkpt lat="44.509470" lon="7.903440">
                <time>2024-04-01T08:20:15Z</time>
            </trkpt>
            <trkpt lat="44.509660" lon="7.903400">
                <time>2024-04-01T08:20:16Z</time>
            </trkpt>
            <trkpt lat="44.509850" lon="7.903340">
                <time>2024-04-01T08:20:17Z</time>
            </trkpt>
            <trkpt lat="44.510050" lon="7.903290">
                <time>2024-04-01T08:20:18Z</time>
            </trkpt>
            <trkpt lat="44.510240" lon="7.903240">
                <time>2024-04-01T08:20:19Z</time>
            </trkpt>
            <trkpt lat="44.510430" lon="7.903180">
                <time>2024-04-01T08:20:20Z</time>
            </trkpt>
            <trkpt lat="44.510630" lon="7.903130">
                <time>2024-04-01T08:20:21Z</time>
            </trkpt>
            <trkpt lat="44.510820" lon="7.903080">
                <time>2024-04-01T08:20:22Z</time>
            </trkpt>
            <trkpt lat="44.511010" lon="7.903020">
                <time>2024-04-01T08:20:23Z</time>
            </trkpt>
            <trkpt lat="44.511210" lon="7.902970">
                <time>2024-04-01T08:20:24Z</time>
            </trkpt>
            <trkpt lat="44.511400" lon="7.902920">
                <time>2024-04-01T08:20:25Z</time>
            </trkpt>
            <trkpt lat="44.511580" lon="7.902870">
                <time>2024-04-01T08:20:26Z</time>
            </trkpt>
            <trkpt lat="44.511770" lon="7.902830">
                <time>2024-04-01T08:20:27Z</time>
            </trkpt>
            <trkpt lat="44.511960" lon="7.902790">
                <time>2024-04-01T08:20:28Z</time>
            </trkpt>
            <trkpt lat="44.512160" lon="7.902740">
                <time>2024-04-01T08:20:29Z</time>
            </trkpt>
            <trkpt lat="44.512350" lon="7.902700">
                <time>2024-04-01T08:20:30Z</time>
            </trkpt>
            <trkpt lat="44.512540" lon="7.902640">
                <time>2024-04-01T08:20:31Z</time>
            </trkpt>
            <trkpt lat="44.512740" lon="7.902590">
                <time>2024-04-01T08:20:32Z</time>
            </trkpt>
            <trkpt lat="44.512940" lon="7.902530">
                <time>2024-04-01T08:20:33Z</time>
            </trkpt>
            <trkpt lat="44.513140" lon="7.902480">
                <time>2024-04-01T08:20:34Z</time>
            </trkpt>
            <trkpt lat="44.513340" lon="7.902420">
                <time>2024-04-01T08:20:35Z</time>
            </trkpt>
            <trkpt lat="44.513550" lon="7.902370">
                <time>2024-04-01T08:20:36Z</time>
            </trkpt>
            <trkpt lat="44.513750" lon="7.902310">
                <time>2024-04-01T08:20:37Z</time>
            </trkpt>
            <trkpt lat="44.513940" lon="7.902260">
                <time>2024-04-01T08:20:38Z</time>
            </trkpt>
            <trkpt lat="44.514120" lon="7.902220">
                <time>2024-04-01T08:20:39Z</time>
            </trkpt>
            <trkpt lat="44.514300" lon="7.902170">
                <time>2024-04-01T08:20:40Z</time>
            </trkpt>
            <trkpt lat="44.514480" lon="7.902120">
                <time>2024-04-01T08:20:41Z</time>
            </trkpt>
            <trkpt lat="44.514640" lon="7.902080">
                <time>2024-04-01T08:20:42Z</time>
            </trkpt>
            <trkpt lat="44.514810" lon="7.902040">
                <time>2024-04-01T08:20:43Z</time>
            </trkpt>
            <trkpt lat="44.514970" lon="7.902000">
                <time>2024-04-01T08:20:44Z</time>
            </trkpt>
            <trkpt lat="44.515140" lon="7.901960">
                <time>2024-04-01T08:20:45Z</time>
            </trkpt>
            <trkpt lat="44.515300" lon="7.901910">
                <time>2024-04-01T08:20:46Z</time>
            </trkpt>
            <trkpt lat="44.515470" lon="7.901870">
                <time>2024-04-01T08:20:47Z</time>
            </trkpt>
            <trkpt lat="44.515630" lon="7.901820">
                <time>2024-04-01T08:20:48Z</time>
            </trkpt>
            <trkpt lat="44.515800" lon="7.901780">
                <time>2024-04-01T08:20:49Z</time>
            </trkpt>
            <trkpt lat="44.515980" lon="7.901740">
                <time>2024-04-01T08:20:50Z</time>
            </trkpt>
            <trkpt lat="44.516160" lon="7.901690">
                <time>2024-04-01T08:20:51Z</time>
            </trkpt>
            <trkpt lat="44.516340" lon="7.901640">
                <time>2024-04-01T08:20:52Z</time>
            </trkpt>
            <trkpt lat="44.516520" lon="7.901600">
                <time>2024-04-01T08:20:53Z</time>
            </trkpt>
            <trkpt lat="44.516700" lon="7.901550">
                <time>2024-04-01T08:20:54Z</time>
            </trkpt>
            <trkpt lat="44.516870" lon="7.901510">
                <time>2024-04-01T08:20:55Z</time>
            </trkpt>
            <trkpt lat="44.517050" lon="7.901470">
                <time>2024-04-01T08:20:56Z</time>
            </trkpt>
            <trkpt lat="44.517230" lon="7.901420">
                <time>2024-04-01T08:20:57Z</time>
            </trkpt>
            <trkpt lat="44.517420" lon="7.901380">
                <time>2024-04-01T08:20:58Z</time>
            </trkpt>
            <trkpt lat="44.517600" lon="7.901330">
                <time>2024-04-01T08:20:59Z</time>
            </trkpt>
            <trkpt lat="44.517790" lon="7.901280">
                <time>2024-04-01T08:21:00Z</time>
            </trkpt>
            <trkpt lat="44.517980" lon="7.901230">
                <time>2024-04-01T08:21:01Z</time>
            </trkpt>
            <trkpt lat="44.518180" lon="7.901170">
                <time>2024-04-01T08:21:02Z</time>
            </trkpt>
            <trkpt lat="44.518380" lon="7.901120">
                <time>2024-04-01T08:21:03Z</time>
            </trkpt>
            <trkpt lat="44.518580" lon="7.901070">
                <time>2024-04-01T08:21:04Z</time>
            </trkpt>
            <trkpt lat="44.518780" lon="7.901020">
                <time>2024-04-01T08:21:05Z</time>
            </trkpt>
            <trkpt lat="44.518990" lon="7.900960">
                <time>2024-04-01T08:21:06Z</time>
            </trkpt>
            <trkpt lat="44.519190" lon="7.900910">
                <time>2024-04-01T08:21:07Z</time>
            </trkpt>
            <trkpt lat="44.519400" lon="7.900860">
                <time>2024-04-01T08:21:08Z</time>
            </trkpt>
            <trkpt lat="44.519600" lon="7.900810">
                <time>2024-04-01T08:21:09Z</time>
            </trkpt>
            <trkpt lat="44.519800" lon="7.900760">
                <time>2024-04-01T08:21:10Z</time>
            </trkpt>
            <trkpt lat="44.519990" lon="7.900710">
                <time>2024-04-01T08:21:11Z</time>
            </trkpt>
            <trkpt lat="44.520190" lon="7.900660">
                <time>2024-04-01T08:21:12Z</time>
            </trkpt>
            <trkpt lat="44.520380" lon="7.900610">
                <time>2024-04-01T08:21:13Z</time>
            </trkpt>
            <trkpt lat="44.520580" lon="7.900560">
                <time>2024-04-01T08:21:14Z</time>
            </trkpt>
            <trkpt lat="44.520770" lon="7.900510">
                <time>2024-04-01T08:21:15Z</time>
            </trkpt>
            <trkpt lat="44.520960" lon="7.900460">
                <time>2024-04-01T08:21:16Z</time>
            </trkpt>
            <trkpt lat="44.521160" lon="7.900420">
                <time>2024-04-01T08:21:17Z</time>
            </trkpt>
            <trkpt lat="44.521350" lon="7.900370">
                <time>2024-04-01T08:21:18Z</time>
            </trkpt>
            <trkpt lat="44.521540" lon="7.900340">
                <time>2024-04-01T08:21:19Z</time>
            </trkpt>
            <trkpt lat="44.521720" lon="7.900310">
                <time>2024-04-01T08:21:20Z</time>
            </trkpt>
            <trkpt lat="44.521900" lon="7.900280">
                <time>2024-04-01T08:21:21Z</time>
            </trkpt>
            <trkpt lat="44.522080" lon="7.900260">
                <time>2024-04-01T08:21:22Z</time>
            </trkpt>
            <trkpt lat="44.522260" lon="7.900240">
                <time>2024-04-01T08:21:23Z</time>
            </trkpt>
            <trkpt lat="44.522440" lon="7.900210">
                <time>2024-04-01T08:21:24Z</time>
            </trkpt>
            <trkpt lat="44.522630" lon="7.900180">
                <time>2024-04-01T08:21:25Z</time>
            </trkpt>
            <trkpt lat="44.522830" lon="7.900160">
                <time>2024-04-01T08:21:26Z</time>
            </trkpt>
            <trkpt lat="44.523020" lon="7.900140">
                <time>2024-04-01T08:21:27Z</time>
            </trkpt>
            <trkpt lat="44.523220" lon="7.900120">
                <time>2024-04-01T08:21:28Z</time>
            </trkpt>
            <trkpt lat="44.523430" lon="7.900110">
                <time>2024-04-01T08:21:29Z</time>
            </trkpt>
            <trkpt lat="44.523650" lon="7.900100">
                <time>2024-04-01T08:21:30Z</time>
            </trkpt>
            <trkpt lat="44.523870" lon="7.900090">
                <time>2024-04-01T08:21:31Z</time>
            </trkpt>
            <trkpt lat="44.524090" lon="7.900090">
                <time>2024-04-01T08:21:32Z</time>
            </trkpt>
            <trkpt lat="44.524300" lon="7.900090">
                <time>2024-04-01T08:21:33Z</time>
            </trkpt>
            <trkpt lat="44.524520" lon="7.900080">
                <time>2024-04-01T08:21:34Z</time>
            </trkpt>
            <trkpt lat="44.524720" lon="7.900080">
                <time>2024-04-01T08:21:35Z</time>
            </trkpt>
            <trkpt lat="44.524920" lon="7.900070">
                <time>2024-04-01T08:21:36Z</time>
            </trkpt>
            <trkpt lat="44.525110" lon="7.900070">
                <time>2024-04-01T08:21:37Z</time>
            </trkpt>
            <trkpt lat="44.525300" lon="7.900070">
                <time>2024-04-01T08:21:38Z</time>
            </trkpt>
            <trkpt lat="44.525490" lon="7.900060">
                <time>2024-04-01T08:21:39Z</time>
            </trkpt>
            <trkpt lat="44.525660" lon="7.900060">
                <time>2024-04-01T08:21:40Z</time>
            </trkpt>
            <trkpt lat="44.525830" lon="7.900060">
                <time>2024-04-01T08:21:41Z</time>
            </trkpt>
            <trkpt lat="44.526000" lon="7.900060">
                <time>2024-04-01T08:21:42Z</time>
            </trkpt>
            <trkpt lat="44.526160" lon="7.900050">
                <time>2024-04-01T08:21:43Z</time>
            </trkpt>
            <trkpt lat="44.526320" lon="7.900050">
                <time>2024-04-01T08:21:44Z</time>
            </trkpt>
            <trkpt lat="44.526480" lon="7.900050">
                <time>2024-04-01T08:21:45Z</time>
            </trkpt>
            <trkpt lat="44.526630" lon="7.900050">
                <time>2024-04-01T08:21:46Z</time>
            </trkpt>
            <trkpt lat="44.526790" lon="7.900040">
                <time>2024-04-01T08:21:47Z</time>
            </trkpt>
            <trkpt lat="44.526940" lon="7.900040">
                <time>2024-04-01T08:21:48Z</time>
            </trkpt>
            <trkpt lat="44.527080" lon="7.900040">
                <time>2024-04-01T08:21:49Z</time>
            </trkpt>
            <trkpt lat="44.527210" lon="7.900030">
                <time>2024-04-01T08:21:50Z</time>
            </trkpt>
            <trkpt lat="44.527340" lon="7.900030">
                <time>2024-04-01T08:21:51Z</time>
            </trkpt>
            <trkpt lat="44.527470" lon="7.900030">
                <time>2024-04-01T08:21:52Z</time>
            </trkpt>
            <trkpt lat="44.527590" lon="7.900030">
                <time>2024-04-01T08:21:53Z</time>
            </trkpt>
            <trkpt lat="44.527720" lon="7.900040">
                <time>2024-04-01T08:21:54Z</time>
            </trkpt>
            <trkpt lat="44.527850" lon="7.900040">
                <time>2024-04-01T08:21:55Z</time>
            </trkpt>
            <trkpt lat="44.527980" lon="7.900040">
                <time>2024-04-01T08:21:56Z</time>
            </trkpt>
            <trkpt lat="44.528110" lon="7.900040">
                <time>2024-04-01T08:21:57Z</time>
            </trkpt>
            <trkpt lat="44.528240" lon="7.900040">
                <time>2024-04-01T08:21:58Z</time>
            </trkpt>
            <trkpt lat="44.528370" lon="7.900040">
                <time>2024-04-01T08:21:59Z</time>
            </trkpt>
            <trkpt lat="44.528510" lon="7.900030">
                <time>2024-04-01T08:22:00Z</time>
            </trkpt>
            <trkpt lat="44.528640" lon="7.900020">
                <time>2024-04-01T08:22:01Z</time>
            </trkpt>
            <trkpt lat="44.528780" lon="7.900010">
                <time>2024-04-01T08:22:02Z</time>
            </trkpt>
            <trkpt lat="44.528930" lon="7.900000">
                <time>2024-04-01T08:22:03Z</time>
            </trkpt>
            <trkpt lat="44.529100" lon="7.899990">
                <time>2024-04-01T08:22:04Z</time>
            </trkpt>
            <trkpt lat="44.529280" lon="7.899980">
                <time>2024-04-01T08:22:05Z</time>
            </trkpt>
            <trkpt lat="44.529480" lon="7.899970">
                <time>2024-04-01T08:22:06Z</time>
            </trkpt>
            <trkpt lat="44.529690" lon="7.899960">
                <time>2024-04-01T08:22:07Z</time>
            </trkpt>
            <trkpt lat="44.529920" lon="7.899960">
                <time>2024-04-01T08:22:08Z</time>
            </trkpt>
            <trkpt lat="44.530150" lon="7.899960">
                <time>2024-04-01T08:22:09Z</time>
            </trkpt>
            <trkpt lat="44.530390" lon="7.899950">
                <time>2024-04-01T08:22:10Z</time>
            </trkpt>
            <trkpt lat="44.530630" lon="7.899940">
                <time>2024-04-01T08:22:11Z</time>
            </trkpt>
            <trkpt lat="44.530870" lon="7.899940">
                <time>2024-04-01T08:22:12Z</time>
            </trkpt>
            <trkpt lat="44.531110" lon="7.899930">
                <time>2024-04-01T08:22:13Z</time>
            </trkpt>
            <trkpt lat="44.531340" lon="7.899930">
                <time>2024-04-01T08:22:14Z</time>
            </trkpt>
            <trkpt lat="44.531560" lon="7.899930">
                <time>2024-04-01T08:22:15Z</time>
            </trkpt>
            <trkpt lat="44.531780" lon="7.899940">
                <time>2024-04-01T08:22:16Z</time>
            </trkpt>
            <trkpt lat="44.532000" lon="7.899940">
                <time>2024-04-01T08:22:17Z</time>
            </trkpt>
            <trkpt lat="44.532230" lon="7.899940">
                <time>2024-04-01T08:22:18Z</time>
            </trkpt>
            <trkpt lat="44.532460" lon="7.899930">
                <time>2024-04-01T08:22:19Z</time>
            </trkpt>
            <trkpt lat="44.532690" lon="7.899930">
                <time>2024-04-01T08:22:20Z</time>
            </trkpt>
            <trkpt lat="44.532920" lon="7.899930">
                <time>2024-04-01T08:22:21Z</time>
            </trkpt>
            <trkpt lat="44.533160" lon="7.899930">
                <time>2024-04-01T08:22:22Z</time>
            </trkpt>
            <trkpt lat="44.533390" lon="7.899920">
                <time>2024-04-01T08:22:23Z</time>
            </trkpt>
            <trkpt lat="44.533630" lon="7.899920">
                <time>2024-04-01T08:22:24Z</time>
            </trkpt>
            <trkpt lat="44.533860" lon="7.899920">
                <time>2024-04-01T08:22:25Z</time>
            </trkpt>
            <trkpt lat="44.534100" lon="7.899910">
                <time>2024-04-01T08:22:26Z</time>
            </trkpt>
            <trkpt lat="44.534350" lon="7.899910">
                <time>2024-04-01T08:22:27Z</time>
            </trkpt>
            <trkpt lat="44.534580" lon="7.899910">
                <time>2024-04-01T08:22:28Z</time>
            </trkpt>
            <trkpt lat="44.534820" lon="7.899910">
                <time>2024-04-01T08:22:29Z</time>
            </trkpt>
            <trkpt lat="44.535060" lon="7.899900">
                <time>2024-04-01T08:22:30Z</time>
            </trkpt>
            <trkpt lat="44.535290" lon="7.899900">
                <time>2024-04-01T08:22:31Z</time>
            </trkpt>
            <trkpt lat="44.535520" lon="7.899900">
                <time>2024-04-01T08:22:32Z</time>
            </trkpt>
            <trkpt lat="44.535760" lon="7.899890">
                <time>2024-04-01T08:22:33Z</time>
            </trkpt>
            <trkpt lat="44.535990" lon="7.899890">
                <time>2024-04-01T08:22:34Z</time>
            </trkpt>
            <trkpt lat="44.536220" lon="7.899880">
                <time>2024-04-01T08:22:35Z</time>
            </trkpt>
            <trkpt lat="44.536440" lon="7.899880">
                <time>2024-04-01T08:22:36Z</time>
            </trkpt>
            <trkpt lat="44.536660" lon="7.899880">
                <time>2024-04-01T08:22:37Z</time>
            </trkpt>
            <trkpt lat="44.536890" lon="7.899870">
                <time>2024-04-01T08:22:38Z</time>
            </trkpt>
            <trkpt lat="44.537110" lon="7.899860">
                <time>2024-04-01T08:22:39Z</time>
            </trkpt>
            <trkpt lat="44.537330" lon="7.899830">
                <time>2024-04-01T08:22:40Z</time>
            </trkpt>
            <trkpt lat="44.537560" lon="7.899800">
                <time>2024-04-01T08:22:41Z</time>
            </trkpt>
            <trkpt lat="44.537780" lon="7.899770">
                <time>2024-04-01T08:22:42Z</time>
            </trkpt>
            <trkpt lat="44.538010" lon="7.899720">
                <time>2024-04-01T08:22:43Z</time>
            </trkpt>
            <trkpt lat="44.538240" lon="7.899660">
                <time>2024-04-01T08:22:44Z</time>
            </trkpt>
            <trkpt lat="44.538470" lon="7.899600">
                <time>2024-04-01T08:22:45Z</time>
            </trkpt>
            <trkpt lat="44.538710" lon="7.899540">
                <time>2024-04-01T08:22:46Z</time>
            </trkpt>
            <trkpt lat="44.538930" lon="7.899470">
                <time>2024-04-01T08:22:47Z</time>
            </trkpt>
            <trkpt lat="44.539160" lon="7.899390">
                <time>2024-04-01T08:22:48Z</time>
            </trkpt>
            <trkpt lat="44.539370" lon="7.899330">
                <time>2024-04-01T08:22:49Z</time>
            </trkpt>
            <trkpt lat="44.539580" lon="7.899260">
                <time>2024-04-01T08:22:50Z</time>
            </trkpt>
            <trkpt lat="44.539790" lon="7.899200">
                <time>2024-04-01T08:22:51Z</time>
            </trkpt>
            <trkpt lat="44.539990" lon="7.899140">
                <time>2024-04-01T08:22:52Z</time>
            </trkpt>
            <trkpt lat="44.540190" lon="7.899070">
                <time>2024-04-01T08:22:53Z</time>
            </trkpt>
            <trkpt lat="44.540400" lon="7.899010">
                <time>2024-04-01T08:22:54Z</time>
            </trkpt>
            <trkpt lat="44.540600" lon="7.898950">
                <time>2024-04-01T08:22:55Z</time>
            </trkpt>
            <trkpt lat="44.540810" lon="7.898890">
                <time>2024-04-01T08:22:56Z</time>
            </trkpt>
            <trkpt lat="44.541010" lon="7.898820">
                <time>2024-04-01T08:22:57Z</time>
            </trkpt>
            <trkpt lat="44.541230" lon="7.898750">
                <time>2024-04-01T08:22:58Z</time>
            </trkpt>
            <trkpt lat="44.541450" lon="7.898680">
                <time>2024-04-01T08:22:59Z</time>
            </trkpt>
            <trkpt lat="44.541670" lon="7.898610">
                <time>2024-04-01T08:23:00Z</time>
            </trkpt>
            <trkpt lat="44.541890" lon="7.898540">
                <time>2024-04-01T08:23:01Z</time>
            </trkpt>
            <trkpt lat="44.542120" lon="7.898470">
                <time>2024-04-01T08:23:02Z</time>
            </trkpt>
            <trkpt lat="44.542350" lon="7.898400">
                <time>2024-04-01T08:23:03Z</time>
            </trkpt>
            <trkpt lat="44.542570" lon="7.898330">
                <time>2024-04-01T08:23:04Z</time>
            </trkpt>
            <trkpt lat="44.542800" lon="7.898260">
                <time>2024-04-01T08:23:05Z</time>
            </trkpt>
            <trkpt lat="44.543020" lon="7.898190">
                <time>2024-04-01T08:23:06Z</time>
            </trkpt>
            <trkpt lat="44.543230" lon="7.898120">
                <time>2024-04-01T08:23:07Z</time>
            </trkpt>
            <trkpt lat="44.543450" lon="7.898050">
                <time>2024-04-01T08:23:08Z</time>
            </trkpt>
            <trkpt lat="44.543670" lon="7.897990">
                <time>2024-04-01T08:23:09Z</time>
            </trkpt>
            <trkpt lat="44.543890" lon="7.897930">
                <time>2024-04-01T08:23:10Z</time>
            </trkpt>
            <trkpt lat="44.544100" lon="7.897860">
                <time>2024-04-01T08:23:11Z</time>
            </trkpt>
            <trkpt lat="44.544320" lon="7.897800">
                <time>2024-04-01T08:23:12Z</time>
            </trkpt>
            <trkpt lat="44.544540" lon="7.897730">
                <time>2024-04-01T08:23:13Z</time>
            </trkpt>
            <trkpt lat="44.544750" lon="7.897660">
                <time>2024-04-01T08:23:14Z</time>
            </trkpt>
            <trkpt lat="44.544970" lon="7.897600">
                <time>2024-04-01T08:23:15Z</time>
            </trkpt>
            <trkpt lat="44.545180" lon="7.897530">
                <time>2024-04-01T08:23:16Z</time>
            </trkpt>
            <trkpt lat="44.545380" lon="7.897470">
                <time>2024-04-01T08:23:17Z</time>
            </trkpt>
            <trkpt lat="44.545590" lon="7.897410">
                <time>2024-04-01T08:23:18Z</time>
            </trkpt>
            <trkpt lat="44.545800" lon="7.897340">
                <time>2024-04-01T08:23:19Z</time>
            </trkpt>
            <trkpt lat="44.546000" lon="7.897280">
                <time>2024-04-01T08:23:20Z</time>
            </trkpt>
            <trkpt lat="44.546210" lon="7.897220">
                <time>2024-04-01T08:23:21Z</time>
            </trkpt>
            <trkpt lat="44.546410" lon="7.897150">
                <time>2024-04-01T08:23:22Z</time>
            </trkpt>
            <trkpt lat="44.546620" lon="7.897090">
                <time>2024-04-01T08:23:23Z</time>
            </trkpt>
            <trkpt lat="44.546820" lon="7.897030">
                <time>2024-04-01T08:23:24Z</time>
            </trkpt>
            <trkpt lat="44.547030" lon="7.896970">
                <time>2024-04-01T08:23:25Z</time>
            </trkpt>
            <trkpt lat="44.547230" lon="7.896910">
                <time>2024-04-01T08:23:26Z</time>
            </trkpt>
            <trkpt lat="44.547440" lon="7.896860">
                <time>2024-04-01T08:23:27Z</time>
            </trkpt>
            <trkpt lat="44.547650" lon="7.896820">
                <time>2024-04-01T08:23:28Z</time>
            </trkpt>
            <trkpt lat="44.547870" lon="7.896780">
                <time>2024-04-01T08:23:29Z</time>
            </trkpt>
            <trkpt lat="44.548080" lon="7.896750">
                <time>2024-04-01T08:23:30Z</time>
            </trkpt>
            <trkpt lat="44.548290" lon="7.896740">
                <time>2024-04-01T08:23:31Z</time>
            </trkpt>
            <trkpt lat="44.548490" lon="7.896730">
                <time>2024-04-01T08:23:32Z</time>
            </trkpt>
            <trkpt lat="44.548690" lon="7.896720">
                <time>2024-04-01T08:23:33Z</time>
            </trkpt>
            <trkpt lat="44.548880" lon="7.896720">
                <time>2024-04-01T08:23:34Z</time>
            </trkpt>
            <trkpt lat="44.549070" lon="7.896730">
                <time>2024-04-01T08:23:35Z</time>
            </trkpt>
            <trkpt lat="44.549260" lon="7.896740">
                <time>2024-04-01T08:23:36Z</time>
            </trkpt>
            <trkpt lat="44.549450" lon="7.896770">
                <time>2024-04-01T08:23:37Z</time>
            </trkpt>
            <trkpt lat="44.549640" lon="7.896790">
                <time>2024-04-01T08:23:38Z</time>
            </trkpt>
            <trkpt lat="44.549820" lon="7.896820">
                <time>2024-04-01T08:23:39Z</time>
            </trkpt>
            <trkpt lat="44.550010" lon="7.896850">
                <time>2024-04-01T08:23:40Z</time>
            </trkpt>
            <trkpt lat="44.550200" lon="7.896890">
                <time>2024-04-01T08:23:41Z</time>
            </trkpt>
            <trkpt lat="44.550390" lon="7.896920">
                <time>2024-04-01T08:23:42Z</time>
            </trkpt>
            <trkpt lat="44.550580" lon="7.896960">
                <time>2024-04-01T08:23:43Z</time>
            </trkpt>
            <trkpt lat="44.550770" lon="7.897000">
                <time>2024-04-01T08:23:44Z</time>
            </trkpt>
            <trkpt lat="44.550970" lon="7.897030">
                <time>2024-04-01T08:23:45Z</time>
            </trkpt>
            <trkpt lat="44.551170" lon="7.897060">
                <time>2024-04-01T08:23:46Z</time>
            </trkpt>
            <trkpt lat="44.551370" lon="7.897100">
                <time>2024-04-01T08:23:47Z</time>
            </trkpt>
            <trkpt lat="44.551570" lon="7.897140">
                <time>2024-04-01T08:23:48Z</time>
            </trkpt>
            <trkpt lat="44.551780" lon="7.897170">
                <time>2024-04-01T08:23:49Z</time>
            </trkpt>
            <trkpt lat="44.551980" lon="7.897210">
                <time>2024-04-01T08:23:50Z</time>
            </trkpt>
            <trkpt lat="44.552190" lon="7.897250">
                <time>2024-04-01T08:23:51Z</time>
            </trkpt>
            <trkpt lat="44.552390" lon="7.897290">
                <time>2024-04-01T08:23:52Z</time>
            </trkpt>
            <trkpt lat="44.552590" lon="7.897330">
                <time>2024-04-01T08:23:53Z</time>
            </trkpt>
            <trkpt lat="44.552800" lon="7.897360">
                <time>2024-04-01T08:23:54Z</time>
            </trkpt>
            <trkpt lat="44.553000" lon="7.897400">
                <time>2024-04-01T08:23:55Z</time>
            </trkpt>
            <trkpt lat="44.553210" lon="7.897430">
                <time>2024-04-01T08:23:56Z</time>
            </trkpt>
            <trkpt lat="44.553420" lon="7.897460">
                <time>2024-04-01T08:23:57Z</time>
            </trkpt>
            <trkpt lat="44.553630" lon="7.897500">
                <time>2024-04-01T08:23:58Z</time>
            </trkpt>
            <trkpt lat="44.553840" lon="7.897540">
                <time>2024-04-01T08:23:59Z</time>
            </trkpt>
            <trkpt lat="44.554050" lon="7.897570">
                <time>2024-04-01T08:24:00Z</time>
            </trkpt>
            <trkpt lat="44.554250" lon="7.897610">
                <time>2024-04-01T08:24:01Z</time>
            </trkpt>
            <trkpt lat="44.554460" lon="7.897640">
                <time>2024-04-01T08:24:02Z</time>
            </trkpt>
            <trkpt lat="44.554660" lon="7.897680">
                <time>2024-04-01T08:24:03Z</time>
            </trkpt>
            <trkpt lat="44.554860" lon="7.897710">
                <time>2024-04-01T08:24:04Z</time>
            </trkpt>
            <trkpt lat="44.555070" lon="7.897730">
                <time>2024-04-01T08:24:05Z</time>
            </trkpt>
            <trkpt lat="44.555280" lon="7.897750">
                <time>2024-04-01T08:24:06Z</time>
            </trkpt>
            <trkpt lat="44.555490" lon="7.897770">
                <time>2024-04-01T08:24:07Z</time>
            </trkpt>
            <trkpt lat="44.555710" lon="7.897770">
                <time>2024-04-01T08:24:08Z</time>
            </trkpt>
            <trkpt lat="44.555930" lon="7.897770">
                <time>2024-04-01T08:24:09Z</time>
            </trkpt>
            <trkpt lat="44.556160" lon="7.897760">
                <time>2024-04-01T08:24:10Z</time>
            </trkpt>
            <trkpt lat="44.556380" lon="7.897740">
                <time>2024-04-01T08:24:11Z</time>
            </trkpt>
            <trkpt lat="44.556610" lon="7.897720">
                <time>2024-04-01T08:24:12Z</time>
            </trkpt>
            <trkpt lat="44.556840" lon="7.897700">
                <time>2024-04-01T08:24:13Z</time>
            </trkpt>
            <trkpt lat="44.557080" lon="7.897660">
                <time>2024-04-01T08:24:14Z</time>
            </trkpt>
            <trkpt lat="44.557310" lon="7.897620">
                <time>2024-04-01T08:24:15Z</time>
            </trkpt>
            <trkpt lat="44.557550" lon="7.897580">
                <time>2024-04-01T08:24:16Z</time>
            </trkpt>
            <trkpt lat="44.557780" lon="7.897550">
                <time>2024-04-01T08:24:17Z</time>
            </trkpt>
            <trkpt lat="44.558010" lon="7.897500">
                <time>2024-04-01T08:24:18Z</time>
            </trkpt>
            <trkpt lat="44.558230" lon="7.897470">
                <time>2024-04-01T08:24:19Z</time>
            </trkpt>
            <trkpt lat="44.558430" lon="7.897430">
                <time>2024-04-01T08:24:20Z</time>
            </trkpt>
            <trkpt lat="44.558640" lon="7.897390">
                <time>2024-04-01T08:24:21Z</time>
            </trkpt>
            <trkpt lat="44.558840" lon="7.897360">
                <time>2024-04-01T08:24:22Z</time>
            </trkpt>
            <trkpt lat="44.559050" lon="7.897320">
                <time>2024-04-01T08:24:23Z</time>
            </trkpt>
            <trkpt lat="44.559260" lon="7.897290">
                <time>2024-04-01T08:24:24Z</time>
            </trkpt>
            <trkpt lat="44.559470" lon="7.897260">
                <time>2024-04-01T08:24:25Z</time>
            </trkpt>
            <trkpt lat="44.559690" lon="7.897220">
                <time>2024-04-01T08:24:26Z</time>
            </trkpt>
            <trkpt lat="44.559910" lon="7.897190">
                <time>2024-04-01T08:24:27Z</time>
            </trkpt>
            <trkpt lat="44.560130" lon="7.897140">
                <time>2024-04-01T08:24:28Z</time>
            </trkpt>
            <trkpt lat="44.560350" lon="7.897110">
                <time>2024-04-01T08:24:29Z</time>
            </trkpt>
            <trkpt lat="44.560560" lon="7.897070">
                <time>2024-04-01T08:24:30Z</time>
            </trkpt>
            <trkpt lat="44.560760" lon="7.897040">
                <time>2024-04-01T08:24:31Z</time>
            </trkpt>
            <trkpt lat="44.560960" lon="7.897000">
                <time>2024-04-01T08:24:32Z</time>
            </trkpt>
            <trkpt lat="44.561160" lon="7.896970">
                <time>2024-04-01T08:24:33Z</time>
            </trkpt>
            <trkpt lat="44.561370" lon="7.896940">
                <time>2024-04-01T08:24:34Z</time>
            </trkpt>
            <trkpt lat="44.561570" lon="7.896900">
                <time>2024-04-01T08:24:35Z</time>
            </trkpt>
            <trkpt lat="44.561770" lon="7.896880">
                <time>2024-04-01T08:24:36Z</time>
            </trkpt>
            <trkpt lat="44.561960" lon="7.896840">
                <time>2024-04-01T08:24:37Z</time>
            </trkpt>
            <trkpt lat="44.562140" lon="7.896810">
                <time>2024-04-01T08:24:38Z</time>
            </trkpt>
            <trkpt lat="44.562310" lon="7.896780">
                <time>2024-04-01T08:24:39Z</time>
            </trkpt>
            <trkpt lat="44.562480" lon="7.896750">
                <time>2024-04-01T08:24:40Z</time>
            </trkpt>
            <trkpt lat="44.562650" lon="7.896740">
                <time>2024-04-01T08:24:41Z</time>
            </trkpt>
            <trkpt lat="44.562810" lon="7.896730">
                <time>2024-04-01T08:24:42Z</time>
            </trkpt>
            <trkpt lat="44.562970" lon="7.896720">
                <time>2024-04-01T08:24:43Z</time>
            </trkpt>
            <trkpt lat="44.563120" lon="7.896720">
                <time>2024-04-01T08:24:44Z</time>
            </trkpt>
            <trkpt lat="44.563270" lon="7.896720">
                <time>2024-04-01T08:24:45Z</time>
            </trkpt>
            <trkpt lat="44.563420" lon="7.896720">
                <time>2024-04-01T08:24:46Z</time>
            </trkpt>
            <trkpt lat="44.563550" lon="7.896730">
                <time>2024-04-01T08:24:47Z</time>
            </trkpt>
            <trkpt lat="44.563670" lon="7.896740">
                <time>2024-04-01T08:24:48Z</time>
            </trkpt>
            <trkpt lat="44.563770" lon="7.896760">
                <time>2024-04-01T08:24:49Z</time>
            </trkpt>
            <trkpt lat="44.563870" lon="7.896800">
                <time>2024-04-01T08:24:50Z</time>
            </trkpt>
            <trkpt lat="44.563950" lon="7.896870">
                <time>2024-04-01T08:24:51Z</time>
            </trkpt>
            <trkpt lat="44.564030" lon="7.896960">
                <time>2024-04-01T08:24:52Z</time>
            </trkpt>
            <trkpt lat="44.564100" lon="7.897030">
                <time>2024-04-01T08:24:53Z</time>
            </trkpt>
            <trkpt lat="44.564190" lon="7.897090">
                <time>2024-04-01T08:24:54Z</time>
            </trkpt>
            <trkpt lat="44.564270" lon="7.897100">
                <time>2024-04-01T08:24:55Z</time>
            </trkpt>
            <trkpt lat="44.564350" lon="7.897070">
                <time>2024-04-01T08:24:56Z</time>
            </trkpt>
            <trkpt lat="44.564430" lon="7.897010">
                <time>2024-04-01T08:24:57Z</time>
            </trkpt>
            <trkpt lat="44.564520" lon="7.896940">
                <time>2024-04-01T08:24:58Z</time>
            </trkpt>
            <trkpt lat="44.564620" lon="7.896880">
                <time>2024-04-01T08:24:59Z</time>
            </trkpt>
            <trkpt lat="44.564720" lon="7.896850">
                <time>2024-04-01T08:25:00Z</time>
            </trkpt>
            <trkpt lat="44.564840" lon="7.896860">
                <time>2024-04-01T08:25:01Z</time>
            </trkpt>
            <trkpt lat="44.564960" lon="7.896900">
                <time>2024-04-01T08:25:02Z</time>
            </trkpt>
            <trkpt lat="44.565100" lon="7.896990">
                <time>2024-04-01T08:25:03Z</time>
            </trkpt>
            <trkpt lat="44.565250" lon="7.897090">
                <time>2024-04-01T08:25:04Z</time>
            </trkpt>
            <trkpt lat="44.565390" lon="7.897190">
                <time>2024-04-01T08:25:05Z</time>
            </trkpt>
            <trkpt lat="44.565550" lon="7.897300">
                <time>2024-04-01T08:25:06Z</time>
            </trkpt>
            <trkpt lat="44.565710" lon="7.897420">
                <time>2024-04-01T08:25:07Z</time>
            </trkpt>
            <trkpt lat="44.565870" lon="7.897540">
                <time>2024-04-01T08:25:08Z</time>
            </trkpt>
            <trkpt lat="44.566040" lon="7.897670">
                <time>2024-04-01T08:25:09Z</time>
            </trkpt>
            <trkpt lat="44.566200" lon="7.897820">
                <time>2024-04-01T08:25:10Z</time>
            </trkpt>
            <trkpt lat="44.566370" lon="7.897960">
                <time>2024-04-01T08:25:11Z</time>
            </trkpt>
            <trkpt lat="44.566530" lon="7.898120">
                <time>2024-04-01T08:25:12Z</time>
            </trkpt>
            <trkpt lat="44.566690" lon="7.898280">
                <time>2024-04-01T08:25:13Z</time>
            </trkpt>
            <trkpt lat="44.566840" lon="7.898460">
                <time>2024-04-01T08:25:14Z</time>
            </trkpt>
            <trkpt lat="44.566990" lon="7.898650">
                <time>2024-04-01T08:25:15Z</time>
            </trkpt>
            <trkpt lat="44.567140" lon="7.898850">
                <time>2024-04-01T08:25:16Z</time>
            </trkpt>
            <trkpt lat="44.567280" lon="7.899060">
                <time>2024-04-01T08:25:17Z</time>
            </trkpt>
            <trkpt lat="44.567430" lon="7.899280">
                <time>2024-04-01T08:25:18Z</time>
            </trkpt>
            <trkpt lat="44.567580" lon="7.899510">
                <time>2024-04-01T08:25:19Z</time>
            </trkpt>
            <trkpt lat="44.567740" lon="7.899750">
                <time>2024-04-01T08:25:20Z</time>
            </trkpt>
            <trkpt lat="44.567900" lon="7.900000">
                <time>2024-04-01T08:25:21Z</time>
            </trkpt>
            <trkpt lat="44.568060" lon="7.900250">
                <time>2024-04-01T08:25:22Z</time>
            </trkpt>
            <trkpt lat="44.568220" lon="7.900510">
                <time>2024-04-01T08:25:23Z</time>
            </trkpt>
            <trkpt lat="44.568380" lon="7.900750">
                <time>2024-04-01T08:25:24Z</time>
            </trkpt>
            <trkpt lat="44.568530" lon="7.901000">
                <time>2024-04-01T08:25:25Z</time>
            </trkpt>
            <trkpt lat="44.568680" lon="7.901230">
                <time>2024-04-01T08:25:26Z</time>
            </trkpt>
            <trkpt lat="44.568840" lon="7.901460">
                <time>2024-04-01T08:25:27Z</time>
            </trkpt>
            <trkpt lat="44.568990" lon="7.901690">
                <time>2024-04-01T08:25:28Z</time>
            </trkpt>
            <trkpt lat="44.569150" lon="7.901930">
                <time>2024-04-01T08:25:29Z</time>
            </trkpt>
            <trkpt lat="44.569300" lon="7.902180">
                <time>2024-04-01T08:25:30Z</time>
            </trkpt>
            <trkpt lat="44.569460" lon="7.902430">
                <time>2024-04-01T08:25:31Z</time>
            </trkpt>
            <trkpt lat="44.569630" lon="7.902680">
                <time>2024-04-01T08:25:32Z</time>
            </trkpt>
            <trkpt lat="44.569790" lon="7.902930">
                <time>2024-04-01T08:25:33Z</time>
            </trkpt>
            <trkpt lat="44.569950" lon="7.903170">
                <time>2024-04-01T08:25:34Z</time>
            </trkpt>
            <trkpt lat="44.570110" lon="7.903430">
                <time>2024-04-01T08:25:35Z</time>
            </trkpt>
            <trkpt lat="44.570270" lon="7.903670">
                <time>2024-04-01T08:25:36Z</time>
            </trkpt>
            <trkpt lat="44.570420" lon="7.903920">
                <time>2024-04-01T08:25:37Z</time>
            </trkpt>
            <trkpt lat="44.570570" lon="7.904150">
                <time>2024-04-01T08:25:38Z</time>
            </trkpt>
            <trkpt lat="44.570720" lon="7.904380">
                <time>2024-04-01T08:25:39Z</time>
            </trkpt>
            <trkpt lat="44.570860" lon="7.904590">
                <time>2024-04-01T08:25:40Z</time>
            </trkpt>
            <trkpt lat="44.571000" lon="7.904800">
                <time>2024-04-01T08:25:41Z</time>
            </trkpt>
            <trkpt lat="44.571130" lon="7.905000">
                <time>2024-04-01T08:25:42Z</time>
            </trkpt>
            <trkpt lat="44.571270" lon="7.905200">
                <time>2024-04-01T08:25:43Z</time>
            </trkpt>
            <trkpt lat="44.571390" lon="7.905410">
                <time>2024-04-01T08:25:44Z</time>
            </trkpt>
            <trkpt lat="44.571530" lon="7.905610">
                <time>2024-04-01T08:25:45Z</time>
            </trkpt>
            <trkpt lat="44.571670" lon="7.905810">
                <time>2024-04-01T08:25:46Z</time>
            </trkpt>
            <trkpt lat="44.571800" lon="7.906020">
                <time>2024-04-01T08:25:47Z</time>
            </trkpt>
            <trkpt lat="44.571940" lon="7.906240">
                <time>2024-04-01T08:25:48Z</time>
            </trkpt>
            <trkpt lat="44.572080" lon="7.906460">
                <time>2024-04-01T08:25:49Z</time>
            </trkpt>
            <trkpt lat="44.572230" lon="7.906680">
                <time>2024-04-01T08:25:50Z</time>
            </trkpt>
            <trkpt lat="44.572370" lon="7.906900">
                <time>2024-04-01T08:25:51Z</time>
            </trkpt>
            <trkpt lat="44.572510" lon="7.907120">
                <time>2024-04-01T08:25:52Z</time>
            </trkpt>
            <trkpt lat="44.572650" lon="7.907340">
                <time>2024-04-01T08:25:53Z</time>
            </trkpt>
            <trkpt lat="44.572800" lon="7.907540">
                <time>2024-04-01T08:25:54Z</time>
            </trkpt>
            <trkpt lat="44.572940" lon="7.907750">
                <time>2024-04-01T08:25:55Z</time>
            </trkpt>
            <trkpt lat="44.573100" lon="7.907950">
                <time>2024-04-01T08:25:56Z</time>
            </trkpt>
            <trkpt lat="44.573270" lon="7.908140">
                <time>2024-04-01T08:25:57Z</time>
            </trkpt>
            <trkpt lat="44.573440" lon="7.908310">
                <time>2024-04-01T08:25:58Z</time>
            </trkpt>
            <trkpt lat="44.573610" lon="7.908480">
                <time>2024-04-01T08:25:59Z</time>
            </trkpt>
            <trkpt lat="44.573790" lon="7.908630">
                <time>2024-04-01T08:26:00Z</time>
            </trkpt>
            <trkpt lat="44.573960" lon="7.908780">
                <time>2024-04-01T08:26:01Z</time>
            </trkpt>
            <trkpt lat="44.574140" lon="7.908910">
                <time>2024-04-01T08:26:02Z</time>
            </trkpt>
            <trkpt lat="44.574330" lon="7.909030">
                <time>2024-04-01T08:26:03Z</time>
            </trkpt>
            <trkpt lat="44.574520" lon="7.909130">
                <time>2024-04-01T08:26:04Z</time>
            </trkpt>
            <trkpt lat="44.574710" lon="7.909220">
                <time>2024-04-01T08:26:05Z</time>
            </trkpt>
            <trkpt lat="44.574910" lon="7.909300">
                <time>2024-04-01T08:26:06Z</time>
            </trkpt>
            <trkpt lat="44.575110" lon="7.909370">
                <time>2024-04-01T08:26:07Z</time>
            </trkpt>
            <trkpt lat="44.575310" lon="7.909430">
                <time>2024-04-01T08:26:08Z</time>
            </trkpt>
            <trkpt lat="44.575510" lon="7.909470">
                <time>2024-04-01T08:26:09Z</time>
            </trkpt>
            <trkpt lat="44.575710" lon="7.909500">
                <time>2024-04-01T08:26:10Z</time>
            </trkpt>
            <trkpt lat="44.575920" lon="7.909520">
                <time>2024-04-01T08:26:11Z</time>
            </trkpt>
            <trkpt lat="44.576120" lon="7.909530">
                <time>2024-04-01T08:26:12Z</time>
            </trkpt>
            <trkpt lat="44.576320" lon="7.909530">
                <time>2024-04-01T08:26:13Z</time>
            </trkpt>
            <trkpt lat="44.576520" lon="7.909520">
                <time>2024-04-01T08:26:14Z</time>
            </trkpt>
            <trkpt lat="44.576720" lon="7.909520">
                <time>2024-04-01T08:26:15Z</time>
            </trkpt>
            <trkpt lat="44.576910" lon="7.909510">
                <time>2024-04-01T08:26:16Z</time>
            </trkpt>
            <trkpt lat="44.577110" lon="7.909510">
                <time>2024-04-01T08:26:17Z</time>
            </trkpt>
            <trkpt lat="44.577310" lon="7.909500">
                <time>2024-04-01T08:26:18Z</time>
            </trkpt>
            <trkpt lat="44.577490" lon="7.909490">
                <time>2024-04-01T08:26:19Z</time>
            </trkpt>
            <trkpt lat="44.577670" lon="7.909490">
                <time>2024-04-01T08:26:20Z</time>
            </trkpt>
            <trkpt lat="44.577840" lon="7.909480">
                <time>2024-04-01T08:26:21Z</time>
            </trkpt>
            <trkpt lat="44.578000" lon="7.909470">
                <time>2024-04-01T08:26:22Z</time>
            </trkpt>
            <trkpt lat="44.578160" lon="7.909460">
                <time>2024-04-01T08:26:23Z</time>
            </trkpt>
            <trkpt lat="44.578330" lon="7.909460">
                <time>2024-04-01T08:26:24Z</time>
            </trkpt>
            <trkpt lat="44.578490" lon="7.909460">
                <time>2024-04-01T08:26:25Z</time>
            </trkpt>
            <trkpt lat="44.578650" lon="7.909450">
                <time>2024-04-01T08:26:26Z</time>
            </trkpt>
            <trkpt lat="44.578810" lon="7.909450">
                <time>2024-04-01T08:26:27Z</time>
            </trkpt>
            <trkpt lat="44.578970" lon="7.909430">
                <time>2024-04-01T08:26:28Z</time>
            </trkpt>
            <trkpt lat="44.579120" lon="7.909420">
                <time>2024-04-01T08:26:29Z</time>
            </trkpt>
            <trkpt lat="44.579280" lon="7.909390">
                <time>2024-04-01T08:26:30Z</time>
            </trkpt>
            <trkpt lat="44.579430" lon="7.909360">
                <time>2024-04-01T08:26:31Z</time>
            </trkpt>
            <trkpt lat="44.579590" lon="7.909320">
                <time>2024-04-01T08:26:32Z</time>
            </trkpt>
            <trkpt lat="44.579740" lon="7.909280">
                <time>2024-04-01T08:26:33Z</time>
            </trkpt>
            <trkpt lat="44.579900" lon="7.909230">
                <time>2024-04-01T08:26:34Z</time>
            </trkpt>
            <trkpt lat="44.580040" lon="7.909180">
                <time>2024-04-01T08:26:35Z</time>
            </trkpt>
            <trkpt lat="44.580180" lon="7.909150">
                <time>2024-04-01T08:26:36Z</time>
            </trkpt>
            <trkpt lat="44.580300" lon="7.909110">
                <time>2024-04-01T08:26:37Z</time>
            </trkpt>
            <trkpt lat="44.580410" lon="7.909070">
                <time>2024-04-01T08:26:38Z</time>
            </trkpt>
            <trkpt lat="44.580510" lon="7.909050">
                <time>2024-04-01T08:26:39Z</time>
            </trkpt>
            <trkpt lat="44.580600" lon="7.909040">
                <time>2024-04-01T08:26:40Z</time>
            </trkpt>
            <trkpt lat="44.580680" lon="7.909070">
                <time>2024-04-01T08:26:41Z</time>
            </trkpt>
            <trkpt lat="44.580760" lon="7.909110">
                <time>2024-04-01T08:26:42Z</time>
            </trkpt>
            <trkpt lat="44.580840" lon="7.909140">
                <time>2024-04-01T08:26:43Z</time>
            </trkpt>
            <trkpt lat="44.580910" lon="7.909140">
                <time>2024-04-01T08:26:44Z</time>
            </trkpt>
            <trkpt lat="44.580970" lon="7.909110">
                <time>2024-04-01T08:26:45Z</time>
            </trkpt>
            <trkpt lat="44.581020" lon="7.909050">
                <time>2024-04-01T08:26:46Z</time>
            </trkpt>
            <trkpt lat="44.581050" lon="7.908970">
                <time>2024-04-01T08:26:47Z</time>
            </trkpt>
            <trkpt lat="44.581090" lon="7.908870">
                <time>2024-04-01T08:26:48Z</time>
            </trkpt>
            <trkpt lat="44.581120" lon="7.908760">
                <time>2024-04-01T08:26:49Z</time>
            </trkpt>
            <trkpt lat="44.581160" lon="7.908660">
                <time>2024-04-01T08:26:50Z</time>
            </trkpt>
            <trkpt lat="44.581220" lon="7.908570">
                <time>2024-04-01T08:26:51Z</time>
            </trkpt>
            <trkpt lat="44.581290" lon="7.908480">
                <time>2024-04-01T08:26:52Z</time>
            </trkpt>
            <trkpt lat="44.581370" lon="7.908400">
                <time>2024-04-01T08:26:53Z</time>
            </trkpt>
            <trkpt lat="44.581450" lon="7.908300">
                <time>2024-04-01T08:26:54Z</time>
            </trkpt>
            <trkpt lat="44.581530" lon="7.908190">
                <time>2024-04-01T08:26:55Z</time>
            </trkpt>
            <trkpt lat="44.581620" lon="7.908080">
                <time>2024-04-01T08:26:56Z</time>
            </trkpt>
            <trkpt lat="44.581720" lon="7.907950">
                <time>2024-04-01T08:26:57Z</time>
            </trkpt>
            <trkpt lat="44.581810" lon="7.907810">
                <time>2024-04-01T08:26:58Z</time>
            </trkpt>
            <trkpt lat="44.581920" lon="7.907660">
                <time>2024-04-01T08:26:59Z</time>
            </trkpt>
            <trkpt lat="44.582020" lon="7.907490">
                <time>2024-04-01T08:27:00Z</time>
            </trkpt>
            <trkpt lat="44.582130" lon="7.907300">
                <time>2024-04-01T08:27:01Z</time>
            </trkpt>
            <trkpt lat="44.582240" lon="7.907100">
                <time>2024-04-01T08:27:02Z</time>
            </trkpt>
            <trkpt lat="44.582350" lon="7.906910">
                <time>2024-04-01T08:27:03Z</time>
            </trkpt>
            <trkpt lat="44.582460" lon="7.906700">
                <time>2024-04-01T08:27:04Z</time>
            </trkpt>
            <trkpt lat="44.582570" lon="7.906490">
                <time>2024-04-01T08:27:05Z</time>
            </trkpt>
            <trkpt lat="44.582680" lon="7.906280">
                <time>2024-04-01T08:27:06Z</time>
            </trkpt>
            <trkpt lat="44.582800" lon="7.906070">
                <time>2024-04-01T08:27:07Z</time>
            </trkpt>
            <trkpt lat="44.582910" lon="7.905860">
                <time>2024-04-01T08:27:08Z</time>
            </trkpt>
            <trkpt lat="44.583020" lon="7.905660">
                <time>2024-04-01T08:27:09Z</time>
            </trkpt>
            <trkpt lat="44.583130" lon="7.905450">
                <time>2024-04-01T08:27:10Z</time>
            </trkpt>
            <trkpt lat="44.583250" lon="7.905240">
                <time>2024-04-01T08:27:11Z</time>
            </trkpt>
            <trkpt lat="44.583350" lon="7.905040">
                <time>2024-04-01T08:27:12Z</time>
            </trkpt>
            <trkpt lat="44.583460" lon="7.904840">
                <time>2024-04-01T08:27:13Z</time>
            </trkpt>
            <trkpt lat="44.583570" lon="7.904640">
                <time>2024-04-01T08:27:14Z</time>
            </trkpt>
            <trkpt lat="44.583660" lon="7.904450">
                <time>2024-04-01T08:27:15Z</time>
            </trkpt>
            <trkpt lat="44.583760" lon="7.904260">
                <time>2024-04-01T08:27:16Z</time>
            </trkpt>
            <trkpt lat="44.583860" lon="7.904070">
                <time>2024-04-01T08:27:17Z</time>
            </trkpt>
            <trkpt lat="44.583950" lon="7.903880">
                <time>2024-04-01T08:27:18Z</time>
            </trkpt>
            <trkpt lat="44.584040" lon="7.903700">
                <time>2024-04-01T08:27:19Z</time>
            </trkpt>
            <trkpt lat="44.584130" lon="7.903520">
                <time>2024-04-01T08:27:20Z</time>
            </trkpt>
            <trkpt lat="44.584220" lon="7.903360">
                <time>2024-04-01T08:27:21Z</time>
            </trkpt>
            <trkpt lat="44.584310" lon="7.903200">
                <time>2024-04-01T08:27:22Z</time>
            </trkpt>
            <trkpt lat="44.584400" lon="7.903030">
                <time>2024-04-01T08:27:23Z</time>
            </trkpt>
            <trkpt lat="44.584490" lon="7.902850">
                <time>2024-04-01T08:27:24Z</time>
            </trkpt>
            <trkpt lat="44.584590" lon="7.902670">
                <time>2024-04-01T08:27:25Z</time>
            </trkpt>
            <trkpt lat="44.584700" lon="7.902480">
                <time>2024-04-01T08:27:26Z</time>
            </trkpt>
            <trkpt lat="44.584810" lon="7.902270">
                <time>2024-04-01T08:27:27Z</time>
            </trkpt>
            <trkpt lat="44.584940" lon="7.902060">
                <time>2024-04-01T08:27:28Z</time>
            </trkpt>
            <trkpt lat="44.585070" lon="7.901850">
                <time>2024-04-01T08:27:29Z</time>
            </trkpt>
            <trkpt lat="44.585190" lon="7.901630">
                <time>2024-04-01T08:27:30Z</time>
            </trkpt>
            <trkpt lat="44.585330" lon="7.901400">
                <time>2024-04-01T08:27:31Z</time>
            </trkpt>
            <trkpt lat="44.585460" lon="7.901180">
                <time>2024-04-01T08:27:32Z</time>
            </trkpt>
            <trkpt lat="44.585590" lon="7.900950">
                <time>2024-04-01T08:27:33Z</time>
            </trkpt>
            <trkpt lat="44.585720" lon="7.900730">
                <time>2024-04-01T08:27:34Z</time>
            </trkpt>
            <trkpt lat="44.585850" lon="7.900500">
                <time>2024-04-01T08:27:35Z</time>
            </trkpt>
            <trkpt lat="44.585980" lon="7.900260">
                <time>2024-04-01T08:27:36Z</time>
            </trkpt>
            <trkpt lat="44.586110" lon="7.900010">
                <time>2024-04-01T08:27:37Z</time>
            </trkpt>
            <trkpt lat="44.586250" lon="7.899750">
                <time>2024-04-01T08:27:38Z</time>
            </trkpt>
            <trkpt lat="44.586400" lon="7.899480">
                <time>2024-04-01T08:27:39Z</time>
            </trkpt>
            <trkpt lat="44.586540" lon="7.899230">
                <time>2024-04-01T08:27:40Z</time>
            </trkpt>
            <trkpt lat="44.586680" lon="7.898970">
                <time>2024-04-01T08:27:41Z</time>
            </trkpt>
            <trkpt lat="44.586820" lon="7.898720">
                <time>2024-04-01T08:27:42Z</time>
            </trkpt>
            <trkpt lat="44.586960" lon="7.898470">
                <time>2024-04-01T08:27:43Z</time>
            </trkpt>
            <trkpt lat="44.587090" lon="7.898230">
                <time>2024-04-01T08:27:44Z</time>
            </trkpt>
            <trkpt lat="44.587230" lon="7.897990">
                <time>2024-04-01T08:27:45Z</time>
            </trkpt>
            <trkpt lat="44.587360" lon="7.897750">
                <time>2024-04-01T08:27:46Z</time>
            </trkpt>
            <trkpt lat="44.587490" lon="7.897520">
                <time>2024-04-01T08:27:47Z</time>
            </trkpt>
            <trkpt lat="44.587610" lon="7.897300">
                <time>2024-04-01T08:27:48Z</time>
            </trkpt>
            <trkpt lat="44.587730" lon="7.897080">
                <time>2024-04-01T08:27:49Z</time>
            </trkpt>
            <trkpt lat="44.587840" lon="7.896880">
                <time>2024-04-01T08:27:50Z</time>
            </trkpt>
            <trkpt lat="44.587950" lon="7.896680">
                <time>2024-04-01T08:27:51Z</time>
            </trkpt>
            <trkpt lat="44.588060" lon="7.896490">
                <time>2024-04-01T08:27:52Z</time>
            </trkpt>
            <trkpt lat="44.588170" lon="7.896310">
                <time>2024-04-01T08:27:53Z</time>
            </trkpt>
            <trkpt lat="44.588280" lon="7.896130">
                <time>2024-04-01T08:27:54Z</time>
            </trkpt>
            <trkpt lat="44.588390" lon="7.895970">
                <time>2024-04-01T08:27:55Z</time>
            </trkpt>
            <trkpt lat="44.588500" lon="7.895810">
                <time>2024-04-01T08:27:56Z</time>
            </trkpt>
            <trkpt lat="44.588610" lon="7.895670">
                <time>2024-04-01T08:27:57Z</time>
            </trkpt>
            <trkpt lat="44.588720" lon="7.895530">
                <time>2024-04-01T08:27:58Z</time>
            </trkpt>
            <trkpt lat="44.588840" lon="7.895400">
                <time>2024-04-01T08:27:59Z</time>
            </trkpt>
            <trkpt lat="44.588970" lon="7.895270">
                <time>2024-04-01T08:28:00Z</time>
            </trkpt>
            <trkpt lat="44.589100" lon="7.895150">
                <time>2024-04-01T08:28:01Z</time>
            </trkpt>
            <trkpt lat="44.589240" lon="7.895040">
                <time>2024-04-01T08:28:02Z</time>
            </trkpt>
            <trkpt lat="44.589370" lon="7.894930">
                <time>2024-04-01T08:28:03Z</time>
            </trkpt>
            <trkpt lat="44.589520" lon="7.894830">
                <time>2024-04-01T08:28:04Z</time>
            </trkpt>
            <trkpt lat="44.589660" lon="7.894740">
                <time>2024-04-01T08:28:05Z</time>
            </trkpt>
            <trkpt lat="44.589800" lon="7.894660">
                <time>2024-04-01T08:28:06Z</time>
            </trkpt>
            <trkpt lat="44.589950" lon="7.894590">
                <time>2024-04-01T08:28:07Z</time>
            </trkpt>
            <trkpt lat="44.590110" lon="7.894530">
                <time>2024-04-01T08:28:08Z</time>
            </trkpt>
            <trkpt lat="44.590260" lon="7.894470">
                <time>2024-04-01T08:28:09Z</time>
            </trkpt>
            <trkpt lat="44.590410" lon="7.894420">
                <time>2024-04-01T08:28:10Z</time>
            </trkpt>
            <trkpt lat="44.590560" lon="7.894380">
                <time>2024-04-01T08:28:11Z</time>
            </trkpt>
            <trkpt lat="44.590700" lon="7.894340">
                <time>2024-04-01T08:28:12Z</time>
            </trkpt>
            <trkpt lat="44.590830" lon="7.894310">
                <time>2024-04-01T08:28:13Z</time>
            </trkpt>
            <trkpt lat="44.590960" lon="7.894280">
                <time>2024-04-01T08:28:14Z</time>
            </trkpt>
            <trkpt lat="44.591100" lon="7.894240">
                <time>2024-04-01T08:28:15Z</time>
            </trkpt>
            <trkpt lat="44.591240" lon="7.894210">
                <time>2024-04-01T08:28:16Z</time>
            </trkpt>
            <trkpt lat="44.591370" lon="7.894180">
                <time>2024-04-01T08:28:17Z</time>
            </trkpt>
            <trkpt lat="44.591510" lon="7.894150">
                <time>2024-04-01T08:28:18Z</time>
            </trkpt>
            <trkpt lat="44.591640" lon="7.894120">
                <time>2024-04-01T08:28:19Z</time>
            </trkpt>
            <trkpt lat="44.591780" lon="7.894080">
                <time>2024-04-01T08:28:20Z</time>
            </trkpt>
            <trkpt lat="44.591920" lon="7.894050">
                <time>2024-04-01T08:28:21Z</time>
            </trkpt>
            <trkpt lat="44.592050" lon="7.894010">
                <time>2024-04-01T08:28:22Z</time>
            </trkpt>
            <trkpt lat="44.592190" lon="7.893980">
                <time>2024-04-01T08:28:23Z</time>
            </trkpt>
            <trkpt lat="44.592330" lon="7.893950">
                <time>2024-04-01T08:28:24Z</time>
            </trkpt>
            <trkpt lat="44.592470" lon="7.893930">
                <time>2024-04-01T08:28:25Z</time>
            </trkpt>
            <trkpt lat="44.592610" lon="7.893930">
                <time>2024-04-01T08:28:26Z</time>
            </trkpt>
            <trkpt lat="44.592750" lon="7.893930">
                <time>2024-04-01T08:28:27Z</time>
            </trkpt>
            <trkpt lat="44.592890" lon="7.893960">
                <time>2024-04-01T08:28:28Z</time>
            </trkpt>
            <trkpt lat="44.593030" lon="7.893980">
                <time>2024-04-01T08:28:29Z</time>
            </trkpt>
            <trkpt lat="44.593160" lon="7.894020">
                <time>2024-04-01T08:28:30Z</time>
            </trkpt>
            <trkpt lat="44.593290" lon="7.894050">
                <time>2024-04-01T08:28:31Z</time>
            </trkpt>
            <trkpt lat="44.593420" lon="7.894090">
                <time>2024-04-01T08:28:32Z</time>
            </trkpt>
            <trkpt lat="44.593550" lon="7.894120">
                <time>2024-04-01T08:28:33Z</time>
            </trkpt>
            <trkpt lat="44.593680" lon="7.894140">
                <time>2024-04-01T08:28:34Z</time>
            </trkpt>
            <trkpt lat="44.593820" lon="7.894130">
                <time>2024-04-01T08:28:35Z</time>
            </trkpt>
            <trkpt lat="44.593950" lon="7.894110">
                <time>2024-04-01T08:28:36Z</time>
            </trkpt>
            <trkpt lat="44.594090" lon="7.894060">
                <time>2024-04-01T08:28:37Z</time>
            </trkpt>
            <trkpt lat="44.594220" lon="7.894000">
                <time>2024-04-01T08:28:38Z</time>
            </trkpt>
            <trkpt lat="44.594350" lon="7.893940">
                <time>2024-04-01T08:28:39Z</time>
            </trkpt>
            <trkpt lat="44.594480" lon="7.893870">
                <time>2024-04-01T08:28:40Z</time>
            </trkpt>
            <trkpt lat="44.594610" lon="7.893800">
                <time>2024-04-01T08:28:41Z</time>
            </trkpt>
            <trkpt lat="44.594740" lon="7.893730">
                <time>2024-04-01T08:28:42Z</time>
            </trkpt>
            <trkpt lat="44.594860" lon="7.893660">
                <time>2024-04-01T08:28:43Z</time>
            </trkpt>
            <trkpt lat="44.594980" lon="7.893590">
                <time>2024-04-01T08:28:44Z</time>
            </trkpt>
            <trkpt lat="44.595090" lon="7.893530">
                <time>2024-04-01T08:28:45Z</time>
            </trkpt>
            <trkpt lat="44.595210" lon="7.893480">
                <time>2024-04-01T08:28:46Z</time>
            </trkpt>
            <trkpt lat="44.595320" lon="7.893440">
                <time>2024-04-01T08:28:47Z</time>
            </trkpt>
            <trkpt lat="44.595430" lon="7.893400">
                <time>2024-04-01T08:28:48Z</time>
            </trkpt>
            <trkpt lat="44.595550" lon="7.893380">
                <time>2024-04-01T08:28:49Z</time>
            </trkpt>
            <trkpt lat="44.595670" lon="7.893380">
                <time>2024-04-01T08:28:50Z</time>
            </trkpt>
            <trkpt lat="44.595780" lon="7.893380">
                <time>2024-04-01T08:28:51Z</time>
            </trkpt>
            <trkpt lat="44.595890" lon="7.893380">
                <time>2024-04-01T08:28:52Z</time>
            </trkpt>
            <trkpt lat="44.595990" lon="7.893380">
                <time>2024-04-01T08:28:53Z</time>
            </trkpt>
            <trkpt lat="44.596100" lon="7.893370">
                <time>2024-04-01T08:28:54Z</time>
            </trkpt>
            <trkpt lat="44.596200" lon="7.893340">
                <time>2024-04-01T08:28:55Z</time>
            </trkpt>
            <trkpt lat="44.596300" lon="7.893310">
                <time>2024-04-01T08:28:56Z</time>
            </trkpt>
            <trkpt lat="44.596390" lon="7.893260">
                <time>2024-04-01T08:28:57Z</time>
            </trkpt>
            <trkpt lat="44.596480" lon="7.893200">
                <time>2024-04-01T08:28:58Z</time>
            </trkpt>
            <trkpt lat="44.596570" lon="7.893130">
                <time>2024-04-01T08:28:59Z</time>
            </trkpt>
            <trkpt lat="44.596640" lon="7.893060">
                <time>2024-04-01T08:29:00Z</time>
            </trkpt>
            <trkpt lat="44.596710" lon="7.892980">
                <time>2024-04-01T08:29:01Z</time>
            </trkpt>
            <trkpt lat="44.596770" lon="7.892900">
                <time>2024-04-01T08:29:02Z</time>
            </trkpt>
            <trkpt lat="44.596820" lon="7.892810">
                <time>2024-04-01T08:29:03Z</time>
            </trkpt>
            <trkpt lat="44.596870" lon="7.892720">
                <time>2024-04-01T08:29:04Z</time>
            </trkpt>
            <trkpt lat="44.596910" lon="7.892610">
                <time>2024-04-01T08:29:05Z</time>
            </trkpt>
            <trkpt lat="44.596950" lon="7.892510">
                <time>2024-04-01T08:29:06Z</time>
            </trkpt>
            <trkpt lat="44.596990" lon="7.892410">
                <time>2024-04-01T08:29:07Z</time>
            </trkpt>
            <trkpt lat="44.597030" lon="7.892310">
                <time>2024-04-01T08:29:08Z</time>
            </trkpt>
            <trkpt lat="44.597070" lon="7.892230">
                <time>2024-04-01T08:29:09Z</time>
            </trkpt>
            <trkpt lat="44.597120" lon="7.892140">
                <time>2024-04-01T08:29:10Z</time>
            </trkpt>
            <trkpt lat="44.597180" lon="7.892070">
                <time>2024-04-01T08:29:11Z</time>
            </trkpt>
            <trkpt lat="44.597240" lon="7.892020">
                <time>2024-04-01T08:29:12Z</time>
            </trkpt>
            <trkpt lat="44.597300" lon="7.891980">
                <time>2024-04-01T08:29:13Z</time>
            </trkpt>
            <trkpt lat="44.597360" lon="7.891930">
                <time>2024-04-01T08:29:14Z</time>
            </trkpt>
            <trkpt lat="44.597390" lon="7.891860">
                <time>2024-04-01T08:29:15Z</time>
            </trkpt>
            <trkpt lat="44.597420" lon="7.891800">
                <time>2024-04-01T08:29:16Z</time>
            </trkpt>
            <trkpt lat="44.597440" lon="7.891720">
                <time>2024-04-01T08:29:17Z</time>
            </trkpt>
            <trkpt lat="44.597470" lon="7.891650">
                <time>2024-04-01T08:29:18Z</time>
            </trkpt>
            <trkpt lat="44.597520" lon="7.891590">
                <time>2024-04-01T08:29:19Z</time>
            </trkpt>
            <trkpt lat="44.597590" lon="7.891540">
                <time>2024-04-01T08:29:20Z</time>
            </trkpt>
            <trkpt lat="44.597660" lon="7.891510">
                <time>2024-04-01T08:29:21Z</time>
            </trkpt>
            <trkpt lat="44.597740" lon="7.891470">
                <time>2024-04-01T08:29:22Z</time>
            </trkpt>
            <trkpt lat="44.597810" lon="7.891410">
                <time>2024-04-01T08:29:23Z</time>
            </trkpt>
            <trkpt lat="44.597880" lon="7.891350">
                <time>2024-04-01T08:29:24Z</time>
            </trkpt>
            <trkpt lat="44.597950" lon="7.891270">
                <time>2024-04-01T08:29:25Z</time>
            </trkpt>
            <trkpt lat="44.598010" lon="7.891170">
                <time>2024-04-01T08:29:26Z</time>
            </trkpt>
            <trkpt lat="44.598060" lon="7.891050">
                <time>2024-04-01T08:29:27Z</time>
            </trkpt>
            <trkpt lat="44.598110" lon="7.890900">
                <time>2024-04-01T08:29:28Z</time>
            </trkpt>
            <trkpt lat="44.598160" lon="7.890710">
                <time>2024-04-01T08:29:29Z</time>
            </trkpt>
            <trkpt lat="44.598210" lon="7.890490">
                <time>2024-04-01T08:29:30Z</time>
            </trkpt>
            <trkpt lat="44.598250" lon="7.890250">
                <time>2024-04-01T08:29:31Z</time>
            </trkpt>
            <trkpt lat="44.598290" lon="7.890000">
                <time>2024-04-01T08:29:32Z</time>
            </trkpt>
            <trkpt lat="44.598320" lon="7.889730">
                <time>2024-04-01T08:29:33Z</time>
            </trkpt>
            <trkpt lat="44.598350" lon="7.889460">
                <time>2024-04-01T08:29:34Z</time>
            </trkpt>
            <trkpt lat="44.598360" lon="7.889190">
                <time>2024-04-01T08:29:35Z</time>
            </trkpt>
            <trkpt lat="44.598360" lon="7.888920">
                <time>2024-04-01T08:29:36Z</time>
            </trkpt>
            <trkpt lat="44.598350" lon="7.888660">
                <time>2024-04-01T08:29:37Z</time>
            </trkpt>
            <trkpt lat="44.598320" lon="7.888400">
                <time>2024-04-01T08:29:38Z</time>
            </trkpt>
            <trkpt lat="44.598290" lon="7.888140">
                <time>2024-04-01T08:29:39Z</time>
            </trkpt>
            <trkpt lat="44.598250" lon="7.887880">
                <time>2024-04-01T08:29:40Z</time>
            </trkpt>
            <trkpt lat="44.598200" lon="7.887630">
                <time>2024-04-01T08:29:41Z</time>
            </trkpt>
            <trkpt lat="44.598150" lon="7.887380">
                <time>2024-04-01T08:29:42Z</time>
            </trkpt>
            <trkpt lat="44.598110" lon="7.887150">
                <time>2024-04-01T08:29:43Z</time>
            </trkpt>
            <trkpt lat="44.598060" lon="7.886920">
                <time>2024-04-01T08:29:44Z</time>
            </trkpt>
            <trkpt lat="44.598020" lon="7.886700">
                <time>2024-04-01T08:29:45Z</time>
            </trkpt>
            <trkpt lat="44.597970" lon="7.886480">
                <time>2024-04-01T08:29:46Z</time>
            </trkpt>
            <trkpt lat="44.597930" lon="7.886240">
                <time>2024-04-01T08:29:47Z</time>
            </trkpt>
            <trkpt lat="44.597880" lon="7.886000">
                <time>2024-04-01T08:29:48Z</time>
            </trkpt>
            <trkpt lat="44.597840" lon="7.885750">
                <time>2024-04-01T08:29:49Z</time>
            </trkpt>
            <trkpt lat="44.597810" lon="7.885490">
                <time>2024-04-01T08:29:50Z</time>
            </trkpt>
            <trkpt lat="44.597780" lon="7.885230">
                <time>2024-04-01T08:29:51Z</time>
            </trkpt>
            <trkpt lat="44.597770" lon="7.884960">
                <time>2024-04-01T08:29:52Z</time>
            </trkpt>
            <trkpt lat="44.597750" lon="7.884690">
                <time>2024-04-01T08:29:53Z</time>
            </trkpt>
            <trkpt lat="44.597750" lon="7.884420">
                <time>2024-04-01T08:29:54Z</time>
            </trkpt>
            <trkpt lat="44.597750" lon="7.884140">
                <time>2024-04-01T08:29:55Z</time>
            </trkpt>
            <trkpt lat="44.597760" lon="7.883870">
                <time>2024-04-01T08:29:56Z</time>
            </trkpt>
            <trkpt lat="44.597770" lon="7.883600">
                <time>2024-04-01T08:29:57Z</time>
            </trkpt>
            <trkpt lat="44.597780" lon="7.883330">
                <time>2024-04-01T08:29:58Z</time>
            </trkpt>
            <trkpt lat="44.597790" lon="7.883080">
                <time>2024-04-01T08:29:59Z</time>
            </trkpt>
            <trkpt lat="44.597790" lon="7.882830">
                <time>2024-04-01T08:30:00Z</time>
            </trkpt>
            <trkpt lat="44.597800" lon="7.882570">
                <time>2024-04-01T08:30:01Z</time>
            </trkpt>
            <trkpt lat="44.597810" lon="7.882310">
                <time>2024-04-01T08:30:02Z</time>
            </trkpt>
            <trkpt lat="44.597810" lon="7.882060">
                <time>2024-04-01T08:30:03Z</time>
            </trkpt>
            <trkpt lat="44.597810" lon="7.881820">
                <time>2024-04-01T08:30:04Z</time>
            </trkpt>
            <trkpt lat="44.597810" lon="7.881600">
                <time>2024-04-01T08:30:05Z</time>
            </trkpt>
            <trkpt lat="44.597830" lon="7.881380">
                <time>2024-04-01T08:30:06Z</time>
            </trkpt>
            <trkpt lat="44.597850" lon="7.881190">
                <time>2024-04-01T08:30:07Z</time>
            </trkpt>
            <trkpt lat="44.597890" lon="7.881010">
                <time>2024-04-01T08:30:08Z</time>
            </trkpt>
            <trkpt lat="44.597940" lon="7.880840">
                <time>2024-04-01T08:30:09Z</time>
            </trkpt>
            <trkpt lat="44.598000" lon="7.880670">
                <time>2024-04-01T08:30:10Z</time>
            </trkpt>
            <trkpt lat="44.598090" lon="7.880520">
                <time>2024-04-01T08:30:11Z</time>
            </trkpt>
            <trkpt lat="44.598200" lon="7.880390">
                <time>2024-04-01T08:30:12Z</time>
            </trkpt>
            <trkpt lat="44.598300" lon="7.880280">
                <time>2024-04-01T08:30:13Z</time>
            </trkpt>
            <trkpt lat="44.598410" lon="7.880170">
                <time>2024-04-01T08:30:14Z</time>
            </trkpt>
            <trkpt lat="44.598500" lon="7.880070">
                <time>2024-04-01T08:30:15Z</time>
            </trkpt>
            <trkpt lat="44.598570" lon="7.879950">
                <time>2024-04-01T08:30:16Z</time>
            </trkpt>
            <trkpt lat="44.598610" lon="7.879820">
                <time>2024-04-01T08:30:17Z</time>
            </trkpt>
            <trkpt lat="44.598630" lon="7.879660">
                <time>2024-04-01T08:30:18Z</time>
            </trkpt>
            <trkpt lat="44.598630" lon="7.879510">
                <time>2024-04-01T08:30:19Z</time>
            </trkpt>
            <trkpt lat="44.598600" lon="7.879350">
                <time>2024-04-01T08:30:20Z</time>
            </trkpt>
            <trkpt lat="44.598530" lon="7.879220">
                <time>2024-04-01T08:30:21Z</time>
            </trkpt>
            <trkpt lat="44.598440" lon="7.879130">
                <time>2024-04-01T08:30:22Z</time>
            </trkpt>
            <trkpt lat="44.598330" lon="7.879080">
                <time>2024-04-01T08:30:23Z</time>
            </trkpt>
            <trkpt lat="44.598220" lon="7.879080">
                <time>2024-04-01T08:30:24Z</time>
            </trkpt>
            <trkpt lat="44.598110" lon="7.879110">
                <time>2024-04-01T08:30:25Z</time>
            </trkpt>
            <trkpt lat="44.597990" lon="7.879160">
                <time>2024-04-01T08:30:26Z</time>
            </trkpt>
            <trkpt lat="44.597870" lon="7.879240">
                <time>2024-04-01T08:30:27Z</time>
            </trkpt>
            <trkpt lat="44.597750" lon="7.879330">
                <time>2024-04-01T08:30:28Z</time>
            </trkpt>
            <trkpt lat="44.597620" lon="7.879430">
                <time>2024-04-01T08:30:29Z</time>
            </trkpt>
            <trkpt lat="44.597500" lon="7.879530">
                <time>2024-04-01T08:30:30Z</time>
            </trkpt>
            <trkpt lat="44.597390" lon="7.879630">
                <time>2024-04-01T08:30:31Z</time>
            </trkpt>
            <trkpt lat="44.597290" lon="7.879710">
                <time>2024-04-01T08:30:32Z</time>
            </trkpt>
            <trkpt lat="44.597200" lon="7.879780">
                <time>2024-04-01T08:30:33Z</time>
            </trkpt>
            <trkpt lat="44.597100" lon="7.879820">
                <time>2024-04-01T08:30:34Z</time>
            </trkpt>
            <trkpt lat="44.596990" lon="7.879850">
                <time>2024-04-01T08:30:35Z</time>
            </trkpt>
            <trkpt lat="44.596870" lon="7.879860">
                <time>2024-04-01T08:30:36Z</time>
            </trkpt>
            <trkpt lat="44.596740" lon="7.879850">
                <time>2024-04-01T08:30:37Z</time>
            </trkpt>
            <trkpt lat="44.596610" lon="7.879840">
                <time>2024-04-01T08:30:38Z</time>
            </trkpt>
            <trkpt lat="44.596480" lon="7.879830">
                <time>2024-04-01T08:30:39Z</time>
            </trkpt>
            <trkpt lat="44.596330" lon="7.879840">
                <time>2024-04-01T08:30:40Z</time>
            </trkpt>
            <trkpt lat="44.596190" lon="7.879880">
                <time>2024-04-01T08:30:41Z</time>
            </trkpt>
            <trkpt lat="44.596050" lon="7.879930">
                <time>2024-04-01T08:30:42Z</time>
            </trkpt>
            <trkpt lat="44.595910" lon="7.879990">
                <time>2024-04-01T08:30:43Z</time>
            </trkpt>
            <trkpt lat="44.595760" lon="7.880050">
                <time>2024-04-01T08:30:44Z</time>
            </trkpt>
            <trkpt lat="44.595600" lon="7.880120">
                <time>2024-04-01T08:30:45Z</time>
            </trkpt>
            <trkpt lat="44.595430" lon="7.880190">
                <time>2024-04-01T08:30:46Z</time>
            </trkpt>
            <trkpt lat="44.595260" lon="7.880260">
                <time>2024-04-01T08:30:47Z</time>
            </trkpt>
            <trkpt lat="44.595090" lon="7.880330">
                <time>2024-04-01T08:30:48Z</time>
            </trkpt>
            <trkpt lat="44.594930" lon="7.880390">
                <time>2024-04-01T08:30:49Z</time>
            </trkpt>
            <trkpt lat="44.594780" lon="7.880450">
                <time>2024-04-01T08:30:50Z</time>
            </trkpt>
            <trkpt lat="44.594630" lon="7.880500">
                <time>2024-04-01T08:30:51Z</time>
            </trkpt>
            <trkpt lat="44.594500" lon="7.880550">
                <time>2024-04-01T08:30:52Z</time>
            </trkpt>
            <trkpt lat="44.594380" lon="7.880580">
                <time>2024-04-01T08:30:53Z</time>
            </trkpt>
            <trkpt lat="44.594260" lon="7.880610">
                <time>2024-04-01T08:30:54Z</time>
            </trkpt>
            <trkpt lat="44.594150" lon="7.880630">
                <time>2024-04-01T08:30:55Z</time>
            </trkpt>
            <trkpt lat="44.594050" lon="7.880650">
                <time>2024-04-01T08:30:56Z</time>
            </trkpt>
            <trkpt lat="44.593950" lon="7.880660">
                <time>2024-04-01T08:30:57Z</time>
            </trkpt>
            <trkpt lat="44.593870" lon="7.880660">
                <time>2024-04-01T08:30:58Z</time>
            </trkpt>
            <trkpt lat="44.593790" lon="7.880640">
                <time>2024-04-01T08:30:59Z</time>
            </trkpt>
            <trkpt lat="44.593720" lon="7.880600">
                <time>2024-04-01T08:31:00Z</time>
            </trkpt>
            <trkpt lat="44.593670" lon="7.880540">
                <time>2024-04-01T08:31:01Z</time>
            </trkpt>
            <trkpt lat="44.593620" lon="7.880430">
                <time>2024-04-01T08:31:02Z</time>
            </trkpt>
            <trkpt lat="44.593560" lon="7.880300">
                <time>2024-04-01T08:31:03Z</time>
            </trkpt>
            <trkpt lat="44.593510" lon="7.880150">
                <time>2024-04-01T08:31:04Z</time>
            </trkpt>
            <trkpt lat="44.593460" lon="7.880010">
                <time>2024-04-01T08:31:05Z</time>
            </trkpt>
            <trkpt lat="44.593420" lon="7.879850">
                <time>2024-04-01T08:31:06Z</time>
            </trkpt>
            <trkpt lat="44.593390" lon="7.879700">
                <time>2024-04-01T08:31:07Z</time>
            </trkpt>
            <trkpt lat="44.593370" lon="7.879540">
                <time>2024-04-01T08:31:08Z</time>
            </trkpt>
            <trkpt lat="44.593380" lon="7.879370">
                <time>2024-04-01T08:31:09Z</time>
            </trkpt>
            <trkpt lat="44.593390" lon="7.879190">
                <time>2024-04-01T08:31:10Z</time>
            </trkpt>
            <trkpt lat="44.593420" lon="7.878990">
                <time>2024-04-01T08:31:11Z</time>
            </trkpt>
            <trkpt lat="44.593460" lon="7.878770">
                <time>2024-04-01T08:31:12Z</time>
            </trkpt>
            <trkpt lat="44.593500" lon="7.878550">
                <time>2024-04-01T08:31:13Z</time>
            </trkpt>
            <trkpt lat="44.593540" lon="7.878350">
                <time>2024-04-01T08:31:14Z</time>
            </trkpt>
            <trkpt lat="44.593580" lon="7.878120">
                <time>2024-04-01T08:31:15Z</time>
            </trkpt>
            <trkpt lat="44.593630" lon="7.877900">
                <time>2024-04-01T08:31:16Z</time>
            </trkpt>
            <trkpt lat="44.593680" lon="7.877670">
                <time>2024-04-01T08:31:17Z</time>
            </trkpt>
            <trkpt lat="44.593720" lon="7.877460">
                <time>2024-04-01T08:31:18Z</time>
            </trkpt>
            <trkpt lat="44.593750" lon="7.877270">
                <time>2024-04-01T08:31:19Z</time>
            </trkpt>
            <trkpt lat="44.593770" lon="7.877100">
                <time>2024-04-01T08:31:20Z</time>
            </trkpt>
            <trkpt lat="44.593790" lon="7.876950">
                <time>2024-04-01T08:31:21Z</time>
            </trkpt>
            <trkpt lat="44.593820" lon="7.876830">
                <time>2024-04-01T08:31:22Z</time>
            </trkpt>
            <trkpt lat="44.593860" lon="7.876740">
                <time>2024-04-01T08:31:23Z</time>
            </trkpt>
            <trkpt lat="44.593910" lon="7.876690">
                <time>2024-04-01T08:31:24Z</time>
            </trkpt>
            <trkpt lat="44.593960" lon="7.876680">
                <time>2024-04-01T08:31:25Z</time>
            </trkpt>
            <trkpt lat="44.594010" lon="7.876710">
                <time>2024-04-01T08:31:26Z</time>
            </trkpt>
            <trkpt lat="44.594050" lon="7.876780">
                <time>2024-04-01T08:31:27Z</time>
            </trkpt>
            <trkpt lat="44.594060" lon="7.876870">
                <time>2024-04-01T08:31:28Z</time>
            </trkpt>
            <trkpt lat="44.594070" lon="7.876990">
                <time>2024-04-01T08:31:29Z</time>
            </trkpt>
            <trkpt lat="44.594070" lon="7.877140">
                <time>2024-04-01T08:31:30Z</time>
            </trkpt>
            <trkpt lat="44.594090" lon="7.877300">
                <time>2024-04-01T08:31:31Z</time>
            </trkpt>
            <trkpt lat="44.594100" lon="7.877460">
                <time>2024-04-01T08:31:32Z</time>
            </trkpt>
            <trkpt lat="44.594110" lon="7.877640">
                <time>2024-04-01T08:31:33Z</time>
            </trkpt>
            <trkpt lat="44.594130" lon="7.877820">
                <time>2024-04-01T08:31:34Z</time>
            </trkpt>
            <trkpt lat="44.594140" lon="7.877990">
                <time>2024-04-01T08:31:35Z</time>
            </trkpt>
            <trkpt lat="44.594160" lon="7.878150">
                <time>2024-04-01T08:31:36Z</time>
            </trkpt>
            <trkpt lat="44.594170" lon="7.878300">
                <time>2024-04-01T08:31:37Z</time>
            </trkpt>
            <trkpt lat="44.594180" lon="7.878440">
                <time>2024-04-01T08:31:38Z</time>
            </trkpt>
            <trkpt lat="44.594200" lon="7.878550">
                <time>2024-04-01T08:31:39Z</time>
            </trkpt>
            <trkpt lat="44.594210" lon="7.878650">
                <time>2024-04-01T08:31:40Z</time>
            </trkpt>
            <trkpt lat="44.594240" lon="7.878730">
                <time>2024-04-01T08:31:41Z</time>
            </trkpt>
            <trkpt lat="44.594280" lon="7.878770">
                <time>2024-04-01T08:31:42Z</time>
            </trkpt>
            <trkpt lat="44.594330" lon="7.878790">
                <time>2024-04-01T08:31:43Z</time>
            </trkpt>
            <trkpt lat="44.594380" lon="7.878760">
                <time>2024-04-01T08:31:44Z</time>
            </trkpt>
            <trkpt lat="44.594410" lon="7.878700">
                <time>2024-04-01T08:31:45Z</time>
            </trkpt>
            <trkpt lat="44.594420" lon="7.878610">
                <time>2024-04-01T08:31:46Z</time>
            </trkpt>
            <trkpt lat="44.594420" lon="7.878500">
                <time>2024-04-01T08:31:47Z</time>
            </trkpt>
            <trkpt lat="44.594420" lon="7.878350">
                <time>2024-04-01T08:31:48Z</time>
            </trkpt>
            <trkpt lat="44.594430" lon="7.878190">
                <time>2024-04-01T08:31:49Z</time>
            </trkpt>
            <trkpt lat="44.594440" lon="7.878020">
                <time>2024-04-01T08:31:50Z</time>
            </trkpt>
            <trkpt lat="44.594470" lon="7.877820">
                <time>2024-04-01T08:31:51Z</time>
            </trkpt>
            <trkpt lat="44.594500" lon="7.877610">
                <time>2024-04-01T08:31:52Z</time>
            </trkpt>
            <trkpt lat="44.594530" lon="7.877410">
                <time>2024-04-01T08:31:53Z</time>
            </trkpt>
            <trkpt lat="44.594560" lon="7.877210">
                <time>2024-04-01T08:31:54Z</time>
            </trkpt>
            <trkpt lat="44.594590" lon="7.877030">
                <time>2024-04-01T08:31:55Z</time>
            </trkpt>
            <trkpt lat="44.594610" lon="7.876860">
                <time>2024-04-01T08:31:56Z</time>
            </trkpt>
            <trkpt lat="44.594620" lon="7.876690">
                <time>2024-04-01T08:31:57Z</time>
            </trkpt>
            <trkpt lat="44.594610" lon="7.876520">
                <time>2024-04-01T08:31:58Z</time>
            </trkpt>
            <trkpt lat="44.594570" lon="7.876350">
                <time>2024-04-01T08:31:59Z</time>
            </trkpt>
            <trkpt lat="44.594520" lon="7.876190">
                <time>2024-04-01T08:32:00Z</time>
            </trkpt>
            <trkpt lat="44.594470" lon="7.876020">
                <time>2024-04-01T08:32:01Z</time>
            </trkpt>
            <trkpt lat="44.594430" lon="7.875850">
                <time>2024-04-01T08:32:02Z</time>
            </trkpt>
            <trkpt lat="44.594390" lon="7.875680">
                <time>2024-04-01T08:32:03Z</time>
            </trkpt>
            <trkpt lat="44.594360" lon="7.875500">
                <time>2024-04-01T08:32:04Z</time>
            </trkpt>
            <trkpt lat="44.594340" lon="7.875320">
                <time>2024-04-01T08:32:05Z</time>
            </trkpt>
            <trkpt lat="44.594320" lon="7.875140">
                <time>2024-04-01T08:32:06Z</time>
            </trkpt>
            <trkpt lat="44.594300" lon="7.874970">
                <time>2024-04-01T08:32:07Z</time>
            </trkpt>
            <trkpt lat="44.594280" lon="7.874790">
                <time>2024-04-01T08:32:08Z</time>
            </trkpt>
            <trkpt lat="44.594270" lon="7.874630">
                <time>2024-04-01T08:32:09Z</time>
            </trkpt>
            <trkpt lat="44.594260" lon="7.874460">
                <time>2024-04-01T08:32:10Z</time>
            </trkpt>
            <trkpt lat="44.594250" lon="7.874300">
                <time>2024-04-01T08:32:11Z</time>
            </trkpt>
            <trkpt lat="44.594230" lon="7.874150">
                <time>2024-04-01T08:32:12Z</time>
            </trkpt>
            <trkpt lat="44.594220" lon="7.874010">
                <time>2024-04-01T08:32:13Z</time>
            </trkpt>
            <trkpt lat="44.594210" lon="7.873860">
                <time>2024-04-01T08:32:14Z</time>
            </trkpt>
            <trkpt lat="44.594220" lon="7.873710">
                <time>2024-04-01T08:32:15Z</time>
            </trkpt>
            <trkpt lat="44.594240" lon="7.873560">
                <time>2024-04-01T08:32:16Z</time>
            </trkpt>
            <trkpt lat="44.594250" lon="7.873410">
                <time>2024-04-01T08:32:17Z</time>
            </trkpt>
            <trkpt lat="44.594260" lon="7.873250">
                <time>2024-04-01T08:32:18Z</time>
            </trkpt>
            <trkpt lat="44.594280" lon="7.873090">
                <time>2024-04-01T08:32:19Z</time>
            </trkpt>
            <trkpt lat="44.594300" lon="7.872940">
                <time>2024-04-01T08:32:20Z</time>
            </trkpt>
            <trkpt lat="44.594310" lon="7.872790">
                <time>2024-04-01T08:32:21Z</time>
            </trkpt>
            <trkpt lat="44.594320" lon="7.872640">
                <time>2024-04-01T08:32:22Z</time>
            </trkpt>
            <trkpt lat="44.594330" lon="7.872500">
                <time>2024-04-01T08:32:23Z</time>
            </trkpt>
            <trkpt lat="44.594340" lon="7.872360">
                <time>2024-04-01T08:32:24Z</time>
            </trkpt>
            <trkpt lat="44.594330" lon="7.872230">
                <time>2024-04-01T08:32:25Z</time>
            </trkpt>
            <trkpt lat="44.594330" lon="7.872090">
                <time>2024-04-01T08:32:26Z</time>
            </trkpt>
            <trkpt lat="44.594330" lon="7.871950">
                <time>2024-04-01T08:32:27Z</time>
            </trkpt>
            <trkpt lat="44.594320" lon="7.871810">
                <time>2024-04-01T08:32:28Z</time>
            </trkpt>
            <trkpt lat="44.594320" lon="7.871680">
                <time>2024-04-01T08:32:29Z</time>
            </trkpt>
            <trkpt lat="44.594310" lon="7.871550">
                <time>2024-04-01T08:32:30Z</time>
            </trkpt>
            <trkpt lat="44.594290" lon="7.871430">
                <time>2024-04-01T08:32:31Z</time>
            </trkpt>
            <trkpt lat="44.594290" lon="7.871320">
                <time>2024-04-01T08:32:32Z</time>
            </trkpt>
            <trkpt lat="44.594280" lon="7.871210">
                <time>2024-04-01T08:32:33Z</time>
            </trkpt>
            <trkpt lat="44.594280" lon="7.871110">
                <time>2024-04-01T08:32:34Z</time>
            </trkpt>
            <trkpt lat="44.594270" lon="7.871020">
                <time>2024-04-01T08:32:35Z</time>
            </trkpt>
            <trkpt lat="44.594260" lon="7.870930">
                <time>2024-04-01T08:32:36Z</time>
            </trkpt>
            <trkpt lat="44.594250" lon="7.870830">
                <time>2024-04-01T08:32:37Z</time>
            </trkpt>
            <trkpt lat="44.594240" lon="7.870750">
                <time>2024-04-01T08:32:38Z</time>
            </trkpt>
            <trkpt lat="44.594240" lon="7.870660">
                <time>2024-04-01T08:32:39Z</time>
            </trkpt>
            <trkpt lat="44.594250" lon="7.870570">
                <time>2024-04-01T08:32:40Z</time>
            </trkpt>
            <trkpt lat="44.594230" lon="7.870490">
                <time>2024-04-01T08:32:41Z</time>
            </trkpt>
            <trkpt lat="44.594230" lon="7.870410">
                <time>2024-04-01T08:32:42Z</time>
            </trkpt>
            <trkpt lat="44.594220" lon="7.870320">
                <time>2024-04-01T08:32:43Z</time>
            </trkpt>
            <trkpt lat="44.594200" lon="7.870240">
                <time>2024-04-01T08:32:44Z</time>
            </trkpt>
            <trkpt lat="44.594190" lon="7.870150">
                <time>2024-04-01T08:32:45Z</time>
            </trkpt>
            <trkpt lat="44.594170" lon="7.870070">
                <time>2024-04-01T08:32:46Z</time>
            </trkpt>
            <trkpt lat="44.594170" lon="7.869990">
                <time>2024-04-01T08:32:47Z</time>
            </trkpt>
            <trkpt lat="44.594170" lon="7.869900">
                <time>2024-04-01T08:32:48Z</time>
            </trkpt>
            <trkpt lat="44.594160" lon="7.869810">
                <time>2024-04-01T08:32:49Z</time>
            </trkpt>
            <trkpt lat="44.594150" lon="7.869740">
                <time>2024-04-01T08:32:50Z</time>
            </trkpt>
            <trkpt lat="44.594160" lon="7.869670">
                <time>2024-04-01T08:32:51Z</time>
            </trkpt>
            <trkpt lat="44.594150" lon="7.869590">
                <time>2024-04-01T08:32:52Z</time>
            </trkpt>
            <trkpt lat="44.594160" lon="7.869520">
                <time>2024-04-01T08:32:53Z</time>
            </trkpt>
            <trkpt lat="44.594150" lon="7.869440">
                <time>2024-04-01T08:32:54Z</time>
            </trkpt>
            <trkpt lat="44.594120" lon="7.869370">
                <time>2024-04-01T08:32:55Z</time>
            </trkpt>
            <trkpt lat="44.594090" lon="7.869300">
                <time>2024-04-01T08:32:56Z</time>
            </trkpt>
            <trkpt lat="44.594060" lon="7.869240">
                <time>2024-04-01T08:32:57Z</time>
            </trkpt>
            <trkpt lat="44.594020" lon="7.869160">
                <time>2024-04-01T08:32:58Z</time>
            </trkpt>
            <trkpt lat="44.594000" lon="7.869080">
                <time>2024-04-01T08:32:59Z</time>
            </trkpt>
            <trkpt lat="44.593990" lon="7.869000">
                <time>2024-04-01T08:33:00Z</time>
            </trkpt>
            <trkpt lat="44.594000" lon="7.868900">
                <time>2024-04-01T08:33:01Z</time>
            </trkpt>
            <trkpt lat="44.594010" lon="7.868780">
                <time>2024-04-01T08:33:02Z</time>
            </trkpt>
            <trkpt lat="44.594020" lon="7.868650">
                <time>2024-04-01T08:33:03Z</time>
            </trkpt>
            <trkpt lat="44.594030" lon="7.868520">
                <time>2024-04-01T08:33:04Z</time>
            </trkpt>
            <trkpt lat="44.594050" lon="7.868390">
                <time>2024-04-01T08:33:05Z</time>
            </trkpt>
            <trkpt lat="44.594060" lon="7.868250">
                <time>2024-04-01T08:33:06Z</time>
            </trkpt>
            <trkpt lat="44.594070" lon="7.868100">
                <time>2024-04-01T08:33:07Z</time>
            </trkpt>
            <trkpt lat="44.594090" lon="7.867960">
                <time>2024-04-01T08:33:08Z</time>
            </trkpt>
            <trkpt lat="44.594110" lon="7.867830">
                <time>2024-04-01T08:33:09Z</time>
            </trkpt>
            <trkpt lat="44.594130" lon="7.867690">
                <time>2024-04-01T08:33:10Z</time>
            </trkpt>
            <trkpt lat="44.594150" lon="7.867540">
                <time>2024-04-01T08:33:11Z</time>
            </trkpt>
            <trkpt lat="44.594170" lon="7.867390">
                <time>2024-04-01T08:33:12Z</time>
            </trkpt>
            <trkpt lat="44.594180" lon="7.867240">
                <time>2024-04-01T08:33:13Z</time>
            </trkpt>
            <trkpt lat="44.594210" lon="7.867090">
                <time>2024-04-01T08:33:14Z</time>
            </trkpt>
            <trkpt lat="44.594230" lon="7.866940">
                <time>2024-04-01T08:33:15Z</time>
            </trkpt>
            <trkpt lat="44.594250" lon="7.866800">
                <time>2024-04-01T08:33:16Z</time>
            </trkpt>
            <trkpt lat="44.594270" lon="7.866650">
                <time>2024-04-01T08:33:17Z</time>
            </trkpt>
            <trkpt lat="44.594280" lon="7.866510">
                <time>2024-04-01T08:33:18Z</time>
            </trkpt>
            <trkpt lat="44.594300" lon="7.866370">
                <time>2024-04-01T08:33:19Z</time>
            </trkpt>
            <trkpt lat="44.594330" lon="7.866220">
                <time>2024-04-01T08:33:20Z</time>
            </trkpt>
            <trkpt lat="44.594360" lon="7.866070">
                <time>2024-04-01T08:33:21Z</time>
            </trkpt>
            <trkpt lat="44.594410" lon="7.865930">
                <time>2024-04-01T08:33:22Z</time>
            </trkpt>
            <trkpt lat="44.594460" lon="7.865780">
                <time>2024-04-01T08:33:23Z</time>
            </trkpt>
            <trkpt lat="44.594500" lon="7.865620">
                <time>2024-04-01T08:33:24Z</time>
            </trkpt>
            <trkpt lat="44.594550" lon="7.865460">
                <time>2024-04-01T08:33:25Z</time>
            </trkpt>
            <trkpt lat="44.594600" lon="7.865290">
                <time>2024-04-01T08:33:26Z</time>
            </trkpt>
            <trkpt lat="44.594650" lon="7.865120">
                <time>2024-04-01T08:33:27Z</time>
            </trkpt>
            <trkpt lat="44.594700" lon="7.864950">
                <time>2024-04-01T08:33:28Z</time>
            </trkpt>
            <trkpt lat="44.594760" lon="7.864770">
                <time>2024-04-01T08:33:29Z</time>
            </trkpt>
            <trkpt lat="44.594800" lon="7.864590">
                <time>2024-04-01T08:33:30Z</time>
            </trkpt>
            <trkpt lat="44.594850" lon="7.864410">
                <time>2024-04-01T08:33:31Z</time>
            </trkpt>
            <trkpt lat="44.594910" lon="7.864230">
                <time>2024-04-01T08:33:32Z</time>
            </trkpt>
            <trkpt lat="44.594960" lon="7.864060">
                <time>2024-04-01T08:33:33Z</time>
            </trkpt>
            <trkpt lat="44.595000" lon="7.863900">
                <time>2024-04-01T08:33:34Z</time>
            </trkpt>
            <trkpt lat="44.595050" lon="7.863740">
                <time>2024-04-01T08:33:35Z</time>
            </trkpt>
            <trkpt lat="44.595090" lon="7.863580">
                <time>2024-04-01T08:33:36Z</time>
            </trkpt>
            <trkpt lat="44.595130" lon="7.863420">
                <time>2024-04-01T08:33:37Z</time>
            </trkpt>
            <trkpt lat="44.595160" lon="7.863270">
                <time>2024-04-01T08:33:38Z</time>
            </trkpt>
            <trkpt lat="44.595190" lon="7.863110">
                <time>2024-04-01T08:33:39Z</time>
            </trkpt>
            <trkpt lat="44.595210" lon="7.862940">
                <time>2024-04-01T08:33:40Z</time>
            </trkpt>
            <trkpt lat="44.595230" lon="7.862770">
                <time>2024-04-01T08:33:41Z</time>
            </trkpt>
            <trkpt lat="44.595240" lon="7.862590">
                <time>2024-04-01T08:33:42Z</time>
            </trkpt>
            <trkpt lat="44.595260" lon="7.862410">
                <time>2024-04-01T08:33:43Z</time>
            </trkpt>
            <trkpt lat="44.595280" lon="7.862240">
                <time>2024-04-01T08:33:44Z</time>
            </trkpt>
            <trkpt lat="44.595290" lon="7.862070">
                <time>2024-04-01T08:33:45Z</time>
            </trkpt>
            <trkpt lat="44.595300" lon="7.861910">
                <time>2024-04-01T08:33:46Z</time>
            </trkpt>
            <trkpt lat="44.595310" lon="7.861740">
                <time>2024-04-01T08:33:47Z</time>
            </trkpt>
            <trkpt lat="44.595310" lon="7.861560">
                <time>2024-04-01T08:33:48Z</time>
            </trkpt>
            <trkpt lat="44.595310" lon="7.861380">
                <time>2024-04-01T08:33:49Z</time>
            </trkpt>
            <trkpt lat="44.595300" lon="7.861210">
                <time>2024-04-01T08:33:50Z</time>
            </trkpt>
            <trkpt lat="44.595280" lon="7.861020">
                <time>2024-04-01T08:33:51Z</time>
            </trkpt>
            <trkpt lat="44.595270" lon="7.860820">
                <time>2024-04-01T08:33:52Z</time>
            </trkpt>
            <trkpt lat="44.595240" lon="7.860610">
                <time>2024-04-01T08:33:53Z</time>
            </trkpt>
            <trkpt lat="44.595200" lon="7.860400">
                <time>2024-04-01T08:33:54Z</time>
            </trkpt>
            <trkpt lat="44.595160" lon="7.860180">
                <time>2024-04-01T08:33:55Z</time>
            </trkpt>
            <trkpt lat="44.595110" lon="7.859950">
                <time>2024-04-01T08:33:56Z</time>
            </trkpt>
            <trkpt lat="44.595050" lon="7.859710">
                <time>2024-04-01T08:33:57Z</time>
            </trkpt>
            <trkpt lat="44.594990" lon="7.859490">
                <time>2024-04-01T08:33:58Z</time>
            </trkpt>
            <trkpt lat="44.594930" lon="7.859250">
                <time>2024-04-01T08:33:59Z</time>
            </trkpt>
            <trkpt lat="44.594870" lon="7.859000">
                <time>2024-04-01T08:34:00Z</time>
            </trkpt>
            <trkpt lat="44.594800" lon="7.858740">
                <time>2024-04-01T08:34:01Z</time>
            </trkpt>
            <trkpt lat="44.594730" lon="7.858480">
                <time>2024-04-01T08:34:02Z</time>
            </trkpt>
            <trkpt lat="44.594670" lon="7.858220">
                <time>2024-04-01T08:34:03Z</time>
            </trkpt>
            <trkpt lat="44.594610" lon="7.857950">
                <time>2024-04-01T08:34:04Z</time>
            </trkpt>
            <trkpt lat="44.594550" lon="7.857690">
                <time>2024-04-01T08:34:05Z</time>
            </trkpt>
            <trkpt lat="44.594490" lon="7.857420">
                <time>2024-04-01T08:34:06Z</time>
            </trkpt>
            <trkpt lat="44.594440" lon="7.857160">
                <time>2024-04-01T08:34:07Z</time>
            </trkpt>
            <trkpt lat="44.594390" lon="7.856900">
                <time>2024-04-01T08:34:08Z</time>
            </trkpt>
            <trkpt lat="44.594340" lon="7.856650">
                <time>2024-04-01T08:34:09Z</time>
            </trkpt>
            <trkpt lat="44.594290" lon="7.856400">
                <time>2024-04-01T08:34:10Z</time>
            </trkpt>
            <trkpt lat="44.594250" lon="7.856160">
                <time>2024-04-01T08:34:11Z</time>
            </trkpt>
            <trkpt lat="44.594200" lon="7.855920">
                <time>2024-04-01T08:34:12Z</time>
            </trkpt>
            <trkpt lat="44.594160" lon="7.855680">
                <time>2024-04-01T08:34:13Z</time>
            </trkpt>
            <trkpt lat="44.594130" lon="7.855430">
                <time>2024-04-01T08:34:14Z</time>
            </trkpt>
            <trkpt lat="44.594100" lon="7.855180">
                <time>2024-04-01T08:34:15Z</time>
            </trkpt>
            <trkpt lat="44.594090" lon="7.854930">
                <time>2024-04-01T08:34:16Z</time>
            </trkpt>
            <trkpt lat="44.594080" lon="7.854690">
                <time>2024-04-01T08:34:17Z</time>
            </trkpt>
            <trkpt lat="44.594080" lon="7.854440">
                <time>2024-04-01T08:34:18Z</time>
            </trkpt>
            <trkpt lat="44.594070" lon="7.854210">
                <time>2024-04-01T08:34:19Z</time>
            </trkpt>
            <trkpt lat="44.594060" lon="7.853980">
                <time>2024-04-01T08:34:20Z</time>
            </trkpt>
            <trkpt lat="44.594030" lon="7.853750">
                <time>2024-04-01T08:34:21Z</time>
            </trkpt>
            <trkpt lat="44.593990" lon="7.853520">
                <time>2024-04-01T08:34:22Z</time>
            </trkpt>
            <trkpt lat="44.593940" lon="7.853290">
                <time>2024-04-01T08:34:23Z</time>
            </trkpt>
            <trkpt lat="44.593860" lon="7.853080">
                <time>2024-04-01T08:34:24Z</time>
            </trkpt>
            <trkpt lat="44.593780" lon="7.852870">
                <time>2024-04-01T08:34:25Z</time>
            </trkpt>
            <trkpt lat="44.593680" lon="7.852680">
                <time>2024-04-01T08:34:26Z</time>
            </trkpt>
            <trkpt lat="44.593580" lon="7.852490">
                <time>2024-04-01T08:34:27Z</time>
            </trkpt>
            <trkpt lat="44.593450" lon="7.852310">
                <time>2024-04-01T08:34:28Z</time>
            </trkpt>
            <trkpt lat="44.593330" lon="7.852140">
                <time>2024-04-01T08:34:29Z</time>
            </trkpt>
            <trkpt lat="44.593200" lon="7.851990">
                <time>2024-04-01T08:34:30Z</time>
            </trkpt>
            <trkpt lat="44.593070" lon="7.851840">
                <time>2024-04-01T08:34:31Z</time>
            </trkpt>
            <trkpt lat="44.592940" lon="7.851690">
                <time>2024-04-01T08:34:32Z</time>
            </trkpt>
            <trkpt lat="44.592830" lon="7.851520">
                <time>2024-04-01T08:34:33Z</time>
            </trkpt>
            <trkpt lat="44.592710" lon="7.851360">
                <time>2024-04-01T08:34:34Z</time>
            </trkpt>
            <trkpt lat="44.592610" lon="7.851170">
                <time>2024-04-01T08:34:35Z</time>
            </trkpt>
            <trkpt lat="44.592500" lon="7.850970">
                <time>2024-04-01T08:34:36Z</time>
            </trkpt>
            <trkpt lat="44.592410" lon="7.850760">
                <time>2024-04-01T08:34:37Z</time>
            </trkpt>
            <trkpt lat="44.592320" lon="7.850540">
                <time>2024-04-01T08:34:38Z</time>
            </trkpt>
            <trkpt lat="44.592230" lon="7.850330">
                <time>2024-04-01T08:34:39Z</time>
            </trkpt>
            <trkpt lat="44.592140" lon="7.850120">
                <time>2024-04-01T08:34:40Z</time>
            </trkpt>
            <trkpt lat="44.592060" lon="7.849910">
                <time>2024-04-01T08:34:41Z</time>
            </trkpt>
            <trkpt lat="44.591970" lon="7.849720">
                <time>2024-04-01T08:34:42Z</time>
            </trkpt>
            <trkpt lat="44.591880" lon="7.849530">
                <time>2024-04-01T08:34:43Z</time>
            </trkpt>
            <trkpt lat="44.591780" lon="7.849360">
                <time>2024-04-01T08:34:44Z</time>
            </trkpt>
            <trkpt lat="44.591660" lon="7.849200">
                <time>2024-04-01T08:34:45Z</time>
            </trkpt>
            <trkpt lat="44.591530" lon="7.849050">
                <time>2024-04-01T08:34:46Z</time>
            </trkpt>
            <trkpt lat="44.591390" lon="7.848920">
                <time>2024-04-01T08:34:47Z</time>
            </trkpt>
            <trkpt lat="44.591230" lon="7.848800">
                <time>2024-04-01T08:34:48Z</time>
            </trkpt>
            <trkpt lat="44.591070" lon="7.848710">
                <time>2024-04-01T08:34:49Z</time>
            </trkpt>
            <trkpt lat="44.590900" lon="7.848630">
                <time>2024-04-01T08:34:50Z</time>
            </trkpt>
            <trkpt lat="44.590730" lon="7.848580">
                <time>2024-04-01T08:34:51Z</time>
            </trkpt>
            <trkpt lat="44.590550" lon="7.848550">
                <time>2024-04-01T08:34:52Z</time>
            </trkpt>
            <trkpt lat="44.590360" lon="7.848540">
                <time>2024-04-01T08:34:53Z</time>
            </trkpt>
            <trkpt lat="44.590170" lon="7.848550">
                <time>2024-04-01T08:34:54Z</time>
            </trkpt>
            <trkpt lat="44.589970" lon="7.848560">
                <time>2024-04-01T08:34:55Z</time>
            </trkpt>
            <trkpt lat="44.589760" lon="7.848580">
                <time>2024-04-01T08:34:56Z</time>
            </trkpt>
            <trkpt lat="44.589550" lon="7.848600">
                <time>2024-04-01T08:34:57Z</time>
            </trkpt>
            <trkpt lat="44.589330" lon="7.848620">
                <time>2024-04-01T08:34:58Z</time>
            </trkpt>
            <trkpt lat="44.589120" lon="7.848640">
                <time>2024-04-01T08:34:59Z</time>
            </trkpt>
            <trkpt lat="44.588910" lon="7.848660">
                <time>2024-04-01T08:35:00Z</time>
            </trkpt>
            <trkpt lat="44.588710" lon="7.848680">
                <time>2024-04-01T08:35:01Z</time>
            </trkpt>
            <trkpt lat="44.588530" lon="7.848710">
                <time>2024-04-01T08:35:02Z</time>
            </trkpt>
            <trkpt lat="44.588350" lon="7.848730">
                <time>2024-04-01T08:35:03Z</time>
            </trkpt>
            <trkpt lat="44.588170" lon="7.848740">
                <time>2024-04-01T08:35:04Z</time>
            </trkpt>
            <trkpt lat="44.588000" lon="7.848750">
                <time>2024-04-01T08:35:05Z</time>
            </trkpt>
            <trkpt lat="44.587840" lon="7.848760">
                <time>2024-04-01T08:35:06Z</time>
            </trkpt>
            <trkpt lat="44.587680" lon="7.848770">
                <time>2024-04-01T08:35:07Z</time>
            </trkpt>
            <trkpt lat="44.587530" lon="7.848760">
                <time>2024-04-01T08:35:08Z</time>
            </trkpt>
            <trkpt lat="44.587390" lon="7.848740">
                <time>2024-04-01T08:35:09Z</time>
            </trkpt>
            <trkpt lat="44.587260" lon="7.848700">
                <time>2024-04-01T08:35:10Z</time>
            </trkpt>
            <trkpt lat="44.587130" lon="7.848640">
                <time>2024-04-01T08:35:11Z</time>
            </trkpt>
            <trkpt lat="44.587000" lon="7.848570">
                <time>2024-04-01T08:35:12Z</time>
            </trkpt>
            <trkpt lat="44.586870" lon="7.848480">
                <time>2024-04-01T08:35:13Z</time>
            </trkpt>
            <trkpt lat="44.586750" lon="7.848370">
                <time>2024-04-01T08:35:14Z</time>
            </trkpt>
            <trkpt lat="44.586630" lon="7.848240">
                <time>2024-04-01T08:35:15Z</time>
            </trkpt>
            <trkpt lat="44.586520" lon="7.848090">
                <time>2024-04-01T08:35:16Z</time>
            </trkpt>
            <trkpt lat="44.586420" lon="7.847920">
                <time>2024-04-01T08:35:17Z</time>
            </trkpt>
            <trkpt lat="44.586330" lon="7.847730">
                <time>2024-04-01T08:35:18Z</time>
            </trkpt>
            <trkpt lat="44.586240" lon="7.847530">
                <time>2024-04-01T08:35:19Z</time>
            </trkpt>
            <trkpt lat="44.586170" lon="7.847310">
                <time>2024-04-01T08:35:20Z</time>
            </trkpt>
            <trkpt lat="44.586120" lon="7.847070">
                <time>2024-04-01T08:35:21Z</time>
            </trkpt>
            <trkpt lat="44.586070" lon="7.846820">
                <time>2024-04-01T08:35:22Z</time>
            </trkpt>
            <trkpt lat="44.586030" lon="7.846560">
                <time>2024-04-01T08:35:23Z</time>
            </trkpt>
            <trkpt lat="44.585980" lon="7.846280">
                <time>2024-04-01T08:35:24Z</time>
            </trkpt>
            <trkpt lat="44.585940" lon="7.845990">
                <time>2024-04-01T08:35:25Z</time>
            </trkpt>
            <trkpt lat="44.585880" lon="7.845700">
                <time>2024-04-01T08:35:26Z</time>
            </trkpt>
            <trkpt lat="44.585840" lon="7.845420">
                <time>2024-04-01T08:35:27Z</time>
            </trkpt>
            <trkpt lat="44.585790" lon="7.845140">
                <time>2024-04-01T08:35:28Z</time>
            </trkpt>
            <trkpt lat="44.585740" lon="7.844860">
                <time>2024-04-01T08:35:29Z</time>
            </trkpt>
            <trkpt lat="44.585700" lon="7.844580">
                <time>2024-04-01T08:35:30Z</time>
            </trkpt>
            <trkpt lat="44.585650" lon="7.844310">
                <time>2024-04-01T08:35:31Z</time>
            </trkpt>
            <trkpt lat="44.585620" lon="7.844040">
                <time>2024-04-01T08:35:32Z</time>
            </trkpt>
            <trkpt lat="44.585610" lon="7.843780">
                <time>2024-04-01T08:35:33Z</time>
            </trkpt>
            <trkpt lat="44.585600" lon="7.843500">
                <time>2024-04-01T08:35:34Z</time>
            </trkpt>
            <trkpt lat="44.585600" lon="7.843230">
                <time>2024-04-01T08:35:35Z</time>
            </trkpt>
            <trkpt lat="44.585600" lon="7.842960">
                <time>2024-04-01T08:35:36Z</time>
            </trkpt>
            <trkpt lat="44.585590" lon="7.842680">
                <time>2024-04-01T08:35:37Z</time>
            </trkpt>
            <trkpt lat="44.585580" lon="7.842400">
                <time>2024-04-01T08:35:38Z</time>
            </trkpt>
            <trkpt lat="44.585560" lon="7.842120">
                <time>2024-04-01T08:35:39Z</time>
            </trkpt>
            <trkpt lat="44.585530" lon="7.841840">
                <time>2024-04-01T08:35:40Z</time>
            </trkpt>
            <trkpt lat="44.585500" lon="7.841550">
                <time>2024-04-01T08:35:41Z</time>
            </trkpt>
            <trkpt lat="44.585460" lon="7.841270">
                <time>2024-04-01T08:35:42Z</time>
            </trkpt>
            <trkpt lat="44.585430" lon="7.840990">
                <time>2024-04-01T08:35:43Z</time>
            </trkpt>
            <trkpt lat="44.585390" lon="7.840730">
                <time>2024-04-01T08:35:44Z</time>
            </trkpt>
            <trkpt lat="44.585350" lon="7.840470">
                <time>2024-04-01T08:35:45Z</time>
            </trkpt>
            <trkpt lat="44.585290" lon="7.840230">
                <time>2024-04-01T08:35:46Z</time>
            </trkpt>
            <trkpt lat="44.585210" lon="7.839980">
                <time>2024-04-01T08:35:47Z</time>
            </trkpt>
            <trkpt lat="44.585110" lon="7.839740">
                <time>2024-04-01T08:35:48Z</time>
            </trkpt>
            <trkpt lat="44.585010" lon="7.839510">
                <time>2024-04-01T08:35:49Z</time>
            </trkpt>
            <trkpt lat="44.584900" lon="7.839290">
                <time>2024-04-01T08:35:50Z</time>
            </trkpt>
            <trkpt lat="44.584790" lon="7.839080">
                <time>2024-04-01T08:35:51Z</time>
            </trkpt>
            <trkpt lat="44.584680" lon="7.838880">
                <time>2024-04-01T08:35:52Z</time>
            </trkpt>
            <trkpt lat="44.584580" lon="7.838680">
                <time>2024-04-01T08:35:53Z</time>
            </trkpt>
            <trkpt lat="44.584500" lon="7.838480">
                <time>2024-04-01T08:35:54Z</time>
            </trkpt>
            <trkpt lat="44.584440" lon="7.838250">
                <time>2024-04-01T08:35:55Z</time>
            </trkpt>
            <trkpt lat="44.584400" lon="7.838000">
                <time>2024-04-01T08:35:56Z</time>
            </trkpt>
            <trkpt lat="44.584370" lon="7.837750">
                <time>2024-04-01T08:35:57Z</time>
            </trkpt>
            <trkpt lat="44.584350" lon="7.837480">
                <time>2024-04-01T08:35:58Z</time>
            </trkpt>
            <trkpt lat="44.584330" lon="7.837230">
                <time>2024-04-01T08:35:59Z</time>
            </trkpt>
            <trkpt lat="44.584310" lon="7.837010">
                <time>2024-04-01T08:36:00Z</time>
            </trkpt>
            <trkpt lat="44.584300" lon="7.836800">
                <time>2024-04-01T08:36:01Z</time>
            </trkpt>
            <trkpt lat="44.584290" lon="7.836600">
                <time>2024-04-01T08:36:02Z</time>
            </trkpt>
            <trkpt lat="44.584270" lon="7.836410">
                <time>2024-04-01T08:36:03Z</time>
            </trkpt>
            <trkpt lat="44.584260" lon="7.836220">
                <time>2024-04-01T08:36:04Z</time>
            </trkpt>
            <trkpt lat="44.584250" lon="7.836040">
                <time>2024-04-01T08:36:05Z</time>
            </trkpt>
            <trkpt lat="44.584240" lon="7.835860">
                <time>2024-04-01T08:36:06Z</time>
            </trkpt>
            <trkpt lat="44.584230" lon="7.835680">
                <time>2024-04-01T08:36:07Z</time>
            </trkpt>
            <trkpt lat="44.584220" lon="7.835510">
                <time>2024-04-01T08:36:08Z</time>
            </trkpt>
            <trkpt lat="44.584210" lon="7.835340">
                <time>2024-04-01T08:36:09Z</time>
            </trkpt>
            <trkpt lat="44.584190" lon="7.835170">
                <time>2024-04-01T08:36:10Z</time>
            </trkpt>
            <trkpt lat="44.584160" lon="7.835010">
                <time>2024-04-01T08:36:11Z</time>
            </trkpt>
            <trkpt lat="44.584110" lon="7.834850">
                <time>2024-04-01T08:36:12Z</time>
            </trkpt>
            <trkpt lat="44.584050" lon="7.834690">
                <time>2024-04-01T08:36:13Z</time>
            </trkpt>
            <trkpt lat="44.583990" lon="7.834530">
                <time>2024-04-01T08:36:14Z</time>
            </trkpt>
            <trkpt lat="44.583920" lon="7.834360">
                <time>2024-04-01T08:36:15Z</time>
            </trkpt>
            <trkpt lat="44.583850" lon="7.834190">
                <time>2024-04-01T08:36:16Z</time>
            </trkpt>
            <trkpt lat="44.583780" lon="7.834020">
                <time>2024-04-01T08:36:17Z</time>
            </trkpt>
            <trkpt lat="44.583720" lon="7.833830">
                <time>2024-04-01T08:36:18Z</time>
            </trkpt>
            <trkpt lat="44.583650" lon="7.833640">
                <time>2024-04-01T08:36:19Z</time>
            </trkpt>
            <trkpt lat="44.583590" lon="7.833450">
                <time>2024-04-01T08:36:20Z</time>
            </trkpt>
            <trkpt lat="44.583540" lon="7.833260">
                <time>2024-04-01T08:36:21Z</time>
            </trkpt>
            <trkpt lat="44.583500" lon="7.833070">
                <time>2024-04-01T08:36:22Z</time>
            </trkpt>
            <trkpt lat="44.583470" lon="7.832880">
                <time>2024-04-01T08:36:23Z</time>
            </trkpt>
            <trkpt lat="44.583450" lon="7.832700">
                <time>2024-04-01T08:36:24Z</time>
            </trkpt>
            <trkpt lat="44.583430" lon="7.832510">
                <time>2024-04-01T08:36:25Z</time>
            </trkpt>
            <trkpt lat="44.583410" lon="7.832330">
                <time>2024-04-01T08:36:26Z</time>
            </trkpt>
            <trkpt lat="44.583400" lon="7.832160">
                <time>2024-04-01T08:36:27Z</time>
            </trkpt>
            <trkpt lat="44.583380" lon="7.831990">
                <time>2024-04-01T08:36:28Z</time>
            </trkpt>
            <trkpt lat="44.583370" lon="7.831820">
                <time>2024-04-01T08:36:29Z</time>
            </trkpt>
            <trkpt lat="44.583360" lon="7.831650">
                <time>2024-04-01T08:36:30Z</time>
            </trkpt>
            <trkpt lat="44.583350" lon="7.831460">
                <time>2024-04-01T08:36:31Z</time>
            </trkpt>
            <trkpt lat="44.583350" lon="7.831280">
                <time>2024-04-01T08:36:32Z</time>
            </trkpt>
            <trkpt lat="44.583350" lon="7.831080">
                <time>2024-04-01T08:36:33Z</time>
            </trkpt>
            <trkpt lat="44.583360" lon="7.830870">
                <time>2024-04-01T08:36:34Z</time>
            </trkpt>
            <trkpt lat="44.583370" lon="7.830660">
                <time>2024-04-01T08:36:35Z</time>
            </trkpt>
            <trkpt lat="44.583380" lon="7.830430">
                <time>2024-04-01T08:36:36Z</time>
            </trkpt>
            <trkpt lat="44.583400" lon="7.830200">
                <time>2024-04-01T08:36:37Z</time>
            </trkpt>
            <trkpt lat="44.583420" lon="7.829950">
                <time>2024-04-01T08:36:38Z</time>
            </trkpt>
            <trkpt lat="44.583440" lon="7.829690">
                <time>2024-04-01T08:36:39Z</time>
            </trkpt>
            <trkpt lat="44.583470" lon="7.829430">
                <time>2024-04-01T08:36:40Z</time>
            </trkpt>
            <trkpt lat="44.583500" lon="7.829170">
                <time>2024-04-01T08:36:41Z</time>
            </trkpt>
            <trkpt lat="44.583530" lon="7.828910">
                <time>2024-04-01T08:36:42Z</time>
            </trkpt>
            <trkpt lat="44.583550" lon="7.828640">
                <time>2024-04-01T08:36:43Z</time>
            </trkpt>
            <trkpt lat="44.583580" lon="7.828400">
                <time>2024-04-01T08:36:44Z</time>
            </trkpt>
            <trkpt lat="44.583610" lon="7.828160">
                <time>2024-04-01T08:36:45Z</time>
            </trkpt>
            <trkpt lat="44.583640" lon="7.827940">
                <time>2024-04-01T08:36:46Z</time>
            </trkpt>
            <trkpt lat="44.583660" lon="7.827730">
                <time>2024-04-01T08:36:47Z</time>
            </trkpt>
            <trkpt lat="44.583680" lon="7.827530">
                <time>2024-04-01T08:36:48Z</time>
            </trkpt>
            <trkpt lat="44.583700" lon="7.827330">
                <time>2024-04-01T08:36:49Z</time>
            </trkpt>
            <trkpt lat="44.583720" lon="7.827130">
                <time>2024-04-01T08:36:50Z</time>
            </trkpt>
            <trkpt lat="44.583740" lon="7.826940">
                <time>2024-04-01T08:36:51Z</time>
            </trkpt>
            <trkpt lat="44.583760" lon="7.826750">
                <time>2024-04-01T08:36:52Z</time>
            </trkpt>
            <trkpt lat="44.583780" lon="7.826570">
                <time>2024-04-01T08:36:53Z</time>
            </trkpt>
            <trkpt lat="44.583800" lon="7.826410">
                <time>2024-04-01T08:36:54Z</time>
            </trkpt>
            <trkpt lat="44.583820" lon="7.826250">
                <time>2024-04-01T08:36:55Z</time>
            </trkpt>
            <trkpt lat="44.583830" lon="7.826080">
                <time>2024-04-01T08:36:56Z</time>
            </trkpt>
            <trkpt lat="44.583850" lon="7.825890">
                <time>2024-04-01T08:36:57Z</time>
            </trkpt>
            <trkpt lat="44.583870" lon="7.825700">
                <time>2024-04-01T08:36:58Z</time>
            </trkpt>
            <trkpt lat="44.583900" lon="7.825500">
                <time>2024-04-01T08:36:59Z</time>
            </trkpt>
            <trkpt lat="44.583920" lon="7.825300">
                <time>2024-04-01T08:37:00Z</time>
            </trkpt>
            <trkpt lat="44.583940" lon="7.825100">
                <time>2024-04-01T08:37:01Z</time>
            </trkpt>
            <trkpt lat="44.583960" lon="7.824910">
                <time>2024-04-01T08:37:02Z</time>
            </trkpt>
            <trkpt lat="44.583990" lon="7.824720">
                <time>2024-04-01T08:37:03Z</time>
            </trkpt>
            <trkpt lat="44.584040" lon="7.824530">
                <time>2024-04-01T08:37:04Z</time>
            </trkpt>
            <trkpt lat="44.584090" lon="7.824360">
                <time>2024-04-01T08:37:05Z</time>
            </trkpt>
            <trkpt lat="44.584150" lon="7.824200">
                <time>2024-04-01T08:37:06Z</time>
            </trkpt>
            <trkpt lat="44.584240" lon="7.824060">
                <time>2024-04-01T08:37:07Z</time>
            </trkpt>
            <trkpt lat="44.584350" lon="7.823930">
                <time>2024-04-01T08:37:08Z</time>
            </trkpt>
            <trkpt lat="44.584470" lon="7.823820">
                <time>2024-04-01T08:37:09Z</time>
            </trkpt>
            <trkpt lat="44.584600" lon="7.823710">
                <time>2024-04-01T08:37:10Z</time>
            </trkpt>
            <trkpt lat="44.584750" lon="7.823600">
                <time>2024-04-01T08:37:11Z</time>
            </trkpt>
            <trkpt lat="44.584890" lon="7.823490">
                <time>2024-04-01T08:37:12Z</time>
            </trkpt>
            <trkpt lat="44.585040" lon="7.823380">
                <time>2024-04-01T08:37:13Z</time>
            </trkpt>
            <trkpt lat="44.585180" lon="7.823260">
                <time>2024-04-01T08:37:14Z</time>
            </trkpt>
            <trkpt lat="44.585320" lon="7.823160">
                <time>2024-04-01T08:37:15Z</time>
            </trkpt>
            <trkpt lat="44.585460" lon="7.823050">
                <time>2024-04-01T08:37:16Z</time>
            </trkpt>
            <trkpt lat="44.585580" lon="7.822960">
                <time>2024-04-01T08:37:17Z</time>
            </trkpt>
            <trkpt lat="44.585700" lon="7.822860">
                <time>2024-04-01T08:37:18Z</time>
            </trkpt>
            <trkpt lat="44.585820" lon="7.822770">
                <time>2024-04-01T08:37:19Z</time>
            </trkpt>
            <trkpt lat="44.585920" lon="7.822690">
                <time>2024-04-01T08:37:20Z</time>
            </trkpt>
            <trkpt lat="44.586000" lon="7.822620">
                <time>2024-04-01T08:37:21Z</time>
            </trkpt>
            <trkpt lat="44.586080" lon="7.822560">
                <time>2024-04-01T08:37:22Z</time>
            </trkpt>
            <trkpt lat="44.586150" lon="7.822510">
                <time>2024-04-01T08:37:23Z</time>
            </trkpt>
            <trkpt lat="44.586200" lon="7.822470">
                <time>2024-04-01T08:37:24Z</time>
            </trkpt>
            <trkpt lat="44.586240" lon="7.822440">
                <time>2024-04-01T08:37:25Z</time>
            </trkpt>
            <trkpt lat="44.586280" lon="7.822400">
                <time>2024-04-01T08:37:26Z</time>
            </trkpt>
            <trkpt lat="44.586300" lon="7.822350">
                <time>2024-04-01T08:37:27Z</time>
            </trkpt>
            <trkpt lat="44.586300" lon="7.822280">
                <time>2024-04-01T08:37:28Z</time>
            </trkpt>
            <trkpt lat="44.586290" lon="7.822190">
                <time>2024-04-01T08:37:29Z</time>
            </trkpt>
            <trkpt lat="44.586280" lon="7.822080">
                <time>2024-04-01T08:37:30Z</time>
            </trkpt>
            <trkpt lat="44.586260" lon="7.821950">
                <time>2024-04-01T08:37:31Z</time>
            </trkpt>
            <trkpt lat="44.586240" lon="7.821820">
                <time>2024-04-01T08:37:32Z</time>
            </trkpt>
            <trkpt lat="44.586210" lon="7.821650">
                <time>2024-04-01T08:37:33Z</time>
            </trkpt>
            <trkpt lat="44.586190" lon="7.821470">
                <time>2024-04-01T08:37:34Z</time>
            </trkpt>
            <trkpt lat="44.586160" lon="7.821280">
                <time>2024-04-01T08:37:35Z</time>
            </trkpt>
            <trkpt lat="44.586120" lon="7.821080">
                <time>2024-04-01T08:37:36Z</time>
            </trkpt>
            <trkpt lat="44.586090" lon="7.820880">
                <time>2024-04-01T08:37:37Z</time>
            </trkpt>
            <trkpt lat="44.586060" lon="7.820690">
                <time>2024-04-01T08:37:38Z</time>
            </trkpt>
            <trkpt lat="44.586030" lon="7.820490">
                <time>2024-04-01T08:37:39Z</time>
            </trkpt>
            <trkpt lat="44.586000" lon="7.820290">
                <time>2024-04-01T08:37:40Z</time>
            </trkpt>
            <trkpt lat="44.585960" lon="7.820090">
                <time>2024-04-01T08:37:41Z</time>
            </trkpt>
            <trkpt lat="44.585920" lon="7.819900">
                <time>2024-04-01T08:37:42Z</time>
            </trkpt>
            <trkpt lat="44.585890" lon="7.819720">
                <time>2024-04-01T08:37:43Z</time>
            </trkpt>
            <trkpt lat="44.585870" lon="7.819540">
                <time>2024-04-01T08:37:44Z</time>
            </trkpt>
            <trkpt lat="44.585860" lon="7.819360">
                <time>2024-04-01T08:37:45Z</time>
            </trkpt>
            <trkpt lat="44.585880" lon="7.819180">
                <time>2024-04-01T08:37:46Z</time>
            </trkpt>
            <trkpt lat="44.585930" lon="7.819010">
                <time>2024-04-01T08:37:47Z</time>
            </trkpt>
            <trkpt lat="44.585990" lon="7.818840">
                <time>2024-04-01T08:37:48Z</time>
            </trkpt>
            <trkpt lat="44.586080" lon="7.818650">
                <time>2024-04-01T08:37:49Z</time>
            </trkpt>
            <trkpt lat="44.586160" lon="7.818430">
                <time>2024-04-01T08:37:50Z</time>
            </trkpt>
            <trkpt lat="44.586230" lon="7.818200">
                <time>2024-04-01T08:37:51Z</time>
            </trkpt>
            <trkpt lat="44.586290" lon="7.817960">
                <time>2024-04-01T08:37:52Z</time>
            </trkpt>
            <trkpt lat="44.586340" lon="7.817720">
                <time>2024-04-01T08:37:53Z</time>
            </trkpt>
            <trkpt lat="44.586390" lon="7.817510">
                <time>2024-04-01T08:37:54Z</time>
            </trkpt>
            <trkpt lat="44.586440" lon="7.817290">
                <time>2024-04-01T08:37:55Z</time>
            </trkpt>
            <trkpt lat="44.586500" lon="7.817080">
                <time>2024-04-01T08:37:56Z</time>
            </trkpt>
            <trkpt lat="44.586570" lon="7.816870">
                <time>2024-04-01T08:37:57Z</time>
            </trkpt>
            <trkpt lat="44.586620" lon="7.816670">
                <time>2024-04-01T08:37:58Z</time>
            </trkpt>
            <trkpt lat="44.586660" lon="7.816460">
                <time>2024-04-01T08:37:59Z</time>
            </trkpt>
            <trkpt lat="44.586670" lon="7.816250">
                <time>2024-04-01T08:38:00Z</time>
            </trkpt>
            <trkpt lat="44.586650" lon="7.816040">
                <time>2024-04-01T08:38:01Z</time>
            </trkpt>
            <trkpt lat="44.586590" lon="7.815830">
                <time>2024-04-01T08:38:02Z</time>
            </trkpt>
            <trkpt lat="44.586510" lon="7.815650">
                <time>2024-04-01T08:38:03Z</time>
            </trkpt>
            <trkpt lat="44.586390" lon="7.815490">
                <time>2024-04-01T08:38:04Z</time>
            </trkpt>
            <trkpt lat="44.586260" lon="7.815350">
                <time>2024-04-01T08:38:05Z</time>
            </trkpt>
            <trkpt lat="44.586110" lon="7.815210">
                <time>2024-04-01T08:38:06Z</time>
            </trkpt>
            <trkpt lat="44.585950" lon="7.815090">
                <time>2024-04-01T08:38:07Z</time>
            </trkpt>
            <trkpt lat="44.585790" lon="7.814980">
                <time>2024-04-01T08:38:08Z</time>
            </trkpt>
            <trkpt lat="44.585620" lon="7.814880">
                <time>2024-04-01T08:38:09Z</time>
            </trkpt>
            <trkpt lat="44.585440" lon="7.814800">
                <time>2024-04-01T08:38:10Z</time>
            </trkpt>
            <trkpt lat="44.585260" lon="7.814720">
                <time>2024-04-01T08:38:11Z</time>
            </trkpt>
            <trkpt lat="44.585080" lon="7.814630">
                <time>2024-04-01T08:38:12Z</time>
            </trkpt>
            <trkpt lat="44.584890" lon="7.814550">
                <time>2024-04-01T08:38:13Z</time>
            </trkpt>
            <trkpt lat="44.584710" lon="7.814470">
                <time>2024-04-01T08:38:14Z</time>
            </trkpt>
            <trkpt lat="44.584530" lon="7.814390">
                <time>2024-04-01T08:38:15Z</time>
            </trkpt>
            <trkpt lat="44.584360" lon="7.814310">
                <time>2024-04-01T08:38:16Z</time>
            </trkpt>
            <trkpt lat="44.584200" lon="7.814240">
                <time>2024-04-01T08:38:17Z</time>
            </trkpt>
            <trkpt lat="44.584040" lon="7.814160">
                <time>2024-04-01T08:38:18Z</time>
            </trkpt>
            <trkpt lat="44.583890" lon="7.814070">
                <time>2024-04-01T08:38:19Z</time>
            </trkpt>
            <trkpt lat="44.583740" lon="7.813980">
                <time>2024-04-01T08:38:20Z</time>
            </trkpt>
            <trkpt lat="44.583600" lon="7.813870">
                <time>2024-04-01T08:38:21Z</time>
            </trkpt>
            <trkpt lat="44.583480" lon="7.813770">
                <time>2024-04-01T08:38:22Z</time>
            </trkpt>
            <trkpt lat="44.583370" lon="7.813660">
                <time>2024-04-01T08:38:23Z</time>
            </trkpt>
            <trkpt lat="44.583300" lon="7.813530">
                <time>2024-04-01T08:38:24Z</time>
            </trkpt>
            <trkpt lat="44.583250" lon="7.813390">
                <time>2024-04-01T08:38:25Z</time>
            </trkpt>
            <trkpt lat="44.583220" lon="7.813220">
                <time>2024-04-01T08:38:26Z</time>
            </trkpt>
            <trkpt lat="44.583200" lon="7.813040">
                <time>2024-04-01T08:38:27Z</time>
            </trkpt>
            <trkpt lat="44.583190" lon="7.812830">
                <time>2024-04-01T08:38:28Z</time>
            </trkpt>
            <trkpt lat="44.583170" lon="7.812600">
                <time>2024-04-01T08:38:29Z</time>
            </trkpt>
            <trkpt lat="44.583160" lon="7.812360">
                <time>2024-04-01T08:38:30Z</time>
            </trkpt>
            <trkpt lat="44.583150" lon="7.812100">
                <time>2024-04-01T08:38:31Z</time>
            </trkpt>
            <trkpt lat="44.583140" lon="7.811860">
                <time>2024-04-01T08:38:32Z</time>
            </trkpt>
            <trkpt lat="44.583130" lon="7.811620">
                <time>2024-04-01T08:38:33Z</time>
            </trkpt>
            <trkpt lat="44.583100" lon="7.811390">
                <time>2024-04-01T08:38:34Z</time>
            </trkpt>
            <trkpt lat="44.583080" lon="7.811150">
                <time>2024-04-01T08:38:35Z</time>
            </trkpt>
            <trkpt lat="44.583040" lon="7.810910">
                <time>2024-04-01T08:38:36Z</time>
            </trkpt>
            <trkpt lat="44.582990" lon="7.810660">
                <time>2024-04-01T08:38:37Z</time>
            </trkpt>
            <trkpt lat="44.582930" lon="7.810420">
                <time>2024-04-01T08:38:38Z</time>
            </trkpt>
            <trkpt lat="44.582860" lon="7.810190">
                <time>2024-04-01T08:38:39Z</time>
            </trkpt>
            <trkpt lat="44.582800" lon="7.809950">
                <time>2024-04-01T08:38:40Z</time>
            </trkpt>
            <trkpt lat="44.582750" lon="7.809720">
                <time>2024-04-01T08:38:41Z</time>
            </trkpt>
            <trkpt lat="44.582710" lon="7.809480">
                <time>2024-04-01T08:38:42Z</time>
            </trkpt>
            <trkpt lat="44.582690" lon="7.809230">
                <time>2024-04-01T08:38:43Z</time>
            </trkpt>
            <trkpt lat="44.582690" lon="7.808970">
                <time>2024-04-01T08:38:44Z</time>
            </trkpt>
            <trkpt lat="44.582680" lon="7.808710">
                <time>2024-04-01T08:38:45Z</time>
            </trkpt>
            <trkpt lat="44.582680" lon="7.808420">
                <time>2024-04-01T08:38:46Z</time>
            </trkpt>
            <trkpt lat="44.582680" lon="7.808120">
                <time>2024-04-01T08:38:47Z</time>
            </trkpt>
            <trkpt lat="44.582680" lon="7.807810">
                <time>2024-04-01T08:38:48Z</time>
            </trkpt>
            <trkpt lat="44.582680" lon="7.807510">
                <time>2024-04-01T08:38:49Z</time>
            </trkpt>
            <trkpt lat="44.582680" lon="7.807210">
                <time>2024-04-01T08:38:50Z</time>
            </trkpt>
            <trkpt lat="44.582680" lon="7.806920">
                <time>2024-04-01T08:38:51Z</time>
            </trkpt>
            <trkpt lat="44.582670" lon="7.806630">
                <time>2024-04-01T08:38:52Z</time>
            </trkpt>
            <trkpt lat="44.582650" lon="7.806330">
                <time>2024-04-01T08:38:53Z</time>
            </trkpt>
            <trkpt lat="44.582620" lon="7.806030">
                <time>2024-04-01T08:38:54Z</time>
            </trkpt>
            <trkpt lat="44.582570" lon="7.805730">
                <time>2024-04-01T08:38:55Z</time>
            </trkpt>
            <trkpt lat="44.582530" lon="7.805430">
                <time>2024-04-01T08:38:56Z</time>
            </trkpt>
            <trkpt lat="44.582470" lon="7.805130">
                <time>2024-04-01T08:38:57Z</time>
            </trkpt>
            <trkpt lat="44.582420" lon="7.804840">
                <time>2024-04-01T08:38:58Z</time>
            </trkpt>
            <trkpt lat="44.582360" lon="7.804540">
                <time>2024-04-01T08:38:59Z</time>
            </trkpt>
            <trkpt lat="44.582310" lon="7.804230">
                <time>2024-04-01T08:39:00Z</time>
            </trkpt>
            <trkpt lat="44.582250" lon="7.803920">
                <time>2024-04-01T08:39:01Z</time>
            </trkpt>
            <trkpt lat="44.582180" lon="7.803600">
                <time>2024-04-01T08:39:02Z</time>
            </trkpt>
            <trkpt lat="44.582120" lon="7.803290">
                <time>2024-04-01T08:39:03Z</time>
            </trkpt>
            <trkpt lat="44.582060" lon="7.802980">
                <time>2024-04-01T08:39:04Z</time>
            </trkpt>
            <trkpt lat="44.582000" lon="7.802680">
                <time>2024-04-01T08:39:05Z</time>
            </trkpt>
            <trkpt lat="44.581940" lon="7.802400">
                <time>2024-04-01T08:39:06Z</time>
            </trkpt>
            <trkpt lat="44.581890" lon="7.802120">
                <time>2024-04-01T08:39:07Z</time>
            </trkpt>
            <trkpt lat="44.581850" lon="7.801850">
                <time>2024-04-01T08:39:08Z</time>
            </trkpt>
            <trkpt lat="44.581820" lon="7.801560">
                <time>2024-04-01T08:39:09Z</time>
            </trkpt>
            <trkpt lat="44.581800" lon="7.801250">
                <time>2024-04-01T08:39:10Z</time>
            </trkpt>
            <trkpt lat="44.581790" lon="7.800940">
                <time>2024-04-01T08:39:11Z</time>
            </trkpt>
            <trkpt lat="44.581790" lon="7.800620">
                <time>2024-04-01T08:39:12Z</time>
            </trkpt>
            <trkpt lat="44.581780" lon="7.800290">
                <time>2024-04-01T08:39:13Z</time>
            </trkpt>
            <trkpt lat="44.581780" lon="7.799960">
                <time>2024-04-01T08:39:14Z</time>
            </trkpt>
            <trkpt lat="44.581780" lon="7.799620">
                <time>2024-04-01T08:39:15Z</time>
            </trkpt>
            <trkpt lat="44.581770" lon="7.799290">
                <time>2024-04-01T08:39:16Z</time>
            </trkpt>
            <trkpt lat="44.581760" lon="7.798960">
                <time>2024-04-01T08:39:17Z</time>
            </trkpt>
            <trkpt lat="44.581750" lon="7.798640">
                <time>2024-04-01T08:39:18Z</time>
            </trkpt>
            <trkpt lat="44.581730" lon="7.798310">
                <time>2024-04-01T08:39:19Z</time>
            </trkpt>
            <trkpt lat="44.581700" lon="7.798000">
                <time>2024-04-01T08:39:20Z</time>
            </trkpt>
            <trkpt lat="44.581680" lon="7.797710">
                <time>2024-04-01T08:39:21Z</time>
            </trkpt>
            <trkpt lat="44.581650" lon="7.797430">
                <time>2024-04-01T08:39:22Z</time>
            </trkpt>
            <trkpt lat="44.581620" lon="7.797170">
                <time>2024-04-01T08:39:23Z</time>
            </trkpt>
            <trkpt lat="44.581580" lon="7.796920">
                <time>2024-04-01T08:39:24Z</time>
            </trkpt>
            <trkpt lat="44.581520" lon="7.796680">
                <time>2024-04-01T08:39:25Z</time>
            </trkpt>
            <trkpt lat="44.581460" lon="7.796450">
                <time>2024-04-01T08:39:26Z</time>
            </trkpt>
            <trkpt lat="44.581380" lon="7.796240">
                <time>2024-04-01T08:39:27Z</time>
            </trkpt>
            <trkpt lat="44.581280" lon="7.796050">
                <time>2024-04-01T08:39:28Z</time>
            </trkpt>
            <trkpt lat="44.581160" lon="7.795870">
                <time>2024-04-01T08:39:29Z</time>
            </trkpt>
            <trkpt lat="44.581030" lon="7.795700">
                <time>2024-04-01T08:39:30Z</time>
            </trkpt>
            <trkpt lat="44.580890" lon="7.795550">
                <time>2024-04-01T08:39:31Z</time>
            </trkpt>
            <trkpt lat="44.580740" lon="7.795410">
                <time>2024-04-01T08:39:32Z</time>
            </trkpt>
            <trkpt lat="44.580600" lon="7.795290">
                <time>2024-04-01T08:39:33Z</time>
            </trkpt>
            <trkpt lat="44.580470" lon="7.795170">
                <time>2024-04-01T08:39:34Z</time>
            </trkpt>
            <trkpt lat="44.580340" lon="7.795050">
                <time>2024-04-01T08:39:35Z</time>
            </trkpt>
            <trkpt lat="44.580210" lon="7.794910">
                <time>2024-04-01T08:39:36Z</time>
            </trkpt>
            <trkpt lat="44.580090" lon="7.794760">
                <time>2024-04-01T08:39:37Z</time>
            </trkpt>
            <trkpt lat="44.579970" lon="7.794600">
                <time>2024-04-01T08:39:38Z</time>
            </trkpt>
            <trkpt lat="44.579850" lon="7.794440">
                <time>2024-04-01T08:39:39Z</time>
            </trkpt>
            <trkpt lat="44.579730" lon="7.794270">
                <time>2024-04-01T08:39:40Z</time>
            </trkpt>
            <trkpt lat="44.579610" lon="7.794100">
                <time>2024-04-01T08:39:41Z</time>
            </trkpt>
            <trkpt lat="44.579500" lon="7.793930">
                <time>2024-04-01T08:39:42Z</time>
            </trkpt>
            <trkpt lat="44.579390" lon="7.793780">
                <time>2024-04-01T08:39:43Z</time>
            </trkpt>
            <trkpt lat="44.579290" lon="7.793640">
                <time>2024-04-01T08:39:44Z</time>
            </trkpt>
            <trkpt lat="44.579210" lon="7.793520">
                <time>2024-04-01T08:39:45Z</time>
            </trkpt>
            <trkpt lat="44.579120" lon="7.793390">
                <time>2024-04-01T08:39:46Z</time>
            </trkpt>
            <trkpt lat="44.579040" lon="7.793280">
                <time>2024-04-01T08:39:47Z</time>
            </trkpt>
            <trkpt lat="44.578950" lon="7.793170">
                <time>2024-04-01T08:39:48Z</time>
            </trkpt>
            <trkpt lat="44.578880" lon="7.793060">
                <time>2024-04-01T08:39:49Z</time>
            </trkpt>
            <trkpt lat="44.578800" lon="7.792960">
                <time>2024-04-01T08:39:50Z</time>
            </trkpt>
            <trkpt lat="44.578730" lon="7.792870">
                <time>2024-04-01T08:39:51Z</time>
            </trkpt>
            <trkpt lat="44.578670" lon="7.792790">
                <time>2024-04-01T08:39:52Z</time>
            </trkpt>
            <trkpt lat="44.578610" lon="7.792710">
                <time>2024-04-01T08:39:53Z</time>
            </trkpt>
            <trkpt lat="44.578550" lon="7.792630">
                <time>2024-04-01T08:39:54Z</time>
            </trkpt>
            <trkpt lat="44.578490" lon="7.792570">
                <time>2024-04-01T08:39:55Z</time>
            </trkpt>
            <trkpt lat="44.578440" lon="7.792510">
                <time>2024-04-01T08:39:56Z</time>
            </trkpt>
            <trkpt lat="44.578400" lon="7.792450">
                <time>2024-04-01T08:39:57Z</time>
            </trkpt>
            <trkpt lat="44.578360" lon="7.792400">
                <time>2024-04-01T08:39:58Z</time>
            </trkpt>
            <trkpt lat="44.578310" lon="7.792350">
                <time>2024-04-01T08:39:59Z</time>
            </trkpt>
            <trkpt lat="44.578270" lon="7.792310">
                <time>2024-04-01T08:40:00Z</time>
            </trkpt>
            <trkpt lat="44.578260" lon="7.792260">
                <time>2024-04-01T08:40:01Z</time>
            </trkpt>
            <trkpt lat="44.578250" lon="7.792200">
                <time>2024-04-01T08:40:02Z</time>
            </trkpt>
            <trkpt lat="44.578270" lon="7.792140">
                <time>2024-04-01T08:40:03Z</time>
            </trkpt>
            <trkpt lat="44.578290" lon="7.792080">
                <time>2024-04-01T08:40:04Z</time>
            </trkpt>
            <trkpt lat="44.578300" lon="7.792020">
                <time>2024-04-01T08:40:05Z</time>
            </trkpt>
            <trkpt lat="44.578330" lon="7.791960">
                <time>2024-04-01T08:40:06Z</time>
            </trkpt>
            <trkpt lat="44.578360" lon="7.791910">
                <time>2024-04-01T08:40:07Z</time>
            </trkpt>
            <trkpt lat="44.578380" lon="7.791870">
                <time>2024-04-01T08:40:08Z</time>
            </trkpt>
            <trkpt lat="44.578380" lon="7.791860">
                <time>2024-04-01T08:40:09Z</time>
            </trkpt>
            <trkpt lat="44.578380" lon="7.791860">
                <time>2024-04-01T08:40:10Z</time>
            </trkpt>
            <trkpt lat="44.578390" lon="7.791860">
                <time>2024-04-01T08:40:11Z</time>
            </trkpt>
            <trkpt lat="44.578390" lon="7.791870">
                <time>2024-04-01T08:40:12Z</time>
            </trkpt>
            <trkpt lat="44.578390" lon="7.791870">
                <time>2024-04-01T08:40:13Z</time>
            </trkpt>
            <trkpt lat="44.578390" lon="7.791870">
                <time>2024-04-01T08:40:14Z</time>
            </trkpt>
            <trkpt lat="44.578390" lon="7.791870">
                <time>2024-04-01T08:40:15Z</time>
            </trkpt>
            <trkpt lat="44.578390" lon="7.791860">
                <time>2024-04-01T08:40:16Z</time>
            </trkpt>
            <trkpt lat="44.578390" lon="7.791850">
                <time>2024-04-01T08:40:17Z</time>
            </trkpt>
            <trkpt lat="44.578390" lon="7.791850">
                <time>2024-04-01T08:40:18Z</time>
            </trkpt>
            <trkpt lat="44.578390" lon="7.791850">
                <time>2024-04-01T08:40:19Z</time>
            </trkpt>
            <trkpt lat="44.578380" lon="7.791850">
                <time>2024-04-01T08:40:20Z</time>
            </trkpt>
            <trkpt lat="44.578380" lon="7.791850">
                <time>2024-04-01T08:40:21Z</time>
            </trkpt>
            <trkpt lat="44.578380" lon="7.791850">
                <time>2024-04-01T08:40:22Z</time>
            </trkpt>
            <trkpt lat="44.578380" lon="7.791850">
                <time>2024-04-01T08:40:23Z</time>
            </trkpt>
            <trkpt lat="44.578380" lon="7.791850">
                <time>2024-04-01T08:40:24Z</time>
            </trkpt>
            <trkpt lat="44.578380" lon="7.791850">
                <time>2024-04-01T08:40:25Z</time>
            </trkpt>
            <trkpt lat="44.578380" lon="7.791850">
                <time>2024-04-01T08:40:26Z</time>
            </trkpt>
            <trkpt lat="44.578380" lon="7.791850">
                <time>2024-04-01T08:40:27Z</time>
            </trkpt>
            <trkpt lat="44.578380" lon="7.791850">
                <time>2024-04-01T08:40:28Z</time>
            </trkpt>
            <trkpt lat="44.578380" lon="7.791850">
                <time>2024-04-01T08:40:29Z</time>
            </trkpt>
            <trkpt lat="44.578380" lon="7.791850">
                <time>2024-04-01T08:40:30Z</time>
            </trkpt>
            <trkpt lat="44.578380" lon="7.791850">
                <time>2024-04-01T08:40:31Z</time>
            </trkpt>
            <trkpt lat="44.578380" lon="7.791850">
                <time>2024-04-01T08:40:32Z</time>
            </trkpt>
            <trkpt lat="44.578380" lon="7.791850">
                <time>2024-04-01T08:40:33Z</time>
            </trkpt>
            <trkpt lat="44.578380" lon="7.791850">
                <time>2024-04-01T08:40:34Z</time>
            </trkpt>
            <trkpt lat="44.578380" lon="7.791850">
                <time>2024-04-01T08:40:35Z</time>
            </trkpt>
            <trkpt lat="44.578380" lon="7.791850">
                <time>2024-04-01T08:40:36Z</time>
            </trkpt>
            <trkpt lat="44.578380" lon="7.791850">
                <time>2024-04-01T08:40:37Z</time>
            </trkpt>
            <trkpt lat="44.578380" lon="7.791850">
                <time>2024-04-01T08:40:38Z</time>
            </trkpt>
            <trkpt lat="44.578380" lon="7.791850">
                <time>2024-04-01T08:40:39Z</time>
            </trkpt>
            <trkpt lat="44.578380" lon="7.791850">
                <time>2024-04-01T08:40:40Z</time>
            </trkpt>
            <trkpt lat="44.578380" lon="7.791850">
                <time>2024-04-01T08:40:41Z</time>
            </trkpt>
            <trkpt lat="44.578380" lon="7.791850">
                <time>2024-04-01T08:40:42Z</time>
            </trkpt>
            <trkpt lat="44.578380" lon="7.791850">
                <time>2024-04-01T08:40:43Z</time>
            </trkpt>
            <trkpt lat="44.578380" lon="7.791850">
                <time>2024-04-01T08:40:44Z</time>
            </trkpt>
            <trkpt lat="44.578380" lon="7.791850">
                <time>2024-04-01T08:40:45Z</time>
            </trkpt>
            <trkpt lat="44.578380" lon="7.791850">
                <time>2024-04-01T08:40:46Z</time>
            </trkpt>
            <trkpt lat="44.578380" lon="7.791850">
                <time>2024-04-01T08:40:47Z</time>
            </trkpt>
            <trkpt lat="44.578390" lon="7.791850">
                <time>2024-04-01T08:40:48Z</time>
            </trkpt>
            <trkpt lat="44.578390" lon="7.791860">
                <time>2024-04-01T08:40:49Z</time>
            </trkpt>
            <trkpt lat="44.578390" lon="7.791860">
                <time>2024-04-01T08:40:50Z</time>
            </trkpt>
            <trkpt lat="44.578400" lon="7.791850">
                <time>2024-04-01T08:40:51Z</time>
            </trkpt>
            <trkpt lat="44.578400" lon="7.791830">
                <time>2024-04-01T08:40:52Z</time>
            </trkpt>
            <trkpt lat="44.578400" lon="7.791810">
                <time>2024-04-01T08:40:53Z</time>
            </trkpt>
            <trkpt lat="44.578400" lon="7.791790">
                <time>2024-04-01T08:40:54Z</time>
            </trkpt>
            <trkpt lat="44.578370" lon="7.791790">
                <time>2024-04-01T08:40:55Z</time>
            </trkpt>
            <trkpt lat="44.578350" lon="7.791800">
                <time>2024-04-01T08:40:56Z</time>
            </trkpt>
            <trkpt lat="44.578330" lon="7.791830">
                <time>2024-04-01T08:40:57Z</time>
            </trkpt>
            <trkpt lat="44.578310" lon="7.791870">
                <time>2024-04-01T08:40:58Z</time>
            </trkpt>
            <trkpt lat="44.578300" lon="7.791910">
                <time>2024-04-01T08:40:59Z</time>
            </trkpt>
            <trkpt lat="44.578280" lon="7.791940">
                <time>2024-04-01T08:41:00Z</time>
            </trkpt>
            <trkpt lat="44.578270" lon="7.791980">
                <time>2024-04-01T08:41:01Z</time>
            </trkpt>
            <trkpt lat="44.578260" lon="7.792010">
                <time>2024-04-01T08:41:02Z</time>
            </trkpt>
            <trkpt lat="44.578250" lon="7.792060">
                <time>2024-04-01T08:41:03Z</time>
            </trkpt>
            <trkpt lat="44.578240" lon="7.792110">
                <time>2024-04-01T08:41:04Z</time>
            </trkpt>
            <trkpt lat="44.578230" lon="7.792170">
                <time>2024-04-01T08:41:05Z</time>
            </trkpt>
            <trkpt lat="44.578230" lon="7.792220">
                <time>2024-04-01T08:41:06Z</time>
            </trkpt>
            <trkpt lat="44.578210" lon="7.792270">
                <time>2024-04-01T08:41:07Z</time>
            </trkpt>
            <trkpt lat="44.578150" lon="7.792300">
                <time>2024-04-01T08:41:08Z</time>
            </trkpt>
            <trkpt lat="44.578100" lon="7.792330">
                <time>2024-04-01T08:41:09Z</time>
            </trkpt>
            <trkpt lat="44.578030" lon="7.792360">
                <time>2024-04-01T08:41:10Z</time>
            </trkpt>
            <trkpt lat="44.577950" lon="7.792400">
                <time>2024-04-01T08:41:11Z</time>
            </trkpt>
            <trkpt lat="44.577870" lon="7.792460">
                <time>2024-04-01T08:41:12Z</time>
            </trkpt>
            <trkpt lat="44.577790" lon="7.792520">
                <time>2024-04-01T08:41:13Z</time>
            </trkpt>
            <trkpt lat="44.577700" lon="7.792570">
                <time>2024-04-01T08:41:14Z</time>
            </trkpt>
            <trkpt lat="44.577610" lon="7.792640">
                <time>2024-04-01T08:41:15Z</time>
            </trkpt>
            <trkpt lat="44.577510" lon="7.792700">
                <time>2024-04-01T08:41:16Z</time>
            </trkpt>
            <trkpt lat="44.577400" lon="7.792750">
                <time>2024-04-01T08:41:17Z</time>
            </trkpt>
            <trkpt lat="44.577300" lon="7.792820">
                <time>2024-04-01T08:41:18Z</time>
            </trkpt>
            <trkpt lat="44.577200" lon="7.792880">
                <time>2024-04-01T08:41:19Z</time>
            </trkpt>
            <trkpt lat="44.577090" lon="7.792940">
                <time>2024-04-01T08:41:20Z</time>
            </trkpt>
            <trkpt lat="44.576990" lon="7.793020">
                <time>2024-04-01T08:41:21Z</time>
            </trkpt>
            <trkpt lat="44.576870" lon="7.793090">
                <time>2024-04-01T08:41:22Z</time>
            </trkpt>
            <trkpt lat="44.576760" lon="7.793160">
                <time>2024-04-01T08:41:23Z</time>
            </trkpt>
            <trkpt lat="44.576640" lon="7.793230">
                <time>2024-04-01T08:41:24Z</time>
            </trkpt>
            <trkpt lat="44.576530" lon="7.793300">
                <time>2024-04-01T08:41:25Z</time>
            </trkpt>
            <trkpt lat="44.576410" lon="7.793360">
                <time>2024-04-01T08:41:26Z</time>
            </trkpt>
            <trkpt lat="44.576310" lon="7.793430">
                <time>2024-04-01T08:41:27Z</time>
            </trkpt>
            <trkpt lat="44.576200" lon="7.793490">
                <time>2024-04-01T08:41:28Z</time>
            </trkpt>
            <trkpt lat="44.576110" lon="7.793560">
                <time>2024-04-01T08:41:29Z</time>
            </trkpt>
            <trkpt lat="44.576010" lon="7.793620">
                <time>2024-04-01T08:41:30Z</time>
            </trkpt>
            <trkpt lat="44.575910" lon="7.793670">
                <time>2024-04-01T08:41:31Z</time>
            </trkpt>
            <trkpt lat="44.575800" lon="7.793700">
                <time>2024-04-01T08:41:32Z</time>
            </trkpt>
            <trkpt lat="44.575700" lon="7.793700">
                <time>2024-04-01T08:41:33Z</time>
            </trkpt>
            <trkpt lat="44.575590" lon="7.793690">
                <time>2024-04-01T08:41:34Z</time>
            </trkpt>
            <trkpt lat="44.575480" lon="7.793640">
                <time>2024-04-01T08:41:35Z</time>
            </trkpt>
            <trkpt lat="44.575380" lon="7.793560">
                <time>2024-04-01T08:41:36Z</time>
            </trkpt>
            <trkpt lat="44.575280" lon="7.793460">
                <time>2024-04-01T08:41:37Z</time>
            </trkpt>
            <trkpt lat="44.575190" lon="7.793350">
                <time>2024-04-01T08:41:38Z</time>
            </trkpt>
            <trkpt lat="44.575100" lon="7.793230">
                <time>2024-04-01T08:41:39Z</time>
            </trkpt>
            <trkpt lat="44.575010" lon="7.793110">
                <time>2024-04-01T08:41:40Z</time>
            </trkpt>
            <trkpt lat="44.574920" lon="7.792990">
                <time>2024-04-01T08:41:41Z</time>
            </trkpt>
            <trkpt lat="44.574820" lon="7.792890">
                <time>2024-04-01T08:41:42Z</time>
            </trkpt>
            <trkpt lat="44.574720" lon="7.792800">
                <time>2024-04-01T08:41:43Z</time>
            </trkpt>
            <trkpt lat="44.574610" lon="7.792720">
                <time>2024-04-01T08:41:44Z</time>
            </trkpt>
            <trkpt lat="44.574490" lon="7.792660">
                <time>2024-04-01T08:41:45Z</time>
            </trkpt>
            <trkpt lat="44.574370" lon="7.792600">
                <time>2024-04-01T08:41:46Z</time>
            </trkpt>
            <trkpt lat="44.574250" lon="7.792540">
                <time>2024-04-01T08:41:47Z</time>
            </trkpt>
            <trkpt lat="44.574130" lon="7.792480">
                <time>2024-04-01T08:41:48Z</time>
            </trkpt>
            <trkpt lat="44.574000" lon="7.792430">
                <time>2024-04-01T08:41:49Z</time>
            </trkpt>
            <trkpt lat="44.573880" lon="7.792380">
                <time>2024-04-01T08:41:50Z</time>
            </trkpt>
            <trkpt lat="44.573760" lon="7.792320">
                <time>2024-04-01T08:41:51Z</time>
            </trkpt>
            <trkpt lat="44.573650" lon="7.792260">
                <time>2024-04-01T08:41:52Z</time>
            </trkpt>
            <trkpt lat="44.573550" lon="7.792210">
                <time>2024-04-01T08:41:53Z</time>
            </trkpt>
            <trkpt lat="44.573450" lon="7.792150">
                <time>2024-04-01T08:41:54Z</time>
            </trkpt>
            <trkpt lat="44.573370" lon="7.792100">
                <time>2024-04-01T08:41:55Z</time>
            </trkpt>
            <trkpt lat="44.573280" lon="7.792060">
                <time>2024-04-01T08:41:56Z</time>
            </trkpt>
            <trkpt lat="44.573200" lon="7.792050">
                <time>2024-04-01T08:41:57Z</time>
            </trkpt>
            <trkpt lat="44.573120" lon="7.792060">
                <time>2024-04-01T08:41:58Z</time>
            </trkpt>
            <trkpt lat="44.573030" lon="7.792090">
                <time>2024-04-01T08:41:59Z</time>
            </trkpt>
            <trkpt lat="44.572930" lon="7.792110">
                <time>2024-04-01T08:42:00Z</time>
            </trkpt>
            <trkpt lat="44.572830" lon="7.792120">
                <time>2024-04-01T08:42:01Z</time>
            </trkpt>
            <trkpt lat="44.572720" lon="7.792110">
                <time>2024-04-01T08:42:02Z</time>
            </trkpt>
            <trkpt lat="44.572600" lon="7.792100">
                <time>2024-04-01T08:42:03Z</time>
            </trkpt>
            <trkpt lat="44.572470" lon="7.792090">
                <time>2024-04-01T08:42:04Z</time>
            </trkpt>
            <trkpt lat="44.572340" lon="7.792070">
                <time>2024-04-01T08:42:05Z</time>
            </trkpt>
            <trkpt lat="44.572190" lon="7.792050">
                <time>2024-04-01T08:42:06Z</time>
            </trkpt>
            <trkpt lat="44.572050" lon="7.792030">
                <time>2024-04-01T08:42:07Z</time>
            </trkpt>
            <trkpt lat="44.571910" lon="7.792020">
                <time>2024-04-01T08:42:08Z</time>
            </trkpt>
            <trkpt lat="44.571770" lon="7.792000">
                <time>2024-04-01T08:42:09Z</time>
            </trkpt>
            <trkpt lat="44.571620" lon="7.791980">
                <time>2024-04-01T08:42:10Z</time>
            </trkpt>
            <trkpt lat="44.571470" lon="7.791960">
                <time>2024-04-01T08:42:11Z</time>
            </trkpt>
            <trkpt lat="44.571330" lon="7.791930">
                <time>2024-04-01T08:42:12Z</time>
            </trkpt>
            <trkpt lat="44.571180" lon="7.791900">
                <time>2024-04-01T08:42:13Z</time>
            </trkpt>
            <trkpt lat="44.571040" lon="7.791860">
                <time>2024-04-01T08:42:14Z</time>
            </trkpt>
            <trkpt lat="44.570900" lon="7.791820">
                <time>2024-04-01T08:42:15Z</time>
            </trkpt>
            <trkpt lat="44.570770" lon="7.791760">
                <time>2024-04-01T08:42:16Z</time>
            </trkpt>
            <trkpt lat="44.570630" lon="7.791690">
                <time>2024-04-01T08:42:17Z</time>
            </trkpt>
            <trkpt lat="44.570490" lon="7.791620">
                <time>2024-04-01T08:42:18Z</time>
            </trkpt>
            <trkpt lat="44.570350" lon="7.791550">
                <time>2024-04-01T08:42:19Z</time>
            </trkpt>
            <trkpt lat="44.570200" lon="7.791470">
                <time>2024-04-01T08:42:20Z</time>
            </trkpt>
            <trkpt lat="44.570060" lon="7.791400">
                <time>2024-04-01T08:42:21Z</time>
            </trkpt>
            <trkpt lat="44.569910" lon="7.791320">
                <time>2024-04-01T08:42:22Z</time>
            </trkpt>
            <trkpt lat="44.569770" lon="7.791250">
                <time>2024-04-01T08:42:23Z</time>
            </trkpt>
            <trkpt lat="44.569620" lon="7.791170">
                <time>2024-04-01T08:42:24Z</time>
            </trkpt>
            <trkpt lat="44.569470" lon="7.791090">
                <time>2024-04-01T08:42:25Z</time>
            </trkpt>
            <trkpt lat="44.569320" lon="7.791010">
                <time>2024-04-01T08:42:26Z</time>
            </trkpt>
            <trkpt lat="44.569170" lon="7.790940">
                <time>2024-04-01T08:42:27Z</time>
            </trkpt>
            <trkpt lat="44.569020" lon="7.790860">
                <time>2024-04-01T08:42:28Z</time>
            </trkpt>
            <trkpt lat="44.568860" lon="7.790780">
                <time>2024-04-01T08:42:29Z</time>
            </trkpt>
            <trkpt lat="44.568710" lon="7.790700">
                <time>2024-04-01T08:42:30Z</time>
            </trkpt>
            <trkpt lat="44.568560" lon="7.790620">
                <time>2024-04-01T08:42:31Z</time>
            </trkpt>
            <trkpt lat="44.568410" lon="7.790540">
                <time>2024-04-01T08:42:32Z</time>
            </trkpt>
            <trkpt lat="44.568250" lon="7.790450">
                <time>2024-04-01T08:42:33Z</time>
            </trkpt>
            <trkpt lat="44.568100" lon="7.790370">
                <time>2024-04-01T08:42:34Z</time>
            </trkpt>
            <trkpt lat="44.567950" lon="7.790300">
                <time>2024-04-01T08:42:35Z</time>
            </trkpt>
            <trkpt lat="44.567800" lon="7.790220">
                <time>2024-04-01T08:42:36Z</time>
            </trkpt>
            <trkpt lat="44.567650" lon="7.790140">
                <time>2024-04-01T08:42:37Z</time>
            </trkpt>
            <trkpt lat="44.567510" lon="7.790060">
                <time>2024-04-01T08:42:38Z</time>
            </trkpt>
            <trkpt lat="44.567360" lon="7.789980">
                <time>2024-04-01T08:42:39Z</time>
            </trkpt>
            <trkpt lat="44.567210" lon="7.789900">
                <time>2024-04-01T08:42:40Z</time>
            </trkpt>
            <trkpt lat="44.567060" lon="7.789830">
                <time>2024-04-01T08:42:41Z</time>
            </trkpt>
            <trkpt lat="44.566900" lon="7.789760">
                <time>2024-04-01T08:42:42Z</time>
            </trkpt>
            <trkpt lat="44.566750" lon="7.789690">
                <time>2024-04-01T08:42:43Z</time>
            </trkpt>
            <trkpt lat="44.566590" lon="7.789630">
                <time>2024-04-01T08:42:44Z</time>
            </trkpt>
            <trkpt lat="44.566430" lon="7.789590">
                <time>2024-04-01T08:42:45Z</time>
            </trkpt>
            <trkpt lat="44.566270" lon="7.789560">
                <time>2024-04-01T08:42:46Z</time>
            </trkpt>
            <trkpt lat="44.566110" lon="7.789530">
                <time>2024-04-01T08:42:47Z</time>
            </trkpt>
            <trkpt lat="44.565950" lon="7.789520">
                <time>2024-04-01T08:42:48Z</time>
            </trkpt>
            <trkpt lat="44.565790" lon="7.789520">
                <time>2024-04-01T08:42:49Z</time>
            </trkpt>
            <trkpt lat="44.565620" lon="7.789510">
                <time>2024-04-01T08:42:50Z</time>
            </trkpt>
            <trkpt lat="44.565460" lon="7.789520">
                <time>2024-04-01T08:42:51Z</time>
            </trkpt>
            <trkpt lat="44.565290" lon="7.789520">
                <time>2024-04-01T08:42:52Z</time>
            </trkpt>
            <trkpt lat="44.565120" lon="7.789540">
                <time>2024-04-01T08:42:53Z</time>
            </trkpt>
            <trkpt lat="44.564960" lon="7.789560">
                <time>2024-04-01T08:42:54Z</time>
            </trkpt>
            <trkpt lat="44.564790" lon="7.789580">
                <time>2024-04-01T08:42:55Z</time>
            </trkpt>
            <trkpt lat="44.564620" lon="7.789590">
                <time>2024-04-01T08:42:56Z</time>
            </trkpt>
            <trkpt lat="44.564450" lon="7.789600">
                <time>2024-04-01T08:42:57Z</time>
            </trkpt>
            <trkpt lat="44.564280" lon="7.789610">
                <time>2024-04-01T08:42:58Z</time>
            </trkpt>
            <trkpt lat="44.564110" lon="7.789610">
                <time>2024-04-01T08:42:59Z</time>
            </trkpt>
            <trkpt lat="44.563940" lon="7.789610">
                <time>2024-04-01T08:43:00Z</time>
            </trkpt>
            <trkpt lat="44.563770" lon="7.789610">
                <time>2024-04-01T08:43:01Z</time>
            </trkpt>
            <trkpt lat="44.563600" lon="7.789610">
                <time>2024-04-01T08:43:02Z</time>
            </trkpt>
            <trkpt lat="44.563430" lon="7.789610">
                <time>2024-04-01T08:43:03Z</time>
            </trkpt>
            <trkpt lat="44.563250" lon="7.789610">
                <time>2024-04-01T08:43:04Z</time>
            </trkpt>
            <trkpt lat="44.563060" lon="7.789600">
                <time>2024-04-01T08:43:05Z</time>
            </trkpt>
            <trkpt lat="44.562860" lon="7.789570">
                <time>2024-04-01T08:43:06Z</time>
            </trkpt>
            <trkpt lat="44.562660" lon="7.789530">
                <time>2024-04-01T08:43:07Z</time>
            </trkpt>
            <trkpt lat="44.562450" lon="7.789480">
                <time>2024-04-01T08:43:08Z</time>
            </trkpt>
            <trkpt lat="44.562240" lon="7.789420">
                <time>2024-04-01T08:43:09Z</time>
            </trkpt>
            <trkpt lat="44.562040" lon="7.789360">
                <time>2024-04-01T08:43:10Z</time>
            </trkpt>
            <trkpt lat="44.561830" lon="7.789300">
                <time>2024-04-01T08:43:11Z</time>
            </trkpt>
            <trkpt lat="44.561630" lon="7.789230">
                <time>2024-04-01T08:43:12Z</time>
            </trkpt>
            <trkpt lat="44.561430" lon="7.789180">
                <time>2024-04-01T08:43:13Z</time>
            </trkpt>
            <trkpt lat="44.561230" lon="7.789120">
                <time>2024-04-01T08:43:14Z</time>
            </trkpt>
            <trkpt lat="44.561040" lon="7.789060">
                <time>2024-04-01T08:43:15Z</time>
            </trkpt>
            <trkpt lat="44.560850" lon="7.788990">
                <time>2024-04-01T08:43:16Z</time>
            </trkpt>
            <trkpt lat="44.560660" lon="7.788920">
                <time>2024-04-01T08:43:17Z</time>
            </trkpt>
            <trkpt lat="44.560470" lon="7.788840">
                <time>2024-04-01T08:43:18Z</time>
            </trkpt>
            <trkpt lat="44.560290" lon="7.788750">
                <time>2024-04-01T08:43:19Z</time>
            </trkpt>
            <trkpt lat="44.560110" lon="7.788640">
                <time>2024-04-01T08:43:20Z</time>
            </trkpt>
            <trkpt lat="44.559930" lon="7.788510">
                <time>2024-04-01T08:43:21Z</time>
            </trkpt>
            <trkpt lat="44.559750" lon="7.788370">
                <time>2024-04-01T08:43:22Z</time>
            </trkpt>
            <trkpt lat="44.559570" lon="7.788200">
                <time>2024-04-01T08:43:23Z</time>
            </trkpt>
            <trkpt lat="44.559400" lon="7.788030">
                <time>2024-04-01T08:43:24Z</time>
            </trkpt>
            <trkpt lat="44.559220" lon="7.787850">
                <time>2024-04-01T08:43:25Z</time>
            </trkpt>
            <trkpt lat="44.559050" lon="7.787670">
                <time>2024-04-01T08:43:26Z</time>
            </trkpt>
            <trkpt lat="44.558880" lon="7.787480">
                <time>2024-04-01T08:43:27Z</time>
            </trkpt>
            <trkpt lat="44.558700" lon="7.787300">
                <time>2024-04-01T08:43:28Z</time>
            </trkpt>
            <trkpt lat="44.558530" lon="7.787120">
                <time>2024-04-01T08:43:29Z</time>
            </trkpt>
            <trkpt lat="44.558340" lon="7.786950">
                <time>2024-04-01T08:43:30Z</time>
            </trkpt>
            <trkpt lat="44.558160" lon="7.786770">
                <time>2024-04-01T08:43:31Z</time>
            </trkpt>
            <trkpt lat="44.557970" lon="7.786610">
                <time>2024-04-01T08:43:32Z</time>
            </trkpt>
            <trkpt lat="44.557780" lon="7.786440">
                <time>2024-04-01T08:43:33Z</time>
            </trkpt>
            <trkpt lat="44.557600" lon="7.786280">
                <time>2024-04-01T08:43:34Z</time>
            </trkpt>
            <trkpt lat="44.557420" lon="7.786120">
                <time>2024-04-01T08:43:35Z</time>
            </trkpt>
            <trkpt lat="44.557240" lon="7.785970">
                <time>2024-04-01T08:43:36Z</time>
            </trkpt>
            <trkpt lat="44.557070" lon="7.785820">
                <time>2024-04-01T08:43:37Z</time>
            </trkpt>
            <trkpt lat="44.556900" lon="7.785670">
                <time>2024-04-01T08:43:38Z</time>
            </trkpt>
            <trkpt lat="44.556740" lon="7.785530">
                <time>2024-04-01T08:43:39Z</time>
            </trkpt>
            <trkpt lat="44.556580" lon="7.785390">
                <time>2024-04-01T08:43:40Z</time>
            </trkpt>
            <trkpt lat="44.556420" lon="7.785250">
                <time>2024-04-01T08:43:41Z</time>
            </trkpt>
            <trkpt lat="44.556270" lon="7.785110">
                <time>2024-04-01T08:43:42Z</time>
            </trkpt>
            <trkpt lat="44.556120" lon="7.784970">
                <time>2024-04-01T08:43:43Z</time>
            </trkpt>
            <trkpt lat="44.555980" lon="7.784830">
                <time>2024-04-01T08:43:44Z</time>
            </trkpt>
            <trkpt lat="44.555830" lon="7.784680">
                <time>2024-04-01T08:43:45Z</time>
            </trkpt>
            <trkpt lat="44.555670" lon="7.784530">
                <time>2024-04-01T08:43:46Z</time>
            </trkpt>
            <trkpt lat="44.555500" lon="7.784360">
                <time>2024-04-01T08:43:47Z</time>
            </trkpt>
            <trkpt lat="44.555330" lon="7.784210">
                <time>2024-04-01T08:43:48Z</time>
            </trkpt>
            <trkpt lat="44.555160" lon="7.784040">
                <time>2024-04-01T08:43:49Z</time>
            </trkpt>
            <trkpt lat="44.554990" lon="7.783850">
                <time>2024-04-01T08:43:50Z</time>
            </trkpt>
            <trkpt lat="44.554800" lon="7.783690">
                <time>2024-04-01T08:43:51Z</time>
            </trkpt>
            <trkpt lat="44.554620" lon="7.783520">
                <time>2024-04-01T08:43:52Z</time>
            </trkpt>
            <trkpt lat="44.554440" lon="7.783350">
                <time>2024-04-01T08:43:53Z</time>
            </trkpt>
            <trkpt lat="44.554250" lon="7.783170">
                <time>2024-04-01T08:43:54Z</time>
            </trkpt>
            <trkpt lat="44.554070" lon="7.782990">
                <time>2024-04-01T08:43:55Z</time>
            </trkpt>
            <trkpt lat="44.553870" lon="7.782800">
                <time>2024-04-01T08:43:56Z</time>
            </trkpt>
            <trkpt lat="44.553670" lon="7.782610">
                <time>2024-04-01T08:43:57Z</time>
            </trkpt>
            <trkpt lat="44.553460" lon="7.782410">
                <time>2024-04-01T08:43:58Z</time>
            </trkpt>
            <trkpt lat="44.553250" lon="7.782200">
                <time>2024-04-01T08:43:59Z</time>
            </trkpt>
            <trkpt lat="44.553030" lon="7.782000">
                <time>2024-04-01T08:44:00Z</time>
            </trkpt>
            <trkpt lat="44.552810" lon="7.781790">
                <time>2024-04-01T08:44:01Z</time>
            </trkpt>
            <trkpt lat="44.552590" lon="7.781580">
                <time>2024-04-01T08:44:02Z</time>
            </trkpt>
            <trkpt lat="44.552370" lon="7.781370">
                <time>2024-04-01T08:44:03Z</time>
            </trkpt>
            <trkpt lat="44.552160" lon="7.781170">
                <time>2024-04-01T08:44:04Z</time>
            </trkpt>
            <trkpt lat="44.551960" lon="7.780970">
                <time>2024-04-01T08:44:05Z</time>
            </trkpt>
            <trkpt lat="44.551760" lon="7.780780">
                <time>2024-04-01T08:44:06Z</time>
            </trkpt>
            <trkpt lat="44.551560" lon="7.780590">
                <time>2024-04-01T08:44:07Z</time>
            </trkpt>
            <trkpt lat="44.551380" lon="7.780410">
                <time>2024-04-01T08:44:08Z</time>
            </trkpt>
            <trkpt lat="44.551180" lon="7.780230">
                <time>2024-04-01T08:44:09Z</time>
            </trkpt>
            <trkpt lat="44.550990" lon="7.780040">
                <time>2024-04-01T08:44:10Z</time>
            </trkpt>
            <trkpt lat="44.550790" lon="7.779860">
                <time>2024-04-01T08:44:11Z</time>
            </trkpt>
            <trkpt lat="44.550600" lon="7.779680">
                <time>2024-04-01T08:44:12Z</time>
            </trkpt>
            <trkpt lat="44.550400" lon="7.779490">
                <time>2024-04-01T08:44:13Z</time>
            </trkpt>
            <trkpt lat="44.550200" lon="7.779300">
                <time>2024-04-01T08:44:14Z</time>
            </trkpt>
            <trkpt lat="44.550010" lon="7.779120">
                <time>2024-04-01T08:44:15Z</time>
            </trkpt>
            <trkpt lat="44.549820" lon="7.778940">
                <time>2024-04-01T08:44:16Z</time>
            </trkpt>
            <trkpt lat="44.549640" lon="7.778770">
                <time>2024-04-01T08:44:17Z</time>
            </trkpt>
            <trkpt lat="44.549480" lon="7.778610">
                <time>2024-04-01T08:44:18Z</time>
            </trkpt>
            <trkpt lat="44.549320" lon="7.778450">
                <time>2024-04-01T08:44:19Z</time>
            </trkpt>
            <trkpt lat="44.549160" lon="7.778300">
                <time>2024-04-01T08:44:20Z</time>
            </trkpt>
            <trkpt lat="44.549020" lon="7.778170">
                <time>2024-04-01T08:44:21Z</time>
            </trkpt>
            <trkpt lat="44.548870" lon="7.778030">
                <time>2024-04-01T08:44:22Z</time>
            </trkpt>
            <trkpt lat="44.548720" lon="7.777900">
                <time>2024-04-01T08:44:23Z</time>
            </trkpt>
            <trkpt lat="44.548560" lon="7.777780">
                <time>2024-04-01T08:44:24Z</time>
            </trkpt>
            <trkpt lat="44.548390" lon="7.777660">
                <time>2024-04-01T08:44:25Z</time>
            </trkpt>
            <trkpt lat="44.548220" lon="7.777550">
                <time>2024-04-01T08:44:26Z</time>
            </trkpt>
            <trkpt lat="44.548030" lon="7.777430">
                <time>2024-04-01T08:44:27Z</time>
            </trkpt>
            <trkpt lat="44.547830" lon="7.777320">
                <time>2024-04-01T08:44:28Z</time>
            </trkpt>
            <trkpt lat="44.547630" lon="7.777210">
                <time>2024-04-01T08:44:29Z</time>
            </trkpt>
            <trkpt lat="44.547430" lon="7.777080">
                <time>2024-04-01T08:44:30Z</time>
            </trkpt>
            <trkpt lat="44.547240" lon="7.776950">
                <time>2024-04-01T08:44:31Z</time>
            </trkpt>
            <trkpt lat="44.547060" lon="7.776820">
                <time>2024-04-01T08:44:32Z</time>
            </trkpt>
            <trkpt lat="44.546880" lon="7.776680">
                <time>2024-04-01T08:44:33Z</time>
            </trkpt>
            <trkpt lat="44.546720" lon="7.776530">
                <time>2024-04-01T08:44:34Z</time>
            </trkpt>
            <trkpt lat="44.546570" lon="7.776360">
                <time>2024-04-01T08:44:35Z</time>
            </trkpt>
            <trkpt lat="44.546420" lon="7.776180">
                <time>2024-04-01T08:44:36Z</time>
            </trkpt>
            <trkpt lat="44.546270" lon="7.776000">
                <time>2024-04-01T08:44:37Z</time>
            </trkpt>
            <trkpt lat="44.546120" lon="7.775810">
                <time>2024-04-01T08:44:38Z</time>
            </trkpt>
            <trkpt lat="44.545960" lon="7.775610">
                <time>2024-04-01T08:44:39Z</time>
            </trkpt>
            <trkpt lat="44.545800" lon="7.775410">
                <time>2024-04-01T08:44:40Z</time>
            </trkpt>
            <trkpt lat="44.545630" lon="7.775200">
                <time>2024-04-01T08:44:41Z</time>
            </trkpt>
            <trkpt lat="44.545460" lon="7.774980">
                <time>2024-04-01T08:44:42Z</time>
            </trkpt>
            <trkpt lat="44.545290" lon="7.774760">
                <time>2024-04-01T08:44:43Z</time>
            </trkpt>
            <trkpt lat="44.545110" lon="7.774540">
                <time>2024-04-01T08:44:44Z</time>
            </trkpt>
            <trkpt lat="44.544940" lon="7.774320">
                <time>2024-04-01T08:44:45Z</time>
            </trkpt>
            <trkpt lat="44.544770" lon="7.774110">
                <time>2024-04-01T08:44:46Z</time>
            </trkpt>
            <trkpt lat="44.544600" lon="7.773900">
                <time>2024-04-01T08:44:47Z</time>
            </trkpt>
            <trkpt lat="44.544440" lon="7.773700">
                <time>2024-04-01T08:44:48Z</time>
            </trkpt>
            <trkpt lat="44.544270" lon="7.773490">
                <time>2024-04-01T08:44:49Z</time>
            </trkpt>
            <trkpt lat="44.544100" lon="7.773280">
                <time>2024-04-01T08:44:50Z</time>
            </trkpt>
            <trkpt lat="44.543920" lon="7.773070">
                <time>2024-04-01T08:44:51Z</time>
            </trkpt>
            <trkpt lat="44.543750" lon="7.772850">
                <time>2024-04-01T08:44:52Z</time>
            </trkpt>
            <trkpt lat="44.543580" lon="7.772640">
                <time>2024-04-01T08:44:53Z</time>
            </trkpt>
            <trkpt lat="44.543410" lon="7.772420">
                <time>2024-04-01T08:44:54Z</time>
            </trkpt>
            <trkpt lat="44.543250" lon="7.772200">
                <time>2024-04-01T08:44:55Z</time>
            </trkpt>
            <trkpt lat="44.543090" lon="7.771970">
                <time>2024-04-01T08:44:56Z</time>
            </trkpt>
            <trkpt lat="44.542940" lon="7.771740">
                <time>2024-04-01T08:44:57Z</time>
            </trkpt>
            <trkpt lat="44.542790" lon="7.771530">
                <time>2024-04-01T08:44:58Z</time>
            </trkpt>
            <trkpt lat="44.542660" lon="7.771320">
                <time>2024-04-01T08:44:59Z</time>
            </trkpt>
            <trkpt lat="44.542530" lon="7.771130">
                <time>2024-04-01T08:45:00Z</time>
            </trkpt>
            <trkpt lat="44.542410" lon="7.770950">
                <time>2024-04-01T08:45:01Z</time>
            </trkpt>
            <trkpt lat="44.542300" lon="7.770780">
                <time>2024-04-01T08:45:02Z</time>
            </trkpt>
            <trkpt lat="44.542190" lon="7.770610">
                <time>2024-04-01T08:45:03Z</time>
            </trkpt>
            <trkpt lat="44.542090" lon="7.770460">
                <time>2024-04-01T08:45:04Z</time>
            </trkpt>
            <trkpt lat="44.541990" lon="7.770300">
                <time>2024-04-01T08:45:05Z</time>
            </trkpt>
            <trkpt lat="44.541900" lon="7.770150">
                <time>2024-04-01T08:45:06Z</time>
            </trkpt>
            <trkpt lat="44.541800" lon="7.769990">
                <time>2024-04-01T08:45:07Z</time>
            </trkpt>
            <trkpt lat="44.541690" lon="7.769830">
                <time>2024-04-01T08:45:08Z</time>
            </trkpt>
            <trkpt lat="44.541580" lon="7.769670">
                <time>2024-04-01T08:45:09Z</time>
            </trkpt>
            <trkpt lat="44.541470" lon="7.769510">
                <time>2024-04-01T08:45:10Z</time>
            </trkpt>
            <trkpt lat="44.541370" lon="7.769360">
                <time>2024-04-01T08:45:11Z</time>
            </trkpt>
            <trkpt lat="44.541250" lon="7.769220">
                <time>2024-04-01T08:45:12Z</time>
            </trkpt>
            <trkpt lat="44.541120" lon="7.769100">
                <time>2024-04-01T08:45:13Z</time>
            </trkpt>
            <trkpt lat="44.540980" lon="7.768990">
                <time>2024-04-01T08:45:14Z</time>
            </trkpt>
            <trkpt lat="44.540830" lon="7.768880">
                <time>2024-04-01T08:45:15Z</time>
            </trkpt>
            <trkpt lat="44.540670" lon="7.768790">
                <time>2024-04-01T08:45:16Z</time>
            </trkpt>
            <trkpt lat="44.540510" lon="7.768710">
                <time>2024-04-01T08:45:17Z</time>
            </trkpt>
            <trkpt lat="44.540350" lon="7.768640">
                <time>2024-04-01T08:45:18Z</time>
            </trkpt>
            <trkpt lat="44.540190" lon="7.768590">
                <time>2024-04-01T08:45:19Z</time>
            </trkpt>
            <trkpt lat="44.540040" lon="7.768550">
                <time>2024-04-01T08:45:20Z</time>
            </trkpt>
            <trkpt lat="44.539890" lon="7.768530">
                <time>2024-04-01T08:45:21Z</time>
            </trkpt>
            <trkpt lat="44.539750" lon="7.768520">
                <time>2024-04-01T08:45:22Z</time>
            </trkpt>
            <trkpt lat="44.539630" lon="7.768520">
                <time>2024-04-01T08:45:23Z</time>
            </trkpt>
            <trkpt lat="44.539520" lon="7.768500">
                <time>2024-04-01T08:45:24Z</time>
            </trkpt>
            <trkpt lat="44.539410" lon="7.768480">
                <time>2024-04-01T08:45:25Z</time>
            </trkpt>
            <trkpt lat="44.539320" lon="7.768440">
                <time>2024-04-01T08:45:26Z</time>
            </trkpt>
            <trkpt lat="44.539220" lon="7.768400">
                <time>2024-04-01T08:45:27Z</time>
            </trkpt>
            <trkpt lat="44.539100" lon="7.768390">
                <time>2024-04-01T08:45:28Z</time>
            </trkpt>
            <trkpt lat="44.538980" lon="7.768390">
                <time>2024-04-01T08:45:29Z</time>
            </trkpt>
            <trkpt lat="44.538840" lon="7.768400">
                <time>2024-04-01T08:45:30Z</time>
            </trkpt>
            <trkpt lat="44.538700" lon="7.768370">
                <time>2024-04-01T08:45:31Z</time>
            </trkpt>
            <trkpt lat="44.538550" lon="7.768320">
                <time>2024-04-01T08:45:32Z</time>
            </trkpt>
            <trkpt lat="44.538380" lon="7.768240">
                <time>2024-04-01T08:45:33Z</time>
            </trkpt>
            <trkpt lat="44.538210" lon="7.768150">
                <time>2024-04-01T08:45:34Z</time>
            </trkpt>
            <trkpt lat="44.538030" lon="7.768030">
                <time>2024-04-01T08:45:35Z</time>
            </trkpt>
            <trkpt lat="44.537840" lon="7.767910">
                <time>2024-04-01T08:45:36Z</time>
            </trkpt>
            <trkpt lat="44.537640" lon="7.767780">
                <time>2024-04-01T08:45:37Z</time>
            </trkpt>
            <trkpt lat="44.537440" lon="7.767650">
                <time>2024-04-01T08:45:38Z</time>
            </trkpt>
            <trkpt lat="44.537230" lon="7.767510">
                <time>2024-04-01T08:45:39Z</time>
            </trkpt>
            <trkpt lat="44.537020" lon="7.767380">
                <time>2024-04-01T08:45:40Z</time>
            </trkpt>
            <trkpt lat="44.536800" lon="7.767250">
                <time>2024-04-01T08:45:41Z</time>
            </trkpt>
            <trkpt lat="44.536590" lon="7.767110">
                <time>2024-04-01T08:45:42Z</time>
            </trkpt>
            <trkpt lat="44.536380" lon="7.766980">
                <time>2024-04-01T08:45:43Z</time>
            </trkpt>
            <trkpt lat="44.536160" lon="7.766840">
                <time>2024-04-01T08:45:44Z</time>
            </trkpt>
            <trkpt lat="44.535950" lon="7.766710">
                <time>2024-04-01T08:45:45Z</time>
            </trkpt>
            <trkpt lat="44.535730" lon="7.766570">
                <time>2024-04-01T08:45:46Z</time>
            </trkpt>
            <trkpt lat="44.535520" lon="7.766440">
                <time>2024-04-01T08:45:47Z</time>
            </trkpt>
            <trkpt lat="44.535300" lon="7.766300">
                <time>2024-04-01T08:45:48Z</time>
            </trkpt>
            <trkpt lat="44.535090" lon="7.766170">
                <time>2024-04-01T08:45:49Z</time>
            </trkpt>
            <trkpt lat="44.534880" lon="7.766040">
                <time>2024-04-01T08:45:50Z</time>
            </trkpt>
            <trkpt lat="44.534690" lon="7.765910">
                <time>2024-04-01T08:45:51Z</time>
            </trkpt>
            <trkpt lat="44.534490" lon="7.765790">
                <time>2024-04-01T08:45:52Z</time>
            </trkpt>
            <trkpt lat="44.534290" lon="7.765660">
                <time>2024-04-01T08:45:53Z</time>
            </trkpt>
            <trkpt lat="44.534090" lon="7.765540">
                <time>2024-04-01T08:45:54Z</time>
            </trkpt>
            <trkpt lat="44.533880" lon="7.765410">
                <time>2024-04-01T08:45:55Z</time>
            </trkpt>
            <trkpt lat="44.533660" lon="7.765280">
                <time>2024-04-01T08:45:56Z</time>
            </trkpt>
            <trkpt lat="44.533460" lon="7.765150">
                <time>2024-04-01T08:45:57Z</time>
            </trkpt>
            <trkpt lat="44.533250" lon="7.765010">
                <time>2024-04-01T08:45:58Z</time>
            </trkpt>
            <trkpt lat="44.533050" lon="7.764880">
                <time>2024-04-01T08:45:59Z</time>
            </trkpt>
            <trkpt lat="44.532840" lon="7.764740">
                <time>2024-04-01T08:46:00Z</time>
            </trkpt>
            <trkpt lat="44.532620" lon="7.764620">
                <time>2024-04-01T08:46:01Z</time>
            </trkpt>
            <trkpt lat="44.532410" lon="7.764500">
                <time>2024-04-01T08:46:02Z</time>
            </trkpt>
            <trkpt lat="44.532190" lon="7.764390">
                <time>2024-04-01T08:46:03Z</time>
            </trkpt>
            <trkpt lat="44.531960" lon="7.764290">
                <time>2024-04-01T08:46:04Z</time>
            </trkpt>
            <trkpt lat="44.531750" lon="7.764200">
                <time>2024-04-01T08:46:05Z</time>
            </trkpt>
            <trkpt lat="44.531520" lon="7.764120">
                <time>2024-04-01T08:46:06Z</time>
            </trkpt>
            <trkpt lat="44.531310" lon="7.764030">
                <time>2024-04-01T08:46:07Z</time>
            </trkpt>
            <trkpt lat="44.531090" lon="7.763940">
                <time>2024-04-01T08:46:08Z</time>
            </trkpt>
            <trkpt lat="44.530870" lon="7.763870">
                <time>2024-04-01T08:46:09Z</time>
            </trkpt>
            <trkpt lat="44.530660" lon="7.763780">
                <time>2024-04-01T08:46:10Z</time>
            </trkpt>
            <trkpt lat="44.530450" lon="7.763710">
                <time>2024-04-01T08:46:11Z</time>
            </trkpt>
            <trkpt lat="44.530230" lon="7.763630">
                <time>2024-04-01T08:46:12Z</time>
            </trkpt>
            <trkpt lat="44.530000" lon="7.763540">
                <time>2024-04-01T08:46:13Z</time>
            </trkpt>
            <trkpt lat="44.529780" lon="7.763450">
                <time>2024-04-01T08:46:14Z</time>
            </trkpt>
            <trkpt lat="44.529550" lon="7.763370">
                <time>2024-04-01T08:46:15Z</time>
            </trkpt>
            <trkpt lat="44.529320" lon="7.763280">
                <time>2024-04-01T08:46:16Z</time>
            </trkpt>
            <trkpt lat="44.529080" lon="7.763200">
                <time>2024-04-01T08:46:17Z</time>
            </trkpt>
            <trkpt lat="44.528830" lon="7.763110">
                <time>2024-04-01T08:46:18Z</time>
            </trkpt>
            <trkpt lat="44.528570" lon="7.763010">
                <time>2024-04-01T08:46:19Z</time>
            </trkpt>
            <trkpt lat="44.528310" lon="7.762910">
                <time>2024-04-01T08:46:20Z</time>
            </trkpt>
            <trkpt lat="44.528050" lon="7.762800">
                <time>2024-04-01T08:46:21Z</time>
            </trkpt>
            <trkpt lat="44.527780" lon="7.762700">
                <time>2024-04-01T08:46:22Z</time>
            </trkpt>
            <trkpt lat="44.527510" lon="7.762600">
                <time>2024-04-01T08:46:23Z</time>
            </trkpt>
            <trkpt lat="44.527250" lon="7.762500">
                <time>2024-04-01T08:46:24Z</time>
            </trkpt>
            <trkpt lat="44.526980" lon="7.762400">
                <time>2024-04-01T08:46:25Z</time>
            </trkpt>
            <trkpt lat="44.526720" lon="7.762300">
                <time>2024-04-01T08:46:26Z</time>
            </trkpt>
            <trkpt lat="44.526460" lon="7.762200">
                <time>2024-04-01T08:46:27Z</time>
            </trkpt>
            <trkpt lat="44.526200" lon="7.762110">
                <time>2024-04-01T08:46:28Z</time>
            </trkpt>
            <trkpt lat="44.525950" lon="7.762010">
                <time>2024-04-01T08:46:29Z</time>
            </trkpt>
            <trkpt lat="44.525690" lon="7.761910">
                <time>2024-04-01T08:46:30Z</time>
            </trkpt>
            <trkpt lat="44.525430" lon="7.761810">
                <time>2024-04-01T08:46:31Z</time>
            </trkpt>
            <trkpt lat="44.525180" lon="7.761710">
                <time>2024-04-01T08:46:32Z</time>
            </trkpt>
            <trkpt lat="44.524940" lon="7.761620">
                <time>2024-04-01T08:46:33Z</time>
            </trkpt>
            <trkpt lat="44.524680" lon="7.761520">
                <time>2024-04-01T08:46:34Z</time>
            </trkpt>
            <trkpt lat="44.524420" lon="7.761420">
                <time>2024-04-01T08:46:35Z</time>
            </trkpt>
            <trkpt lat="44.524150" lon="7.761320">
                <time>2024-04-01T08:46:36Z</time>
            </trkpt>
            <trkpt lat="44.523880" lon="7.761210">
                <time>2024-04-01T08:46:37Z</time>
            </trkpt>
            <trkpt lat="44.523590" lon="7.761100">
                <time>2024-04-01T08:46:38Z</time>
            </trkpt>
            <trkpt lat="44.523310" lon="7.761000">
                <time>2024-04-01T08:46:39Z</time>
            </trkpt>
            <trkpt lat="44.523040" lon="7.760890">
                <time>2024-04-01T08:46:40Z</time>
            </trkpt>
            <trkpt lat="44.522780" lon="7.760780">
                <time>2024-04-01T08:46:41Z</time>
            </trkpt>
            <trkpt lat="44.522520" lon="7.760670">
                <time>2024-04-01T08:46:42Z</time>
            </trkpt>
            <trkpt lat="44.522270" lon="7.760560">
                <time>2024-04-01T08:46:43Z</time>
            </trkpt>
            <trkpt lat="44.522040" lon="7.760470">
                <time>2024-04-01T08:46:44Z</time>
            </trkpt>
            <trkpt lat="44.521810" lon="7.760380">
                <time>2024-04-01T08:46:45Z</time>
            </trkpt>
            <trkpt lat="44.521600" lon="7.760280">
                <time>2024-04-01T08:46:46Z</time>
            </trkpt>
            <trkpt lat="44.521410" lon="7.760190">
                <time>2024-04-01T08:46:47Z</time>
            </trkpt>
            <trkpt lat="44.521230" lon="7.760080">
                <time>2024-04-01T08:46:48Z</time>
            </trkpt>
            <trkpt lat="44.521060" lon="7.759970">
                <time>2024-04-01T08:46:49Z</time>
            </trkpt>
            <trkpt lat="44.520900" lon="7.759840">
                <time>2024-04-01T08:46:50Z</time>
            </trkpt>
            <trkpt lat="44.520730" lon="7.759690">
                <time>2024-04-01T08:46:51Z</time>
            </trkpt>
            <trkpt lat="44.520570" lon="7.759520">
                <time>2024-04-01T08:46:52Z</time>
            </trkpt>
            <trkpt lat="44.520400" lon="7.759330">
                <time>2024-04-01T08:46:53Z</time>
            </trkpt>
            <trkpt lat="44.520240" lon="7.759120">
                <time>2024-04-01T08:46:54Z</time>
            </trkpt>
            <trkpt lat="44.520080" lon="7.758890">
                <time>2024-04-01T08:46:55Z</time>
            </trkpt>
            <trkpt lat="44.519910" lon="7.758640">
                <time>2024-04-01T08:46:56Z</time>
            </trkpt>
            <trkpt lat="44.519730" lon="7.758390">
                <time>2024-04-01T08:46:57Z</time>
            </trkpt>
            <trkpt lat="44.519550" lon="7.758130">
                <time>2024-04-01T08:46:58Z</time>
            </trkpt>
            <trkpt lat="44.519380" lon="7.757870">
                <time>2024-04-01T08:46:59Z</time>
            </trkpt>
            <trkpt lat="44.519200" lon="7.757610">
                <time>2024-04-01T08:47:00Z</time>
            </trkpt>
            <trkpt lat="44.519030" lon="7.757370">
                <time>2024-04-01T08:47:01Z</time>
            </trkpt>
            <trkpt lat="44.518860" lon="7.757130">
                <time>2024-04-01T08:47:02Z</time>
            </trkpt>
            <trkpt lat="44.518700" lon="7.756880">
                <time>2024-04-01T08:47:03Z</time>
            </trkpt>
            <trkpt lat="44.518530" lon="7.756640">
                <time>2024-04-01T08:47:04Z</time>
            </trkpt>
            <trkpt lat="44.518360" lon="7.756400">
                <time>2024-04-01T08:47:05Z</time>
            </trkpt>
            <trkpt lat="44.518210" lon="7.756160">
                <time>2024-04-01T08:47:06Z</time>
            </trkpt>
            <trkpt lat="44.518050" lon="7.755930">
                <time>2024-04-01T08:47:07Z</time>
            </trkpt>
            <trkpt lat="44.517890" lon="7.755700">
                <time>2024-04-01T08:47:08Z</time>
            </trkpt>
            <trkpt lat="44.517730" lon="7.755460">
                <time>2024-04-01T08:47:09Z</time>
            </trkpt>
            <trkpt lat="44.517570" lon="7.755240">
                <time>2024-04-01T08:47:10Z</time>
            </trkpt>
            <trkpt lat="44.517420" lon="7.755020">
                <time>2024-04-01T08:47:11Z</time>
            </trkpt>
            <trkpt lat="44.517270" lon="7.754800">
                <time>2024-04-01T08:47:12Z</time>
            </trkpt>
            <trkpt lat="44.517110" lon="7.754580">
                <time>2024-04-01T08:47:13Z</time>
            </trkpt>
            <trkpt lat="44.516960" lon="7.754360">
                <time>2024-04-01T08:47:14Z</time>
            </trkpt>
            <trkpt lat="44.516810" lon="7.754140">
                <time>2024-04-01T08:47:15Z</time>
            </trkpt>
            <trkpt lat="44.516660" lon="7.753940">
                <time>2024-04-01T08:47:16Z</time>
            </trkpt>
            <trkpt lat="44.516500" lon="7.753750">
                <time>2024-04-01T08:47:17Z</time>
            </trkpt>
            <trkpt lat="44.516330" lon="7.753560">
                <time>2024-04-01T08:47:18Z</time>
            </trkpt>
            <trkpt lat="44.516150" lon="7.753380">
                <time>2024-04-01T08:47:19Z</time>
            </trkpt>
            <trkpt lat="44.515960" lon="7.753200">
                <time>2024-04-01T08:47:20Z</time>
            </trkpt>
            <trkpt lat="44.515770" lon="7.753040">
                <time>2024-04-01T08:47:21Z</time>
            </trkpt>
            <trkpt lat="44.515570" lon="7.752880">
                <time>2024-04-01T08:47:22Z</time>
            </trkpt>
            <trkpt lat="44.515380" lon="7.752720">
                <time>2024-04-01T08:47:23Z</time>
            </trkpt>
            <trkpt lat="44.515170" lon="7.752580">
                <time>2024-04-01T08:47:24Z</time>
            </trkpt>
            <trkpt lat="44.514960" lon="7.752440">
                <time>2024-04-01T08:47:25Z</time>
            </trkpt>
            <trkpt lat="44.514740" lon="7.752310">
                <time>2024-04-01T08:47:26Z</time>
            </trkpt>
            <trkpt lat="44.514510" lon="7.752180">
                <time>2024-04-01T08:47:27Z</time>
            </trkpt>
            <trkpt lat="44.514290" lon="7.752060">
                <time>2024-04-01T08:47:28Z</time>
            </trkpt>
            <trkpt lat="44.514070" lon="7.751940">
                <time>2024-04-01T08:47:29Z</time>
            </trkpt>
            <trkpt lat="44.513850" lon="7.751810">
                <time>2024-04-01T08:47:30Z</time>
            </trkpt>
            <trkpt lat="44.513620" lon="7.751680">
                <time>2024-04-01T08:47:31Z</time>
            </trkpt>
            <trkpt lat="44.513410" lon="7.751570">
                <time>2024-04-01T08:47:32Z</time>
            </trkpt>
            <trkpt lat="44.513210" lon="7.751460">
                <time>2024-04-01T08:47:33Z</time>
            </trkpt>
            <trkpt lat="44.513020" lon="7.751360">
                <time>2024-04-01T08:47:34Z</time>
            </trkpt>
            <trkpt lat="44.512850" lon="7.751260">
                <time>2024-04-01T08:47:35Z</time>
            </trkpt>
            <trkpt lat="44.512680" lon="7.751170">
                <time>2024-04-01T08:47:36Z</time>
            </trkpt>
            <trkpt lat="44.512540" lon="7.751090">
                <time>2024-04-01T08:47:37Z</time>
            </trkpt>
            <trkpt lat="44.512400" lon="7.751020">
                <time>2024-04-01T08:47:38Z</time>
            </trkpt>
            <trkpt lat="44.512290" lon="7.750940">
                <time>2024-04-01T08:47:39Z</time>
            </trkpt>
            <trkpt lat="44.512180" lon="7.750870">
                <time>2024-04-01T08:47:40Z</time>
            </trkpt>
            <trkpt lat="44.512100" lon="7.750790">
                <time>2024-04-01T08:47:41Z</time>
            </trkpt>
            <trkpt lat="44.512030" lon="7.750710">
                <time>2024-04-01T08:47:42Z</time>
            </trkpt>
            <trkpt lat="44.511980" lon="7.750660">
                <time>2024-04-01T08:47:43Z</time>
            </trkpt>
            <trkpt lat="44.511940" lon="7.750630">
                <time>2024-04-01T08:47:44Z</time>
            </trkpt>
            <trkpt lat="44.511890" lon="7.750630">
                <time>2024-04-01T08:47:45Z</time>
            </trkpt>
            <trkpt lat="44.511830" lon="7.750650">
                <time>2024-04-01T08:47:46Z</time>
            </trkpt>
            <trkpt lat="44.511760" lon="7.750700">
                <time>2024-04-01T08:47:47Z</time>
            </trkpt>
            <trkpt lat="44.511680" lon="7.750780">
                <time>2024-04-01T08:47:48Z</time>
            </trkpt>
            <trkpt lat="44.511600" lon="7.750890">
                <time>2024-04-01T08:47:49Z</time>
            </trkpt>
            <trkpt lat="44.511510" lon="7.751010">
                <time>2024-04-01T08:47:50Z</time>
            </trkpt>
            <trkpt lat="44.511410" lon="7.751140">
                <time>2024-04-01T08:47:51Z</time>
            </trkpt>
            <trkpt lat="44.511320" lon="7.751270">
                <time>2024-04-01T08:47:52Z</time>
            </trkpt>
            <trkpt lat="44.511230" lon="7.751390">
                <time>2024-04-01T08:47:53Z</time>
            </trkpt>
            <trkpt lat="44.511130" lon="7.751510">
                <time>2024-04-01T08:47:54Z</time>
            </trkpt>
            <trkpt lat="44.511050" lon="7.751620">
                <time>2024-04-01T08:47:55Z</time>
            </trkpt>
            <trkpt lat="44.510970" lon="7.751710">
                <time>2024-04-01T08:47:56Z</time>
            </trkpt>
            <trkpt lat="44.510900" lon="7.751800">
                <time>2024-04-01T08:47:57Z</time>
            </trkpt>
            <trkpt lat="44.510810" lon="7.751880">
                <time>2024-04-01T08:47:58Z</time>
            </trkpt>
            <trkpt lat="44.510720" lon="7.751950">
                <time>2024-04-01T08:47:59Z</time>
            </trkpt>
            <trkpt lat="44.510620" lon="7.752020">
                <time>2024-04-01T08:48:00Z</time>
            </trkpt>
            <trkpt lat="44.510510" lon="7.752100">
                <time>2024-04-01T08:48:01Z</time>
            </trkpt>
            <trkpt lat="44.510390" lon="7.752170">
                <time>2024-04-01T08:48:02Z</time>
            </trkpt>
            <trkpt lat="44.510250" lon="7.752240">
                <time>2024-04-01T08:48:03Z</time>
            </trkpt>
            <trkpt lat="44.510110" lon="7.752320">
                <time>2024-04-01T08:48:04Z</time>
            </trkpt>
            <trkpt lat="44.509960" lon="7.752390">
                <time>2024-04-01T08:48:05Z</time>
            </trkpt>
            <trkpt lat="44.509800" lon="7.752460">
                <time>2024-04-01T08:48:06Z</time>
            </trkpt>
            <trkpt lat="44.509640" lon="7.752520">
                <time>2024-04-01T08:48:07Z</time>
            </trkpt>
            <trkpt lat="44.509500" lon="7.752580">
                <time>2024-04-01T08:48:08Z</time>
            </trkpt>
            <trkpt lat="44.509360" lon="7.752630">
                <time>2024-04-01T08:48:09Z</time>
            </trkpt>
            <trkpt lat="44.509230" lon="7.752690">
                <time>2024-04-01T08:48:10Z</time>
            </trkpt>
            <trkpt lat="44.509120" lon="7.752740">
                <time>2024-04-01T08:48:11Z</time>
            </trkpt>
            <trkpt lat="44.509040" lon="7.752770">
                <time>2024-04-01T08:48:12Z</time>
            </trkpt>
            <trkpt lat="44.508960" lon="7.752790">
                <time>2024-04-01T08:48:13Z</time>
            </trkpt>
            <trkpt lat="44.508890" lon="7.752770">
                <time>2024-04-01T08:48:14Z</time>
            </trkpt>
            <trkpt lat="44.508840" lon="7.752720">
                <time>2024-04-01T08:48:15Z</time>
            </trkpt>
            <trkpt lat="44.508820" lon="7.752630">
                <time>2024-04-01T08:48:16Z</time>
            </trkpt>
            <trkpt lat="44.508830" lon="7.752540">
                <time>2024-04-01T08:48:17Z</time>
            </trkpt>
            <trkpt lat="44.508870" lon="7.752420">
                <time>2024-04-01T08:48:18Z</time>
            </trkpt>
            <trkpt lat="44.508920" lon="7.752280">
                <time>2024-04-01T08:48:19Z</time>
            </trkpt>
            <trkpt lat="44.508980" lon="7.752110">
                <time>2024-04-01T08:48:20Z</time>
            </trkpt>
            <trkpt lat="44.509040" lon="7.751920">
                <time>2024-04-01T08:48:21Z</time>
            </trkpt>
            <trkpt lat="44.509110" lon="7.751720">
                <time>2024-04-01T08:48:22Z</time>
            </trkpt>
            <trkpt lat="44.509180" lon="7.751510">
                <time>2024-04-01T08:48:23Z</time>
            </trkpt>
            <trkpt lat="44.509250" lon="7.751280">
                <time>2024-04-01T08:48:24Z</time>
            </trkpt>
            <trkpt lat="44.509330" lon="7.751050">
                <time>2024-04-01T08:48:25Z</time>
            </trkpt>
            <trkpt lat="44.509400" lon="7.750820">
                <time>2024-04-01T08:48:26Z</time>
            </trkpt>
            <trkpt lat="44.509470" lon="7.750600">
                <time>2024-04-01T08:48:27Z</time>
            </trkpt>
            <trkpt lat="44.509520" lon="7.750390">
                <time>2024-04-01T08:48:28Z</time>
            </trkpt>
            <trkpt lat="44.509570" lon="7.750190">
                <time>2024-04-01T08:48:29Z</time>
            </trkpt>
            <trkpt lat="44.509590" lon="7.749980">
                <time>2024-04-01T08:48:30Z</time>
            </trkpt>
            <trkpt lat="44.509590" lon="7.749770">
                <time>2024-04-01T08:48:31Z</time>
            </trkpt>
            <trkpt lat="44.509550" lon="7.749550">
                <time>2024-04-01T08:48:32Z</time>
            </trkpt>
            <trkpt lat="44.509500" lon="7.749330">
                <time>2024-04-01T08:48:33Z</time>
            </trkpt>
            <trkpt lat="44.509430" lon="7.749120">
                <time>2024-04-01T08:48:34Z</time>
            </trkpt>
            <trkpt lat="44.509350" lon="7.748900">
                <time>2024-04-01T08:48:35Z</time>
            </trkpt>
            <trkpt lat="44.509260" lon="7.748670">
                <time>2024-04-01T08:48:36Z</time>
            </trkpt>
            <trkpt lat="44.509160" lon="7.748450">
                <time>2024-04-01T08:48:37Z</time>
            </trkpt>
            <trkpt lat="44.509070" lon="7.748230">
                <time>2024-04-01T08:48:38Z</time>
            </trkpt>
            <trkpt lat="44.508960" lon="7.748020">
                <time>2024-04-01T08:48:39Z</time>
            </trkpt>
            <trkpt lat="44.508860" lon="7.747830">
                <time>2024-04-01T08:48:40Z</time>
            </trkpt>
            <trkpt lat="44.508770" lon="7.747640">
                <time>2024-04-01T08:48:41Z</time>
            </trkpt>
            <trkpt lat="44.508680" lon="7.747460">
                <time>2024-04-01T08:48:42Z</time>
            </trkpt>
            <trkpt lat="44.508590" lon="7.747290">
                <time>2024-04-01T08:48:43Z</time>
            </trkpt>
            <trkpt lat="44.508510" lon="7.747120">
                <time>2024-04-01T08:48:44Z</time>
            </trkpt>
            <trkpt lat="44.508430" lon="7.746950">
                <time>2024-04-01T08:48:45Z</time>
            </trkpt>
            <trkpt lat="44.508350" lon="7.746780">
                <time>2024-04-01T08:48:46Z</time>
            </trkpt>
            <trkpt lat="44.508270" lon="7.746610">
                <time>2024-04-01T08:48:47Z</time>
            </trkpt>
            <trkpt lat="44.508200" lon="7.746430">
                <time>2024-04-01T08:48:48Z</time>
            </trkpt>
            <trkpt lat="44.508140" lon="7.746250">
                <time>2024-04-01T08:48:49Z</time>
            </trkpt>
            <trkpt lat="44.508090" lon="7.746060">
                <time>2024-04-01T08:48:50Z</time>
            </trkpt>
            <trkpt lat="44.508040" lon="7.745860">
                <time>2024-04-01T08:48:51Z</time>
            </trkpt>
            <trkpt lat="44.508000" lon="7.745650">
                <time>2024-04-01T08:48:52Z</time>
            </trkpt>
            <trkpt lat="44.507960" lon="7.745450">
                <time>2024-04-01T08:48:53Z</time>
            </trkpt>
            <trkpt lat="44.507930" lon="7.745240">
                <time>2024-04-01T08:48:54Z</time>
            </trkpt>
            <trkpt lat="44.507910" lon="7.745040">
                <time>2024-04-01T08:48:55Z</time>
            </trkpt>
            <trkpt lat="44.507890" lon="7.744840">
                <time>2024-04-01T08:48:56Z</time>
            </trkpt>
            <trkpt lat="44.507870" lon="7.744650">
                <time>2024-04-01T08:48:57Z</time>
            </trkpt>
            <trkpt lat="44.507860" lon="7.744440">
                <time>2024-04-01T08:48:58Z</time>
            </trkpt>
            <trkpt lat="44.507860" lon="7.744230">
                <time>2024-04-01T08:48:59Z</time>
            </trkpt>
            <trkpt lat="44.507850" lon="7.744030">
                <time>2024-04-01T08:49:00Z</time>
            </trkpt>
            <trkpt lat="44.507860" lon="7.743810">
                <time>2024-04-01T08:49:01Z</time>
            </trkpt>
            <trkpt lat="44.507860" lon="7.743580">
                <time>2024-04-01T08:49:02Z</time>
            </trkpt>
            <trkpt lat="44.507880" lon="7.743340">
                <time>2024-04-01T08:49:03Z</time>
            </trkpt>
            <trkpt lat="44.507900" lon="7.743070">
                <time>2024-04-01T08:49:04Z</time>
            </trkpt>
            <trkpt lat="44.507940" lon="7.742790">
                <time>2024-04-01T08:49:05Z</time>
            </trkpt>
            <trkpt lat="44.508000" lon="7.742490">
                <time>2024-04-01T08:49:06Z</time>
            </trkpt>
            <trkpt lat="44.508060" lon="7.742190">
                <time>2024-04-01T08:49:07Z</time>
            </trkpt>
            <trkpt lat="44.508110" lon="7.741880">
                <time>2024-04-01T08:49:08Z</time>
            </trkpt>
            <trkpt lat="44.508170" lon="7.741570">
                <time>2024-04-01T08:49:09Z</time>
            </trkpt>
            <trkpt lat="44.508220" lon="7.741250">
                <time>2024-04-01T08:49:10Z</time>
            </trkpt>
            <trkpt lat="44.508280" lon="7.740930">
                <time>2024-04-01T08:49:11Z</time>
            </trkpt>
            <trkpt lat="44.508330" lon="7.740610">
                <time>2024-04-01T08:49:12Z</time>
            </trkpt>
            <trkpt lat="44.508380" lon="7.740310">
                <time>2024-04-01T08:49:13Z</time>
            </trkpt>
            <trkpt lat="44.508430" lon="7.740010">
                <time>2024-04-01T08:49:14Z</time>
            </trkpt>
            <trkpt lat="44.508490" lon="7.739710">
                <time>2024-04-01T08:49:15Z</time>
            </trkpt>
            <trkpt lat="44.508540" lon="7.739420">
                <time>2024-04-01T08:49:16Z</time>
            </trkpt>
            <trkpt lat="44.508580" lon="7.739130">
                <time>2024-04-01T08:49:17Z</time>
            </trkpt>
            <trkpt lat="44.508610" lon="7.738830">
                <time>2024-04-01T08:49:18Z</time>
            </trkpt>
            <trkpt lat="44.508640" lon="7.738530">
                <time>2024-04-01T08:49:19Z</time>
            </trkpt>
            <trkpt lat="44.508650" lon="7.738210">
                <time>2024-04-01T08:49:20Z</time>
            </trkpt>
            <trkpt lat="44.508670" lon="7.737880">
                <time>2024-04-01T08:49:21Z</time>
            </trkpt>
            <trkpt lat="44.508670" lon="7.737550">
                <time>2024-04-01T08:49:22Z</time>
            </trkpt>
            <trkpt lat="44.508680" lon="7.737210">
                <time>2024-04-01T08:49:23Z</time>
            </trkpt>
            <trkpt lat="44.508680" lon="7.736880">
                <time>2024-04-01T08:49:24Z</time>
            </trkpt>
            <trkpt lat="44.508680" lon="7.736560">
                <time>2024-04-01T08:49:25Z</time>
            </trkpt>
            <trkpt lat="44.508680" lon="7.736220">
                <time>2024-04-01T08:49:26Z</time>
            </trkpt>
            <trkpt lat="44.508690" lon="7.735890">
                <time>2024-04-01T08:49:27Z</time>
            </trkpt>
            <trkpt lat="44.508690" lon="7.735560">
                <time>2024-04-01T08:49:28Z</time>
            </trkpt>
            <trkpt lat="44.508680" lon="7.735230">
                <time>2024-04-01T08:49:29Z</time>
            </trkpt>
            <trkpt lat="44.508680" lon="7.734870">
                <time>2024-04-01T08:49:30Z</time>
            </trkpt>
            <trkpt lat="44.508680" lon="7.734520">
                <time>2024-04-01T08:49:31Z</time>
            </trkpt>
            <trkpt lat="44.508680" lon="7.734170">
                <time>2024-04-01T08:49:32Z</time>
            </trkpt>
            <trkpt lat="44.508680" lon="7.733830">
                <time>2024-04-01T08:49:33Z</time>
            </trkpt>
            <trkpt lat="44.508680" lon="7.733500">
                <time>2024-04-01T08:49:34Z</time>
            </trkpt>
            <trkpt lat="44.508680" lon="7.733170">
                <time>2024-04-01T08:49:35Z</time>
            </trkpt>
            <trkpt lat="44.508680" lon="7.732860">
                <time>2024-04-01T08:49:36Z</time>
            </trkpt>
            <trkpt lat="44.508680" lon="7.732540">
                <time>2024-04-01T08:49:37Z</time>
            </trkpt>
            <trkpt lat="44.508680" lon="7.732240">
                <time>2024-04-01T08:49:38Z</time>
            </trkpt>
            <trkpt lat="44.508680" lon="7.731930">
                <time>2024-04-01T08:49:39Z</time>
            </trkpt>
            <trkpt lat="44.508680" lon="7.731630">
                <time>2024-04-01T08:49:40Z</time>
            </trkpt>
            <trkpt lat="44.508690" lon="7.731330">
                <time>2024-04-01T08:49:41Z</time>
            </trkpt>
            <trkpt lat="44.508690" lon="7.731040">
                <time>2024-04-01T08:49:42Z</time>
            </trkpt>
            <trkpt lat="44.508690" lon="7.730770">
                <time>2024-04-01T08:49:43Z</time>
            </trkpt>
            <trkpt lat="44.508690" lon="7.730490">
                <time>2024-04-01T08:49:44Z</time>
            </trkpt>
            <trkpt lat="44.508690" lon="7.730220">
                <time>2024-04-01T08:49:45Z</time>
            </trkpt>
            <trkpt lat="44.508700" lon="7.729950">
                <time>2024-04-01T08:49:46Z</time>
            </trkpt>
            <trkpt lat="44.508710" lon="7.729700">
                <time>2024-04-01T08:49:47Z</time>
            </trkpt>
            <trkpt lat="44.508710" lon="7.729460">
                <time>2024-04-01T08:49:48Z</time>
            </trkpt>
            <trkpt lat="44.508720" lon="7.729230">
                <time>2024-04-01T08:49:49Z</time>
            </trkpt>
            <trkpt lat="44.508720" lon="7.729000">
                <time>2024-04-01T08:49:50Z</time>
            </trkpt>
            <trkpt lat="44.508730" lon="7.728780">
                <time>2024-04-01T08:49:51Z</time>
            </trkpt>
            <trkpt lat="44.508730" lon="7.728570">
                <time>2024-04-01T08:49:52Z</time>
            </trkpt>
            <trkpt lat="44.508730" lon="7.728380">
                <time>2024-04-01T08:49:53Z</time>
            </trkpt>
            <trkpt lat="44.508730" lon="7.728200">
                <time>2024-04-01T08:49:54Z</time>
            </trkpt>
            <trkpt lat="44.508730" lon="7.728040">
                <time>2024-04-01T08:49:55Z</time>
            </trkpt>
            <trkpt lat="44.508730" lon="7.727910">
                <time>2024-04-01T08:49:56Z</time>
            </trkpt>
            <trkpt lat="44.508720" lon="7.727790">
                <time>2024-04-01T08:49:57Z</time>
            </trkpt>
            <trkpt lat="44.508720" lon="7.727700">
                <time>2024-04-01T08:49:58Z</time>
            </trkpt>
            <trkpt lat="44.508700" lon="7.727650">
                <time>2024-04-01T08:49:59Z</time>
            </trkpt>
            <trkpt lat="44.508670" lon="7.727610">
                <time>2024-04-01T08:50:00Z</time>
            </trkpt>
            <trkpt lat="44.508630" lon="7.727580">
                <time>2024-04-01T08:50:01Z</time>
            </trkpt>
            <trkpt lat="44.508550" lon="7.727570">
                <time>2024-04-01T08:50:02Z</time>
            </trkpt>
            <trkpt lat="44.508470" lon="7.727590">
                <time>2024-04-01T08:50:03Z</time>
            </trkpt>
            <trkpt lat="44.508370" lon="7.727610">
                <time>2024-04-01T08:50:04Z</time>
            </trkpt>
            <trkpt lat="44.508240" lon="7.727640">
                <time>2024-04-01T08:50:05Z</time>
            </trkpt>
            <trkpt lat="44.508110" lon="7.727670">
                <time>2024-04-01T08:50:06Z</time>
            </trkpt>
            <trkpt lat="44.507950" lon="7.727690">
                <time>2024-04-01T08:50:07Z</time>
            </trkpt>
            <trkpt lat="44.507800" lon="7.727710">
                <time>2024-04-01T08:50:08Z</time>
            </trkpt>
            <trkpt lat="44.507630" lon="7.727710">
                <time>2024-04-01T08:50:09Z</time>
            </trkpt>
            <trkpt lat="44.507450" lon="7.727710">
                <time>2024-04-01T08:50:10Z</time>
            </trkpt>
            <trkpt lat="44.507270" lon="7.727690">
                <time>2024-04-01T08:50:11Z</time>
            </trkpt>
            <trkpt lat="44.507080" lon="7.727660">
                <time>2024-04-01T08:50:12Z</time>
            </trkpt>
            <trkpt lat="44.506890" lon="7.727620">
                <time>2024-04-01T08:50:13Z</time>
            </trkpt>
            <trkpt lat="44.506710" lon="7.727570">
                <time>2024-04-01T08:50:14Z</time>
            </trkpt>
            <trkpt lat="44.506520" lon="7.727510">
                <time>2024-04-01T08:50:15Z</time>
            </trkpt>
            <trkpt lat="44.506320" lon="7.727440">
                <time>2024-04-01T08:50:16Z</time>
            </trkpt>
            <trkpt lat="44.506140" lon="7.727360">
                <time>2024-04-01T08:50:17Z</time>
            </trkpt>
            <trkpt lat="44.505950" lon="7.727270">
                <time>2024-04-01T08:50:18Z</time>
            </trkpt>
            <trkpt lat="44.505790" lon="7.727170">
                <time>2024-04-01T08:50:19Z</time>
            </trkpt>
            <trkpt lat="44.505630" lon="7.727080">
                <time>2024-04-01T08:50:20Z</time>
            </trkpt>
            <trkpt lat="44.505490" lon="7.726980">
                <time>2024-04-01T08:50:21Z</time>
            </trkpt>
            <trkpt lat="44.505350" lon="7.726890">
                <time>2024-04-01T08:50:22Z</time>
            </trkpt>
            <trkpt lat="44.505220" lon="7.726800">
                <time>2024-04-01T08:50:23Z</time>
            </trkpt>
            <trkpt lat="44.505090" lon="7.726720">
                <time>2024-04-01T08:50:24Z</time>
            </trkpt>
            <trkpt lat="44.504990" lon="7.726640">
                <time>2024-04-01T08:50:25Z</time>
            </trkpt>
            <trkpt lat="44.504890" lon="7.726540">
                <time>2024-04-01T08:50:26Z</time>
            </trkpt>
            <trkpt lat="44.504800" lon="7.726410">
                <time>2024-04-01T08:50:27Z</time>
            </trkpt>
            <trkpt lat="44.504710" lon="7.726280">
                <time>2024-04-01T08:50:28Z</time>
            </trkpt>
            <trkpt lat="44.504610" lon="7.726160">
                <time>2024-04-01T08:50:29Z</time>
            </trkpt>
            <trkpt lat="44.504490" lon="7.726030">
                <time>2024-04-01T08:50:30Z</time>
            </trkpt>
            <trkpt lat="44.504370" lon="7.725890">
                <time>2024-04-01T08:50:31Z</time>
            </trkpt>
            <trkpt lat="44.504250" lon="7.725740">
                <time>2024-04-01T08:50:32Z</time>
            </trkpt>
            <trkpt lat="44.504140" lon="7.725590">
                <time>2024-04-01T08:50:33Z</time>
            </trkpt>
            <trkpt lat="44.504020" lon="7.725410">
                <time>2024-04-01T08:50:34Z</time>
            </trkpt>
            <trkpt lat="44.503910" lon="7.725230">
                <time>2024-04-01T08:50:35Z</time>
            </trkpt>
            <trkpt lat="44.503790" lon="7.725040">
                <time>2024-04-01T08:50:36Z</time>
            </trkpt>
            <trkpt lat="44.503690" lon="7.724840">
                <time>2024-04-01T08:50:37Z</time>
            </trkpt>
            <trkpt lat="44.503590" lon="7.724640">
                <time>2024-04-01T08:50:38Z</time>
            </trkpt>
            <trkpt lat="44.503500" lon="7.724430">
                <time>2024-04-01T08:50:39Z</time>
            </trkpt>
            <trkpt lat="44.503410" lon="7.724230">
                <time>2024-04-01T08:50:40Z</time>
            </trkpt>
            <trkpt lat="44.503320" lon="7.724030">
                <time>2024-04-01T08:50:41Z</time>
            </trkpt>
            <trkpt lat="44.503240" lon="7.723820">
                <time>2024-04-01T08:50:42Z</time>
            </trkpt>
            <trkpt lat="44.503150" lon="7.723610">
                <time>2024-04-01T08:50:43Z</time>
            </trkpt>
            <trkpt lat="44.503050" lon="7.723400">
                <time>2024-04-01T08:50:44Z</time>
            </trkpt>
            <trkpt lat="44.502950" lon="7.723180">
                <time>2024-04-01T08:50:45Z</time>
            </trkpt>
            <trkpt lat="44.502830" lon="7.722950">
                <time>2024-04-01T08:50:46Z</time>
            </trkpt>
            <trkpt lat="44.502690" lon="7.722710">
                <time>2024-04-01T08:50:47Z</time>
            </trkpt>
            <trkpt lat="44.502530" lon="7.722470">
                <time>2024-04-01T08:50:48Z</time>
            </trkpt>
            <trkpt lat="44.502370" lon="7.722220">
                <time>2024-04-01T08:50:49Z</time>
            </trkpt>
            <trkpt lat="44.502200" lon="7.721980">
                <time>2024-04-01T08:50:50Z</time>
            </trkpt>
            <trkpt lat="44.502020" lon="7.721740">
                <time>2024-04-01T08:50:51Z</time>
            </trkpt>
            <trkpt lat="44.501850" lon="7.721500">
                <time>2024-04-01T08:50:52Z</time>
            </trkpt>
            <trkpt lat="44.501680" lon="7.721270">
                <time>2024-04-01T08:50:53Z</time>
            </trkpt>
            <trkpt lat="44.501510" lon="7.721060">
                <time>2024-04-01T08:50:54Z</time>
            </trkpt>
            <trkpt lat="44.501340" lon="7.720860">
                <time>2024-04-01T08:50:55Z</time>
            </trkpt>
            <trkpt lat="44.501180" lon="7.720660">
                <time>2024-04-01T08:50:56Z</time>
            </trkpt>
            <trkpt lat="44.501020" lon="7.720460">
                <time>2024-04-01T08:50:57Z</time>
            </trkpt>
            <trkpt lat="44.500860" lon="7.720270">
                <time>2024-04-01T08:50:58Z</time>
            </trkpt>
            <trkpt lat="44.500700" lon="7.720080">
                <time>2024-04-01T08:50:59Z</time>
            </trkpt>
            <trkpt lat="44.500540" lon="7.719890">
                <time>2024-04-01T08:51:00Z</time>
            </trkpt>
            <trkpt lat="44.500380" lon="7.719690">
                <time>2024-04-01T08:51:01Z</time>
            </trkpt>
            <trkpt lat="44.500210" lon="7.719490">
                <time>2024-04-01T08:51:02Z</time>
            </trkpt>
            <trkpt lat="44.500040" lon="7.719280">
                <time>2024-04-01T08:51:03Z</time>
            </trkpt>
            <trkpt lat="44.499860" lon="7.719060">
                <time>2024-04-01T08:51:04Z</time>
            </trkpt>
            <trkpt lat="44.499690" lon="7.718840">
                <time>2024-04-01T08:51:05Z</time>
            </trkpt>
            <trkpt lat="44.499520" lon="7.718610">
                <time>2024-04-01T08:51:06Z</time>
            </trkpt>
            <trkpt lat="44.499370" lon="7.718370">
                <time>2024-04-01T08:51:07Z</time>
            </trkpt>
            <trkpt lat="44.499230" lon="7.718120">
                <time>2024-04-01T08:51:08Z</time>
            </trkpt>
            <trkpt lat="44.499120" lon="7.717850">
                <time>2024-04-01T08:51:09Z</time>
            </trkpt>
            <trkpt lat="44.499010" lon="7.717580">
                <time>2024-04-01T08:51:10Z</time>
            </trkpt>
            <trkpt lat="44.498920" lon="7.717290">
                <time>2024-04-01T08:51:11Z</time>
            </trkpt>
            <trkpt lat="44.498850" lon="7.717000">
                <time>2024-04-01T08:51:12Z</time>
            </trkpt>
            <trkpt lat="44.498790" lon="7.716700">
                <time>2024-04-01T08:51:13Z</time>
            </trkpt>
            <trkpt lat="44.498740" lon="7.716390">
                <time>2024-04-01T08:51:14Z</time>
            </trkpt>
            <trkpt lat="44.498710" lon="7.716080">
                <time>2024-04-01T08:51:15Z</time>
            </trkpt>
            <trkpt lat="44.498670" lon="7.715770">
                <time>2024-04-01T08:51:16Z</time>
            </trkpt>
            <trkpt lat="44.498640" lon="7.715460">
                <time>2024-04-01T08:51:17Z</time>
            </trkpt>
            <trkpt lat="44.498600" lon="7.715150">
                <time>2024-04-01T08:51:18Z</time>
            </trkpt>
            <trkpt lat="44.498570" lon="7.714840">
                <time>2024-04-01T08:51:19Z</time>
            </trkpt>
            <trkpt lat="44.498530" lon="7.714540">
                <time>2024-04-01T08:51:20Z</time>
            </trkpt>
            <trkpt lat="44.498500" lon="7.714240">
                <time>2024-04-01T08:51:21Z</time>
            </trkpt>
            <trkpt lat="44.498460" lon="7.713940">
                <time>2024-04-01T08:51:22Z</time>
            </trkpt>
            <trkpt lat="44.498410" lon="7.713650">
                <time>2024-04-01T08:51:23Z</time>
            </trkpt>
            <trkpt lat="44.498340" lon="7.713360">
                <time>2024-04-01T08:51:24Z</time>
            </trkpt>
            <trkpt lat="44.498260" lon="7.713070">
                <time>2024-04-01T08:51:25Z</time>
            </trkpt>
            <trkpt lat="44.498170" lon="7.712790">
                <time>2024-04-01T08:51:26Z</time>
            </trkpt>
            <trkpt lat="44.498050" lon="7.712510">
                <time>2024-04-01T08:51:27Z</time>
            </trkpt>
            <trkpt lat="44.497920" lon="7.712250">
                <time>2024-04-01T08:51:28Z</time>
            </trkpt>
            <trkpt lat="44.497770" lon="7.712010">
                <time>2024-04-01T08:51:29Z</time>
            </trkpt>
            <trkpt lat="44.497610" lon="7.711780">
                <time>2024-04-01T08:51:30Z</time>
            </trkpt>
            <trkpt lat="44.497440" lon="7.711570">
                <time>2024-04-01T08:51:31Z</time>
            </trkpt>
            <trkpt lat="44.497250" lon="7.711370">
                <time>2024-04-01T08:51:32Z</time>
            </trkpt>
            <trkpt lat="44.497060" lon="7.711170">
                <time>2024-04-01T08:51:33Z</time>
            </trkpt>
            <trkpt lat="44.496860" lon="7.710960">
                <time>2024-04-01T08:51:34Z</time>
            </trkpt>
            <trkpt lat="44.496660" lon="7.710760">
                <time>2024-04-01T08:51:35Z</time>
            </trkpt>
            <trkpt lat="44.496470" lon="7.710550">
                <time>2024-04-01T08:51:36Z</time>
            </trkpt>
            <trkpt lat="44.496270" lon="7.710350">
                <time>2024-04-01T08:51:37Z</time>
            </trkpt>
            <trkpt lat="44.496080" lon="7.710150">
                <time>2024-04-01T08:51:38Z</time>
            </trkpt>
            <trkpt lat="44.495890" lon="7.709950">
                <time>2024-04-01T08:51:39Z</time>
            </trkpt>
            <trkpt lat="44.495700" lon="7.709750">
                <time>2024-04-01T08:51:40Z</time>
            </trkpt>
            <trkpt lat="44.495500" lon="7.709540">
                <time>2024-04-01T08:51:41Z</time>
            </trkpt>
            <trkpt lat="44.495300" lon="7.709330">
                <time>2024-04-01T08:51:42Z</time>
            </trkpt>
            <trkpt lat="44.495100" lon="7.709130">
                <time>2024-04-01T08:51:43Z</time>
            </trkpt>
            <trkpt lat="44.494900" lon="7.708920">
                <time>2024-04-01T08:51:44Z</time>
            </trkpt>
            <trkpt lat="44.494700" lon="7.708710">
                <time>2024-04-01T08:51:45Z</time>
            </trkpt>
            <trkpt lat="44.494490" lon="7.708510">
                <time>2024-04-01T08:51:46Z</time>
            </trkpt>
            <trkpt lat="44.494280" lon="7.708310">
                <time>2024-04-01T08:51:47Z</time>
            </trkpt>
            <trkpt lat="44.494070" lon="7.708110">
                <time>2024-04-01T08:51:48Z</time>
            </trkpt>
            <trkpt lat="44.493850" lon="7.707910">
                <time>2024-04-01T08:51:49Z</time>
            </trkpt>
            <trkpt lat="44.493640" lon="7.707720">
                <time>2024-04-01T08:51:50Z</time>
            </trkpt>
            <trkpt lat="44.493430" lon="7.707530">
                <time>2024-04-01T08:51:51Z</time>
            </trkpt>
            <trkpt lat="44.493220" lon="7.707350">
                <time>2024-04-01T08:51:52Z</time>
            </trkpt>
            <trkpt lat="44.493010" lon="7.707170">
                <time>2024-04-01T08:51:53Z</time>
            </trkpt>
            <trkpt lat="44.492800" lon="7.706990">
                <time>2024-04-01T08:51:54Z</time>
            </trkpt>
            <trkpt lat="44.492580" lon="7.706820">
                <time>2024-04-01T08:51:55Z</time>
            </trkpt>
            <trkpt lat="44.492360" lon="7.706640">
                <time>2024-04-01T08:51:56Z</time>
            </trkpt>
            <trkpt lat="44.492130" lon="7.706470">
                <time>2024-04-01T08:51:57Z</time>
            </trkpt>
            <trkpt lat="44.491910" lon="7.706310">
                <time>2024-04-01T08:51:58Z</time>
            </trkpt>
            <trkpt lat="44.491690" lon="7.706140">
                <time>2024-04-01T08:51:59Z</time>
            </trkpt>
            <trkpt lat="44.491470" lon="7.705970">
                <time>2024-04-01T08:52:00Z</time>
            </trkpt>
            <trkpt lat="44.491260" lon="7.705800">
                <time>2024-04-01T08:52:01Z</time>
            </trkpt>
            <trkpt lat="44.491040" lon="7.705640">
                <time>2024-04-01T08:52:02Z</time>
            </trkpt>
            <trkpt lat="44.490830" lon="7.705480">
                <time>2024-04-01T08:52:03Z</time>
            </trkpt>
            <trkpt lat="44.490620" lon="7.705320">
                <time>2024-04-01T08:52:04Z</time>
            </trkpt>
            <trkpt lat="44.490400" lon="7.705160">
                <time>2024-04-01T08:52:05Z</time>
            </trkpt>
            <trkpt lat="44.490190" lon="7.705000">
                <time>2024-04-01T08:52:06Z</time>
            </trkpt>
            <trkpt lat="44.489980" lon="7.704830">
                <time>2024-04-01T08:52:07Z</time>
            </trkpt>
            <trkpt lat="44.489770" lon="7.704670">
                <time>2024-04-01T08:52:08Z</time>
            </trkpt>
            <trkpt lat="44.489560" lon="7.704500">
                <time>2024-04-01T08:52:09Z</time>
            </trkpt>
            <trkpt lat="44.489360" lon="7.704330">
                <time>2024-04-01T08:52:10Z</time>
            </trkpt>
            <trkpt lat="44.489150" lon="7.704150">
                <time>2024-04-01T08:52:11Z</time>
            </trkpt>
            <trkpt lat="44.488950" lon="7.703970">
                <time>2024-04-01T08:52:12Z</time>
            </trkpt>
            <trkpt lat="44.488760" lon="7.703770">
                <time>2024-04-01T08:52:13Z</time>
            </trkpt>
            <trkpt lat="44.488570" lon="7.703560">
                <time>2024-04-01T08:52:14Z</time>
            </trkpt>
            <trkpt lat="44.488390" lon="7.703340">
                <time>2024-04-01T08:52:15Z</time>
            </trkpt>
            <trkpt lat="44.488210" lon="7.703100">
                <time>2024-04-01T08:52:16Z</time>
            </trkpt>
            <trkpt lat="44.488040" lon="7.702860">
                <time>2024-04-01T08:52:17Z</time>
            </trkpt>
            <trkpt lat="44.487870" lon="7.702600">
                <time>2024-04-01T08:52:18Z</time>
            </trkpt>
            <trkpt lat="44.487710" lon="7.702320">
                <time>2024-04-01T08:52:19Z</time>
            </trkpt>
            <trkpt lat="44.487560" lon="7.702050">
                <time>2024-04-01T08:52:20Z</time>
            </trkpt>
            <trkpt lat="44.487410" lon="7.701760">
                <time>2024-04-01T08:52:21Z</time>
            </trkpt>
            <trkpt lat="44.487260" lon="7.701470">
                <time>2024-04-01T08:52:22Z</time>
            </trkpt>
            <trkpt lat="44.487120" lon="7.701170">
                <time>2024-04-01T08:52:23Z</time>
            </trkpt>
            <trkpt lat="44.486980" lon="7.700890">
                <time>2024-04-01T08:52:24Z</time>
            </trkpt>
            <trkpt lat="44.486840" lon="7.700600">
                <time>2024-04-01T08:52:25Z</time>
            </trkpt>
            <trkpt lat="44.486690" lon="7.700300">
                <time>2024-04-01T08:52:26Z</time>
            </trkpt>
            <trkpt lat="44.486540" lon="7.700000">
                <time>2024-04-01T08:52:27Z</time>
            </trkpt>
            <trkpt lat="44.486390" lon="7.699690">
                <time>2024-04-01T08:52:28Z</time>
            </trkpt>
            <trkpt lat="44.486230" lon="7.699370">
                <time>2024-04-01T08:52:29Z</time>
            </trkpt>
            <trkpt lat="44.486070" lon="7.699050">
                <time>2024-04-01T08:52:30Z</time>
            </trkpt>
            <trkpt lat="44.485910" lon="7.698720">
                <time>2024-04-01T08:52:31Z</time>
            </trkpt>
            <trkpt lat="44.485740" lon="7.698400">
                <time>2024-04-01T08:52:32Z</time>
            </trkpt>
            <trkpt lat="44.485580" lon="7.698060">
                <time>2024-04-01T08:52:33Z</time>
            </trkpt>
            <trkpt lat="44.485410" lon="7.697730">
                <time>2024-04-01T08:52:34Z</time>
            </trkpt>
            <trkpt lat="44.485250" lon="7.697390">
                <time>2024-04-01T08:52:35Z</time>
            </trkpt>
            <trkpt lat="44.485090" lon="7.697070">
                <time>2024-04-01T08:52:36Z</time>
            </trkpt>
            <trkpt lat="44.484940" lon="7.696750">
                <time>2024-04-01T08:52:37Z</time>
            </trkpt>
            <trkpt lat="44.484780" lon="7.696440">
                <time>2024-04-01T08:52:38Z</time>
            </trkpt>
            <trkpt lat="44.484630" lon="7.696130">
                <time>2024-04-01T08:52:39Z</time>
            </trkpt>
            <trkpt lat="44.484490" lon="7.695830">
                <time>2024-04-01T08:52:40Z</time>
            </trkpt>
            <trkpt lat="44.484340" lon="7.695520">
                <time>2024-04-01T08:52:41Z</time>
            </trkpt>
            <trkpt lat="44.484200" lon="7.695210">
                <time>2024-04-01T08:52:42Z</time>
            </trkpt>
            <trkpt lat="44.484070" lon="7.694890">
                <time>2024-04-01T08:52:43Z</time>
            </trkpt>
            <trkpt lat="44.483940" lon="7.694580">
                <time>2024-04-01T08:52:44Z</time>
            </trkpt>
            <trkpt lat="44.483820" lon="7.694260">
                <time>2024-04-01T08:52:45Z</time>
            </trkpt>
            <trkpt lat="44.483710" lon="7.693930">
                <time>2024-04-01T08:52:46Z</time>
            </trkpt>
            <trkpt lat="44.483600" lon="7.693610">
                <time>2024-04-01T08:52:47Z</time>
            </trkpt>
            <trkpt lat="44.483490" lon="7.693280">
                <time>2024-04-01T08:52:48Z</time>
            </trkpt>
            <trkpt lat="44.483380" lon="7.692960">
                <time>2024-04-01T08:52:49Z</time>
            </trkpt>
            <trkpt lat="44.483280" lon="7.692630">
                <time>2024-04-01T08:52:50Z</time>
            </trkpt>
            <trkpt lat="44.483180" lon="7.692310">
                <time>2024-04-01T08:52:51Z</time>
            </trkpt>
            <trkpt lat="44.483090" lon="7.691990">
                <time>2024-04-01T08:52:52Z</time>
            </trkpt>
            <trkpt lat="44.483000" lon="7.691680">
                <time>2024-04-01T08:52:53Z</time>
            </trkpt>
            <trkpt lat="44.482910" lon="7.691390">
                <time>2024-04-01T08:52:54Z</time>
            </trkpt>
            <trkpt lat="44.482830" lon="7.691110">
                <time>2024-04-01T08:52:55Z</time>
            </trkpt>
            <trkpt lat="44.482750" lon="7.690820">
                <time>2024-04-01T08:52:56Z</time>
            </trkpt>
            <trkpt lat="44.482670" lon="7.690540">
                <time>2024-04-01T08:52:57Z</time>
            </trkpt>
            <trkpt lat="44.482590" lon="7.690280">
                <time>2024-04-01T08:52:58Z</time>
            </trkpt>
            <trkpt lat="44.482520" lon="7.690040">
                <time>2024-04-01T08:52:59Z</time>
            </trkpt>
            <trkpt lat="44.482450" lon="7.689820">
                <time>2024-04-01T08:53:00Z</time>
            </trkpt>
            <trkpt lat="44.482390" lon="7.689630">
                <time>2024-04-01T08:53:01Z</time>
            </trkpt>
            <trkpt lat="44.482330" lon="7.689460">
                <time>2024-04-01T08:53:02Z</time>
            </trkpt>
            <trkpt lat="44.482290" lon="7.689320">
                <time>2024-04-01T08:53:03Z</time>
            </trkpt>
            <trkpt lat="44.482250" lon="7.689180">
                <time>2024-04-01T08:53:04Z</time>
            </trkpt>
            <trkpt lat="44.482240" lon="7.689040">
                <time>2024-04-01T08:53:05Z</time>
            </trkpt>
            <trkpt lat="44.482240" lon="7.688890">
                <time>2024-04-01T08:53:06Z</time>
            </trkpt>
            <trkpt lat="44.482230" lon="7.688740">
                <time>2024-04-01T08:53:07Z</time>
            </trkpt>
            <trkpt lat="44.482200" lon="7.688600">
                <time>2024-04-01T08:53:08Z</time>
            </trkpt>
            <trkpt lat="44.482150" lon="7.688480">
                <time>2024-04-01T08:53:09Z</time>
            </trkpt>
            <trkpt lat="44.482070" lon="7.688380">
                <time>2024-04-01T08:53:10Z</time>
            </trkpt>
            <trkpt lat="44.481960" lon="7.688320">
                <time>2024-04-01T08:53:11Z</time>
            </trkpt>
            <trkpt lat="44.481850" lon="7.688250">
                <time>2024-04-01T08:53:12Z</time>
            </trkpt>
            <trkpt lat="44.481740" lon="7.688160">
                <time>2024-04-01T08:53:13Z</time>
            </trkpt>
            <trkpt lat="44.481620" lon="7.688030">
                <time>2024-04-01T08:53:14Z</time>
            </trkpt>
            <trkpt lat="44.481500" lon="7.687860">
                <time>2024-04-01T08:53:15Z</time>
            </trkpt>
            <trkpt lat="44.481370" lon="7.687670">
                <time>2024-04-01T08:53:16Z</time>
            </trkpt>
            <trkpt lat="44.481230" lon="7.687460">
                <time>2024-04-01T08:53:17Z</time>
            </trkpt>
            <trkpt lat="44.481090" lon="7.687240">
                <time>2024-04-01T08:53:18Z</time>
            </trkpt>
            <trkpt lat="44.480940" lon="7.687020">
                <time>2024-04-01T08:53:19Z</time>
            </trkpt>
            <trkpt lat="44.480800" lon="7.686790">
                <time>2024-04-01T08:53:20Z</time>
            </trkpt>
            <trkpt lat="44.480650" lon="7.686560">
                <time>2024-04-01T08:53:21Z</time>
            </trkpt>
            <trkpt lat="44.480490" lon="7.686320">
                <time>2024-04-01T08:53:22Z</time>
            </trkpt>
            <trkpt lat="44.480330" lon="7.686080">
                <time>2024-04-01T08:53:23Z</time>
            </trkpt>
            <trkpt lat="44.480170" lon="7.685850">
                <time>2024-04-01T08:53:24Z</time>
            </trkpt>
            <trkpt lat="44.480010" lon="7.685610">
                <time>2024-04-01T08:53:25Z</time>
            </trkpt>
            <trkpt lat="44.479840" lon="7.685380">
                <time>2024-04-01T08:53:26Z</time>
            </trkpt>
            <trkpt lat="44.479670" lon="7.685150">
                <time>2024-04-01T08:53:27Z</time>
            </trkpt>
            <trkpt lat="44.479490" lon="7.684940">
                <time>2024-04-01T08:53:28Z</time>
            </trkpt>
            <trkpt lat="44.479310" lon="7.684740">
                <time>2024-04-01T08:53:29Z</time>
            </trkpt>
            <trkpt lat="44.479120" lon="7.684540">
                <time>2024-04-01T08:53:30Z</time>
            </trkpt>
            <trkpt lat="44.478920" lon="7.684360">
                <time>2024-04-01T08:53:31Z</time>
            </trkpt>
            <trkpt lat="44.478720" lon="7.684180">
                <time>2024-04-01T08:53:32Z</time>
            </trkpt>
            <trkpt lat="44.478510" lon="7.684020">
                <time>2024-04-01T08:53:33Z</time>
            </trkpt>
            <trkpt lat="44.478300" lon="7.683870">
                <time>2024-04-01T08:53:34Z</time>
            </trkpt>
            <trkpt lat="44.478080" lon="7.683730">
                <time>2024-04-01T08:53:35Z</time>
            </trkpt>
            <trkpt lat="44.477860" lon="7.683600">
                <time>2024-04-01T08:53:36Z</time>
            </trkpt>
            <trkpt lat="44.477620" lon="7.683490">
                <time>2024-04-01T08:53:37Z</time>
            </trkpt>
            <trkpt lat="44.477390" lon="7.683390">
                <time>2024-04-01T08:53:38Z</time>
            </trkpt>
            <trkpt lat="44.477150" lon="7.683290">
                <time>2024-04-01T08:53:39Z</time>
            </trkpt>
            <trkpt lat="44.476910" lon="7.683200">
                <time>2024-04-01T08:53:40Z</time>
            </trkpt>
            <trkpt lat="44.476670" lon="7.683110">
                <time>2024-04-01T08:53:41Z</time>
            </trkpt>
            <trkpt lat="44.476420" lon="7.683020">
                <time>2024-04-01T08:53:42Z</time>
            </trkpt>
            <trkpt lat="44.476180" lon="7.682940">
                <time>2024-04-01T08:53:43Z</time>
            </trkpt>
            <trkpt lat="44.475930" lon="7.682850">
                <time>2024-04-01T08:53:44Z</time>
            </trkpt>
            <trkpt lat="44.475680" lon="7.682770">
                <time>2024-04-01T08:53:45Z</time>
            </trkpt>
            <trkpt lat="44.475430" lon="7.682690">
                <time>2024-04-01T08:53:46Z</time>
            </trkpt>
            <trkpt lat="44.475170" lon="7.682590">
                <time>2024-04-01T08:53:47Z</time>
            </trkpt>
            <trkpt lat="44.474910" lon="7.682500">
                <time>2024-04-01T08:53:48Z</time>
            </trkpt>
            <trkpt lat="44.474640" lon="7.682410">
                <time>2024-04-01T08:53:49Z</time>
            </trkpt>
            <trkpt lat="44.474380" lon="7.682320">
                <time>2024-04-01T08:53:50Z</time>
            </trkpt>
            <trkpt lat="44.474120" lon="7.682240">
                <time>2024-04-01T08:53:51Z</time>
            </trkpt>
            <trkpt lat="44.473870" lon="7.682150">
                <time>2024-04-01T08:53:52Z</time>
            </trkpt>
            <trkpt lat="44.473630" lon="7.682070">
                <time>2024-04-01T08:53:53Z</time>
            </trkpt>
            <trkpt lat="44.473390" lon="7.681990">
                <time>2024-04-01T08:53:54Z</time>
            </trkpt>
            <trkpt lat="44.473140" lon="7.681910">
                <time>2024-04-01T08:53:55Z</time>
            </trkpt>
            <trkpt lat="44.472910" lon="7.681820">
                <time>2024-04-01T08:53:56Z</time>
            </trkpt>
            <trkpt lat="44.472680" lon="7.681740">
                <time>2024-04-01T08:53:57Z</time>
            </trkpt>
            <trkpt lat="44.472450" lon="7.681640">
                <time>2024-04-01T08:53:58Z</time>
            </trkpt>
            <trkpt lat="44.472220" lon="7.681540">
                <time>2024-04-01T08:53:59Z</time>
            </trkpt>
            <trkpt lat="44.471990" lon="7.681420">
                <time>2024-04-01T08:54:00Z</time>
            </trkpt>
            <trkpt lat="44.471760" lon="7.681290">
                <time>2024-04-01T08:54:01Z</time>
            </trkpt>
            <trkpt lat="44.471540" lon="7.681160">
                <time>2024-04-01T08:54:02Z</time>
            </trkpt>
            <trkpt lat="44.471330" lon="7.681020">
                <time>2024-04-01T08:54:03Z</time>
            </trkpt>
            <trkpt lat="44.471110" lon="7.680870">
                <time>2024-04-01T08:54:04Z</time>
            </trkpt>
            <trkpt lat="44.470900" lon="7.680720">
                <time>2024-04-01T08:54:05Z</time>
            </trkpt>
            <trkpt lat="44.470690" lon="7.680550">
                <time>2024-04-01T08:54:06Z</time>
            </trkpt>
            <trkpt lat="44.470490" lon="7.680390">
                <time>2024-04-01T08:54:07Z</time>
            </trkpt>
            <trkpt lat="44.470300" lon="7.680220">
                <time>2024-04-01T08:54:08Z</time>
            </trkpt>
            <trkpt lat="44.470110" lon="7.680050">
                <time>2024-04-01T08:54:09Z</time>
            </trkpt>
            <trkpt lat="44.469920" lon="7.679880">
                <time>2024-04-01T08:54:10Z</time>
            </trkpt>
            <trkpt lat="44.469730" lon="7.679710">
                <time>2024-04-01T08:54:11Z</time>
            </trkpt>
            <trkpt lat="44.469540" lon="7.679540">
                <time>2024-04-01T08:54:12Z</time>
            </trkpt>
            <trkpt lat="44.469340" lon="7.679380">
                <time>2024-04-01T08:54:13Z</time>
            </trkpt>
            <trkpt lat="44.469160" lon="7.679210">
                <time>2024-04-01T08:54:14Z</time>
            </trkpt>
            <trkpt lat="44.468970" lon="7.679050">
                <time>2024-04-01T08:54:15Z</time>
            </trkpt>
            <trkpt lat="44.468800" lon="7.678890">
                <time>2024-04-01T08:54:16Z</time>
            </trkpt>
            <trkpt lat="44.468620" lon="7.678740">
                <time>2024-04-01T08:54:17Z</time>
            </trkpt>
            <trkpt lat="44.468430" lon="7.678590">
                <time>2024-04-01T08:54:18Z</time>
            </trkpt>
            <trkpt lat="44.468250" lon="7.678430">
                <time>2024-04-01T08:54:19Z</time>
            </trkpt>
            <trkpt lat="44.468070" lon="7.678280">
                <time>2024-04-01T08:54:20Z</time>
            </trkpt>
            <trkpt lat="44.467890" lon="7.678130">
                <time>2024-04-01T08:54:21Z</time>
            </trkpt>
            <trkpt lat="44.467710" lon="7.677970">
                <time>2024-04-01T08:54:22Z</time>
            </trkpt>
            <trkpt lat="44.467520" lon="7.677810">
                <time>2024-04-01T08:54:23Z</time>
            </trkpt>
            <trkpt lat="44.467330" lon="7.677650">
                <time>2024-04-01T08:54:24Z</time>
            </trkpt>
            <trkpt lat="44.467140" lon="7.677480">
                <time>2024-04-01T08:54:25Z</time>
            </trkpt>
            <trkpt lat="44.466940" lon="7.677300">
                <time>2024-04-01T08:54:26Z</time>
            </trkpt>
            <trkpt lat="44.466740" lon="7.677130">
                <time>2024-04-01T08:54:27Z</time>
            </trkpt>
            <trkpt lat="44.466530" lon="7.676950">
                <time>2024-04-01T08:54:28Z</time>
            </trkpt>
            <trkpt lat="44.466320" lon="7.676760">
                <time>2024-04-01T08:54:29Z</time>
            </trkpt>
            <trkpt lat="44.466110" lon="7.676580">
                <time>2024-04-01T08:54:30Z</time>
            </trkpt>
            <trkpt lat="44.465900" lon="7.676390">
                <time>2024-04-01T08:54:31Z</time>
            </trkpt>
            <trkpt lat="44.465690" lon="7.676190">
                <time>2024-04-01T08:54:32Z</time>
            </trkpt>
            <trkpt lat="44.465490" lon="7.675990">
                <time>2024-04-01T08:54:33Z</time>
            </trkpt>
            <trkpt lat="44.465280" lon="7.675770">
                <time>2024-04-01T08:54:34Z</time>
            </trkpt>
            <trkpt lat="44.465080" lon="7.675560">
                <time>2024-04-01T08:54:35Z</time>
            </trkpt>
            <trkpt lat="44.464870" lon="7.675340">
                <time>2024-04-01T08:54:36Z</time>
            </trkpt>
            <trkpt lat="44.464680" lon="7.675120">
                <time>2024-04-01T08:54:37Z</time>
            </trkpt>
            <trkpt lat="44.464490" lon="7.674900">
                <time>2024-04-01T08:54:38Z</time>
            </trkpt>
            <trkpt lat="44.464300" lon="7.674680">
                <time>2024-04-01T08:54:39Z</time>
            </trkpt>
            <trkpt lat="44.464120" lon="7.674450">
                <time>2024-04-01T08:54:40Z</time>
            </trkpt>
            <trkpt lat="44.463940" lon="7.674240">
                <time>2024-04-01T08:54:41Z</time>
            </trkpt>
            <trkpt lat="44.463770" lon="7.674020">
                <time>2024-04-01T08:54:42Z</time>
            </trkpt>
            <trkpt lat="44.463600" lon="7.673800">
                <time>2024-04-01T08:54:43Z</time>
            </trkpt>
            <trkpt lat="44.463420" lon="7.673570">
                <time>2024-04-01T08:54:44Z</time>
            </trkpt>
            <trkpt lat="44.463250" lon="7.673340">
                <time>2024-04-01T08:54:45Z</time>
            </trkpt>
            <trkpt lat="44.463070" lon="7.673110">
                <time>2024-04-01T08:54:46Z</time>
            </trkpt>
            <trkpt lat="44.462890" lon="7.672880">
                <time>2024-04-01T08:54:47Z</time>
            </trkpt>
            <trkpt lat="44.462710" lon="7.672650">
                <time>2024-04-01T08:54:48Z</time>
            </trkpt>
            <trkpt lat="44.462530" lon="7.672410">
                <time>2024-04-01T08:54:49Z</time>
            </trkpt>
            <trkpt lat="44.462350" lon="7.672180">
                <time>2024-04-01T08:54:50Z</time>
            </trkpt>
            <trkpt lat="44.462170" lon="7.671950">
                <time>2024-04-01T08:54:51Z</time>
            </trkpt>
            <trkpt lat="44.461990" lon="7.671710">
                <time>2024-04-01T08:54:52Z</time>
            </trkpt>
            <trkpt lat="44.461810" lon="7.671480">
                <time>2024-04-01T08:54:53Z</time>
            </trkpt>
            <trkpt lat="44.461620" lon="7.671240">
                <time>2024-04-01T08:54:54Z</time>
            </trkpt>
            <trkpt lat="44.461440" lon="7.670990">
                <time>2024-04-01T08:54:55Z</time>
            </trkpt>
            <trkpt lat="44.461260" lon="7.670750">
                <time>2024-04-01T08:54:56Z</time>
            </trkpt>
            <trkpt lat="44.461070" lon="7.670510">
                <time>2024-04-01T08:54:57Z</time>
            </trkpt>
            <trkpt lat="44.460900" lon="7.670290">
                <time>2024-04-01T08:54:58Z</time>
            </trkpt>
            <trkpt lat="44.460740" lon="7.670080">
                <time>2024-04-01T08:54:59Z</time>
            </trkpt>
            <trkpt lat="44.460590" lon="7.669880">
                <time>2024-04-01T08:55:00Z</time>
            </trkpt>
            <trkpt lat="44.460440" lon="7.669690">
                <time>2024-04-01T08:55:01Z</time>
            </trkpt>
            <trkpt lat="44.460310" lon="7.669520">
                <time>2024-04-01T08:55:02Z</time>
            </trkpt>
            <trkpt lat="44.460190" lon="7.669350">
                <time>2024-04-01T08:55:03Z</time>
            </trkpt>
            <trkpt lat="44.460070" lon="7.669190">
                <time>2024-04-01T08:55:04Z</time>
            </trkpt>
            <trkpt lat="44.459960" lon="7.669050">
                <time>2024-04-01T08:55:05Z</time>
            </trkpt>
            <trkpt lat="44.459850" lon="7.668910">
                <time>2024-04-01T08:55:06Z</time>
            </trkpt>
            <trkpt lat="44.459740" lon="7.668770">
                <time>2024-04-01T08:55:07Z</time>
            </trkpt>
            <trkpt lat="44.459640" lon="7.668630">
                <time>2024-04-01T08:55:08Z</time>
            </trkpt>
            <trkpt lat="44.459540" lon="7.668500">
                <time>2024-04-01T08:55:09Z</time>
            </trkpt>
            <trkpt lat="44.459460" lon="7.668380">
                <time>2024-04-01T08:55:10Z</time>
            </trkpt>
            <trkpt lat="44.459390" lon="7.668260">
                <time>2024-04-01T08:55:11Z</time>
            </trkpt>
            <trkpt lat="44.459340" lon="7.668140">
                <time>2024-04-01T08:55:12Z</time>
            </trkpt>
            <trkpt lat="44.459320" lon="7.668020">
                <time>2024-04-01T08:55:13Z</time>
            </trkpt>
            <trkpt lat="44.459340" lon="7.667910">
                <time>2024-04-01T08:55:14Z</time>
            </trkpt>
            <trkpt lat="44.459370" lon="7.667810">
                <time>2024-04-01T08:55:15Z</time>
            </trkpt>
            <trkpt lat="44.459440" lon="7.667710">
                <time>2024-04-01T08:55:16Z</time>
            </trkpt>
            <trkpt lat="44.459520" lon="7.667620">
                <time>2024-04-01T08:55:17Z</time>
            </trkpt>
            <trkpt lat="44.459600" lon="7.667520">
                <time>2024-04-01T08:55:18Z</time>
            </trkpt>
            <trkpt lat="44.459690" lon="7.667440">
                <time>2024-04-01T08:55:19Z</time>
            </trkpt>
            <trkpt lat="44.459760" lon="7.667360">
                <time>2024-04-01T08:55:20Z</time>
            </trkpt>
            <trkpt lat="44.459850" lon="7.667300">
                <time>2024-04-01T08:55:21Z</time>
            </trkpt>
            <trkpt lat="44.459930" lon="7.667240">
                <time>2024-04-01T08:55:22Z</time>
            </trkpt>
            <trkpt lat="44.460010" lon="7.667150">
                <time>2024-04-01T08:55:23Z</time>
            </trkpt>
            <trkpt lat="44.460080" lon="7.667030">
                <time>2024-04-01T08:55:24Z</time>
            </trkpt>
            <trkpt lat="44.460160" lon="7.666880">
                <time>2024-04-01T08:55:25Z</time>
            </trkpt>
            <trkpt lat="44.460230" lon="7.666730">
                <time>2024-04-01T08:55:26Z</time>
            </trkpt>
            <trkpt lat="44.460300" lon="7.666590">
                <time>2024-04-01T08:55:27Z</time>
            </trkpt>
            <trkpt lat="44.460370" lon="7.666470">
                <time>2024-04-01T08:55:28Z</time>
            </trkpt>
            <trkpt lat="44.460430" lon="7.666360">
                <time>2024-04-01T08:55:29Z</time>
            </trkpt>
            <trkpt lat="44.460490" lon="7.666270">
                <time>2024-04-01T08:55:30Z</time>
            </trkpt>
            <trkpt lat="44.460560" lon="7.666220">
                <time>2024-04-01T08:55:31Z</time>
            </trkpt>
            <trkpt lat="44.460640" lon="7.666170">
                <time>2024-04-01T08:55:32Z</time>
            </trkpt>
            <trkpt lat="44.460720" lon="7.666140">
                <time>2024-04-01T08:55:33Z</time>
            </trkpt>
            <trkpt lat="44.460800" lon="7.666080">
                <time>2024-04-01T08:55:34Z</time>
            </trkpt>
            <trkpt lat="44.460870" lon="7.666010">
                <time>2024-04-01T08:55:35Z</time>
            </trkpt>
            <trkpt lat="44.460920" lon="7.665930">
                <time>2024-04-01T08:55:36Z</time>
            </trkpt>
            <trkpt lat="44.460970" lon="7.665850">
                <time>2024-04-01T08:55:37Z</time>
            </trkpt>
            <trkpt lat="44.461020" lon="7.665790">
                <time>2024-04-01T08:55:38Z</time>
            </trkpt>
            <trkpt lat="44.461040" lon="7.665740">
                <time>2024-04-01T08:55:39Z</time>
            </trkpt>
            <trkpt lat="44.461070" lon="7.665710">
                <time>2024-04-01T08:55:40Z</time>
            </trkpt>
            <trkpt lat="44.461080" lon="7.665670">
                <time>2024-04-01T08:55:41Z</time>
            </trkpt>
            <trkpt lat="44.461090" lon="7.665650">
                <time>2024-04-01T08:55:42Z</time>
            </trkpt>
            <trkpt lat="44.461080" lon="7.665620">
                <time>2024-04-01T08:55:43Z</time>
            </trkpt>
            <trkpt lat="44.461060" lon="7.665590">
                <time>2024-04-01T08:55:44Z</time>
            </trkpt>
            <trkpt lat="44.461020" lon="7.665550">
                <time>2024-04-01T08:55:45Z</time>
            </trkpt>
            <trkpt lat="44.460990" lon="7.665500">
                <time>2024-04-01T08:55:46Z</time>
            </trkpt>
            <trkpt lat="44.460960" lon="7.665450">
                <time>2024-04-01T08:55:47Z</time>
            </trkpt>
            <trkpt lat="44.460920" lon="7.665400">
                <time>2024-04-01T08:55:48Z</time>
            </trkpt>
            <trkpt lat="44.460890" lon="7.665340">
                <time>2024-04-01T08:55:49Z</time>
            </trkpt>
            <trkpt lat="44.460860" lon="7.665270">
                <time>2024-04-01T08:55:50Z</time>
            </trkpt>
            <trkpt lat="44.460830" lon="7.665210">
                <time>2024-04-01T08:55:51Z</time>
            </trkpt>
            <trkpt lat="44.460800" lon="7.665140">
                <time>2024-04-01T08:55:52Z</time>
            </trkpt>
            <trkpt lat="44.460780" lon="7.665070">
                <time>2024-04-01T08:55:53Z</time>
            </trkpt>
            <trkpt lat="44.460750" lon="7.664990">
                <time>2024-04-01T08:55:54Z</time>
            </trkpt>
            <trkpt lat="44.460730" lon="7.664890">
                <time>2024-04-01T08:55:55Z</time>
            </trkpt>
            <trkpt lat="44.460700" lon="7.664810">
                <time>2024-04-01T08:55:56Z</time>
            </trkpt>
            <trkpt lat="44.460680" lon="7.664720">
                <time>2024-04-01T08:55:57Z</time>
            </trkpt>
            <trkpt lat="44.460650" lon="7.664610">
                <time>2024-04-01T08:55:58Z</time>
            </trkpt>
            <trkpt lat="44.460610" lon="7.664480">
                <time>2024-04-01T08:55:59Z</time>
            </trkpt>
            <trkpt lat="44.460580" lon="7.664330">
                <time>2024-04-01T08:56:00Z</time>
            </trkpt>
            <trkpt lat="44.460540" lon="7.664190">
                <time>2024-04-01T08:56:01Z</time>
            </trkpt>
            <trkpt lat="44.460500" lon="7.664030">
                <time>2024-04-01T08:56:02Z</time>
            </trkpt>
            <trkpt lat="44.460470" lon="7.663870">
                <time>2024-04-01T08:56:03Z</time>
            </trkpt>
            <trkpt lat="44.460430" lon="7.663720">
                <time>2024-04-01T08:56:04Z</time>
            </trkpt>
            <trkpt lat="44.460390" lon="7.663570">
                <time>2024-04-01T08:56:05Z</time>
            </trkpt>
            <trkpt lat="44.460340" lon="7.663440">
                <time>2024-04-01T08:56:06Z</time>
            </trkpt>
            <trkpt lat="44.460280" lon="7.663310">
                <time>2024-04-01T08:56:07Z</time>
            </trkpt>
            <trkpt lat="44.460210" lon="7.663180">
                <time>2024-04-01T08:56:08Z</time>
            </trkpt>
            <trkpt lat="44.460150" lon="7.663060">
                <time>2024-04-01T08:56:09Z</time>
            </trkpt>
            <trkpt lat="44.460080" lon="7.662930">
                <time>2024-04-01T08:56:10Z</time>
            </trkpt>
            <trkpt lat="44.460020" lon="7.662800">
                <time>2024-04-01T08:56:11Z</time>
            </trkpt>
            <trkpt lat="44.459950" lon="7.662670">
                <time>2024-04-01T08:56:12Z</time>
            </trkpt>
            <trkpt lat="44.459890" lon="7.662550">
                <time>2024-04-01T08:56:13Z</time>
            </trkpt>
            <trkpt lat="44.459830" lon="7.662440">
                <time>2024-04-01T08:56:14Z</time>
            </trkpt>
            <trkpt lat="44.459770" lon="7.662330">
                <time>2024-04-01T08:56:15Z</time>
            </trkpt>
            <trkpt lat="44.459720" lon="7.662240">
                <time>2024-04-01T08:56:16Z</time>
            </trkpt>
            <trkpt lat="44.459670" lon="7.662150">
                <time>2024-04-01T08:56:17Z</time>
            </trkpt>
            <trkpt lat="44.459610" lon="7.662060">
                <time>2024-04-01T08:56:18Z</time>
            </trkpt>
            <trkpt lat="44.459550" lon="7.661970">
                <time>2024-04-01T08:56:19Z</time>
            </trkpt>
            <trkpt lat="44.459480" lon="7.661860">
                <time>2024-04-01T08:56:20Z</time>
            </trkpt>
            <trkpt lat="44.459400" lon="7.661760">
                <time>2024-04-01T08:56:21Z</time>
            </trkpt>
            <trkpt lat="44.459310" lon="7.661650">
                <time>2024-04-01T08:56:22Z</time>
            </trkpt>
            <trkpt lat="44.459210" lon="7.661520">
                <time>2024-04-01T08:56:23Z</time>
            </trkpt>
            <trkpt lat="44.459100" lon="7.661380">
                <time>2024-04-01T08:56:24Z</time>
            </trkpt>
            <trkpt lat="44.458980" lon="7.661240">
                <time>2024-04-01T08:56:25Z</time>
            </trkpt>
            <trkpt lat="44.458860" lon="7.661090">
                <time>2024-04-01T08:56:26Z</time>
            </trkpt>
            <trkpt lat="44.458720" lon="7.660920">
                <time>2024-04-01T08:56:27Z</time>
            </trkpt>
            <trkpt lat="44.458590" lon="7.660750">
                <time>2024-04-01T08:56:28Z</time>
            </trkpt>
            <trkpt lat="44.458460" lon="7.660570">
                <time>2024-04-01T08:56:29Z</time>
            </trkpt>
            <trkpt lat="44.458330" lon="7.660400">
                <time>2024-04-01T08:56:30Z</time>
            </trkpt>
            <trkpt lat="44.458200" lon="7.660220">
                <time>2024-04-01T08:56:31Z</time>
            </trkpt>
            <trkpt lat="44.458070" lon="7.660030">
                <time>2024-04-01T08:56:32Z</time>
            </trkpt>
            <trkpt lat="44.457940" lon="7.659840">
                <time>2024-04-01T08:56:33Z</time>
            </trkpt>
            <trkpt lat="44.457800" lon="7.659630">
                <time>2024-04-01T08:56:34Z</time>
            </trkpt>
            <trkpt lat="44.457660" lon="7.659410">
                <time>2024-04-01T08:56:35Z</time>
            </trkpt>
            <trkpt lat="44.457510" lon="7.659210">
                <time>2024-04-01T08:56:36Z</time>
            </trkpt>
            <trkpt lat="44.457370" lon="7.658990">
                <time>2024-04-01T08:56:37Z</time>
            </trkpt>
            <trkpt lat="44.457220" lon="7.658760">
                <time>2024-04-01T08:56:38Z</time>
            </trkpt>
            <trkpt lat="44.457060" lon="7.658530">
                <time>2024-04-01T08:56:39Z</time>
            </trkpt>
            <trkpt lat="44.456900" lon="7.658290">
                <time>2024-04-01T08:56:40Z</time>
            </trkpt>
            <trkpt lat="44.456740" lon="7.658040">
                <time>2024-04-01T08:56:41Z</time>
            </trkpt>
            <trkpt lat="44.456580" lon="7.657800">
                <time>2024-04-01T08:56:42Z</time>
            </trkpt>
            <trkpt lat="44.456430" lon="7.657560">
                <time>2024-04-01T08:56:43Z</time>
            </trkpt>
            <trkpt lat="44.456290" lon="7.657320">
                <time>2024-04-01T08:56:44Z</time>
            </trkpt>
            <trkpt lat="44.456140" lon="7.657080">
                <time>2024-04-01T08:56:45Z</time>
            </trkpt>
            <trkpt lat="44.455980" lon="7.656840">
                <time>2024-04-01T08:56:46Z</time>
            </trkpt>
            <trkpt lat="44.455810" lon="7.656590">
                <time>2024-04-01T08:56:47Z</time>
            </trkpt>
            <trkpt lat="44.455620" lon="7.656350">
                <time>2024-04-01T08:56:48Z</time>
            </trkpt>
            <trkpt lat="44.455430" lon="7.656110">
                <time>2024-04-01T08:56:49Z</time>
            </trkpt>
            <trkpt lat="44.455230" lon="7.655860">
                <time>2024-04-01T08:56:50Z</time>
            </trkpt>
            <trkpt lat="44.455040" lon="7.655620">
                <time>2024-04-01T08:56:51Z</time>
            </trkpt>
            <trkpt lat="44.454850" lon="7.655390">
                <time>2024-04-01T08:56:52Z</time>
            </trkpt>
            <trkpt lat="44.454680" lon="7.655170">
                <time>2024-04-01T08:56:53Z</time>
            </trkpt>
            <trkpt lat="44.454500" lon="7.654950">
                <time>2024-04-01T08:56:54Z</time>
            </trkpt>
            <trkpt lat="44.454320" lon="7.654720">
                <time>2024-04-01T08:56:55Z</time>
            </trkpt>
            <trkpt lat="44.454140" lon="7.654490">
                <time>2024-04-01T08:56:56Z</time>
            </trkpt>
            <trkpt lat="44.453980" lon="7.654260">
                <time>2024-04-01T08:56:57Z</time>
            </trkpt>
            <trkpt lat="44.453830" lon="7.654040">
                <time>2024-04-01T08:56:58Z</time>
            </trkpt>
            <trkpt lat="44.453680" lon="7.653830">
                <time>2024-04-01T08:56:59Z</time>
            </trkpt>
            <trkpt lat="44.453530" lon="7.653610">
                <time>2024-04-01T08:57:00Z</time>
            </trkpt>
            <trkpt lat="44.453390" lon="7.653400">
                <time>2024-04-01T08:57:01Z</time>
            </trkpt>
            <trkpt lat="44.453240" lon="7.653180">
                <time>2024-04-01T08:57:02Z</time>
            </trkpt>
            <trkpt lat="44.453090" lon="7.652970">
                <time>2024-04-01T08:57:03Z</time>
            </trkpt>
            <trkpt lat="44.452940" lon="7.652770">
                <time>2024-04-01T08:57:04Z</time>
            </trkpt>
            <trkpt lat="44.452790" lon="7.652570">
                <time>2024-04-01T08:57:05Z</time>
            </trkpt>
            <trkpt lat="44.452650" lon="7.652370">
                <time>2024-04-01T08:57:06Z</time>
            </trkpt>
            <trkpt lat="44.452490" lon="7.652170">
                <time>2024-04-01T08:57:07Z</time>
            </trkpt>
            <trkpt lat="44.452340" lon="7.651970">
                <time>2024-04-01T08:57:08Z</time>
            </trkpt>
            <trkpt lat="44.452180" lon="7.651760">
                <time>2024-04-01T08:57:09Z</time>
            </trkpt>
            <trkpt lat="44.452020" lon="7.651550">
                <time>2024-04-01T08:57:10Z</time>
            </trkpt>
            <trkpt lat="44.451860" lon="7.651330">
                <time>2024-04-01T08:57:11Z</time>
            </trkpt>
            <trkpt lat="44.451700" lon="7.651100">
                <time>2024-04-01T08:57:12Z</time>
            </trkpt>
            <trkpt lat="44.451520" lon="7.650860">
                <time>2024-04-01T08:57:13Z</time>
            </trkpt>
            <trkpt lat="44.451350" lon="7.650640">
                <time>2024-04-01T08:57:14Z</time>
            </trkpt>
            <trkpt lat="44.451190" lon="7.650420">
                <time>2024-04-01T08:57:15Z</time>
            </trkpt>
            <trkpt lat="44.451030" lon="7.650210">
                <time>2024-04-01T08:57:16Z</time>
            </trkpt>
            <trkpt lat="44.450890" lon="7.650020">
                <time>2024-04-01T08:57:17Z</time>
            </trkpt>
            <trkpt lat="44.450740" lon="7.649820">
                <time>2024-04-01T08:57:18Z</time>
            </trkpt>
            <trkpt lat="44.450600" lon="7.649620">
                <time>2024-04-01T08:57:19Z</time>
            </trkpt>
            <trkpt lat="44.450460" lon="7.649430">
                <time>2024-04-01T08:57:20Z</time>
            </trkpt>
            <trkpt lat="44.450320" lon="7.649230">
                <time>2024-04-01T08:57:21Z</time>
            </trkpt>
            <trkpt lat="44.450190" lon="7.649020">
                <time>2024-04-01T08:57:22Z</time>
            </trkpt>
            <trkpt lat="44.450080" lon="7.648800">
                <time>2024-04-01T08:57:23Z</time>
            </trkpt>
            <trkpt lat="44.449960" lon="7.648580">
                <time>2024-04-01T08:57:24Z</time>
            </trkpt>
            <trkpt lat="44.449860" lon="7.648370">
                <time>2024-04-01T08:57:25Z</time>
            </trkpt>
            <trkpt lat="44.449780" lon="7.648180">
                <time>2024-04-01T08:57:26Z</time>
            </trkpt>
            <trkpt lat="44.449700" lon="7.648010">
                <time>2024-04-01T08:57:27Z</time>
            </trkpt>
            <trkpt lat="44.449640" lon="7.647870">
                <time>2024-04-01T08:57:28Z</time>
            </trkpt>
            <trkpt lat="44.449590" lon="7.647750">
                <time>2024-04-01T08:57:29Z</time>
            </trkpt>
            <trkpt lat="44.449540" lon="7.647640">
                <time>2024-04-01T08:57:30Z</time>
            </trkpt>
            <trkpt lat="44.449500" lon="7.647560">
                <time>2024-04-01T08:57:31Z</time>
            </trkpt>
            <trkpt lat="44.449450" lon="7.647500">
                <time>2024-04-01T08:57:32Z</time>
            </trkpt>
            <trkpt lat="44.449400" lon="7.647480">
                <time>2024-04-01T08:57:33Z</time>
            </trkpt>
            <trkpt lat="44.449330" lon="7.647500">
                <time>2024-04-01T08:57:34Z</time>
            </trkpt>
            <trkpt lat="44.449270" lon="7.647550">
                <time>2024-04-01T08:57:35Z</time>
            </trkpt>
            <trkpt lat="44.449210" lon="7.647630">
                <time>2024-04-01T08:57:36Z</time>
            </trkpt>
            <trkpt lat="44.449140" lon="7.647740">
                <time>2024-04-01T08:57:37Z</time>
            </trkpt>
            <trkpt lat="44.449060" lon="7.647870">
                <time>2024-04-01T08:57:38Z</time>
            </trkpt>
            <trkpt lat="44.448960" lon="7.648020">
                <time>2024-04-01T08:57:39Z</time>
            </trkpt>
            <trkpt lat="44.448860" lon="7.648160">
                <time>2024-04-01T08:57:40Z</time>
            </trkpt>
            <trkpt lat="44.448740" lon="7.648320">
                <time>2024-04-01T08:57:41Z</time>
            </trkpt>
            <trkpt lat="44.448610" lon="7.648490">
                <time>2024-04-01T08:57:42Z</time>
            </trkpt>
            <trkpt lat="44.448480" lon="7.648660">
                <time>2024-04-01T08:57:43Z</time>
            </trkpt>
            <trkpt lat="44.448350" lon="7.648850">
                <time>2024-04-01T08:57:44Z</time>
            </trkpt>
            <trkpt lat="44.448200" lon="7.649050">
                <time>2024-04-01T08:57:45Z</time>
            </trkpt>
            <trkpt lat="44.448050" lon="7.649250">
                <time>2024-04-01T08:57:46Z</time>
            </trkpt>
            <trkpt lat="44.447900" lon="7.649450">
                <time>2024-04-01T08:57:47Z</time>
            </trkpt>
            <trkpt lat="44.447750" lon="7.649660">
                <time>2024-04-01T08:57:48Z</time>
            </trkpt>
            <trkpt lat="44.447600" lon="7.649860">
                <time>2024-04-01T08:57:49Z</time>
            </trkpt>
            <trkpt lat="44.447450" lon="7.650070">
                <time>2024-04-01T08:57:50Z</time>
            </trkpt>
            <trkpt lat="44.447300" lon="7.650260">
                <time>2024-04-01T08:57:51Z</time>
            </trkpt>
            <trkpt lat="44.447170" lon="7.650440">
                <time>2024-04-01T08:57:52Z</time>
            </trkpt>
            <trkpt lat="44.447040" lon="7.650610">
                <time>2024-04-01T08:57:53Z</time>
            </trkpt>
            <trkpt lat="44.446910" lon="7.650770">
                <time>2024-04-01T08:57:54Z</time>
            </trkpt>
            <trkpt lat="44.446800" lon="7.650930">
                <time>2024-04-01T08:57:55Z</time>
            </trkpt>
            <trkpt lat="44.446690" lon="7.651070">
                <time>2024-04-01T08:57:56Z</time>
            </trkpt>
            <trkpt lat="44.446590" lon="7.651190">
                <time>2024-04-01T08:57:57Z</time>
            </trkpt>
            <trkpt lat="44.446500" lon="7.651290">
                <time>2024-04-01T08:57:58Z</time>
            </trkpt>
            <trkpt lat="44.446400" lon="7.651350">
                <time>2024-04-01T08:57:59Z</time>
            </trkpt>
            <trkpt lat="44.446310" lon="7.651360">
                <time>2024-04-01T08:58:00Z</time>
            </trkpt>
            <trkpt lat="44.446230" lon="7.651330">
                <time>2024-04-01T08:58:01Z</time>
            </trkpt>
            <trkpt lat="44.446150" lon="7.651270">
                <time>2024-04-01T08:58:02Z</time>
            </trkpt>
            <trkpt lat="44.446080" lon="7.651190">
                <time>2024-04-01T08:58:03Z</time>
            </trkpt>
            <trkpt lat="44.445990" lon="7.651090">
                <time>2024-04-01T08:58:04Z</time>
            </trkpt>
            <trkpt lat="44.445890" lon="7.650970">
                <time>2024-04-01T08:58:05Z</time>
            </trkpt>
            <trkpt lat="44.445780" lon="7.650830">
                <time>2024-04-01T08:58:06Z</time>
            </trkpt>
            <trkpt lat="44.445650" lon="7.650670">
                <time>2024-04-01T08:58:07Z</time>
            </trkpt>
            <trkpt lat="44.445520" lon="7.650510">
                <time>2024-04-01T08:58:08Z</time>
            </trkpt>
            <trkpt lat="44.445390" lon="7.650340">
                <time>2024-04-01T08:58:09Z</time>
            </trkpt>
            <trkpt lat="44.445250" lon="7.650150">
                <time>2024-04-01T08:58:10Z</time>
            </trkpt>
            <trkpt lat="44.445100" lon="7.649970">
                <time>2024-04-01T08:58:11Z</time>
            </trkpt>
            <trkpt lat="44.444950" lon="7.649780">
                <time>2024-04-01T08:58:12Z</time>
            </trkpt>
            <trkpt lat="44.444800" lon="7.649570">
                <time>2024-04-01T08:58:13Z</time>
            </trkpt>
            <trkpt lat="44.444640" lon="7.649380">
                <time>2024-04-01T08:58:14Z</time>
            </trkpt>
            <trkpt lat="44.444480" lon="7.649170">
                <time>2024-04-01T08:58:15Z</time>
            </trkpt>
            <trkpt lat="44.444320" lon="7.648950">
                <time>2024-04-01T08:58:16Z</time>
            </trkpt>
            <trkpt lat="44.444160" lon="7.648740">
                <time>2024-04-01T08:58:17Z</time>
            </trkpt>
            <trkpt lat="44.444010" lon="7.648530">
                <time>2024-04-01T08:58:18Z</time>
            </trkpt>
            <trkpt lat="44.443860" lon="7.648320">
                <time>2024-04-01T08:58:19Z</time>
            </trkpt>
            <trkpt lat="44.443710" lon="7.648100">
                <time>2024-04-01T08:58:20Z</time>
            </trkpt>
            <trkpt lat="44.443570" lon="7.647880">
                <time>2024-04-01T08:58:21Z</time>
            </trkpt>
            <trkpt lat="44.443430" lon="7.647650">
                <time>2024-04-01T08:58:22Z</time>
            </trkpt>
            <trkpt lat="44.443290" lon="7.647420">
                <time>2024-04-01T08:58:23Z</time>
            </trkpt>
            <trkpt lat="44.443160" lon="7.647180">
                <time>2024-04-01T08:58:24Z</time>
            </trkpt>
            <trkpt lat="44.443020" lon="7.646950">
                <time>2024-04-01T08:58:25Z</time>
            </trkpt>
            <trkpt lat="44.442900" lon="7.646710">
                <time>2024-04-01T08:58:26Z</time>
            </trkpt>
            <trkpt lat="44.442770" lon="7.646470">
                <time>2024-04-01T08:58:27Z</time>
            </trkpt>
            <trkpt lat="44.442660" lon="7.646240">
                <time>2024-04-01T08:58:28Z</time>
            </trkpt>
            <trkpt lat="44.442550" lon="7.646010">
                <time>2024-04-01T08:58:29Z</time>
            </trkpt>
            <trkpt lat="44.442450" lon="7.645780">
                <time>2024-04-01T08:58:30Z</time>
            </trkpt>
            <trkpt lat="44.442360" lon="7.645570">
                <time>2024-04-01T08:58:31Z</time>
            </trkpt>
            <trkpt lat="44.442270" lon="7.645370">
                <time>2024-04-01T08:58:32Z</time>
            </trkpt>
            <trkpt lat="44.442190" lon="7.645180">
                <time>2024-04-01T08:58:33Z</time>
            </trkpt>
            <trkpt lat="44.442110" lon="7.644990">
                <time>2024-04-01T08:58:34Z</time>
            </trkpt>
            <trkpt lat="44.442050" lon="7.644820">
                <time>2024-04-01T08:58:35Z</time>
            </trkpt>
            <trkpt lat="44.441990" lon="7.644650">
                <time>2024-04-01T08:58:36Z</time>
            </trkpt>
            <trkpt lat="44.441950" lon="7.644490">
                <time>2024-04-01T08:58:37Z</time>
            </trkpt>
            <trkpt lat="44.441920" lon="7.644330">
                <time>2024-04-01T08:58:38Z</time>
            </trkpt>
            <trkpt lat="44.441900" lon="7.644170">
                <time>2024-04-01T08:58:39Z</time>
            </trkpt>
            <trkpt lat="44.441860" lon="7.644050">
                <time>2024-04-01T08:58:40Z</time>
            </trkpt>
            <trkpt lat="44.441800" lon="7.643950">
                <time>2024-04-01T08:58:41Z</time>
            </trkpt>
            <trkpt lat="44.441730" lon="7.643850">
                <time>2024-04-01T08:58:42Z</time>
            </trkpt>
            <trkpt lat="44.441640" lon="7.643740">
                <time>2024-04-01T08:58:43Z</time>
            </trkpt>
            <trkpt lat="44.441570" lon="7.643590">
                <time>2024-04-01T08:58:44Z</time>
            </trkpt>
            <trkpt lat="44.441490" lon="7.643430">
                <time>2024-04-01T08:58:45Z</time>
            </trkpt>
            <trkpt lat="44.441410" lon="7.643240">
                <time>2024-04-01T08:58:46Z</time>
            </trkpt>
            <trkpt lat="44.441330" lon="7.643040">
                <time>2024-04-01T08:58:47Z</time>
            </trkpt>
            <trkpt lat="44.441240" lon="7.642840">
                <time>2024-04-01T08:58:48Z</time>
            </trkpt>
            <trkpt lat="44.441150" lon="7.642630">
                <time>2024-04-01T08:58:49Z</time>
            </trkpt>
            <trkpt lat="44.441060" lon="7.642410">
                <time>2024-04-01T08:58:50Z</time>
            </trkpt>
            <trkpt lat="44.440970" lon="7.642200">
                <time>2024-04-01T08:58:51Z</time>
            </trkpt>
            <trkpt lat="44.440870" lon="7.641960">
                <time>2024-04-01T08:58:52Z</time>
            </trkpt>
            <trkpt lat="44.440780" lon="7.641730">
                <time>2024-04-01T08:58:53Z</time>
            </trkpt>
            <trkpt lat="44.440680" lon="7.641480">
                <time>2024-04-01T08:58:54Z</time>
            </trkpt>
            <trkpt lat="44.440570" lon="7.641230">
                <time>2024-04-01T08:58:55Z</time>
            </trkpt>
            <trkpt lat="44.440470" lon="7.640980">
                <time>2024-04-01T08:58:56Z</time>
            </trkpt>
            <trkpt lat="44.440370" lon="7.640720">
                <time>2024-04-01T08:58:57Z</time>
            </trkpt>
            <trkpt lat="44.440270" lon="7.640460">
                <time>2024-04-01T08:58:58Z</time>
            </trkpt>
            <trkpt lat="44.440160" lon="7.640200">
                <time>2024-04-01T08:58:59Z</time>
            </trkpt>
            <trkpt lat="44.440060" lon="7.639940">
                <time>2024-04-01T08:59:00Z</time>
            </trkpt>
            <trkpt lat="44.439940" lon="7.639670">
                <time>2024-04-01T08:59:01Z</time>
            </trkpt>
            <trkpt lat="44.439840" lon="7.639400">
                <time>2024-04-01T08:59:02Z</time>
            </trkpt>
            <trkpt lat="44.439730" lon="7.639130">
                <time>2024-04-01T08:59:03Z</time>
            </trkpt>
            <trkpt lat="44.439620" lon="7.638860">
                <time>2024-04-01T08:59:04Z</time>
            </trkpt>
            <trkpt lat="44.439500" lon="7.638580">
                <time>2024-04-01T08:59:05Z</time>
            </trkpt>
            <trkpt lat="44.439390" lon="7.638320">
                <time>2024-04-01T08:59:06Z</time>
            </trkpt>
            <trkpt lat="44.439280" lon="7.638050">
                <time>2024-04-01T08:59:07Z</time>
            </trkpt>
            <trkpt lat="44.439170" lon="7.637780">
                <time>2024-04-01T08:59:08Z</time>
            </trkpt>
            <trkpt lat="44.439070" lon="7.637510">
                <time>2024-04-01T08:59:09Z</time>
            </trkpt>
            <trkpt lat="44.438960" lon="7.637250">
                <time>2024-04-01T08:59:10Z</time>
            </trkpt>
            <trkpt lat="44.438850" lon="7.636980">
                <time>2024-04-01T08:59:11Z</time>
            </trkpt>
            <trkpt lat="44.438740" lon="7.636720">
                <time>2024-04-01T08:59:12Z</time>
            </trkpt>
            <trkpt lat="44.438630" lon="7.636450">
                <time>2024-04-01T08:59:13Z</time>
            </trkpt>
            <trkpt lat="44.438520" lon="7.636180">
                <time>2024-04-01T08:59:14Z</time>
            </trkpt>
            <trkpt lat="44.438410" lon="7.635900">
                <time>2024-04-01T08:59:15Z</time>
            </trkpt>
            <trkpt lat="44.438300" lon="7.635620">
                <time>2024-04-01T08:59:16Z</time>
            </trkpt>
            <trkpt lat="44.438180" lon="7.635330">
                <time>2024-04-01T08:59:17Z</time>
            </trkpt>
            <trkpt lat="44.438060" lon="7.635040">
                <time>2024-04-01T08:59:18Z</time>
            </trkpt>
            <trkpt lat="44.437950" lon="7.634750">
                <time>2024-04-01T08:59:19Z</time>
            </trkpt>
            <trkpt lat="44.437840" lon="7.634480">
                <time>2024-04-01T08:59:20Z</time>
            </trkpt>
            <trkpt lat="44.437740" lon="7.634230">
                <time>2024-04-01T08:59:21Z</time>
            </trkpt>
            <trkpt lat="44.437640" lon="7.634000">
                <time>2024-04-01T08:59:22Z</time>
            </trkpt>
            <trkpt lat="44.437550" lon="7.633780">
                <time>2024-04-01T08:59:23Z</time>
            </trkpt>
            <trkpt lat="44.437480" lon="7.633590">
                <time>2024-04-01T08:59:24Z</time>
            </trkpt>
            <trkpt lat="44.437420" lon="7.633400">
                <time>2024-04-01T08:59:25Z</time>
            </trkpt>
            <trkpt lat="44.437380" lon="7.633230">
                <time>2024-04-01T08:59:26Z</time>
            </trkpt>
            <trkpt lat="44.437370" lon="7.633060">
                <time>2024-04-01T08:59:27Z</time>
            </trkpt>
            <trkpt lat="44.437360" lon="7.632920">
                <time>2024-04-01T08:59:28Z</time>
            </trkpt>
            <trkpt lat="44.437320" lon="7.632800">
                <time>2024-04-01T08:59:29Z</time>
            </trkpt>
            <trkpt lat="44.437250" lon="7.632700">
                <time>2024-04-01T08:59:30Z</time>
            </trkpt>
            <trkpt lat="44.437160" lon="7.632600">
                <time>2024-04-01T08:59:31Z</time>
            </trkpt>
            <trkpt lat="44.437060" lon="7.632480">
                <time>2024-04-01T08:59:32Z</time>
            </trkpt>
            <trkpt lat="44.436970" lon="7.632310">
                <time>2024-04-01T08:59:33Z</time>
            </trkpt>
            <trkpt lat="44.436890" lon="7.632120">
                <time>2024-04-01T08:59:34Z</time>
            </trkpt>
            <trkpt lat="44.436800" lon="7.631920">
                <time>2024-04-01T08:59:35Z</time>
            </trkpt>
            <trkpt lat="44.436710" lon="7.631700">
                <time>2024-04-01T08:59:36Z</time>
            </trkpt>
            <trkpt lat="44.436610" lon="7.631480">
                <time>2024-04-01T08:59:37Z</time>
            </trkpt>
            <trkpt lat="44.436520" lon="7.631240">
                <time>2024-04-01T08:59:38Z</time>
            </trkpt>
            <trkpt lat="44.436420" lon="7.631010">
                <time>2024-04-01T08:59:39Z</time>
            </trkpt>
            <trkpt lat="44.436320" lon="7.630780">
                <time>2024-04-01T08:59:40Z</time>
            </trkpt>
            <trkpt lat="44.436220" lon="7.630540">
                <time>2024-04-01T08:59:41Z</time>
            </trkpt>
            <trkpt lat="44.436100" lon="7.630270">
                <time>2024-04-01T08:59:42Z</time>
            </trkpt>
            <trkpt lat="44.435980" lon="7.630010">
                <time>2024-04-01T08:59:43Z</time>
            </trkpt>
            <trkpt lat="44.435870" lon="7.629740">
                <time>2024-04-01T08:59:44Z</time>
            </trkpt>
            <trkpt lat="44.435760" lon="7.629470">
                <time>2024-04-01T08:59:45Z</time>
            </trkpt>
            <trkpt lat="44.435650" lon="7.629190">
                <time>2024-04-01T08:59:46Z</time>
            </trkpt>
            <trkpt lat="44.435540" lon="7.628900">
                <time>2024-04-01T08:59:47Z</time>
            </trkpt>
            <trkpt lat="44.435430" lon="7.628610">
                <time>2024-04-01T08:59:48Z</time>
            </trkpt>
            <trkpt lat="44.435310" lon="7.628320">
                <time>2024-04-01T08:59:49Z</time>
            </trkpt>
            <trkpt lat="44.435200" lon="7.628030">
                <time>2024-04-01T08:59:50Z</time>
            </trkpt>
            <trkpt lat="44.435080" lon="7.627750">
                <time>2024-04-01T08:59:51Z</time>
            </trkpt>
            <trkpt lat="44.434960" lon="7.627470">
                <time>2024-04-01T08:59:52Z</time>
            </trkpt>
            <trkpt lat="44.434830" lon="7.627190">
                <time>2024-04-01T08:59:53Z</time>
            </trkpt>
            <trkpt lat="44.434700" lon="7.626900">
                <time>2024-04-01T08:59:54Z</time>
            </trkpt>
            <trkpt lat="44.434560" lon="7.626610">
                <time>2024-04-01T08:59:55Z</time>
            </trkpt>
            <trkpt lat="44.434420" lon="7.626310">
                <time>2024-04-01T08:59:56Z</time>
            </trkpt>
            <trkpt lat="44.434280" lon="7.626010">
                <time>2024-04-01T08:59:57Z</time>
            </trkpt>
            <trkpt lat="44.434130" lon="7.625720">
                <time>2024-04-01T08:59:58Z</time>
            </trkpt>
            <trkpt lat="44.434000" lon="7.625440">
                <time>2024-04-01T08:59:59Z</time>
            </trkpt>
            <trkpt lat="44.433870" lon="7.625160">
                <time>2024-04-01T09:00:00Z</time>
            </trkpt>
            <trkpt lat="44.433740" lon="7.624890">
                <time>2024-04-01T09:00:01Z</time>
            </trkpt>
            <trkpt lat="44.433630" lon="7.624610">
                <time>2024-04-01T09:00:02Z</time>
            </trkpt>
            <trkpt lat="44.433510" lon="7.624320">
                <time>2024-04-01T09:00:03Z</time>
            </trkpt>
            <trkpt lat="44.433400" lon="7.624030">
                <time>2024-04-01T09:00:04Z</time>
            </trkpt>
            <trkpt lat="44.433290" lon="7.623750">
                <time>2024-04-01T09:00:05Z</time>
            </trkpt>
            <trkpt lat="44.433180" lon="7.623470">
                <time>2024-04-01T09:00:06Z</time>
            </trkpt>
            <trkpt lat="44.433060" lon="7.623190">
                <time>2024-04-01T09:00:07Z</time>
            </trkpt>
            <trkpt lat="44.432940" lon="7.622920">
                <time>2024-04-01T09:00:08Z</time>
            </trkpt>
            <trkpt lat="44.432790" lon="7.622670">
                <time>2024-04-01T09:00:09Z</time>
            </trkpt>
            <trkpt lat="44.432630" lon="7.622420">
                <time>2024-04-01T09:00:10Z</time>
            </trkpt>
            <trkpt lat="44.432470" lon="7.622190">
                <time>2024-04-01T09:00:11Z</time>
            </trkpt>
            <trkpt lat="44.432310" lon="7.621960">
                <time>2024-04-01T09:00:12Z</time>
            </trkpt>
            <trkpt lat="44.432140" lon="7.621730">
                <time>2024-04-01T09:00:13Z</time>
            </trkpt>
            <trkpt lat="44.431960" lon="7.621520">
                <time>2024-04-01T09:00:14Z</time>
            </trkpt>
            <trkpt lat="44.431790" lon="7.621290">
                <time>2024-04-01T09:00:15Z</time>
            </trkpt>
            <trkpt lat="44.431630" lon="7.621070">
                <time>2024-04-01T09:00:16Z</time>
            </trkpt>
            <trkpt lat="44.431460" lon="7.620850">
                <time>2024-04-01T09:00:17Z</time>
            </trkpt>
            <trkpt lat="44.431300" lon="7.620650">
                <time>2024-04-01T09:00:18Z</time>
            </trkpt>
            <trkpt lat="44.431140" lon="7.620450">
                <time>2024-04-01T09:00:19Z</time>
            </trkpt>
            <trkpt lat="44.430980" lon="7.620280">
                <time>2024-04-01T09:00:20Z</time>
            </trkpt>
            <trkpt lat="44.430800" lon="7.620120">
                <time>2024-04-01T09:00:21Z</time>
            </trkpt>
            <trkpt lat="44.430610" lon="7.619990">
                <time>2024-04-01T09:00:22Z</time>
            </trkpt>
            <trkpt lat="44.430420" lon="7.619860">
                <time>2024-04-01T09:00:23Z</time>
            </trkpt>
            <trkpt lat="44.430230" lon="7.619730">
                <time>2024-04-01T09:00:24Z</time>
            </trkpt>
            <trkpt lat="44.430030" lon="7.619610">
                <time>2024-04-01T09:00:25Z</time>
            </trkpt>
            <trkpt lat="44.429830" lon="7.619490">
                <time>2024-04-01T09:00:26Z</time>
            </trkpt>
            <trkpt lat="44.429640" lon="7.619370">
                <time>2024-04-01T09:00:27Z</time>
            </trkpt>
            <trkpt lat="44.429460" lon="7.619250">
                <time>2024-04-01T09:00:28Z</time>
            </trkpt>
            <trkpt lat="44.429290" lon="7.619140">
                <time>2024-04-01T09:00:29Z</time>
            </trkpt>
            <trkpt lat="44.429120" lon="7.619030">
                <time>2024-04-01T09:00:30Z</time>
            </trkpt>
            <trkpt lat="44.428950" lon="7.618910">
                <time>2024-04-01T09:00:31Z</time>
            </trkpt>
            <trkpt lat="44.428780" lon="7.618780">
                <time>2024-04-01T09:00:32Z</time>
            </trkpt>
            <trkpt lat="44.428610" lon="7.618620">
                <time>2024-04-01T09:00:33Z</time>
            </trkpt>
            <trkpt lat="44.428450" lon="7.618430">
                <time>2024-04-01T09:00:34Z</time>
            </trkpt>
            <trkpt lat="44.428290" lon="7.618240">
                <time>2024-04-01T09:00:35Z</time>
            </trkpt>
            <trkpt lat="44.428120" lon="7.618040">
                <time>2024-04-01T09:00:36Z</time>
            </trkpt>
            <trkpt lat="44.427950" lon="7.617840">
                <time>2024-04-01T09:00:37Z</time>
            </trkpt>
            <trkpt lat="44.427760" lon="7.617640">
                <time>2024-04-01T09:00:38Z</time>
            </trkpt>
            <trkpt lat="44.427570" lon="7.617440">
                <time>2024-04-01T09:00:39Z</time>
            </trkpt>
            <trkpt lat="44.427370" lon="7.617250">
                <time>2024-04-01T09:00:40Z</time>
            </trkpt>
            <trkpt lat="44.427170" lon="7.617060">
                <time>2024-04-01T09:00:41Z</time>
            </trkpt>
            <trkpt lat="44.426980" lon="7.616870">
                <time>2024-04-01T09:00:42Z</time>
            </trkpt>
            <trkpt lat="44.426790" lon="7.616680">
                <time>2024-04-01T09:00:43Z</time>
            </trkpt>
            <trkpt lat="44.426600" lon="7.616500">
                <time>2024-04-01T09:00:44Z</time>
            </trkpt>
            <trkpt lat="44.426410" lon="7.616300">
                <time>2024-04-01T09:00:45Z</time>
            </trkpt>
            <trkpt lat="44.426230" lon="7.616100">
                <time>2024-04-01T09:00:46Z</time>
            </trkpt>
            <trkpt lat="44.426060" lon="7.615880">
                <time>2024-04-01T09:00:47Z</time>
            </trkpt>
            <trkpt lat="44.425880" lon="7.615660">
                <time>2024-04-01T09:00:48Z</time>
            </trkpt>
            <trkpt lat="44.425720" lon="7.615430">
                <time>2024-04-01T09:00:49Z</time>
            </trkpt>
            <trkpt lat="44.425550" lon="7.615200">
                <time>2024-04-01T09:00:50Z</time>
            </trkpt>
            <trkpt lat="44.425380" lon="7.614960">
                <time>2024-04-01T09:00:51Z</time>
            </trkpt>
            <trkpt lat="44.425210" lon="7.614730">
                <time>2024-04-01T09:00:52Z</time>
            </trkpt>
            <trkpt lat="44.425040" lon="7.614480">
                <time>2024-04-01T09:00:53Z</time>
            </trkpt>
            <trkpt lat="44.424870" lon="7.614240">
                <time>2024-04-01T09:00:54Z</time>
            </trkpt>
            <trkpt lat="44.424710" lon="7.614000">
                <time>2024-04-01T09:00:55Z</time>
            </trkpt>
            <trkpt lat="44.424540" lon="7.613760">
                <time>2024-04-01T09:00:56Z</time>
            </trkpt>
            <trkpt lat="44.424380" lon="7.613520">
                <time>2024-04-01T09:00:57Z</time>
            </trkpt>
            <trkpt lat="44.424230" lon="7.613290">
                <time>2024-04-01T09:00:58Z</time>
            </trkpt>
            <trkpt lat="44.424080" lon="7.613060">
                <time>2024-04-01T09:00:59Z</time>
            </trkpt>
            <trkpt lat="44.423940" lon="7.612820">
                <time>2024-04-01T09:01:00Z</time>
            </trkpt>
            <trkpt lat="44.423800" lon="7.612570">
                <time>2024-04-01T09:01:01Z</time>
            </trkpt>
            <trkpt lat="44.423660" lon="7.612300">
                <time>2024-04-01T09:01:02Z</time>
            </trkpt>
            <trkpt lat="44.423530" lon="7.612030">
                <time>2024-04-01T09:01:03Z</time>
            </trkpt>
            <trkpt lat="44.423400" lon="7.611750">
                <time>2024-04-01T09:01:04Z</time>
            </trkpt>
            <trkpt lat="44.423260" lon="7.611460">
                <time>2024-04-01T09:01:05Z</time>
            </trkpt>
            <trkpt lat="44.423120" lon="7.611170">
                <time>2024-04-01T09:01:06Z</time>
            </trkpt>
            <trkpt lat="44.422990" lon="7.610890">
                <time>2024-04-01T09:01:07Z</time>
            </trkpt>
            <trkpt lat="44.422860" lon="7.610600">
                <time>2024-04-01T09:01:08Z</time>
            </trkpt>
            <trkpt lat="44.422730" lon="7.610310">
                <time>2024-04-01T09:01:09Z</time>
            </trkpt>
            <trkpt lat="44.422610" lon="7.610010">
                <time>2024-04-01T09:01:10Z</time>
            </trkpt>
            <trkpt lat="44.422480" lon="7.609720">
                <time>2024-04-01T09:01:11Z</time>
            </trkpt>
            <trkpt lat="44.422350" lon="7.609430">
                <time>2024-04-01T09:01:12Z</time>
            </trkpt>
            <trkpt lat="44.422220" lon="7.609140">
                <time>2024-04-01T09:01:13Z</time>
            </trkpt>
            <trkpt lat="44.422100" lon="7.608860">
                <time>2024-04-01T09:01:14Z</time>
            </trkpt>
            <trkpt lat="44.421980" lon="7.608590">
                <time>2024-04-01T09:01:15Z</time>
            </trkpt>
            <trkpt lat="44.421870" lon="7.608320">
                <time>2024-04-01T09:01:16Z</time>
            </trkpt>
            <trkpt lat="44.421770" lon="7.608050">
                <time>2024-04-01T09:01:17Z</time>
            </trkpt>
            <trkpt lat="44.421670" lon="7.607770">
                <time>2024-04-01T09:01:18Z</time>
            </trkpt>
            <trkpt lat="44.421580" lon="7.607500">
                <time>2024-04-01T09:01:19Z</time>
            </trkpt>
            <trkpt lat="44.421500" lon="7.607220">
                <time>2024-04-01T09:01:20Z</time>
            </trkpt>
            <trkpt lat="44.421420" lon="7.606950">
                <time>2024-04-01T09:01:21Z</time>
            </trkpt>
            <trkpt lat="44.421330" lon="7.606680">
                <time>2024-04-01T09:01:22Z</time>
            </trkpt>
            <trkpt lat="44.421240" lon="7.606430">
                <time>2024-04-01T09:01:23Z</time>
            </trkpt>
            <trkpt lat="44.421130" lon="7.606170">
                <time>2024-04-01T09:01:24Z</time>
            </trkpt>
            <trkpt lat="44.421010" lon="7.605930">
                <time>2024-04-01T09:01:25Z</time>
            </trkpt>
            <trkpt lat="44.420870" lon="7.605690">
                <time>2024-04-01T09:01:26Z</time>
            </trkpt>
            <trkpt lat="44.420720" lon="7.605450">
                <time>2024-04-01T09:01:27Z</time>
            </trkpt>
            <trkpt lat="44.420570" lon="7.605210">
                <time>2024-04-01T09:01:28Z</time>
            </trkpt>
            <trkpt lat="44.420420" lon="7.604970">
                <time>2024-04-01T09:01:29Z</time>
            </trkpt>
            <trkpt lat="44.420270" lon="7.604730">
                <time>2024-04-01T09:01:30Z</time>
            </trkpt>
            <trkpt lat="44.420120" lon="7.604490">
                <time>2024-04-01T09:01:31Z</time>
            </trkpt>
            <trkpt lat="44.419960" lon="7.604250">
                <time>2024-04-01T09:01:32Z</time>
            </trkpt>
            <trkpt lat="44.419810" lon="7.604010">
                <time>2024-04-01T09:01:33Z</time>
            </trkpt>
            <trkpt lat="44.419660" lon="7.603770">
                <time>2024-04-01T09:01:34Z</time>
            </trkpt>
            <trkpt lat="44.419500" lon="7.603530">
                <time>2024-04-01T09:01:35Z</time>
            </trkpt>
            <trkpt lat="44.419350" lon="7.603280">
                <time>2024-04-01T09:01:36Z</time>
            </trkpt>
            <trkpt lat="44.419190" lon="7.603040">
                <time>2024-04-01T09:01:37Z</time>
            </trkpt>
            <trkpt lat="44.419040" lon="7.602790">
                <time>2024-04-01T09:01:38Z</time>
            </trkpt>
            <trkpt lat="44.418890" lon="7.602540">
                <time>2024-04-01T09:01:39Z</time>
            </trkpt>
            <trkpt lat="44.418740" lon="7.602300">
                <time>2024-04-01T09:01:40Z</time>
            </trkpt>
            <trkpt lat="44.418580" lon="7.602050">
                <time>2024-04-01T09:01:41Z</time>
            </trkpt>
            <trkpt lat="44.418430" lon="7.601790">
                <time>2024-04-01T09:01:42Z</time>
            </trkpt>
            <trkpt lat="44.418260" lon="7.601540">
                <time>2024-04-01T09:01:43Z</time>
            </trkpt>
            <trkpt lat="44.418110" lon="7.601270">
                <time>2024-04-01T09:01:44Z</time>
            </trkpt>
            <trkpt lat="44.417950" lon="7.601020">
                <time>2024-04-01T09:01:45Z</time>
            </trkpt>
            <trkpt lat="44.417790" lon="7.600770">
                <time>2024-04-01T09:01:46Z</time>
            </trkpt>
            <trkpt lat="44.417650" lon="7.600530">
                <time>2024-04-01T09:01:47Z</time>
            </trkpt>
            <trkpt lat="44.417510" lon="7.600310">
                <time>2024-04-01T09:01:48Z</time>
            </trkpt>
            <trkpt lat="44.417380" lon="7.600090">
                <time>2024-04-01T09:01:49Z</time>
            </trkpt>
            <trkpt lat="44.417250" lon="7.599880">
                <time>2024-04-01T09:01:50Z</time>
            </trkpt>
            <trkpt lat="44.417120" lon="7.599670">
                <time>2024-04-01T09:01:51Z</time>
            </trkpt>
            <trkpt lat="44.416990" lon="7.599460">
                <time>2024-04-01T09:01:52Z</time>
            </trkpt>
            <trkpt lat="44.416870" lon="7.599260">
                <time>2024-04-01T09:01:53Z</time>
            </trkpt>
            <trkpt lat="44.416760" lon="7.599070">
                <time>2024-04-01T09:01:54Z</time>
            </trkpt>
            <trkpt lat="44.416640" lon="7.598890">
                <time>2024-04-01T09:01:55Z</time>
            </trkpt>
            <trkpt lat="44.416520" lon="7.598700">
                <time>2024-04-01T09:01:56Z</time>
            </trkpt>
            <trkpt lat="44.416410" lon="7.598520">
                <time>2024-04-01T09:01:57Z</time>
            </trkpt>
            <trkpt lat="44.416300" lon="7.598340">
                <time>2024-04-01T09:01:58Z</time>
            </trkpt>
            <trkpt lat="44.416190" lon="7.598170">
                <time>2024-04-01T09:01:59Z</time>
            </trkpt>
            <trkpt lat="44.416080" lon="7.598010">
                <time>2024-04-01T09:02:00Z</time>
            </trkpt>
            <trkpt lat="44.415990" lon="7.597870">
                <time>2024-04-01T09:02:01Z</time>
            </trkpt>
            <trkpt lat="44.415880" lon="7.597730">
                <time>2024-04-01T09:02:02Z</time>
            </trkpt>
            <trkpt lat="44.415780" lon="7.597620">
                <time>2024-04-01T09:02:03Z</time>
            </trkpt>
            <trkpt lat="44.415680" lon="7.597520">
                <time>2024-04-01T09:02:04Z</time>
            </trkpt>
            <trkpt lat="44.415590" lon="7.597440">
                <time>2024-04-01T09:02:05Z</time>
            </trkpt>
            <trkpt lat="44.415510" lon="7.597340">
                <time>2024-04-01T09:02:06Z</time>
            </trkpt>
            <trkpt lat="44.415460" lon="7.597230">
                <time>2024-04-01T09:02:07Z</time>
            </trkpt>
            <trkpt lat="44.415410" lon="7.597110">
                <time>2024-04-01T09:02:08Z</time>
            </trkpt>
            <trkpt lat="44.415360" lon="7.596990">
                <time>2024-04-01T09:02:09Z</time>
            </trkpt>
            <trkpt lat="44.415330" lon="7.596910">
                <time>2024-04-01T09:02:10Z</time>
            </trkpt>
            <trkpt lat="44.415300" lon="7.596860">
                <time>2024-04-01T09:02:11Z</time>
            </trkpt>
            <trkpt lat="44.415270" lon="7.596810">
                <time>2024-04-01T09:02:12Z</time>
            </trkpt>
            <trkpt lat="44.415240" lon="7.596760">
                <time>2024-04-01T09:02:13Z</time>
            </trkpt>
            <trkpt lat="44.415210" lon="7.596700">
                <time>2024-04-01T09:02:14Z</time>
            </trkpt>
            <trkpt lat="44.415190" lon="7.596620">
                <time>2024-04-01T09:02:15Z</time>
            </trkpt>
            <trkpt lat="44.415170" lon="7.596530">
                <time>2024-04-01T09:02:16Z</time>
            </trkpt>
            <trkpt lat="44.415140" lon="7.596430">
                <time>2024-04-01T09:02:17Z</time>
            </trkpt>
            <trkpt lat="44.415100" lon="7.596330">
                <time>2024-04-01T09:02:18Z</time>
            </trkpt>
            <trkpt lat="44.415060" lon="7.596220">
                <time>2024-04-01T09:02:19Z</time>
            </trkpt>
            <trkpt lat="44.415020" lon="7.596110">
                <time>2024-04-01T09:02:20Z</time>
            </trkpt>
            <trkpt lat="44.414970" lon="7.596010">
                <time>2024-04-01T09:02:21Z</time>
            </trkpt>
            <trkpt lat="44.414930" lon="7.595900">
                <time>2024-04-01T09:02:22Z</time>
            </trkpt>
            <trkpt lat="44.414880" lon="7.595800">
                <time>2024-04-01T09:02:23Z</time>
            </trkpt>
            <trkpt lat="44.414830" lon="7.595700">
                <time>2024-04-01T09:02:24Z</time>
            </trkpt>
            <trkpt lat="44.414790" lon="7.595600">
                <time>2024-04-01T09:02:25Z</time>
            </trkpt>
            <trkpt lat="44.414740" lon="7.595500">
                <time>2024-04-01T09:02:26Z</time>
            </trkpt>
            <trkpt lat="44.414700" lon="7.595400">
                <time>2024-04-01T09:02:27Z</time>
            </trkpt>
            <trkpt lat="44.414660" lon="7.595310">
                <time>2024-04-01T09:02:28Z</time>
            </trkpt>
            <trkpt lat="44.414610" lon="7.595210">
                <time>2024-04-01T09:02:29Z</time>
            </trkpt>
            <trkpt lat="44.414570" lon="7.595100">
                <time>2024-04-01T09:02:30Z</time>
            </trkpt>
            <trkpt lat="44.414520" lon="7.595000">
                <time>2024-04-01T09:02:31Z</time>
            </trkpt>
            <trkpt lat="44.414470" lon="7.594890">
                <time>2024-04-01T09:02:32Z</time>
            </trkpt>
            <trkpt lat="44.414420" lon="7.594780">
                <time>2024-04-01T09:02:33Z</time>
            </trkpt>
            <trkpt lat="44.414370" lon="7.594660">
                <time>2024-04-01T09:02:34Z</time>
            </trkpt>
            <trkpt lat="44.414310" lon="7.594540">
                <time>2024-04-01T09:02:35Z</time>
            </trkpt>
            <trkpt lat="44.414260" lon="7.594410">
                <time>2024-04-01T09:02:36Z</time>
            </trkpt>
            <trkpt lat="44.414190" lon="7.594280">
                <time>2024-04-01T09:02:37Z</time>
            </trkpt>
            <trkpt lat="44.414140" lon="7.594150">
                <time>2024-04-01T09:02:38Z</time>
            </trkpt>
            <trkpt lat="44.414070" lon="7.594010">
                <time>2024-04-01T09:02:39Z</time>
            </trkpt>
            <trkpt lat="44.414010" lon="7.593870">
                <time>2024-04-01T09:02:40Z</time>
            </trkpt>
            <trkpt lat="44.413940" lon="7.593730">
                <time>2024-04-01T09:02:41Z</time>
            </trkpt>
            <trkpt lat="44.413880" lon="7.593590">
                <time>2024-04-01T09:02:42Z</time>
            </trkpt>
            <trkpt lat="44.413820" lon="7.593450">
                <time>2024-04-01T09:02:43Z</time>
            </trkpt>
            <trkpt lat="44.413750" lon="7.593300">
                <time>2024-04-01T09:02:44Z</time>
            </trkpt>
            <trkpt lat="44.413680" lon="7.593150">
                <time>2024-04-01T09:02:45Z</time>
            </trkpt>
            <trkpt lat="44.413610" lon="7.593000">
                <time>2024-04-01T09:02:46Z</time>
            </trkpt>
            <trkpt lat="44.413540" lon="7.592840">
                <time>2024-04-01T09:02:47Z</time>
            </trkpt>
            <trkpt lat="44.413470" lon="7.592670">
                <time>2024-04-01T09:02:48Z</time>
            </trkpt>
            <trkpt lat="44.413400" lon="7.592510">
                <time>2024-04-01T09:02:49Z</time>
            </trkpt>
            <trkpt lat="44.413320" lon="7.592340">
                <time>2024-04-01T09:02:50Z</time>
            </trkpt>
            <trkpt lat="44.413250" lon="7.592180">
                <time>2024-04-01T09:02:51Z</time>
            </trkpt>
            <trkpt lat="44.413180" lon="7.592010">
                <time>2024-04-01T09:02:52Z</time>
            </trkpt>
            <trkpt lat="44.413110" lon="7.591840">
                <time>2024-04-01T09:02:53Z</time>
            </trkpt>
            <trkpt lat="44.413050" lon="7.591670">
                <time>2024-04-01T09:02:54Z</time>
            </trkpt>
            <trkpt lat="44.412990" lon="7.591500">
                <time>2024-04-01T09:02:55Z</time>
            </trkpt>
            <trkpt lat="44.412940" lon="7.591320">
                <time>2024-04-01T09:02:56Z</time>
            </trkpt>
            <trkpt lat="44.412880" lon="7.591140">
                <time>2024-04-01T09:02:57Z</time>
            </trkpt>
            <trkpt lat="44.412830" lon="7.590960">
                <time>2024-04-01T09:02:58Z</time>
            </trkpt>
            <trkpt lat="44.412780" lon="7.590790">
                <time>2024-04-01T09:02:59Z</time>
            </trkpt>
            <trkpt lat="44.412720" lon="7.590620">
                <time>2024-04-01T09:03:00Z</time>
            </trkpt>
            <trkpt lat="44.412650" lon="7.590450">
                <time>2024-04-01T09:03:01Z</time>
            </trkpt>
            <trkpt lat="44.412590" lon="7.590300">
                <time>2024-04-01T09:03:02Z</time>
            </trkpt>
            <trkpt lat="44.412530" lon="7.590150">
                <time>2024-04-01T09:03:03Z</time>
            </trkpt>
            <trkpt lat="44.412470" lon="7.590020">
                <time>2024-04-01T09:03:04Z</time>
            </trkpt>
            <trkpt lat="44.412420" lon="7.589890">
                <time>2024-04-01T09:03:05Z</time>
            </trkpt>
            <trkpt lat="44.412370" lon="7.589760">
                <time>2024-04-01T09:03:06Z</time>
            </trkpt>
            <trkpt lat="44.412310" lon="7.589630">
                <time>2024-04-01T09:03:07Z</time>
            </trkpt>
            <trkpt lat="44.412250" lon="7.589480">
                <time>2024-04-01T09:03:08Z</time>
            </trkpt>
            <trkpt lat="44.412170" lon="7.589320">
                <time>2024-04-01T09:03:09Z</time>
            </trkpt>
            <trkpt lat="44.412100" lon="7.589160">
                <time>2024-04-01T09:03:10Z</time>
            </trkpt>
            <trkpt lat="44.412020" lon="7.589000">
                <time>2024-04-01T09:03:11Z</time>
            </trkpt>
            <trkpt lat="44.411950" lon="7.588840">
                <time>2024-04-01T09:03:12Z</time>
            </trkpt>
            <trkpt lat="44.411870" lon="7.588680">
                <time>2024-04-01T09:03:13Z</time>
            </trkpt>
            <trkpt lat="44.411800" lon="7.588530">
                <time>2024-04-01T09:03:14Z</time>
            </trkpt>
            <trkpt lat="44.411730" lon="7.588390">
                <time>2024-04-01T09:03:15Z</time>
            </trkpt>
            <trkpt lat="44.411660" lon="7.588250">
                <time>2024-04-01T09:03:16Z</time>
            </trkpt>
            <trkpt lat="44.411600" lon="7.588120">
                <time>2024-04-01T09:03:17Z</time>
            </trkpt>
            <trkpt lat="44.411530" lon="7.587990">
                <time>2024-04-01T09:03:18Z</time>
            </trkpt>
            <trkpt lat="44.411450" lon="7.587850">
                <time>2024-04-01T09:03:19Z</time>
            </trkpt>
            <trkpt lat="44.411370" lon="7.587700">
                <time>2024-04-01T09:03:20Z</time>
            </trkpt>
            <trkpt lat="44.411280" lon="7.587540">
                <time>2024-04-01T09:03:21Z</time>
            </trkpt>
            <trkpt lat="44.411200" lon="7.587380">
                <time>2024-04-01T09:03:22Z</time>
            </trkpt>
            <trkpt lat="44.411120" lon="7.587210">
                <time>2024-04-01T09:03:23Z</time>
            </trkpt>
            <trkpt lat="44.411040" lon="7.587040">
                <time>2024-04-01T09:03:24Z</time>
            </trkpt>
            <trkpt lat="44.410960" lon="7.586860">
                <time>2024-04-01T09:03:25Z</time>
            </trkpt>
            <trkpt lat="44.410890" lon="7.586670">
                <time>2024-04-01T09:03:26Z</time>
            </trkpt>
            <trkpt lat="44.410810" lon="7.586470">
                <time>2024-04-01T09:03:27Z</time>
            </trkpt>
            <trkpt lat="44.410740" lon="7.586280">
                <time>2024-04-01T09:03:28Z</time>
            </trkpt>
            <trkpt lat="44.410660" lon="7.586080">
                <time>2024-04-01T09:03:29Z</time>
            </trkpt>
            <trkpt lat="44.410580" lon="7.585890">
                <time>2024-04-01T09:03:30Z</time>
            </trkpt>
            <trkpt lat="44.410500" lon="7.585700">
                <time>2024-04-01T09:03:31Z</time>
            </trkpt>
            <trkpt lat="44.410410" lon="7.585510">
                <time>2024-04-01T09:03:32Z</time>
            </trkpt>
            <trkpt lat="44.410320" lon="7.585330">
                <time>2024-04-01T09:03:33Z</time>
            </trkpt>
            <trkpt lat="44.410220" lon="7.585150">
                <time>2024-04-01T09:03:34Z</time>
            </trkpt>
            <trkpt lat="44.410110" lon="7.584970">
                <time>2024-04-01T09:03:35Z</time>
            </trkpt>
            <trkpt lat="44.410010" lon="7.584810">
                <time>2024-04-01T09:03:36Z</time>
            </trkpt>
            <trkpt lat="44.409910" lon="7.584640">
                <time>2024-04-01T09:03:37Z</time>
            </trkpt>
            <trkpt lat="44.409820" lon="7.584470">
                <time>2024-04-01T09:03:38Z</time>
            </trkpt>
            <trkpt lat="44.409720" lon="7.584300">
                <time>2024-04-01T09:03:39Z</time>
            </trkpt>
            <trkpt lat="44.409630" lon="7.584120">
                <time>2024-04-01T09:03:40Z</time>
            </trkpt>
            <trkpt lat="44.409550" lon="7.583940">
                <time>2024-04-01T09:03:41Z</time>
            </trkpt>
            <trkpt lat="44.409460" lon="7.583760">
                <time>2024-04-01T09:03:42Z</time>
            </trkpt>
            <trkpt lat="44.409390" lon="7.583560">
                <time>2024-04-01T09:03:43Z</time>
            </trkpt>
            <trkpt lat="44.409300" lon="7.583370">
                <time>2024-04-01T09:03:44Z</time>
            </trkpt>
            <trkpt lat="44.409220" lon="7.583170">
                <time>2024-04-01T09:03:45Z</time>
            </trkpt>
            <trkpt lat="44.409140" lon="7.582970">
                <time>2024-04-01T09:03:46Z</time>
            </trkpt>
            <trkpt lat="44.409060" lon="7.582780">
                <time>2024-04-01T09:03:47Z</time>
            </trkpt>
            <trkpt lat="44.408980" lon="7.582580">
                <time>2024-04-01T09:03:48Z</time>
            </trkpt>
            <trkpt lat="44.408900" lon="7.582380">
                <time>2024-04-01T09:03:49Z</time>
            </trkpt>
            <trkpt lat="44.408830" lon="7.582180">
                <time>2024-04-01T09:03:50Z</time>
            </trkpt>
            <trkpt lat="44.408760" lon="7.581990">
                <time>2024-04-01T09:03:51Z</time>
            </trkpt>
            <trkpt lat="44.408700" lon="7.581790">
                <time>2024-04-01T09:03:52Z</time>
            </trkpt>
            <trkpt lat="44.408630" lon="7.581580">
                <time>2024-04-01T09:03:53Z</time>
            </trkpt>
            <trkpt lat="44.408560" lon="7.581380">
                <time>2024-04-01T09:03:54Z</time>
            </trkpt>
            <trkpt lat="44.408490" lon="7.581180">
                <time>2024-04-01T09:03:55Z</time>
            </trkpt>
            <trkpt lat="44.408420" lon="7.580980">
                <time>2024-04-01T09:03:56Z</time>
            </trkpt>
            <trkpt lat="44.408360" lon="7.580780">
                <time>2024-04-01T09:03:57Z</time>
            </trkpt>
            <trkpt lat="44.408290" lon="7.580570">
                <time>2024-04-01T09:03:58Z</time>
            </trkpt>
            <trkpt lat="44.408220" lon="7.580370">
                <time>2024-04-01T09:03:59Z</time>
            </trkpt>
            <trkpt lat="44.408150" lon="7.580160">
                <time>2024-04-01T09:04:00Z</time>
            </trkpt>
            <trkpt lat="44.408080" lon="7.579950">
                <time>2024-04-01T09:04:01Z</time>
            </trkpt>
            <trkpt lat="44.408010" lon="7.579750">
                <time>2024-04-01T09:04:02Z</time>
            </trkpt>
            <trkpt lat="44.407950" lon="7.579530">
                <time>2024-04-01T09:04:03Z</time>
            </trkpt>
            <trkpt lat="44.407880" lon="7.579330">
                <time>2024-04-01T09:04:04Z</time>
            </trkpt>
            <trkpt lat="44.407810" lon="7.579110">
                <time>2024-04-01T09:04:05Z</time>
            </trkpt>
            <trkpt lat="44.407740" lon="7.578910">
                <time>2024-04-01T09:04:06Z</time>
            </trkpt>
            <trkpt lat="44.407680" lon="7.578700">
                <time>2024-04-01T09:04:07Z</time>
            </trkpt>
            <trkpt lat="44.407610" lon="7.578500">
                <time>2024-04-01T09:04:08Z</time>
            </trkpt>
            <trkpt lat="44.407550" lon="7.578300">
                <time>2024-04-01T09:04:09Z</time>
            </trkpt>
            <trkpt lat="44.407490" lon="7.578090">
                <time>2024-04-01T09:04:10Z</time>
            </trkpt>
            <trkpt lat="44.407450" lon="7.577880">
                <time>2024-04-01T09:04:11Z</time>
            </trkpt>
            <trkpt lat="44.407420" lon="7.577650">
                <time>2024-04-01T09:04:12Z</time>
            </trkpt>
            <trkpt lat="44.407420" lon="7.577430">
                <time>2024-04-01T09:04:13Z</time>
            </trkpt>
            <trkpt lat="44.407430" lon="7.577210">
                <time>2024-04-01T09:04:14Z</time>
            </trkpt>
            <trkpt lat="44.407470" lon="7.576980">
                <time>2024-04-01T09:04:15Z</time>
            </trkpt>
            <trkpt lat="44.407530" lon="7.576760">
                <time>2024-04-01T09:04:16Z</time>
            </trkpt>
            <trkpt lat="44.407590" lon="7.576550">
                <time>2024-04-01T09:04:17Z</time>
            </trkpt>
            <trkpt lat="44.407660" lon="7.576330">
                <time>2024-04-01T09:04:18Z</time>
            </trkpt>
            <trkpt lat="44.407720" lon="7.576120">
                <time>2024-04-01T09:04:19Z</time>
            </trkpt>
            <trkpt lat="44.407780" lon="7.575910">
                <time>2024-04-01T09:04:20Z</time>
            </trkpt>
            <trkpt lat="44.407840" lon="7.575710">
                <time>2024-04-01T09:04:21Z</time>
            </trkpt>
            <trkpt lat="44.407900" lon="7.575520">
                <time>2024-04-01T09:04:22Z</time>
            </trkpt>
            <trkpt lat="44.407950" lon="7.575330">
                <time>2024-04-01T09:04:23Z</time>
            </trkpt>
            <trkpt lat="44.408000" lon="7.575150">
                <time>2024-04-01T09:04:24Z</time>
            </trkpt>
            <trkpt lat="44.408040" lon="7.574970">
                <time>2024-04-01T09:04:25Z</time>
            </trkpt>
            <trkpt lat="44.408060" lon="7.574780">
                <time>2024-04-01T09:04:26Z</time>
            </trkpt>
            <trkpt lat="44.408060" lon="7.574590">
                <time>2024-04-01T09:04:27Z</time>
            </trkpt>
            <trkpt lat="44.408040" lon="7.574400">
                <time>2024-04-01T09:04:28Z</time>
            </trkpt>
            <trkpt lat="44.408000" lon="7.574210">
                <time>2024-04-01T09:04:29Z</time>
            </trkpt>
            <trkpt lat="44.407950" lon="7.574020">
                <time>2024-04-01T09:04:30Z</time>
            </trkpt>
            <trkpt lat="44.407880" lon="7.573830">
                <time>2024-04-01T09:04:31Z</time>
            </trkpt>
            <trkpt lat="44.407790" lon="7.573660">
                <time>2024-04-01T09:04:32Z</time>
            </trkpt>
            <trkpt lat="44.407690" lon="7.573510">
                <time>2024-04-01T09:04:33Z</time>
            </trkpt>
            <trkpt lat="44.407580" lon="7.573350">
                <time>2024-04-01T09:04:34Z</time>
            </trkpt>
            <trkpt lat="44.407460" lon="7.573200">
                <time>2024-04-01T09:04:35Z</time>
            </trkpt>
            <trkpt lat="44.407330" lon="7.573040">
                <time>2024-04-01T09:04:36Z</time>
            </trkpt>
            <trkpt lat="44.407200" lon="7.572880">
                <time>2024-04-01T09:04:37Z</time>
            </trkpt>
            <trkpt lat="44.407070" lon="7.572720">
                <time>2024-04-01T09:04:38Z</time>
            </trkpt>
            <trkpt lat="44.406940" lon="7.572560">
                <time>2024-04-01T09:04:39Z</time>
            </trkpt>
            <trkpt lat="44.406800" lon="7.572400">
                <time>2024-04-01T09:04:40Z</time>
            </trkpt>
            <trkpt lat="44.406660" lon="7.572240">
                <time>2024-04-01T09:04:41Z</time>
            </trkpt>
            <trkpt lat="44.406530" lon="7.572090">
                <time>2024-04-01T09:04:42Z</time>
            </trkpt>
            <trkpt lat="44.406390" lon="7.571930">
                <time>2024-04-01T09:04:43Z</time>
            </trkpt>
            <trkpt lat="44.406260" lon="7.571780">
                <time>2024-04-01T09:04:44Z</time>
            </trkpt>
            <trkpt lat="44.406130" lon="7.571640">
                <time>2024-04-01T09:04:45Z</time>
            </trkpt>
            <trkpt lat="44.406000" lon="7.571490">
                <time>2024-04-01T09:04:46Z</time>
            </trkpt>
            <trkpt lat="44.405870" lon="7.571340">
                <time>2024-04-01T09:04:47Z</time>
            </trkpt>
            <trkpt lat="44.405750" lon="7.571180">
                <time>2024-04-01T09:04:48Z</time>
            </trkpt>
            <trkpt lat="44.405640" lon="7.571030">
                <time>2024-04-01T09:04:49Z</time>
            </trkpt>
            <trkpt lat="44.405550" lon="7.570900">
                <time>2024-04-01T09:04:50Z</time>
            </trkpt>
            <trkpt lat="44.405470" lon="7.570790">
                <time>2024-04-01T09:04:51Z</time>
            </trkpt>
            <trkpt lat="44.405390" lon="7.570680">
                <time>2024-04-01T09:04:52Z</time>
            </trkpt>
            <trkpt lat="44.405310" lon="7.570560">
                <time>2024-04-01T09:04:53Z</time>
            </trkpt>
            <trkpt lat="44.405220" lon="7.570440">
                <time>2024-04-01T09:04:54Z</time>
            </trkpt>
            <trkpt lat="44.405120" lon="7.570290">
                <time>2024-04-01T09:04:55Z</time>
            </trkpt>
            <trkpt lat="44.405020" lon="7.570130">
                <time>2024-04-01T09:04:56Z</time>
            </trkpt>
            <trkpt lat="44.404920" lon="7.569950">
                <time>2024-04-01T09:04:57Z</time>
            </trkpt>
            <trkpt lat="44.404820" lon="7.569760">
                <time>2024-04-01T09:04:58Z</time>
            </trkpt>
            <trkpt lat="44.404720" lon="7.569560">
                <time>2024-04-01T09:04:59Z</time>
            </trkpt>
            <trkpt lat="44.404630" lon="7.569350">
                <time>2024-04-01T09:05:00Z</time>
            </trkpt>
            <trkpt lat="44.404540" lon="7.569130">
                <time>2024-04-01T09:05:01Z</time>
            </trkpt>
            <trkpt lat="44.404450" lon="7.568930">
                <time>2024-04-01T09:05:02Z</time>
            </trkpt>
            <trkpt lat="44.404350" lon="7.568730">
                <time>2024-04-01T09:05:03Z</time>
            </trkpt>
            <trkpt lat="44.404240" lon="7.568530">
                <time>2024-04-01T09:05:04Z</time>
            </trkpt>
            <trkpt lat="44.404120" lon="7.568350">
                <time>2024-04-01T09:05:05Z</time>
            </trkpt>
            <trkpt lat="44.403980" lon="7.568190">
                <time>2024-04-01T09:05:06Z</time>
            </trkpt>
            <trkpt lat="44.403830" lon="7.568040">
                <time>2024-04-01T09:05:07Z</time>
            </trkpt>
            <trkpt lat="44.403680" lon="7.567890">
                <time>2024-04-01T09:05:08Z</time>
            </trkpt>
            <trkpt lat="44.403520" lon="7.567770">
                <time>2024-04-01T09:05:09Z</time>
            </trkpt>
            <trkpt lat="44.403360" lon="7.567640">
                <time>2024-04-01T09:05:10Z</time>
            </trkpt>
            <trkpt lat="44.403210" lon="7.567540">
                <time>2024-04-01T09:05:11Z</time>
            </trkpt>
            <trkpt lat="44.403050" lon="7.567450">
                <time>2024-04-01T09:05:12Z</time>
            </trkpt>
            <trkpt lat="44.402900" lon="7.567390">
                <time>2024-04-01T09:05:13Z</time>
            </trkpt>
            <trkpt lat="44.402730" lon="7.567350">
                <time>2024-04-01T09:05:14Z</time>
            </trkpt>
            <trkpt lat="44.402560" lon="7.567330">
                <time>2024-04-01T09:05:15Z</time>
            </trkpt>
            <trkpt lat="44.402390" lon="7.567320">
                <time>2024-04-01T09:05:16Z</time>
            </trkpt>
            <trkpt lat="44.402230" lon="7.567300">
                <time>2024-04-01T09:05:17Z</time>
            </trkpt>
            <trkpt lat="44.402060" lon="7.567260">
                <time>2024-04-01T09:05:18Z</time>
            </trkpt>
            <trkpt lat="44.401890" lon="7.567210">
                <time>2024-04-01T09:05:19Z</time>
            </trkpt>
            <trkpt lat="44.401720" lon="7.567150">
                <time>2024-04-01T09:05:20Z</time>
            </trkpt>
            <trkpt lat="44.401550" lon="7.567080">
                <time>2024-04-01T09:05:21Z</time>
            </trkpt>
            <trkpt lat="44.401370" lon="7.567010">
                <time>2024-04-01T09:05:22Z</time>
            </trkpt>
            <trkpt lat="44.401200" lon="7.566950">
                <time>2024-04-01T09:05:23Z</time>
            </trkpt>
            <trkpt lat="44.401020" lon="7.566900">
                <time>2024-04-01T09:05:24Z</time>
            </trkpt>
            <trkpt lat="44.400840" lon="7.566870">
                <time>2024-04-01T09:05:25Z</time>
            </trkpt>
            <trkpt lat="44.400660" lon="7.566850">
                <time>2024-04-01T09:05:26Z</time>
            </trkpt>
            <trkpt lat="44.400490" lon="7.566840">
                <time>2024-04-01T09:05:27Z</time>
            </trkpt>
            <trkpt lat="44.400320" lon="7.566820">
                <time>2024-04-01T09:05:28Z</time>
            </trkpt>
            <trkpt lat="44.400150" lon="7.566800">
                <time>2024-04-01T09:05:29Z</time>
            </trkpt>
            <trkpt lat="44.399990" lon="7.566790">
                <time>2024-04-01T09:05:30Z</time>
            </trkpt>
            <trkpt lat="44.399850" lon="7.566770">
                <time>2024-04-01T09:05:31Z</time>
            </trkpt>
            <trkpt lat="44.399720" lon="7.566760">
                <time>2024-04-01T09:05:32Z</time>
            </trkpt>
            <trkpt lat="44.399590" lon="7.566740">
                <time>2024-04-01T09:05:33Z</time>
            </trkpt>
            <trkpt lat="44.399470" lon="7.566730">
                <time>2024-04-01T09:05:34Z</time>
            </trkpt>
            <trkpt lat="44.399340" lon="7.566720">
                <time>2024-04-01T09:05:35Z</time>
            </trkpt>
            <trkpt lat="44.399210" lon="7.566700">
                <time>2024-04-01T09:05:36Z</time>
            </trkpt>
            <trkpt lat="44.399060" lon="7.566670">
                <time>2024-04-01T09:05:37Z</time>
            </trkpt>
            <trkpt lat="44.398910" lon="7.566620">
                <time>2024-04-01T09:05:38Z</time>
            </trkpt>
            <trkpt lat="44.398750" lon="7.566560">
                <time>2024-04-01T09:05:39Z</time>
            </trkpt>
            <trkpt lat="44.398590" lon="7.566480">
                <time>2024-04-01T09:05:40Z</time>
            </trkpt>
            <trkpt lat="44.398430" lon="7.566410">
                <time>2024-04-01T09:05:41Z</time>
            </trkpt>
            <trkpt lat="44.398260" lon="7.566330">
                <time>2024-04-01T09:05:42Z</time>
            </trkpt>
            <trkpt lat="44.398090" lon="7.566260">
                <time>2024-04-01T09:05:43Z</time>
            </trkpt>
            <trkpt lat="44.397920" lon="7.566180">
                <time>2024-04-01T09:05:44Z</time>
            </trkpt>
            <trkpt lat="44.397760" lon="7.566110">
                <time>2024-04-01T09:05:45Z</time>
            </trkpt>
            <trkpt lat="44.397610" lon="7.566040">
                <time>2024-04-01T09:05:46Z</time>
            </trkpt>
            <trkpt lat="44.397480" lon="7.565970">
                <time>2024-04-01T09:05:47Z</time>
            </trkpt>
            <trkpt lat="44.397340" lon="7.565910">
                <time>2024-04-01T09:05:48Z</time>
            </trkpt>
            <trkpt lat="44.397190" lon="7.565840">
                <time>2024-04-01T09:05:49Z</time>
            </trkpt>
            <trkpt lat="44.397040" lon="7.565760">
                <time>2024-04-01T09:05:50Z</time>
            </trkpt>
            <trkpt lat="44.396880" lon="7.565700">
                <time>2024-04-01T09:05:51Z</time>
            </trkpt>
            <trkpt lat="44.396720" lon="7.565620">
                <time>2024-04-01T09:05:52Z</time>
            </trkpt>
            <trkpt lat="44.396550" lon="7.565540">
                <time>2024-04-01T09:05:53Z</time>
            </trkpt>
            <trkpt lat="44.396390" lon="7.565470">
                <time>2024-04-01T09:05:54Z</time>
            </trkpt>
            <trkpt lat="44.396230" lon="7.565400">
                <time>2024-04-01T09:05:55Z</time>
            </trkpt>
            <trkpt lat="44.396070" lon="7.565320">
                <time>2024-04-01T09:05:56Z</time>
            </trkpt>
            <trkpt lat="44.395920" lon="7.565250">
                <time>2024-04-01T09:05:57Z</time>
            </trkpt>
            <trkpt lat="44.395780" lon="7.565180">
                <time>2024-04-01T09:05:58Z</time>
            </trkpt>
            <trkpt lat="44.395630" lon="7.565120">
                <time>2024-04-01T09:05:59Z</time>
            </trkpt>
            <trkpt lat="44.395490" lon="7.565050">
                <time>2024-04-01T09:06:00Z</time>
            </trkpt>
            <trkpt lat="44.395350" lon="7.564990">
                <time>2024-04-01T09:06:01Z</time>
            </trkpt>
            <trkpt lat="44.395200" lon="7.564920">
                <time>2024-04-01T09:06:02Z</time>
            </trkpt>
            <trkpt lat="44.395060" lon="7.564850">
                <time>2024-04-01T09:06:03Z</time>
            </trkpt>
            <trkpt lat="44.394930" lon="7.564780">
                <time>2024-04-01T09:06:04Z</time>
            </trkpt>
            <trkpt lat="44.394810" lon="7.564730">
                <time>2024-04-01T09:06:05Z</time>
            </trkpt>
            <trkpt lat="44.394710" lon="7.564680">
                <time>2024-04-01T09:06:06Z</time>
            </trkpt>
            <trkpt lat="44.394590" lon="7.564620">
                <time>2024-04-01T09:06:07Z</time>
            </trkpt>
            <trkpt lat="44.394460" lon="7.564570">
                <time>2024-04-01T09:06:08Z</time>
            </trkpt>
            <trkpt lat="44.394320" lon="7.564510">
                <time>2024-04-01T09:06:09Z</time>
            </trkpt>
            <trkpt lat="44.394180" lon="7.564440">
                <time>2024-04-01T09:06:10Z</time>
            </trkpt>
            <trkpt lat="44.394030" lon="7.564370">
                <time>2024-04-01T09:06:11Z</time>
            </trkpt>
            <trkpt lat="44.393880" lon="7.564300">
                <time>2024-04-01T09:06:12Z</time>
            </trkpt>
            <trkpt lat="44.393740" lon="7.564230">
                <time>2024-04-01T09:06:13Z</time>
            </trkpt>
            <trkpt lat="44.393590" lon="7.564160">
                <time>2024-04-01T09:06:14Z</time>
            </trkpt>
            <trkpt lat="44.393440" lon="7.564090">
                <time>2024-04-01T09:06:15Z</time>
            </trkpt>
            <trkpt lat="44.393300" lon="7.564020">
                <time>2024-04-01T09:06:16Z</time>
            </trkpt>
            <trkpt lat="44.393170" lon="7.563950">
                <time>2024-04-01T09:06:17Z</time>
            </trkpt>
            <trkpt lat="44.393030" lon="7.563890">
                <time>2024-04-01T09:06:18Z</time>
            </trkpt>
            <trkpt lat="44.392890" lon="7.563830">
                <time>2024-04-01T09:06:19Z</time>
            </trkpt>
            <trkpt lat="44.392760" lon="7.563770">
                <time>2024-04-01T09:06:20Z</time>
            </trkpt>
            <trkpt lat="44.392630" lon="7.563710">
                <time>2024-04-01T09:06:21Z</time>
            </trkpt>
            <trkpt lat="44.392520" lon="7.563660">
                <time>2024-04-01T09:06:22Z</time>
            </trkpt>
            <trkpt lat="44.392410" lon="7.563620">
                <time>2024-04-01T09:06:23Z</time>
            </trkpt>
            <trkpt lat="44.392310" lon="7.563570">
                <time>2024-04-01T09:06:24Z</time>
            </trkpt>
            <trkpt lat="44.392220" lon="7.563530">
                <time>2024-04-01T09:06:25Z</time>
            </trkpt>
            <trkpt lat="44.392130" lon="7.563490">
                <time>2024-04-01T09:06:26Z</time>
            </trkpt>
            <trkpt lat="44.392050" lon="7.563440">
                <time>2024-04-01T09:06:27Z</time>
            </trkpt>
            <trkpt lat="44.391960" lon="7.563410">
                <time>2024-04-01T09:06:28Z</time>
            </trkpt>
            <trkpt lat="44.391890" lon="7.563370">
                <time>2024-04-01T09:06:29Z</time>
            </trkpt>
            <trkpt lat="44.391810" lon="7.563330">
                <time>2024-04-01T09:06:30Z</time>
            </trkpt>
            <trkpt lat="44.391750" lon="7.563300">
                <time>2024-04-01T09:06:31Z</time>
            </trkpt>
            <trkpt lat="44.391710" lon="7.563280">
                <time>2024-04-01T09:06:32Z</time>
            </trkpt>
            <trkpt lat="44.391690" lon="7.563260">
                <time>2024-04-01T09:06:33Z</time>
            </trkpt>
            <trkpt lat="44.391660" lon="7.563250">
                <time>2024-04-01T09:06:34Z</time>
            </trkpt>
            <trkpt lat="44.391620" lon="7.563230">
                <time>2024-04-01T09:06:35Z</time>
            </trkpt>
            <trkpt lat="44.391570" lon="7.563200">
                <time>2024-04-01T09:06:36Z</time>
            </trkpt>
            <trkpt lat="44.391520" lon="7.563200">
                <time>2024-04-01T09:06:37Z</time>
            </trkpt>
            <trkpt lat="44.391480" lon="7.563220">
                <time>2024-04-01T09:06:38Z</time>
            </trkpt>
            <trkpt lat="44.391450" lon="7.563270">
                <time>2024-04-01T09:06:39Z</time>
            </trkpt>
            <trkpt lat="44.391430" lon="7.563350">
                <time>2024-04-01T09:06:40Z</time>
            </trkpt>
            <trkpt lat="44.391420" lon="7.563450">
                <time>2024-04-01T09:06:41Z</time>
            </trkpt>
            <trkpt lat="44.391410" lon="7.563560">
                <time>2024-04-01T09:06:42Z</time>
            </trkpt>
            <trkpt lat="44.391410" lon="7.563690">
                <time>2024-04-01T09:06:43Z</time>
            </trkpt>
            <trkpt lat="44.391410" lon="7.563840">
                <time>2024-04-01T09:06:44Z</time>
            </trkpt>
            <trkpt lat="44.391400" lon="7.563990">
                <time>2024-04-01T09:06:45Z</time>
            </trkpt>
            <trkpt lat="44.391400" lon="7.564140">
                <time>2024-04-01T09:06:46Z</time>
            </trkpt>
            <trkpt lat="44.391390" lon="7.564290">
                <time>2024-04-01T09:06:47Z</time>
            </trkpt>
            <trkpt lat="44.391390" lon="7.564420">
                <time>2024-04-01T09:06:48Z</time>
            </trkpt>
            <trkpt lat="44.391390" lon="7.564550">
                <time>2024-04-01T09:06:49Z</time>
            </trkpt>
            <trkpt lat="44.391390" lon="7.564660">
                <time>2024-04-01T09:06:50Z</time>
            </trkpt>
            <trkpt lat="44.391390" lon="7.564760">
                <time>2024-04-01T09:06:51Z</time>
            </trkpt>
            <trkpt lat="44.391400" lon="7.564820">
                <time>2024-04-01T09:06:52Z</time>
            </trkpt>
            <trkpt lat="44.391430" lon="7.564860">
                <time>2024-04-01T09:06:53Z</time>
            </trkpt>
            <trkpt lat="44.391450" lon="7.564880">
                <time>2024-04-01T09:06:54Z</time>
            </trkpt>
            <trkpt lat="44.391480" lon="7.564890">
                <time>2024-04-01T09:06:55Z</time>
            </trkpt>
            <trkpt lat="44.391520" lon="7.564890">
                <time>2024-04-01T09:06:56Z</time>
            </trkpt>
            <trkpt lat="44.391560" lon="7.564890">
                <time>2024-04-01T09:06:57Z</time>
            </trkpt>
            <trkpt lat="44.391600" lon="7.564900">
                <time>2024-04-01T09:06:58Z</time>
            </trkpt>
            <trkpt lat="44.391630" lon="7.564920">
                <time>2024-04-01T09:06:59Z</time>
            </trkpt>
            <trkpt lat="44.391660" lon="7.564950">
                <time>2024-04-01T09:07:00Z</time>
            </trkpt>
            <trkpt lat="44.391670" lon="7.565000">
                <time>2024-04-01T09:07:01Z</time>
            </trkpt>
            <trkpt lat="44.391690" lon="7.565050">
                <time>2024-04-01T09:07:02Z</time>
            </trkpt>
            <trkpt lat="44.391680" lon="7.565110">
                <time>2024-04-01T09:07:03Z</time>
            </trkpt>
            <trkpt lat="44.391680" lon="7.565170">
                <time>2024-04-01T09:07:04Z</time>
            </trkpt>
            <trkpt lat="44.391670" lon="7.565210">
                <time>2024-04-01T09:07:05Z</time>
            </trkpt>
            <trkpt lat="44.391670" lon="7.565250">
                <time>2024-04-01T09:07:06Z</time>
            </trkpt>
            <trkpt lat="44.391660" lon="7.565260">
                <time>2024-04-01T09:07:07Z</time>
            </trkpt>
            <trkpt lat="44.391660" lon="7.565250">
                <time>2024-04-01T09:07:08Z</time>
            </trkpt>
            <trkpt lat="44.391650" lon="7.565250">
                <time>2024-04-01T09:07:09Z</time>
            </trkpt>
            <trkpt lat="44.391650" lon="7.565250">
                <time>2024-04-01T09:07:10Z</time>
            </trkpt>
            <trkpt lat="44.391650" lon="7.565250">
                <time>2024-04-01T09:07:11Z</time>
            </trkpt>
            <trkpt lat="44.391650" lon="7.565250">
                <time>2024-04-01T09:07:12Z</time>
            </trkpt>
            <trkpt lat="44.391650" lon="7.565250">
                <time>2024-04-01T09:07:13Z</time>
            </trkpt>
            <trkpt lat="44.391650" lon="7.565250">
                <time>2024-04-01T09:07:14Z</time>
            </trkpt>
            <trkpt lat="44.391650" lon="7.565260">
                <time>2024-04-01T09:07:15Z</time>
            </trkpt>
            <trkpt lat="44.391660" lon="7.565260">
                <time>2024-04-01T09:07:16Z</time>
            </trkpt>
            <trkpt lat="44.391660" lon="7.565270">
                <time>2024-04-01T09:07:17Z</time>
            </trkpt>
            <trkpt lat="44.391660" lon="7.565270">
                <time>2024-04-01T09:07:18Z</time>
            </trkpt>
            <trkpt lat="44.391660" lon="7.565270">
                <time>2024-04-01T09:07:19Z</time>
            </trkpt>
            <trkpt lat="44.391660" lon="7.565270">
                <time>2024-04-01T09:07:20Z</time>
            </trkpt>
            <trkpt lat="44.391660" lon="7.565270">
                <time>2024-04-01T09:07:21Z</time>
            </trkpt>
            <trkpt lat="44.391660" lon="7.565260">
                <time>2024-04-01T09:07:22Z</time>
            </trkpt>
            <trkpt lat="44.391660" lon="7.565270">
                <time>2024-04-01T09:07:23Z</time>
            </trkpt>
            <trkpt lat="44.391660" lon="7.565270">
                <time>2024-04-01T09:07:24Z</time>
            </trkpt>
            <trkpt lat="44.391660" lon="7.565270">
                <time>2024-04-01T09:07:25Z</time>
            </trkpt>
            <trkpt lat="44.391660" lon="7.565270">
                <time>2024-04-01T09:07:26Z</time>
            </trkpt>
            <trkpt lat="44.391660" lon="7.565270">
                <time>2024-04-01T09:07:27Z</time>
            </trkpt>
            <trkpt lat="44.391660" lon="7.565270">
                <time>2024-04-01T09:07:28Z</time>
            </trkpt>
            <trkpt lat="44.391660" lon="7.565270">
                <time>2024-04-01T09:07:29Z</time>
            </trkpt>
            <trkpt lat="44.391660" lon="7.565270">
                <time>2024-04-01T09:07:30Z</time>
            </trkpt>
            <trkpt lat="44.391660" lon="7.565270">
                <time>2024-04-01T09:07:31Z</time>
            </trkpt>
            <trkpt lat="44.391660" lon="7.565270">
                <time>2024-04-01T09:07:32Z</time>
            </trkpt>
            <trkpt lat="44.391660" lon="7.565270">
                <time>2024-04-01T09:07:33Z</time>
            </trkpt>
            <trkpt lat="44.391660" lon="7.565270">
                <time>2024-04-01T09:07:34Z</time>
            </trkpt>
            <trkpt lat="44.391660" lon="7.565270">
                <time>2024-04-01T09:07:35Z</time>
            </trkpt>
            <trkpt lat="44.391660" lon="7.565270">
                <time>2024-04-01T09:07:36Z</time>
            </trkpt>
            <trkpt lat="44.391660" lon="7.565270">
                <time>2024-04-01T09:07:37Z</time>
            </trkpt>
            <trkpt lat="44.391660" lon="7.565270">
                <time>2024-04-01T09:07:38Z</time>
            </trkpt>
            <trkpt lat="44.391660" lon="7.565270">
                <time>2024-04-01T09:07:39Z</time>
            </trkpt>
            <trkpt lat="44.391660" lon="7.565270">
                <time>2024-04-01T09:07:40Z</time>
            </trkpt>
            <trkpt lat="44.391660" lon="7.565270">
                <time>2024-04-01T09:07:41Z</time>
            </trkpt>
            <trkpt lat="44.391660" lon="7.565270">
                <time>2024-04-01T09:07:42Z</time>
            </trkpt>
            <trkpt lat="44.391660" lon="7.565270">
                <time>2024-04-01T09:07:43Z</time>
            </trkpt>
            <trkpt lat="44.391660" lon="7.565270">
                <time>2024-04-01T09:07:44Z</time>
            </trkpt>
            <trkpt lat="44.391660" lon="7.565270">
                <time>2024-04-01T09:07:45Z</time>
            </trkpt>
            <trkpt lat="44.391660" lon="7.565270">
                <time>2024-04-01T09:07:46Z</time>
            </trkpt>
            <trkpt lat="44.391660" lon="7.565270">
                <time>2024-04-01T09:07:47Z</time>
            </trkpt>
            <trkpt lat="44.391660" lon="7.565270">
                <time>2024-04-01T09:07:48Z</time>
            </trkpt>
            <trkpt lat="44.391660" lon="7.565270">
                <time>2024-04-01T09:07:49Z</time>
            </trkpt>
            <trkpt lat="44.391660" lon="7.565270">
                <time>2024-04-01T09:07:50Z</time>
            </trkpt>
            <trkpt lat="44.391660" lon="7.565270">
                <time>2024-04-01T09:07:51Z</time>
            </trkpt>
            <trkpt lat="44.391660" lon="7.565270">
                <time>2024-04-01T09:07:52Z</time>
            </trkpt>
            <trkpt lat="44.391660" lon="7.565270">
                <time>2024-04-01T09:07:53Z</time>
            </trkpt>
        </trkseg>
    </trk>
</gpx>
